<?xml version="1.0" encoding="UTF-8" standalone="no" ?>
<gpx xmlns="http://www.topografix.com/GPX/1/1" xmlns:xsi="http://www.w3.org/2001/XMLSchema-instance" xsi:schemaLocation="http://www.topografix.com/GPX/1/1 http://www.topografix.com/GPX/1/1/gpx.xsd" version="1.1" creator="VisuGPX - https://www.visugpx.com">
  <metadata>
    <name>Randonnée du Smokkelaar (The Keybones)55 km</name>
    <desc><![CDATA[rekkem/ wervicq sud/linselles/ roncq/halluin /neuville en ferrain]]></desc>
  </metadata>
  <trk>
    <name><![CDATA[REKKEM   5 12:44:14]]></name>
    <trkseg>
      <trkpt lat="50.74917" lon="3.16057">
        <ele>45.8</ele>
        <time>2015-03-08T07:48:34Z</time>
      </trkpt>
      <trkpt lat="50.74939" lon="3.16061">
        <ele>40.99</ele>
        <time>2015-03-08T07:48:53Z</time>
      </trkpt>
      <trkpt lat="50.74933" lon="3.16063">
        <ele>36.67</ele>
        <time>2015-03-08T07:49:08Z</time>
      </trkpt>
      <trkpt lat="50.74931" lon="3.16068">
        <ele>35.23</ele>
        <time>2015-03-08T07:49:12Z</time>
      </trkpt>
      <trkpt lat="50.74927" lon="3.16082">
        <ele>35.23</ele>
        <time>2015-03-08T07:49:17Z</time>
      </trkpt>
      <trkpt lat="50.74923" lon="3.16079">
        <ele>35.23</ele>
        <time>2015-03-08T07:49:22Z</time>
      </trkpt>
      <trkpt lat="50.74926" lon="3.16073">
        <ele>34.74</ele>
        <time>2015-03-08T07:49:25Z</time>
      </trkpt>
      <trkpt lat="50.74935" lon="3.16049">
        <ele>32.82</ele>
        <time>2015-03-08T07:49:33Z</time>
      </trkpt>
      <trkpt lat="50.74936" lon="3.16045">
        <ele>32.82</ele>
        <time>2015-03-08T07:49:34Z</time>
      </trkpt>
      <trkpt lat="50.74946" lon="3.16014">
        <ele>32.82</ele>
        <time>2015-03-08T07:49:41Z</time>
      </trkpt>
      <trkpt lat="50.7496" lon="3.15972">
        <ele>31.86</ele>
        <time>2015-03-08T07:49:49Z</time>
      </trkpt>
      <trkpt lat="50.74975" lon="3.15934">
        <ele>30.9</ele>
        <time>2015-03-08T07:49:57Z</time>
      </trkpt>
      <trkpt lat="50.74978" lon="3.1593">
        <ele>30.9</ele>
        <time>2015-03-08T07:49:58Z</time>
      </trkpt>
      <trkpt lat="50.74988" lon="3.15933">
        <ele>30.9</ele>
        <time>2015-03-08T07:50:01Z</time>
      </trkpt>
      <trkpt lat="50.74991" lon="3.15938">
        <ele>30.42</ele>
        <time>2015-03-08T07:50:02Z</time>
      </trkpt>
      <trkpt lat="50.74993" lon="3.15944">
        <ele>30.42</ele>
        <time>2015-03-08T07:50:03Z</time>
      </trkpt>
      <trkpt lat="50.75016" lon="3.16005">
        <ele>29.94</ele>
        <time>2015-03-08T07:50:12Z</time>
      </trkpt>
      <trkpt lat="50.75027" lon="3.16033">
        <ele>30.42</ele>
        <time>2015-03-08T07:50:16Z</time>
      </trkpt>
      <trkpt lat="50.75032" lon="3.16038">
        <ele>29.94</ele>
        <time>2015-03-08T07:50:17Z</time>
      </trkpt>
      <trkpt lat="50.75037" lon="3.1604">
        <ele>29.94</ele>
        <time>2015-03-08T07:50:18Z</time>
      </trkpt>
      <trkpt lat="50.75042" lon="3.16038">
        <ele>29.94</ele>
        <time>2015-03-08T07:50:19Z</time>
      </trkpt>
      <trkpt lat="50.75047" lon="3.16035">
        <ele>29.94</ele>
        <time>2015-03-08T07:50:20Z</time>
      </trkpt>
      <trkpt lat="50.75053" lon="3.1603">
        <ele>29.46</ele>
        <time>2015-03-08T07:50:21Z</time>
      </trkpt>
      <trkpt lat="50.75092" lon="3.15999">
        <ele>28.98</ele>
        <time>2015-03-08T07:50:28Z</time>
      </trkpt>
      <trkpt lat="50.75098" lon="3.15998">
        <ele>28.98</ele>
        <time>2015-03-08T07:50:29Z</time>
      </trkpt>
      <trkpt lat="50.75104" lon="3.15998">
        <ele>28.5</ele>
        <time>2015-03-08T07:50:30Z</time>
      </trkpt>
      <trkpt lat="50.7511" lon="3.15998">
        <ele>28.5</ele>
        <time>2015-03-08T07:50:31Z</time>
      </trkpt>
      <trkpt lat="50.75117" lon="3.15997">
        <ele>28.5</ele>
        <time>2015-03-08T07:50:32Z</time>
      </trkpt>
      <trkpt lat="50.75123" lon="3.15995">
        <ele>28.5</ele>
        <time>2015-03-08T07:50:33Z</time>
      </trkpt>
      <trkpt lat="50.75129" lon="3.15992">
        <ele>28.5</ele>
        <time>2015-03-08T07:50:34Z</time>
      </trkpt>
      <trkpt lat="50.75134" lon="3.15987">
        <ele>28.5</ele>
        <time>2015-03-08T07:50:35Z</time>
      </trkpt>
      <trkpt lat="50.75139" lon="3.15981">
        <ele>28.5</ele>
        <time>2015-03-08T07:50:36Z</time>
      </trkpt>
      <trkpt lat="50.75181" lon="3.15944">
        <ele>27.05</ele>
        <time>2015-03-08T07:50:44Z</time>
      </trkpt>
      <trkpt lat="50.75186" lon="3.15941">
        <ele>27.05</ele>
        <time>2015-03-08T07:50:45Z</time>
      </trkpt>
      <trkpt lat="50.75191" lon="3.15941">
        <ele>26.57</ele>
        <time>2015-03-08T07:50:46Z</time>
      </trkpt>
      <trkpt lat="50.75195" lon="3.15944">
        <ele>26.57</ele>
        <time>2015-03-08T07:50:47Z</time>
      </trkpt>
      <trkpt lat="50.75198" lon="3.15951">
        <ele>26.09</ele>
        <time>2015-03-08T07:50:48Z</time>
      </trkpt>
      <trkpt lat="50.75201" lon="3.15958">
        <ele>26.09</ele>
        <time>2015-03-08T07:50:49Z</time>
      </trkpt>
      <trkpt lat="50.75204" lon="3.15966">
        <ele>25.61</ele>
        <time>2015-03-08T07:50:50Z</time>
      </trkpt>
      <trkpt lat="50.75208" lon="3.1597">
        <ele>25.61</ele>
        <time>2015-03-08T07:50:51Z</time>
      </trkpt>
      <trkpt lat="50.75214" lon="3.15971">
        <ele>25.13</ele>
        <time>2015-03-08T07:50:52Z</time>
      </trkpt>
      <trkpt lat="50.7522" lon="3.1597">
        <ele>25.13</ele>
        <time>2015-03-08T07:50:53Z</time>
      </trkpt>
      <trkpt lat="50.75226" lon="3.15966">
        <ele>25.13</ele>
        <time>2015-03-08T07:50:54Z</time>
      </trkpt>
      <trkpt lat="50.75232" lon="3.15961">
        <ele>25.61</ele>
        <time>2015-03-08T07:50:55Z</time>
      </trkpt>
      <trkpt lat="50.75237" lon="3.15956">
        <ele>25.61</ele>
        <time>2015-03-08T07:50:56Z</time>
      </trkpt>
      <trkpt lat="50.75296" lon="3.15902">
        <ele>24.17</ele>
        <time>2015-03-08T07:51:06Z</time>
      </trkpt>
      <trkpt lat="50.75331" lon="3.15867">
        <ele>24.17</ele>
        <time>2015-03-08T07:51:12Z</time>
      </trkpt>
      <trkpt lat="50.75335" lon="3.15863">
        <ele>24.65</ele>
        <time>2015-03-08T07:51:14Z</time>
      </trkpt>
      <trkpt lat="50.75336" lon="3.1586">
        <ele>25.13</ele>
        <time>2015-03-08T07:51:19Z</time>
      </trkpt>
      <trkpt lat="50.75337" lon="3.1586">
        <ele>25.13</ele>
        <time>2015-03-08T07:51:20Z</time>
      </trkpt>
      <trkpt lat="50.75339" lon="3.15859">
        <ele>25.13</ele>
        <time>2015-03-08T07:51:21Z</time>
      </trkpt>
      <trkpt lat="50.75351" lon="3.15849">
        <ele>26.09</ele>
        <time>2015-03-08T07:51:26Z</time>
      </trkpt>
      <trkpt lat="50.75356" lon="3.15845">
        <ele>25.61</ele>
        <time>2015-03-08T07:51:31Z</time>
      </trkpt>
      <trkpt lat="50.75356" lon="3.15844">
        <ele>26.09</ele>
        <time>2015-03-08T07:51:39Z</time>
      </trkpt>
      <trkpt lat="50.7536" lon="3.15836">
        <ele>27.05</ele>
        <time>2015-03-08T07:51:45Z</time>
      </trkpt>
      <trkpt lat="50.75367" lon="3.15818">
        <ele>27.53</ele>
        <time>2015-03-08T07:51:52Z</time>
      </trkpt>
      <trkpt lat="50.75374" lon="3.15799">
        <ele>28.02</ele>
        <time>2015-03-08T07:51:59Z</time>
      </trkpt>
      <trkpt lat="50.75382" lon="3.15775">
        <ele>28.02</ele>
        <time>2015-03-08T07:52:05Z</time>
      </trkpt>
      <trkpt lat="50.75393" lon="3.15744">
        <ele>28.02</ele>
        <time>2015-03-08T07:52:10Z</time>
      </trkpt>
      <trkpt lat="50.75396" lon="3.15738">
        <ele>27.53</ele>
        <time>2015-03-08T07:52:11Z</time>
      </trkpt>
      <trkpt lat="50.75415" lon="3.15696">
        <ele>26.57</ele>
        <time>2015-03-08T07:52:17Z</time>
      </trkpt>
      <trkpt lat="50.75419" lon="3.15691">
        <ele>26.09</ele>
        <time>2015-03-08T07:52:18Z</time>
      </trkpt>
      <trkpt lat="50.75423" lon="3.15686">
        <ele>26.09</ele>
        <time>2015-03-08T07:52:19Z</time>
      </trkpt>
      <trkpt lat="50.75428" lon="3.15683">
        <ele>26.09</ele>
        <time>2015-03-08T07:52:20Z</time>
      </trkpt>
      <trkpt lat="50.75434" lon="3.15681">
        <ele>26.09</ele>
        <time>2015-03-08T07:52:21Z</time>
      </trkpt>
      <trkpt lat="50.7544" lon="3.15682">
        <ele>25.61</ele>
        <time>2015-03-08T07:52:22Z</time>
      </trkpt>
      <trkpt lat="50.75446" lon="3.15686">
        <ele>25.13</ele>
        <time>2015-03-08T07:52:23Z</time>
      </trkpt>
      <trkpt lat="50.75452" lon="3.15692">
        <ele>25.13</ele>
        <time>2015-03-08T07:52:24Z</time>
      </trkpt>
      <trkpt lat="50.7549" lon="3.15728">
        <ele>25.61</ele>
        <time>2015-03-08T07:52:30Z</time>
      </trkpt>
      <trkpt lat="50.75526" lon="3.15778">
        <ele>26.57</ele>
        <time>2015-03-08T07:52:37Z</time>
      </trkpt>
      <trkpt lat="50.75557" lon="3.15845">
        <ele>27.53</ele>
        <time>2015-03-08T07:52:45Z</time>
      </trkpt>
      <trkpt lat="50.75579" lon="3.15928">
        <ele>28.98</ele>
        <time>2015-03-08T07:52:54Z</time>
      </trkpt>
      <trkpt lat="50.75601" lon="3.16019">
        <ele>29.46</ele>
        <time>2015-03-08T07:53:04Z</time>
      </trkpt>
      <trkpt lat="50.75625" lon="3.16125">
        <ele>30.9</ele>
        <time>2015-03-08T07:53:16Z</time>
      </trkpt>
      <trkpt lat="50.7564" lon="3.1619">
        <ele>31.38</ele>
        <time>2015-03-08T07:53:24Z</time>
      </trkpt>
      <trkpt lat="50.75655" lon="3.16256">
        <ele>32.82</ele>
        <time>2015-03-08T07:53:34Z</time>
      </trkpt>
      <trkpt lat="50.7566" lon="3.16275">
        <ele>33.3</ele>
        <time>2015-03-08T07:53:40Z</time>
      </trkpt>
      <trkpt lat="50.7566" lon="3.16279">
        <ele>33.78</ele>
        <time>2015-03-08T07:53:41Z</time>
      </trkpt>
      <trkpt lat="50.75664" lon="3.16297">
        <ele>33.78</ele>
        <time>2015-03-08T07:53:44Z</time>
      </trkpt>
      <trkpt lat="50.7567" lon="3.16321">
        <ele>34.26</ele>
        <time>2015-03-08T07:53:48Z</time>
      </trkpt>
      <trkpt lat="50.75679" lon="3.16344">
        <ele>35.23</ele>
        <time>2015-03-08T07:53:52Z</time>
      </trkpt>
      <trkpt lat="50.75685" lon="3.16362">
        <ele>35.71</ele>
        <time>2015-03-08T07:53:55Z</time>
      </trkpt>
      <trkpt lat="50.75686" lon="3.16368">
        <ele>35.71</ele>
        <time>2015-03-08T07:53:56Z</time>
      </trkpt>
      <trkpt lat="50.75703" lon="3.16425">
        <ele>36.67</ele>
        <time>2015-03-08T07:54:05Z</time>
      </trkpt>
      <trkpt lat="50.75724" lon="3.16488">
        <ele>39.07</ele>
        <time>2015-03-08T07:54:15Z</time>
      </trkpt>
      <trkpt lat="50.75725" lon="3.16495">
        <ele>39.07</ele>
        <time>2015-03-08T07:54:16Z</time>
      </trkpt>
      <trkpt lat="50.75726" lon="3.16501">
        <ele>39.55</ele>
        <time>2015-03-08T07:54:17Z</time>
      </trkpt>
      <trkpt lat="50.75728" lon="3.16506">
        <ele>39.55</ele>
        <time>2015-03-08T07:54:18Z</time>
      </trkpt>
      <trkpt lat="50.7573" lon="3.16512">
        <ele>39.55</ele>
        <time>2015-03-08T07:54:19Z</time>
      </trkpt>
      <trkpt lat="50.75732" lon="3.16517">
        <ele>39.55</ele>
        <time>2015-03-08T07:54:20Z</time>
      </trkpt>
      <trkpt lat="50.75747" lon="3.16568">
        <ele>40.99</ele>
        <time>2015-03-08T07:54:29Z</time>
      </trkpt>
      <trkpt lat="50.7576" lon="3.16619">
        <ele>41.95</ele>
        <time>2015-03-08T07:54:38Z</time>
      </trkpt>
      <trkpt lat="50.75772" lon="3.16664">
        <ele>42.92</ele>
        <time>2015-03-08T07:54:46Z</time>
      </trkpt>
      <trkpt lat="50.75781" lon="3.16707">
        <ele>44.36</ele>
        <time>2015-03-08T07:54:54Z</time>
      </trkpt>
      <trkpt lat="50.75783" lon="3.16755">
        <ele>45.32</ele>
        <time>2015-03-08T07:55:02Z</time>
      </trkpt>
      <trkpt lat="50.75786" lon="3.16797">
        <ele>45.32</ele>
        <time>2015-03-08T07:55:09Z</time>
      </trkpt>
      <trkpt lat="50.75794" lon="3.16826">
        <ele>46.76</ele>
        <time>2015-03-08T07:55:15Z</time>
      </trkpt>
      <trkpt lat="50.75798" lon="3.16827">
        <ele>46.76</ele>
        <time>2015-03-08T07:55:16Z</time>
      </trkpt>
      <trkpt lat="50.75801" lon="3.16826">
        <ele>46.76</ele>
        <time>2015-03-08T07:55:17Z</time>
      </trkpt>
      <trkpt lat="50.75804" lon="3.16825">
        <ele>46.76</ele>
        <time>2015-03-08T07:55:18Z</time>
      </trkpt>
      <trkpt lat="50.75807" lon="3.16822">
        <ele>46.76</ele>
        <time>2015-03-08T07:55:19Z</time>
      </trkpt>
      <trkpt lat="50.7581" lon="3.1682">
        <ele>46.28</ele>
        <time>2015-03-08T07:55:20Z</time>
      </trkpt>
      <trkpt lat="50.75834" lon="3.16801">
        <ele>46.76</ele>
        <time>2015-03-08T07:55:27Z</time>
      </trkpt>
      <trkpt lat="50.75873" lon="3.1677">
        <ele>47.72</ele>
        <time>2015-03-08T07:55:37Z</time>
      </trkpt>
      <trkpt lat="50.75881" lon="3.16764">
        <ele>47.72</ele>
        <time>2015-03-08T07:55:39Z</time>
      </trkpt>
      <trkpt lat="50.75922" lon="3.16738">
        <ele>47.24</ele>
        <time>2015-03-08T07:55:48Z</time>
      </trkpt>
      <trkpt lat="50.75958" lon="3.16708">
        <ele>45.8</ele>
        <time>2015-03-08T07:55:56Z</time>
      </trkpt>
      <trkpt lat="50.75994" lon="3.16674">
        <ele>45.8</ele>
        <time>2015-03-08T07:56:03Z</time>
      </trkpt>
      <trkpt lat="50.76024" lon="3.1665">
        <ele>44.84</ele>
        <time>2015-03-08T07:56:08Z</time>
      </trkpt>
      <trkpt lat="50.76031" lon="3.16648">
        <ele>45.32</ele>
        <time>2015-03-08T07:56:09Z</time>
      </trkpt>
      <trkpt lat="50.76038" lon="3.16647">
        <ele>44.84</ele>
        <time>2015-03-08T07:56:10Z</time>
      </trkpt>
      <trkpt lat="50.76044" lon="3.16649">
        <ele>44.84</ele>
        <time>2015-03-08T07:56:11Z</time>
      </trkpt>
      <trkpt lat="50.7605" lon="3.16652">
        <ele>44.84</ele>
        <time>2015-03-08T07:56:12Z</time>
      </trkpt>
      <trkpt lat="50.76096" lon="3.16671">
        <ele>44.36</ele>
        <time>2015-03-08T07:56:19Z</time>
      </trkpt>
      <trkpt lat="50.76156" lon="3.16683">
        <ele>42.92</ele>
        <time>2015-03-08T07:56:28Z</time>
      </trkpt>
      <trkpt lat="50.76203" lon="3.16676">
        <ele>41.95</ele>
        <time>2015-03-08T07:56:35Z</time>
      </trkpt>
      <trkpt lat="50.76229" lon="3.1666">
        <ele>40.99</ele>
        <time>2015-03-08T07:56:39Z</time>
      </trkpt>
      <trkpt lat="50.76235" lon="3.16654">
        <ele>40.51</ele>
        <time>2015-03-08T07:56:40Z</time>
      </trkpt>
      <trkpt lat="50.76276" lon="3.16603">
        <ele>38.59</ele>
        <time>2015-03-08T07:56:47Z</time>
      </trkpt>
      <trkpt lat="50.7628" lon="3.16594">
        <ele>38.59</ele>
        <time>2015-03-08T07:56:48Z</time>
      </trkpt>
      <trkpt lat="50.76283" lon="3.16584">
        <ele>39.07</ele>
        <time>2015-03-08T07:56:49Z</time>
      </trkpt>
      <trkpt lat="50.76285" lon="3.16574">
        <ele>39.07</ele>
        <time>2015-03-08T07:56:50Z</time>
      </trkpt>
      <trkpt lat="50.76286" lon="3.16563">
        <ele>39.07</ele>
        <time>2015-03-08T07:56:51Z</time>
      </trkpt>
      <trkpt lat="50.76289" lon="3.16543">
        <ele>39.07</ele>
        <time>2015-03-08T07:56:53Z</time>
      </trkpt>
      <trkpt lat="50.76294" lon="3.16513">
        <ele>39.55</ele>
        <time>2015-03-08T07:56:56Z</time>
      </trkpt>
      <trkpt lat="50.76297" lon="3.16504">
        <ele>40.03</ele>
        <time>2015-03-08T07:56:57Z</time>
      </trkpt>
      <trkpt lat="50.763" lon="3.16496">
        <ele>40.51</ele>
        <time>2015-03-08T07:56:58Z</time>
      </trkpt>
      <trkpt lat="50.76304" lon="3.16489">
        <ele>40.51</ele>
        <time>2015-03-08T07:56:59Z</time>
      </trkpt>
      <trkpt lat="50.76308" lon="3.16482">
        <ele>40.99</ele>
        <time>2015-03-08T07:57:00Z</time>
      </trkpt>
      <trkpt lat="50.76313" lon="3.16476">
        <ele>41.47</ele>
        <time>2015-03-08T07:57:01Z</time>
      </trkpt>
      <trkpt lat="50.76318" lon="3.16471">
        <ele>41.47</ele>
        <time>2015-03-08T07:57:02Z</time>
      </trkpt>
      <trkpt lat="50.76323" lon="3.16467">
        <ele>41.95</ele>
        <time>2015-03-08T07:57:03Z</time>
      </trkpt>
      <trkpt lat="50.76358" lon="3.16444">
        <ele>41.47</ele>
        <time>2015-03-08T07:57:10Z</time>
      </trkpt>
      <trkpt lat="50.76406" lon="3.16415">
        <ele>40.51</ele>
        <time>2015-03-08T07:57:19Z</time>
      </trkpt>
      <trkpt lat="50.76457" lon="3.16386">
        <ele>39.55</ele>
        <time>2015-03-08T07:57:27Z</time>
      </trkpt>
      <trkpt lat="50.76523" lon="3.16354">
        <ele>38.11</ele>
        <time>2015-03-08T07:57:36Z</time>
      </trkpt>
      <trkpt lat="50.76567" lon="3.1633">
        <ele>37.15</ele>
        <time>2015-03-08T07:57:42Z</time>
      </trkpt>
      <trkpt lat="50.7662" lon="3.1629">
        <ele>37.63</ele>
        <time>2015-03-08T07:57:50Z</time>
      </trkpt>
      <trkpt lat="50.76659" lon="3.16268">
        <ele>39.07</ele>
        <time>2015-03-08T07:57:56Z</time>
      </trkpt>
      <trkpt lat="50.76705" lon="3.16262">
        <ele>40.03</ele>
        <time>2015-03-08T07:58:03Z</time>
      </trkpt>
      <trkpt lat="50.76755" lon="3.16235">
        <ele>40.51</ele>
        <time>2015-03-08T07:58:11Z</time>
      </trkpt>
      <trkpt lat="50.768" lon="3.16194">
        <ele>39.55</ele>
        <time>2015-03-08T07:58:20Z</time>
      </trkpt>
      <trkpt lat="50.76809" lon="3.16185">
        <ele>39.07</ele>
        <time>2015-03-08T07:58:23Z</time>
      </trkpt>
      <trkpt lat="50.76813" lon="3.16187">
        <ele>38.59</ele>
        <time>2015-03-08T07:58:24Z</time>
      </trkpt>
      <trkpt lat="50.76815" lon="3.16191">
        <ele>38.11</ele>
        <time>2015-03-08T07:58:25Z</time>
      </trkpt>
      <trkpt lat="50.76836" lon="3.16225">
        <ele>37.15</ele>
        <time>2015-03-08T07:58:31Z</time>
      </trkpt>
      <trkpt lat="50.76875" lon="3.16285">
        <ele>35.71</ele>
        <time>2015-03-08T07:58:39Z</time>
      </trkpt>
      <trkpt lat="50.76913" lon="3.1634">
        <ele>35.23</ele>
        <time>2015-03-08T07:58:47Z</time>
      </trkpt>
      <trkpt lat="50.76949" lon="3.16391">
        <ele>34.74</ele>
        <time>2015-03-08T07:58:54Z</time>
      </trkpt>
      <trkpt lat="50.76953" lon="3.164">
        <ele>34.74</ele>
        <time>2015-03-08T07:58:55Z</time>
      </trkpt>
      <trkpt lat="50.76989" lon="3.16479">
        <ele>34.26</ele>
        <time>2015-03-08T07:59:03Z</time>
      </trkpt>
      <trkpt lat="50.77021" lon="3.16556">
        <ele>34.26</ele>
        <time>2015-03-08T07:59:11Z</time>
      </trkpt>
      <trkpt lat="50.77043" lon="3.16605">
        <ele>32.82</ele>
        <time>2015-03-08T07:59:17Z</time>
      </trkpt>
      <trkpt lat="50.77062" lon="3.16654">
        <ele>31.86</ele>
        <time>2015-03-08T07:59:23Z</time>
      </trkpt>
      <trkpt lat="50.77108" lon="3.16727">
        <ele>31.38</ele>
        <time>2015-03-08T07:59:32Z</time>
      </trkpt>
      <trkpt lat="50.77132" lon="3.16769">
        <ele>30.9</ele>
        <time>2015-03-08T07:59:37Z</time>
      </trkpt>
      <trkpt lat="50.77167" lon="3.16858">
        <ele>30.42</ele>
        <time>2015-03-08T07:59:46Z</time>
      </trkpt>
      <trkpt lat="50.7721" lon="3.16951">
        <ele>29.46</ele>
        <time>2015-03-08T07:59:55Z</time>
      </trkpt>
      <trkpt lat="50.77254" lon="3.17031">
        <ele>28.98</ele>
        <time>2015-03-08T08:00:03Z</time>
      </trkpt>
      <trkpt lat="50.77311" lon="3.17112">
        <ele>28.02</ele>
        <time>2015-03-08T08:00:12Z</time>
      </trkpt>
      <trkpt lat="50.7736" lon="3.1718">
        <ele>27.53</ele>
        <time>2015-03-08T08:00:20Z</time>
      </trkpt>
      <trkpt lat="50.77406" lon="3.17242">
        <ele>27.05</ele>
        <time>2015-03-08T08:00:28Z</time>
      </trkpt>
      <trkpt lat="50.77415" lon="3.17255">
        <ele>26.57</ele>
        <time>2015-03-08T08:00:30Z</time>
      </trkpt>
      <trkpt lat="50.77418" lon="3.17261">
        <ele>26.57</ele>
        <time>2015-03-08T08:00:31Z</time>
      </trkpt>
      <trkpt lat="50.7742" lon="3.17266">
        <ele>26.57</ele>
        <time>2015-03-08T08:00:32Z</time>
      </trkpt>
      <trkpt lat="50.77421" lon="3.17272">
        <ele>26.09</ele>
        <time>2015-03-08T08:00:33Z</time>
      </trkpt>
      <trkpt lat="50.77423" lon="3.17279">
        <ele>26.09</ele>
        <time>2015-03-08T08:00:34Z</time>
      </trkpt>
      <trkpt lat="50.77425" lon="3.17285">
        <ele>26.09</ele>
        <time>2015-03-08T08:00:35Z</time>
      </trkpt>
      <trkpt lat="50.77428" lon="3.17289">
        <ele>26.09</ele>
        <time>2015-03-08T08:00:36Z</time>
      </trkpt>
      <trkpt lat="50.77431" lon="3.17291">
        <ele>25.61</ele>
        <time>2015-03-08T08:00:37Z</time>
      </trkpt>
      <trkpt lat="50.77436" lon="3.1729">
        <ele>25.61</ele>
        <time>2015-03-08T08:00:38Z</time>
      </trkpt>
      <trkpt lat="50.77439" lon="3.17285">
        <ele>25.13</ele>
        <time>2015-03-08T08:00:39Z</time>
      </trkpt>
      <trkpt lat="50.77442" lon="3.1728">
        <ele>25.13</ele>
        <time>2015-03-08T08:00:40Z</time>
      </trkpt>
      <trkpt lat="50.77468" lon="3.17237">
        <ele>24.65</ele>
        <time>2015-03-08T08:00:47Z</time>
      </trkpt>
      <trkpt lat="50.77502" lon="3.17185">
        <ele>25.13</ele>
        <time>2015-03-08T08:00:55Z</time>
      </trkpt>
      <trkpt lat="50.77541" lon="3.17127">
        <ele>26.09</ele>
        <time>2015-03-08T08:01:04Z</time>
      </trkpt>
      <trkpt lat="50.77582" lon="3.17065">
        <ele>24.65</ele>
        <time>2015-03-08T08:01:13Z</time>
      </trkpt>
      <trkpt lat="50.77633" lon="3.16992">
        <ele>23.21</ele>
        <time>2015-03-08T08:01:23Z</time>
      </trkpt>
      <trkpt lat="50.77679" lon="3.16941">
        <ele>22.73</ele>
        <time>2015-03-08T08:01:31Z</time>
      </trkpt>
      <trkpt lat="50.77732" lon="3.16897">
        <ele>23.21</ele>
        <time>2015-03-08T08:01:39Z</time>
      </trkpt>
      <trkpt lat="50.77772" lon="3.16868">
        <ele>23.21</ele>
        <time>2015-03-08T08:01:45Z</time>
      </trkpt>
      <trkpt lat="50.77816" lon="3.16834">
        <ele>23.69</ele>
        <time>2015-03-08T08:01:52Z</time>
      </trkpt>
      <trkpt lat="50.77871" lon="3.16791">
        <ele>23.21</ele>
        <time>2015-03-08T08:02:01Z</time>
      </trkpt>
      <trkpt lat="50.77941" lon="3.16736">
        <ele>22.73</ele>
        <time>2015-03-08T08:02:12Z</time>
      </trkpt>
      <trkpt lat="50.78011" lon="3.16679">
        <ele>22.73</ele>
        <time>2015-03-08T08:02:23Z</time>
      </trkpt>
      <trkpt lat="50.78063" lon="3.16639">
        <ele>21.77</ele>
        <time>2015-03-08T08:02:31Z</time>
      </trkpt>
      <trkpt lat="50.78113" lon="3.16587">
        <ele>21.29</ele>
        <time>2015-03-08T08:02:40Z</time>
      </trkpt>
      <trkpt lat="50.78152" lon="3.16546">
        <ele>22.25</ele>
        <time>2015-03-08T08:02:48Z</time>
      </trkpt>
      <trkpt lat="50.78156" lon="3.16542">
        <ele>22.25</ele>
        <time>2015-03-08T08:02:49Z</time>
      </trkpt>
      <trkpt lat="50.7816" lon="3.16539">
        <ele>21.77</ele>
        <time>2015-03-08T08:02:50Z</time>
      </trkpt>
      <trkpt lat="50.78164" lon="3.16537">
        <ele>21.77</ele>
        <time>2015-03-08T08:02:51Z</time>
      </trkpt>
      <trkpt lat="50.78168" lon="3.16536">
        <ele>21.77</ele>
        <time>2015-03-08T08:02:52Z</time>
      </trkpt>
      <trkpt lat="50.78172" lon="3.16534">
        <ele>21.77</ele>
        <time>2015-03-08T08:02:53Z</time>
      </trkpt>
      <trkpt lat="50.78175" lon="3.16533">
        <ele>21.77</ele>
        <time>2015-03-08T08:02:54Z</time>
      </trkpt>
      <trkpt lat="50.78179" lon="3.1653">
        <ele>21.77</ele>
        <time>2015-03-08T08:02:55Z</time>
      </trkpt>
      <trkpt lat="50.78182" lon="3.16527">
        <ele>21.77</ele>
        <time>2015-03-08T08:02:56Z</time>
      </trkpt>
      <trkpt lat="50.78208" lon="3.16499">
        <ele>21.77</ele>
        <time>2015-03-08T08:03:03Z</time>
      </trkpt>
      <trkpt lat="50.78211" lon="3.16493">
        <ele>22.25</ele>
        <time>2015-03-08T08:03:04Z</time>
      </trkpt>
      <trkpt lat="50.78214" lon="3.16487">
        <ele>22.25</ele>
        <time>2015-03-08T08:03:05Z</time>
      </trkpt>
      <trkpt lat="50.78218" lon="3.16482">
        <ele>22.25</ele>
        <time>2015-03-08T08:03:06Z</time>
      </trkpt>
      <trkpt lat="50.78221" lon="3.16478">
        <ele>22.25</ele>
        <time>2015-03-08T08:03:07Z</time>
      </trkpt>
      <trkpt lat="50.78225" lon="3.16474">
        <ele>22.25</ele>
        <time>2015-03-08T08:03:08Z</time>
      </trkpt>
      <trkpt lat="50.78229" lon="3.1647">
        <ele>22.25</ele>
        <time>2015-03-08T08:03:09Z</time>
      </trkpt>
      <trkpt lat="50.78236" lon="3.16461">
        <ele>22.25</ele>
        <time>2015-03-08T08:03:11Z</time>
      </trkpt>
      <trkpt lat="50.78258" lon="3.16439">
        <ele>21.29</ele>
        <time>2015-03-08T08:03:16Z</time>
      </trkpt>
      <trkpt lat="50.78263" lon="3.16435">
        <ele>21.29</ele>
        <time>2015-03-08T08:03:17Z</time>
      </trkpt>
      <trkpt lat="50.78267" lon="3.1643">
        <ele>21.29</ele>
        <time>2015-03-08T08:03:18Z</time>
      </trkpt>
      <trkpt lat="50.78272" lon="3.16427">
        <ele>21.29</ele>
        <time>2015-03-08T08:03:19Z</time>
      </trkpt>
      <trkpt lat="50.78277" lon="3.16423">
        <ele>21.29</ele>
        <time>2015-03-08T08:03:20Z</time>
      </trkpt>
      <trkpt lat="50.78297" lon="3.16405">
        <ele>21.77</ele>
        <time>2015-03-08T08:03:24Z</time>
      </trkpt>
      <trkpt lat="50.78302" lon="3.164">
        <ele>21.77</ele>
        <time>2015-03-08T08:03:25Z</time>
      </trkpt>
      <trkpt lat="50.78343" lon="3.1636">
        <ele>23.69</ele>
        <time>2015-03-08T08:03:34Z</time>
      </trkpt>
      <trkpt lat="50.78377" lon="3.16327">
        <ele>23.69</ele>
        <time>2015-03-08T08:03:42Z</time>
      </trkpt>
      <trkpt lat="50.78381" lon="3.16324">
        <ele>23.69</ele>
        <time>2015-03-08T08:03:43Z</time>
      </trkpt>
      <trkpt lat="50.78386" lon="3.16321">
        <ele>23.21</ele>
        <time>2015-03-08T08:03:44Z</time>
      </trkpt>
      <trkpt lat="50.78408" lon="3.16301">
        <ele>22.25</ele>
        <time>2015-03-08T08:03:49Z</time>
      </trkpt>
      <trkpt lat="50.78444" lon="3.16282">
        <ele>20.81</ele>
        <time>2015-03-08T08:03:56Z</time>
      </trkpt>
      <trkpt lat="50.78472" lon="3.1627">
        <ele>20.32</ele>
        <time>2015-03-08T08:04:01Z</time>
      </trkpt>
      <trkpt lat="50.78479" lon="3.16269">
        <ele>20.32</ele>
        <time>2015-03-08T08:04:02Z</time>
      </trkpt>
      <trkpt lat="50.78485" lon="3.1627">
        <ele>19.84</ele>
        <time>2015-03-08T08:04:03Z</time>
      </trkpt>
      <trkpt lat="50.78492" lon="3.16269">
        <ele>19.84</ele>
        <time>2015-03-08T08:04:04Z</time>
      </trkpt>
      <trkpt lat="50.78498" lon="3.16267">
        <ele>19.84</ele>
        <time>2015-03-08T08:04:05Z</time>
      </trkpt>
      <trkpt lat="50.78536" lon="3.16258">
        <ele>18.88</ele>
        <time>2015-03-08T08:04:12Z</time>
      </trkpt>
      <trkpt lat="50.78571" lon="3.16245">
        <ele>20.32</ele>
        <time>2015-03-08T08:04:19Z</time>
      </trkpt>
      <trkpt lat="50.78597" lon="3.16222">
        <ele>21.29</ele>
        <time>2015-03-08T08:04:26Z</time>
      </trkpt>
      <trkpt lat="50.7861" lon="3.16213">
        <ele>21.29</ele>
        <time>2015-03-08T08:04:30Z</time>
      </trkpt>
      <trkpt lat="50.78612" lon="3.16216">
        <ele>21.29</ele>
        <time>2015-03-08T08:04:31Z</time>
      </trkpt>
      <trkpt lat="50.78628" lon="3.16249">
        <ele>21.77</ele>
        <time>2015-03-08T08:04:37Z</time>
      </trkpt>
      <trkpt lat="50.78633" lon="3.1626">
        <ele>22.73</ele>
        <time>2015-03-08T08:04:39Z</time>
      </trkpt>
      <trkpt lat="50.7865" lon="3.16293">
        <ele>21.77</ele>
        <time>2015-03-08T08:04:47Z</time>
      </trkpt>
      <trkpt lat="50.78653" lon="3.16295">
        <ele>21.29</ele>
        <time>2015-03-08T08:04:48Z</time>
      </trkpt>
      <trkpt lat="50.78656" lon="3.16295">
        <ele>21.29</ele>
        <time>2015-03-08T08:04:49Z</time>
      </trkpt>
      <trkpt lat="50.78658" lon="3.16294">
        <ele>21.29</ele>
        <time>2015-03-08T08:04:50Z</time>
      </trkpt>
      <trkpt lat="50.7866" lon="3.16293">
        <ele>21.29</ele>
        <time>2015-03-08T08:04:51Z</time>
      </trkpt>
      <trkpt lat="50.78662" lon="3.16291">
        <ele>21.29</ele>
        <time>2015-03-08T08:04:52Z</time>
      </trkpt>
      <trkpt lat="50.78668" lon="3.16284">
        <ele>21.77</ele>
        <time>2015-03-08T08:04:57Z</time>
      </trkpt>
      <trkpt lat="50.78669" lon="3.16284">
        <ele>21.77</ele>
        <time>2015-03-08T08:04:58Z</time>
      </trkpt>
      <trkpt lat="50.78675" lon="3.16277">
        <ele>23.21</ele>
        <time>2015-03-08T08:05:04Z</time>
      </trkpt>
      <trkpt lat="50.78679" lon="3.16273">
        <ele>22.73</ele>
        <time>2015-03-08T08:05:09Z</time>
      </trkpt>
      <trkpt lat="50.78688" lon="3.16269">
        <ele>21.29</ele>
        <time>2015-03-08T08:05:17Z</time>
      </trkpt>
      <trkpt lat="50.7869" lon="3.16269">
        <ele>21.77</ele>
        <time>2015-03-08T08:05:19Z</time>
      </trkpt>
      <trkpt lat="50.78691" lon="3.1627">
        <ele>21.77</ele>
        <time>2015-03-08T08:05:20Z</time>
      </trkpt>
      <trkpt lat="50.78696" lon="3.16273">
        <ele>21.29</ele>
        <time>2015-03-08T08:05:24Z</time>
      </trkpt>
      <trkpt lat="50.78697" lon="3.16276">
        <ele>21.29</ele>
        <time>2015-03-08T08:05:25Z</time>
      </trkpt>
      <trkpt lat="50.78702" lon="3.16296">
        <ele>19.84</ele>
        <time>2015-03-08T08:05:31Z</time>
      </trkpt>
      <trkpt lat="50.78701" lon="3.16299">
        <ele>19.36</ele>
        <time>2015-03-08T08:05:32Z</time>
      </trkpt>
      <trkpt lat="50.787" lon="3.16301">
        <ele>19.36</ele>
        <time>2015-03-08T08:05:33Z</time>
      </trkpt>
      <trkpt lat="50.78697" lon="3.16302">
        <ele>19.36</ele>
        <time>2015-03-08T08:05:34Z</time>
      </trkpt>
      <trkpt lat="50.78696" lon="3.16304">
        <ele>18.88</ele>
        <time>2015-03-08T08:05:35Z</time>
      </trkpt>
      <trkpt lat="50.78694" lon="3.16306">
        <ele>18.88</ele>
        <time>2015-03-08T08:05:36Z</time>
      </trkpt>
      <trkpt lat="50.7869" lon="3.16316">
        <ele>18.4</ele>
        <time>2015-03-08T08:05:41Z</time>
      </trkpt>
      <trkpt lat="50.78691" lon="3.16319">
        <ele>18.4</ele>
        <time>2015-03-08T08:05:44Z</time>
      </trkpt>
      <trkpt lat="50.78695" lon="3.16329">
        <ele>18.4</ele>
        <time>2015-03-08T08:05:52Z</time>
      </trkpt>
      <trkpt lat="50.78699" lon="3.16337">
        <ele>18.4</ele>
        <time>2015-03-08T08:05:57Z</time>
      </trkpt>
      <trkpt lat="50.78703" lon="3.16345">
        <ele>17.44</ele>
        <time>2015-03-08T08:06:01Z</time>
      </trkpt>
      <trkpt lat="50.78703" lon="3.16346">
        <ele>17.44</ele>
        <time>2015-03-08T08:06:08Z</time>
      </trkpt>
      <trkpt lat="50.78703" lon="3.16346">
        <ele>17.44</ele>
        <time>2015-03-08T08:06:10Z</time>
      </trkpt>
      <trkpt lat="50.78703" lon="3.16345">
        <ele>17.44</ele>
        <time>2015-03-08T08:06:11Z</time>
      </trkpt>
      <trkpt lat="50.78703" lon="3.16343">
        <ele>17.44</ele>
        <time>2015-03-08T08:06:12Z</time>
      </trkpt>
      <trkpt lat="50.78703" lon="3.16341">
        <ele>17.44</ele>
        <time>2015-03-08T08:06:13Z</time>
      </trkpt>
      <trkpt lat="50.78704" lon="3.16338">
        <ele>16.96</ele>
        <time>2015-03-08T08:06:15Z</time>
      </trkpt>
      <trkpt lat="50.78707" lon="3.16337">
        <ele>15.52</ele>
        <time>2015-03-08T08:06:21Z</time>
      </trkpt>
      <trkpt lat="50.78707" lon="3.16335">
        <ele>15.52</ele>
        <time>2015-03-08T08:06:27Z</time>
      </trkpt>
      <trkpt lat="50.78708" lon="3.16336">
        <ele>16</ele>
        <time>2015-03-08T08:06:34Z</time>
      </trkpt>
      <trkpt lat="50.7871" lon="3.16343">
        <ele>14.08</ele>
        <time>2015-03-08T08:06:41Z</time>
      </trkpt>
      <trkpt lat="50.78714" lon="3.16355">
        <ele>11.19</ele>
        <time>2015-03-08T08:06:53Z</time>
      </trkpt>
      <trkpt lat="50.78713" lon="3.16351">
        <ele>11.19</ele>
        <time>2015-03-08T08:12:54Z</time>
      </trkpt>
      <trkpt lat="50.78708" lon="3.16337">
        <ele>15.04</ele>
        <time>2015-03-08T08:13:06Z</time>
      </trkpt>
      <trkpt lat="50.78711" lon="3.16337">
        <ele>14.08</ele>
        <time>2015-03-08T08:13:13Z</time>
      </trkpt>
      <trkpt lat="50.78706" lon="3.16336">
        <ele>18.88</ele>
        <time>2015-03-08T08:13:23Z</time>
      </trkpt>
      <trkpt lat="50.78705" lon="3.16336">
        <ele>17.44</ele>
        <time>2015-03-08T08:13:33Z</time>
      </trkpt>
      <trkpt lat="50.78704" lon="3.16338">
        <ele>16.48</ele>
        <time>2015-03-08T08:13:39Z</time>
      </trkpt>
      <trkpt lat="50.78699" lon="3.1634">
        <ele>16.48</ele>
        <time>2015-03-08T08:13:44Z</time>
      </trkpt>
      <trkpt lat="50.78693" lon="3.16318">
        <ele>17.92</ele>
        <time>2015-03-08T08:13:50Z</time>
      </trkpt>
      <trkpt lat="50.78699" lon="3.16305">
        <ele>18.88</ele>
        <time>2015-03-08T08:13:56Z</time>
      </trkpt>
      <trkpt lat="50.78704" lon="3.163">
        <ele>18.88</ele>
        <time>2015-03-08T08:14:00Z</time>
      </trkpt>
      <trkpt lat="50.78703" lon="3.16289">
        <ele>18.4</ele>
        <time>2015-03-08T08:14:04Z</time>
      </trkpt>
      <trkpt lat="50.78694" lon="3.16268">
        <ele>18.4</ele>
        <time>2015-03-08T08:14:12Z</time>
      </trkpt>
      <trkpt lat="50.78695" lon="3.16267">
        <ele>19.36</ele>
        <time>2015-03-08T08:14:23Z</time>
      </trkpt>
      <trkpt lat="50.78695" lon="3.16266">
        <ele>18.88</ele>
        <time>2015-03-08T08:14:33Z</time>
      </trkpt>
      <trkpt lat="50.78694" lon="3.16261">
        <ele>18.88</ele>
        <time>2015-03-08T08:14:38Z</time>
      </trkpt>
      <trkpt lat="50.78698" lon="3.16256">
        <ele>18.88</ele>
        <time>2015-03-08T08:14:42Z</time>
      </trkpt>
      <trkpt lat="50.78705" lon="3.16248">
        <ele>19.36</ele>
        <time>2015-03-08T08:14:47Z</time>
      </trkpt>
      <trkpt lat="50.7871" lon="3.16247">
        <ele>19.36</ele>
        <time>2015-03-08T08:14:54Z</time>
      </trkpt>
      <trkpt lat="50.78721" lon="3.16234">
        <ele>18.88</ele>
        <time>2015-03-08T08:15:00Z</time>
      </trkpt>
      <trkpt lat="50.78748" lon="3.16206">
        <ele>19.36</ele>
        <time>2015-03-08T08:15:09Z</time>
      </trkpt>
      <trkpt lat="50.7877" lon="3.16186">
        <ele>18.88</ele>
        <time>2015-03-08T08:15:16Z</time>
      </trkpt>
      <trkpt lat="50.78777" lon="3.16183">
        <ele>19.36</ele>
        <time>2015-03-08T08:15:18Z</time>
      </trkpt>
      <trkpt lat="50.78781" lon="3.16185">
        <ele>19.36</ele>
        <time>2015-03-08T08:15:19Z</time>
      </trkpt>
      <trkpt lat="50.78784" lon="3.1619">
        <ele>18.88</ele>
        <time>2015-03-08T08:15:20Z</time>
      </trkpt>
      <trkpt lat="50.78787" lon="3.16196">
        <ele>18.88</ele>
        <time>2015-03-08T08:15:21Z</time>
      </trkpt>
      <trkpt lat="50.78789" lon="3.16203">
        <ele>18.4</ele>
        <time>2015-03-08T08:15:22Z</time>
      </trkpt>
      <trkpt lat="50.78792" lon="3.16209">
        <ele>18.4</ele>
        <time>2015-03-08T08:15:23Z</time>
      </trkpt>
      <trkpt lat="50.78811" lon="3.1625">
        <ele>17.92</ele>
        <time>2015-03-08T08:15:30Z</time>
      </trkpt>
      <trkpt lat="50.78815" lon="3.16254">
        <ele>17.92</ele>
        <time>2015-03-08T08:15:31Z</time>
      </trkpt>
      <trkpt lat="50.78819" lon="3.16256">
        <ele>17.92</ele>
        <time>2015-03-08T08:15:32Z</time>
      </trkpt>
      <trkpt lat="50.78823" lon="3.16259">
        <ele>17.44</ele>
        <time>2015-03-08T08:15:33Z</time>
      </trkpt>
      <trkpt lat="50.78825" lon="3.16262">
        <ele>17.44</ele>
        <time>2015-03-08T08:15:34Z</time>
      </trkpt>
      <trkpt lat="50.78827" lon="3.16267">
        <ele>17.44</ele>
        <time>2015-03-08T08:15:35Z</time>
      </trkpt>
      <trkpt lat="50.78829" lon="3.16273">
        <ele>17.44</ele>
        <time>2015-03-08T08:15:36Z</time>
      </trkpt>
      <trkpt lat="50.78843" lon="3.16303">
        <ele>16.96</ele>
        <time>2015-03-08T08:15:42Z</time>
      </trkpt>
      <trkpt lat="50.78844" lon="3.16304">
        <ele>16.96</ele>
        <time>2015-03-08T08:15:43Z</time>
      </trkpt>
      <trkpt lat="50.78846" lon="3.16303">
        <ele>16.96</ele>
        <time>2015-03-08T08:15:44Z</time>
      </trkpt>
      <trkpt lat="50.78847" lon="3.16301">
        <ele>16.96</ele>
        <time>2015-03-08T08:15:45Z</time>
      </trkpt>
      <trkpt lat="50.78847" lon="3.16299">
        <ele>16.96</ele>
        <time>2015-03-08T08:15:46Z</time>
      </trkpt>
      <trkpt lat="50.78846" lon="3.16296">
        <ele>16.96</ele>
        <time>2015-03-08T08:15:47Z</time>
      </trkpt>
      <trkpt lat="50.78846" lon="3.16292">
        <ele>16.96</ele>
        <time>2015-03-08T08:15:48Z</time>
      </trkpt>
      <trkpt lat="50.78848" lon="3.16288">
        <ele>17.44</ele>
        <time>2015-03-08T08:15:49Z</time>
      </trkpt>
      <trkpt lat="50.7885" lon="3.16286">
        <ele>17.44</ele>
        <time>2015-03-08T08:15:50Z</time>
      </trkpt>
      <trkpt lat="50.78853" lon="3.16283">
        <ele>17.44</ele>
        <time>2015-03-08T08:15:51Z</time>
      </trkpt>
      <trkpt lat="50.78866" lon="3.16269">
        <ele>16.96</ele>
        <time>2015-03-08T08:15:55Z</time>
      </trkpt>
      <trkpt lat="50.78885" lon="3.16259">
        <ele>15.04</ele>
        <time>2015-03-08T08:16:01Z</time>
      </trkpt>
      <trkpt lat="50.78888" lon="3.16259">
        <ele>14.56</ele>
        <time>2015-03-08T08:16:02Z</time>
      </trkpt>
      <trkpt lat="50.78891" lon="3.16257">
        <ele>14.56</ele>
        <time>2015-03-08T08:16:03Z</time>
      </trkpt>
      <trkpt lat="50.78894" lon="3.16255">
        <ele>14.56</ele>
        <time>2015-03-08T08:16:04Z</time>
      </trkpt>
      <trkpt lat="50.78897" lon="3.16253">
        <ele>14.56</ele>
        <time>2015-03-08T08:16:05Z</time>
      </trkpt>
      <trkpt lat="50.789" lon="3.1625">
        <ele>14.56</ele>
        <time>2015-03-08T08:16:06Z</time>
      </trkpt>
      <trkpt lat="50.78903" lon="3.16248">
        <ele>15.04</ele>
        <time>2015-03-08T08:16:07Z</time>
      </trkpt>
      <trkpt lat="50.78905" lon="3.16245">
        <ele>15.04</ele>
        <time>2015-03-08T08:16:08Z</time>
      </trkpt>
      <trkpt lat="50.78934" lon="3.16223">
        <ele>16.96</ele>
        <time>2015-03-08T08:16:17Z</time>
      </trkpt>
      <trkpt lat="50.78944" lon="3.16214">
        <ele>17.44</ele>
        <time>2015-03-08T08:16:20Z</time>
      </trkpt>
      <trkpt lat="50.78955" lon="3.16204">
        <ele>17.44</ele>
        <time>2015-03-08T08:16:23Z</time>
      </trkpt>
      <trkpt lat="50.78963" lon="3.16197">
        <ele>17.92</ele>
        <time>2015-03-08T08:16:25Z</time>
      </trkpt>
      <trkpt lat="50.78967" lon="3.16193">
        <ele>17.44</ele>
        <time>2015-03-08T08:16:26Z</time>
      </trkpt>
      <trkpt lat="50.78988" lon="3.16175">
        <ele>17.44</ele>
        <time>2015-03-08T08:16:31Z</time>
      </trkpt>
      <trkpt lat="50.79022" lon="3.16147">
        <ele>16.48</ele>
        <time>2015-03-08T08:16:39Z</time>
      </trkpt>
      <trkpt lat="50.79051" lon="3.16122">
        <ele>16.48</ele>
        <time>2015-03-08T08:16:46Z</time>
      </trkpt>
      <trkpt lat="50.79075" lon="3.16105">
        <ele>16</ele>
        <time>2015-03-08T08:16:52Z</time>
      </trkpt>
      <trkpt lat="50.79078" lon="3.16108">
        <ele>16</ele>
        <time>2015-03-08T08:16:53Z</time>
      </trkpt>
      <trkpt lat="50.7908" lon="3.16112">
        <ele>16</ele>
        <time>2015-03-08T08:16:54Z</time>
      </trkpt>
      <trkpt lat="50.79081" lon="3.16118">
        <ele>16</ele>
        <time>2015-03-08T08:16:55Z</time>
      </trkpt>
      <trkpt lat="50.79083" lon="3.16124">
        <ele>16</ele>
        <time>2015-03-08T08:16:56Z</time>
      </trkpt>
      <trkpt lat="50.79085" lon="3.16129">
        <ele>16</ele>
        <time>2015-03-08T08:16:57Z</time>
      </trkpt>
      <trkpt lat="50.79089" lon="3.16131">
        <ele>16</ele>
        <time>2015-03-08T08:16:58Z</time>
      </trkpt>
      <trkpt lat="50.79093" lon="3.1613">
        <ele>15.52</ele>
        <time>2015-03-08T08:16:59Z</time>
      </trkpt>
      <trkpt lat="50.79101" lon="3.16129">
        <ele>15.52</ele>
        <time>2015-03-08T08:17:01Z</time>
      </trkpt>
      <trkpt lat="50.79136" lon="3.16117">
        <ele>16.96</ele>
        <time>2015-03-08T08:17:10Z</time>
      </trkpt>
      <trkpt lat="50.79175" lon="3.16106">
        <ele>17.44</ele>
        <time>2015-03-08T08:17:19Z</time>
      </trkpt>
      <trkpt lat="50.79221" lon="3.16091">
        <ele>17.92</ele>
        <time>2015-03-08T08:17:29Z</time>
      </trkpt>
      <trkpt lat="50.79228" lon="3.16088">
        <ele>17.44</ele>
        <time>2015-03-08T08:17:31Z</time>
      </trkpt>
      <trkpt lat="50.7923" lon="3.16083">
        <ele>17.44</ele>
        <time>2015-03-08T08:17:32Z</time>
      </trkpt>
      <trkpt lat="50.79229" lon="3.16077">
        <ele>17.44</ele>
        <time>2015-03-08T08:17:33Z</time>
      </trkpt>
      <trkpt lat="50.79226" lon="3.16073">
        <ele>16.96</ele>
        <time>2015-03-08T08:17:34Z</time>
      </trkpt>
      <trkpt lat="50.79224" lon="3.16068">
        <ele>16.96</ele>
        <time>2015-03-08T08:17:35Z</time>
      </trkpt>
      <trkpt lat="50.79222" lon="3.16062">
        <ele>16.96</ele>
        <time>2015-03-08T08:17:36Z</time>
      </trkpt>
      <trkpt lat="50.79203" lon="3.16003">
        <ele>16.48</ele>
        <time>2015-03-08T08:17:45Z</time>
      </trkpt>
      <trkpt lat="50.79191" lon="3.15933">
        <ele>16.48</ele>
        <time>2015-03-08T08:17:55Z</time>
      </trkpt>
      <trkpt lat="50.79185" lon="3.15877">
        <ele>16</ele>
        <time>2015-03-08T08:18:03Z</time>
      </trkpt>
      <trkpt lat="50.79188" lon="3.15829">
        <ele>16.48</ele>
        <time>2015-03-08T08:18:10Z</time>
      </trkpt>
      <trkpt lat="50.79197" lon="3.15758">
        <ele>15.52</ele>
        <time>2015-03-08T08:18:20Z</time>
      </trkpt>
      <trkpt lat="50.79201" lon="3.15712">
        <ele>15.04</ele>
        <time>2015-03-08T08:18:26Z</time>
      </trkpt>
      <trkpt lat="50.792" lon="3.15704">
        <ele>15.04</ele>
        <time>2015-03-08T08:18:27Z</time>
      </trkpt>
      <trkpt lat="50.79199" lon="3.15697">
        <ele>15.04</ele>
        <time>2015-03-08T08:18:28Z</time>
      </trkpt>
      <trkpt lat="50.79197" lon="3.15689">
        <ele>15.52</ele>
        <time>2015-03-08T08:18:29Z</time>
      </trkpt>
      <trkpt lat="50.79195" lon="3.15681">
        <ele>15.52</ele>
        <time>2015-03-08T08:18:30Z</time>
      </trkpt>
      <trkpt lat="50.79176" lon="3.15604">
        <ele>15.04</ele>
        <time>2015-03-08T08:18:40Z</time>
      </trkpt>
      <trkpt lat="50.79158" lon="3.15535">
        <ele>15.52</ele>
        <time>2015-03-08T08:18:49Z</time>
      </trkpt>
      <trkpt lat="50.79139" lon="3.15455">
        <ele>16</ele>
        <time>2015-03-08T08:19:00Z</time>
      </trkpt>
      <trkpt lat="50.79125" lon="3.15399">
        <ele>16</ele>
        <time>2015-03-08T08:19:08Z</time>
      </trkpt>
      <trkpt lat="50.79104" lon="3.15326">
        <ele>16.48</ele>
        <time>2015-03-08T08:19:18Z</time>
      </trkpt>
      <trkpt lat="50.79086" lon="3.15255">
        <ele>16.96</ele>
        <time>2015-03-08T08:19:27Z</time>
      </trkpt>
      <trkpt lat="50.79071" lon="3.15182">
        <ele>16.96</ele>
        <time>2015-03-08T08:19:36Z</time>
      </trkpt>
      <trkpt lat="50.7905" lon="3.15104">
        <ele>17.44</ele>
        <time>2015-03-08T08:19:46Z</time>
      </trkpt>
      <trkpt lat="50.7904" lon="3.15072">
        <ele>17.44</ele>
        <time>2015-03-08T08:19:50Z</time>
      </trkpt>
      <trkpt lat="50.79037" lon="3.15065">
        <ele>17.44</ele>
        <time>2015-03-08T08:19:51Z</time>
      </trkpt>
      <trkpt lat="50.79033" lon="3.1506">
        <ele>17.44</ele>
        <time>2015-03-08T08:19:52Z</time>
      </trkpt>
      <trkpt lat="50.79028" lon="3.15051">
        <ele>16.96</ele>
        <time>2015-03-08T08:19:54Z</time>
      </trkpt>
      <trkpt lat="50.79028" lon="3.15047">
        <ele>16.48</ele>
        <time>2015-03-08T08:19:55Z</time>
      </trkpt>
      <trkpt lat="50.79035" lon="3.15008">
        <ele>15.52</ele>
        <time>2015-03-08T08:20:01Z</time>
      </trkpt>
      <trkpt lat="50.79037" lon="3.14993">
        <ele>15.52</ele>
        <time>2015-03-08T08:20:03Z</time>
      </trkpt>
      <trkpt lat="50.79037" lon="3.14986">
        <ele>15.52</ele>
        <time>2015-03-08T08:20:04Z</time>
      </trkpt>
      <trkpt lat="50.79036" lon="3.14943">
        <ele>15.04</ele>
        <time>2015-03-08T08:20:11Z</time>
      </trkpt>
      <trkpt lat="50.79037" lon="3.14924">
        <ele>15.52</ele>
        <time>2015-03-08T08:20:15Z</time>
      </trkpt>
      <trkpt lat="50.79037" lon="3.14917">
        <ele>15.52</ele>
        <time>2015-03-08T08:20:16Z</time>
      </trkpt>
      <trkpt lat="50.79037" lon="3.1484">
        <ele>15.52</ele>
        <time>2015-03-08T08:20:25Z</time>
      </trkpt>
      <trkpt lat="50.79035" lon="3.14787">
        <ele>14.56</ele>
        <time>2015-03-08T08:20:31Z</time>
      </trkpt>
      <trkpt lat="50.79033" lon="3.1477">
        <ele>14.56</ele>
        <time>2015-03-08T08:20:33Z</time>
      </trkpt>
      <trkpt lat="50.79026" lon="3.14725">
        <ele>15.04</ele>
        <time>2015-03-08T08:20:39Z</time>
      </trkpt>
      <trkpt lat="50.79027" lon="3.14719">
        <ele>14.56</ele>
        <time>2015-03-08T08:20:40Z</time>
      </trkpt>
      <trkpt lat="50.7903" lon="3.14716">
        <ele>14.08</ele>
        <time>2015-03-08T08:20:41Z</time>
      </trkpt>
      <trkpt lat="50.79058" lon="3.14704">
        <ele>13.12</ele>
        <time>2015-03-08T08:20:46Z</time>
      </trkpt>
      <trkpt lat="50.79106" lon="3.1468">
        <ele>13.6</ele>
        <time>2015-03-08T08:20:54Z</time>
      </trkpt>
      <trkpt lat="50.7915" lon="3.1466">
        <ele>15.04</ele>
        <time>2015-03-08T08:21:02Z</time>
      </trkpt>
      <trkpt lat="50.79199" lon="3.14639">
        <ele>15.04</ele>
        <time>2015-03-08T08:21:11Z</time>
      </trkpt>
      <trkpt lat="50.79208" lon="3.14634">
        <ele>15.04</ele>
        <time>2015-03-08T08:21:13Z</time>
      </trkpt>
      <trkpt lat="50.79212" lon="3.14629">
        <ele>15.04</ele>
        <time>2015-03-08T08:21:14Z</time>
      </trkpt>
      <trkpt lat="50.79213" lon="3.14623">
        <ele>15.04</ele>
        <time>2015-03-08T08:21:15Z</time>
      </trkpt>
      <trkpt lat="50.79211" lon="3.14587">
        <ele>16</ele>
        <time>2015-03-08T08:21:20Z</time>
      </trkpt>
      <trkpt lat="50.79208" lon="3.14545">
        <ele>16.48</ele>
        <time>2015-03-08T08:21:25Z</time>
      </trkpt>
      <trkpt lat="50.79216" lon="3.14497">
        <ele>16.48</ele>
        <time>2015-03-08T08:21:31Z</time>
      </trkpt>
      <trkpt lat="50.79224" lon="3.14485">
        <ele>16</ele>
        <time>2015-03-08T08:21:33Z</time>
      </trkpt>
      <trkpt lat="50.79237" lon="3.14471">
        <ele>16</ele>
        <time>2015-03-08T08:21:36Z</time>
      </trkpt>
      <trkpt lat="50.79246" lon="3.14453">
        <ele>15.52</ele>
        <time>2015-03-08T08:21:39Z</time>
      </trkpt>
      <trkpt lat="50.79249" lon="3.14425">
        <ele>16</ele>
        <time>2015-03-08T08:21:43Z</time>
      </trkpt>
      <trkpt lat="50.79251" lon="3.14412">
        <ele>16</ele>
        <time>2015-03-08T08:21:45Z</time>
      </trkpt>
      <trkpt lat="50.79267" lon="3.14357">
        <ele>16</ele>
        <time>2015-03-08T08:21:54Z</time>
      </trkpt>
      <trkpt lat="50.79289" lon="3.14314">
        <ele>16.48</ele>
        <time>2015-03-08T08:22:02Z</time>
      </trkpt>
      <trkpt lat="50.79312" lon="3.14278">
        <ele>18.4</ele>
        <time>2015-03-08T08:22:10Z</time>
      </trkpt>
      <trkpt lat="50.79325" lon="3.14256">
        <ele>19.36</ele>
        <time>2015-03-08T08:22:16Z</time>
      </trkpt>
      <trkpt lat="50.79337" lon="3.14241">
        <ele>20.81</ele>
        <time>2015-03-08T08:22:22Z</time>
      </trkpt>
      <trkpt lat="50.79347" lon="3.14229">
        <ele>21.77</ele>
        <time>2015-03-08T08:22:27Z</time>
      </trkpt>
      <trkpt lat="50.79345" lon="3.14219">
        <ele>21.29</ele>
        <time>2015-03-08T08:22:31Z</time>
      </trkpt>
      <trkpt lat="50.7933" lon="3.14203">
        <ele>20.32</ele>
        <time>2015-03-08T08:22:37Z</time>
      </trkpt>
      <trkpt lat="50.79325" lon="3.14196">
        <ele>20.32</ele>
        <time>2015-03-08T08:22:39Z</time>
      </trkpt>
      <trkpt lat="50.79324" lon="3.14187">
        <ele>20.32</ele>
        <time>2015-03-08T08:22:41Z</time>
      </trkpt>
      <trkpt lat="50.79331" lon="3.14176">
        <ele>19.36</ele>
        <time>2015-03-08T08:22:45Z</time>
      </trkpt>
      <trkpt lat="50.79337" lon="3.14162">
        <ele>17.44</ele>
        <time>2015-03-08T08:22:49Z</time>
      </trkpt>
      <trkpt lat="50.79347" lon="3.14139">
        <ele>16.48</ele>
        <time>2015-03-08T08:22:54Z</time>
      </trkpt>
      <trkpt lat="50.79353" lon="3.14127">
        <ele>16</ele>
        <time>2015-03-08T08:22:58Z</time>
      </trkpt>
      <trkpt lat="50.79357" lon="3.14117">
        <ele>15.52</ele>
        <time>2015-03-08T08:23:03Z</time>
      </trkpt>
      <trkpt lat="50.79364" lon="3.14115">
        <ele>16</ele>
        <time>2015-03-08T08:23:08Z</time>
      </trkpt>
      <trkpt lat="50.79368" lon="3.14106">
        <ele>16</ele>
        <time>2015-03-08T08:23:11Z</time>
      </trkpt>
      <trkpt lat="50.79376" lon="3.14098">
        <ele>16</ele>
        <time>2015-03-08T08:23:15Z</time>
      </trkpt>
      <trkpt lat="50.79389" lon="3.14086">
        <ele>13.6</ele>
        <time>2015-03-08T08:23:22Z</time>
      </trkpt>
      <trkpt lat="50.79396" lon="3.14081">
        <ele>12.63</ele>
        <time>2015-03-08T08:23:25Z</time>
      </trkpt>
      <trkpt lat="50.79414" lon="3.14059">
        <ele>11.19</ele>
        <time>2015-03-08T08:23:32Z</time>
      </trkpt>
      <trkpt lat="50.79427" lon="3.14047">
        <ele>10.71</ele>
        <time>2015-03-08T08:23:37Z</time>
      </trkpt>
      <trkpt lat="50.79435" lon="3.14047">
        <ele>11.19</ele>
        <time>2015-03-08T08:23:41Z</time>
      </trkpt>
      <trkpt lat="50.79445" lon="3.14028">
        <ele>11.19</ele>
        <time>2015-03-08T08:23:47Z</time>
      </trkpt>
      <trkpt lat="50.79447" lon="3.13986">
        <ele>11.67</ele>
        <time>2015-03-08T08:23:55Z</time>
      </trkpt>
      <trkpt lat="50.79446" lon="3.13955">
        <ele>12.15</ele>
        <time>2015-03-08T08:24:00Z</time>
      </trkpt>
      <trkpt lat="50.79443" lon="3.13898">
        <ele>12.15</ele>
        <time>2015-03-08T08:24:08Z</time>
      </trkpt>
      <trkpt lat="50.79436" lon="3.13835">
        <ele>11.67</ele>
        <time>2015-03-08T08:24:16Z</time>
      </trkpt>
      <trkpt lat="50.79424" lon="3.13759">
        <ele>11.67</ele>
        <time>2015-03-08T08:24:25Z</time>
      </trkpt>
      <trkpt lat="50.79416" lon="3.13724">
        <ele>10.71</ele>
        <time>2015-03-08T08:24:29Z</time>
      </trkpt>
      <trkpt lat="50.79414" lon="3.13713">
        <ele>10.71</ele>
        <time>2015-03-08T08:24:30Z</time>
      </trkpt>
      <trkpt lat="50.79401" lon="3.13638">
        <ele>11.19</ele>
        <time>2015-03-08T08:24:38Z</time>
      </trkpt>
      <trkpt lat="50.79383" lon="3.13568">
        <ele>11.67</ele>
        <time>2015-03-08T08:24:46Z</time>
      </trkpt>
      <trkpt lat="50.79364" lon="3.13509">
        <ele>12.15</ele>
        <time>2015-03-08T08:24:53Z</time>
      </trkpt>
      <trkpt lat="50.79336" lon="3.13435">
        <ele>12.15</ele>
        <time>2015-03-08T08:25:02Z</time>
      </trkpt>
      <trkpt lat="50.79309" lon="3.13372">
        <ele>12.63</ele>
        <time>2015-03-08T08:25:10Z</time>
      </trkpt>
      <trkpt lat="50.79281" lon="3.13312">
        <ele>12.15</ele>
        <time>2015-03-08T08:25:17Z</time>
      </trkpt>
      <trkpt lat="50.79245" lon="3.13237">
        <ele>11.19</ele>
        <time>2015-03-08T08:25:26Z</time>
      </trkpt>
      <trkpt lat="50.79217" lon="3.13174">
        <ele>11.19</ele>
        <time>2015-03-08T08:25:34Z</time>
      </trkpt>
      <trkpt lat="50.79193" lon="3.1311">
        <ele>13.12</ele>
        <time>2015-03-08T08:25:42Z</time>
      </trkpt>
      <trkpt lat="50.79176" lon="3.13058">
        <ele>13.12</ele>
        <time>2015-03-08T08:25:48Z</time>
      </trkpt>
      <trkpt lat="50.79155" lon="3.12977">
        <ele>14.08</ele>
        <time>2015-03-08T08:25:57Z</time>
      </trkpt>
      <trkpt lat="50.79139" lon="3.12904">
        <ele>13.6</ele>
        <time>2015-03-08T08:26:05Z</time>
      </trkpt>
      <trkpt lat="50.79128" lon="3.12831">
        <ele>13.6</ele>
        <time>2015-03-08T08:26:13Z</time>
      </trkpt>
      <trkpt lat="50.79117" lon="3.12749">
        <ele>12.63</ele>
        <time>2015-03-08T08:26:21Z</time>
      </trkpt>
      <trkpt lat="50.791" lon="3.12657">
        <ele>13.12</ele>
        <time>2015-03-08T08:26:30Z</time>
      </trkpt>
      <trkpt lat="50.79091" lon="3.1262">
        <ele>14.08</ele>
        <time>2015-03-08T08:26:34Z</time>
      </trkpt>
      <trkpt lat="50.7909" lon="3.12612">
        <ele>14.08</ele>
        <time>2015-03-08T08:26:35Z</time>
      </trkpt>
      <trkpt lat="50.79088" lon="3.12604">
        <ele>14.08</ele>
        <time>2015-03-08T08:26:36Z</time>
      </trkpt>
      <trkpt lat="50.79064" lon="3.1253">
        <ele>13.12</ele>
        <time>2015-03-08T08:26:45Z</time>
      </trkpt>
      <trkpt lat="50.79058" lon="3.12512">
        <ele>12.63</ele>
        <time>2015-03-08T08:26:47Z</time>
      </trkpt>
      <trkpt lat="50.79035" lon="3.12458">
        <ele>12.63</ele>
        <time>2015-03-08T08:26:54Z</time>
      </trkpt>
      <trkpt lat="50.79032" lon="3.12452">
        <ele>13.12</ele>
        <time>2015-03-08T08:26:55Z</time>
      </trkpt>
      <trkpt lat="50.7903" lon="3.12445">
        <ele>13.6</ele>
        <time>2015-03-08T08:26:56Z</time>
      </trkpt>
      <trkpt lat="50.79026" lon="3.12418">
        <ele>14.08</ele>
        <time>2015-03-08T08:26:59Z</time>
      </trkpt>
      <trkpt lat="50.79006" lon="3.12345">
        <ele>13.12</ele>
        <time>2015-03-08T08:27:08Z</time>
      </trkpt>
      <trkpt lat="50.79002" lon="3.12339">
        <ele>13.6</ele>
        <time>2015-03-08T08:27:09Z</time>
      </trkpt>
      <trkpt lat="50.78984" lon="3.12313">
        <ele>12.15</ele>
        <time>2015-03-08T08:27:13Z</time>
      </trkpt>
      <trkpt lat="50.7898" lon="3.12305">
        <ele>12.15</ele>
        <time>2015-03-08T08:27:14Z</time>
      </trkpt>
      <trkpt lat="50.78977" lon="3.12295">
        <ele>11.67</ele>
        <time>2015-03-08T08:27:15Z</time>
      </trkpt>
      <trkpt lat="50.78969" lon="3.12267">
        <ele>11.19</ele>
        <time>2015-03-08T08:27:18Z</time>
      </trkpt>
      <trkpt lat="50.78968" lon="3.12257">
        <ele>11.19</ele>
        <time>2015-03-08T08:27:19Z</time>
      </trkpt>
      <trkpt lat="50.7896" lon="3.12217">
        <ele>10.71</ele>
        <time>2015-03-08T08:27:23Z</time>
      </trkpt>
      <trkpt lat="50.78958" lon="3.12208">
        <ele>10.71</ele>
        <time>2015-03-08T08:27:24Z</time>
      </trkpt>
      <trkpt lat="50.78945" lon="3.12127">
        <ele>11.67</ele>
        <time>2015-03-08T08:27:32Z</time>
      </trkpt>
      <trkpt lat="50.78935" lon="3.12055">
        <ele>12.63</ele>
        <time>2015-03-08T08:27:39Z</time>
      </trkpt>
      <trkpt lat="50.78927" lon="3.11994">
        <ele>14.08</ele>
        <time>2015-03-08T08:27:45Z</time>
      </trkpt>
      <trkpt lat="50.78926" lon="3.11984">
        <ele>14.08</ele>
        <time>2015-03-08T08:27:46Z</time>
      </trkpt>
      <trkpt lat="50.78919" lon="3.11903">
        <ele>14.56</ele>
        <time>2015-03-08T08:27:54Z</time>
      </trkpt>
      <trkpt lat="50.78912" lon="3.11832">
        <ele>15.52</ele>
        <time>2015-03-08T08:28:01Z</time>
      </trkpt>
      <trkpt lat="50.78895" lon="3.11716">
        <ele>16</ele>
        <time>2015-03-08T08:28:12Z</time>
      </trkpt>
      <trkpt lat="50.78876" lon="3.11611">
        <ele>16.48</ele>
        <time>2015-03-08T08:28:22Z</time>
      </trkpt>
      <trkpt lat="50.78868" lon="3.11576">
        <ele>16.96</ele>
        <time>2015-03-08T08:28:26Z</time>
      </trkpt>
      <trkpt lat="50.78865" lon="3.11572">
        <ele>16.96</ele>
        <time>2015-03-08T08:28:27Z</time>
      </trkpt>
      <trkpt lat="50.7886" lon="3.11572">
        <ele>16.48</ele>
        <time>2015-03-08T08:28:28Z</time>
      </trkpt>
      <trkpt lat="50.78855" lon="3.11574">
        <ele>16</ele>
        <time>2015-03-08T08:28:29Z</time>
      </trkpt>
      <trkpt lat="50.7885" lon="3.11576">
        <ele>15.04</ele>
        <time>2015-03-08T08:28:30Z</time>
      </trkpt>
      <trkpt lat="50.78795" lon="3.11599">
        <ele>10.71</ele>
        <time>2015-03-08T08:28:41Z</time>
      </trkpt>
      <trkpt lat="50.78771" lon="3.11607">
        <ele>11.67</ele>
        <time>2015-03-08T08:28:47Z</time>
      </trkpt>
      <trkpt lat="50.78769" lon="3.11607">
        <ele>11.67</ele>
        <time>2015-03-08T08:28:48Z</time>
      </trkpt>
      <trkpt lat="50.78768" lon="3.11604">
        <ele>12.15</ele>
        <time>2015-03-08T08:28:49Z</time>
      </trkpt>
      <trkpt lat="50.78768" lon="3.116">
        <ele>12.15</ele>
        <time>2015-03-08T08:28:50Z</time>
      </trkpt>
      <trkpt lat="50.78769" lon="3.11595">
        <ele>12.15</ele>
        <time>2015-03-08T08:28:51Z</time>
      </trkpt>
      <trkpt lat="50.78772" lon="3.11591">
        <ele>12.15</ele>
        <time>2015-03-08T08:28:52Z</time>
      </trkpt>
      <trkpt lat="50.78776" lon="3.11589">
        <ele>12.63</ele>
        <time>2015-03-08T08:28:53Z</time>
      </trkpt>
      <trkpt lat="50.7878" lon="3.11587">
        <ele>12.63</ele>
        <time>2015-03-08T08:28:54Z</time>
      </trkpt>
      <trkpt lat="50.78785" lon="3.11584">
        <ele>13.12</ele>
        <time>2015-03-08T08:28:55Z</time>
      </trkpt>
      <trkpt lat="50.78817" lon="3.11566">
        <ele>13.6</ele>
        <time>2015-03-08T08:29:02Z</time>
      </trkpt>
      <trkpt lat="50.78849" lon="3.11548">
        <ele>16.96</ele>
        <time>2015-03-08T08:29:10Z</time>
      </trkpt>
      <trkpt lat="50.7888" lon="3.11528">
        <ele>18.4</ele>
        <time>2015-03-08T08:29:18Z</time>
      </trkpt>
      <trkpt lat="50.78912" lon="3.11509">
        <ele>18.88</ele>
        <time>2015-03-08T08:29:25Z</time>
      </trkpt>
      <trkpt lat="50.78951" lon="3.11483">
        <ele>17.92</ele>
        <time>2015-03-08T08:29:32Z</time>
      </trkpt>
      <trkpt lat="50.78988" lon="3.11447">
        <ele>16</ele>
        <time>2015-03-08T08:29:38Z</time>
      </trkpt>
      <trkpt lat="50.79045" lon="3.11386">
        <ele>14.08</ele>
        <time>2015-03-08T08:29:47Z</time>
      </trkpt>
      <trkpt lat="50.79077" lon="3.11353">
        <ele>13.12</ele>
        <time>2015-03-08T08:29:53Z</time>
      </trkpt>
      <trkpt lat="50.79083" lon="3.11348">
        <ele>13.12</ele>
        <time>2015-03-08T08:29:55Z</time>
      </trkpt>
      <trkpt lat="50.79086" lon="3.11348">
        <ele>13.12</ele>
        <time>2015-03-08T08:29:56Z</time>
      </trkpt>
      <trkpt lat="50.7909" lon="3.11347">
        <ele>13.12</ele>
        <time>2015-03-08T08:29:57Z</time>
      </trkpt>
      <trkpt lat="50.79093" lon="3.11345">
        <ele>13.12</ele>
        <time>2015-03-08T08:29:58Z</time>
      </trkpt>
      <trkpt lat="50.79096" lon="3.11342">
        <ele>13.12</ele>
        <time>2015-03-08T08:29:59Z</time>
      </trkpt>
      <trkpt lat="50.791" lon="3.1134">
        <ele>12.63</ele>
        <time>2015-03-08T08:30:00Z</time>
      </trkpt>
      <trkpt lat="50.79103" lon="3.11338">
        <ele>12.63</ele>
        <time>2015-03-08T08:30:01Z</time>
      </trkpt>
      <trkpt lat="50.79107" lon="3.11337">
        <ele>13.12</ele>
        <time>2015-03-08T08:30:02Z</time>
      </trkpt>
      <trkpt lat="50.79122" lon="3.11328">
        <ele>13.12</ele>
        <time>2015-03-08T08:30:07Z</time>
      </trkpt>
      <trkpt lat="50.79128" lon="3.11321">
        <ele>13.12</ele>
        <time>2015-03-08T08:30:11Z</time>
      </trkpt>
      <trkpt lat="50.7913" lon="3.11319">
        <ele>13.12</ele>
        <time>2015-03-08T08:30:12Z</time>
      </trkpt>
      <trkpt lat="50.79146" lon="3.11304">
        <ele>13.6</ele>
        <time>2015-03-08T08:30:19Z</time>
      </trkpt>
      <trkpt lat="50.79149" lon="3.11302">
        <ele>13.6</ele>
        <time>2015-03-08T08:30:20Z</time>
      </trkpt>
      <trkpt lat="50.79164" lon="3.113">
        <ele>13.12</ele>
        <time>2015-03-08T08:30:26Z</time>
      </trkpt>
      <trkpt lat="50.79168" lon="3.113">
        <ele>13.12</ele>
        <time>2015-03-08T08:30:32Z</time>
      </trkpt>
      <trkpt lat="50.79169" lon="3.11305">
        <ele>13.6</ele>
        <time>2015-03-08T08:30:38Z</time>
      </trkpt>
      <trkpt lat="50.7917" lon="3.11315">
        <ele>13.6</ele>
        <time>2015-03-08T08:30:46Z</time>
      </trkpt>
      <trkpt lat="50.79171" lon="3.11327">
        <ele>15.04</ele>
        <time>2015-03-08T08:30:54Z</time>
      </trkpt>
      <trkpt lat="50.79173" lon="3.11337">
        <ele>16.96</ele>
        <time>2015-03-08T08:31:00Z</time>
      </trkpt>
      <trkpt lat="50.79173" lon="3.11339">
        <ele>17.44</ele>
        <time>2015-03-08T08:31:05Z</time>
      </trkpt>
      <trkpt lat="50.7918" lon="3.11352">
        <ele>17.92</ele>
        <time>2015-03-08T08:31:11Z</time>
      </trkpt>
      <trkpt lat="50.79186" lon="3.11365">
        <ele>17.92</ele>
        <time>2015-03-08T08:31:16Z</time>
      </trkpt>
      <trkpt lat="50.79187" lon="3.1137">
        <ele>17.44</ele>
        <time>2015-03-08T08:31:18Z</time>
      </trkpt>
      <trkpt lat="50.79185" lon="3.1138">
        <ele>15.04</ele>
        <time>2015-03-08T08:31:23Z</time>
      </trkpt>
      <trkpt lat="50.79184" lon="3.11394">
        <ele>11.67</ele>
        <time>2015-03-08T08:31:28Z</time>
      </trkpt>
      <trkpt lat="50.79183" lon="3.11414">
        <ele>7.83</ele>
        <time>2015-03-08T08:31:33Z</time>
      </trkpt>
      <trkpt lat="50.79184" lon="3.11437">
        <ele>4.46</ele>
        <time>2015-03-08T08:31:39Z</time>
      </trkpt>
      <trkpt lat="50.79188" lon="3.1144">
        <ele>3.98</ele>
        <time>2015-03-08T08:31:41Z</time>
      </trkpt>
      <trkpt lat="50.79196" lon="3.11433">
        <ele>3.02</ele>
        <time>2015-03-08T08:31:46Z</time>
      </trkpt>
      <trkpt lat="50.792" lon="3.11417">
        <ele>2.54</ele>
        <time>2015-03-08T08:31:52Z</time>
      </trkpt>
      <trkpt lat="50.79201" lon="3.11416">
        <ele>2.54</ele>
        <time>2015-03-08T08:31:53Z</time>
      </trkpt>
      <trkpt lat="50.79206" lon="3.11406">
        <ele>2.54</ele>
        <time>2015-03-08T08:31:59Z</time>
      </trkpt>
      <trkpt lat="50.79203" lon="3.11385">
        <ele>0.62</ele>
        <time>2015-03-08T08:32:07Z</time>
      </trkpt>
      <trkpt lat="50.79206" lon="3.11375">
        <ele>-0.34</ele>
        <time>2015-03-08T08:32:11Z</time>
      </trkpt>
      <trkpt lat="50.79212" lon="3.11374">
        <ele>-0.34</ele>
        <time>2015-03-08T08:32:14Z</time>
      </trkpt>
      <trkpt lat="50.79224" lon="3.11357">
        <ele>0.62</ele>
        <time>2015-03-08T08:32:21Z</time>
      </trkpt>
      <trkpt lat="50.79227" lon="3.1135">
        <ele>0.62</ele>
        <time>2015-03-08T08:32:24Z</time>
      </trkpt>
      <trkpt lat="50.79226" lon="3.11344">
        <ele>0.14</ele>
        <time>2015-03-08T08:32:26Z</time>
      </trkpt>
      <trkpt lat="50.79227" lon="3.1134">
        <ele>-0.34</ele>
        <time>2015-03-08T08:32:28Z</time>
      </trkpt>
      <trkpt lat="50.79232" lon="3.11329">
        <ele>0.14</ele>
        <time>2015-03-08T08:32:34Z</time>
      </trkpt>
      <trkpt lat="50.79233" lon="3.11326">
        <ele>0.62</ele>
        <time>2015-03-08T08:32:35Z</time>
      </trkpt>
      <trkpt lat="50.79234" lon="3.11312">
        <ele>0.62</ele>
        <time>2015-03-08T08:32:41Z</time>
      </trkpt>
      <trkpt lat="50.79233" lon="3.11308">
        <ele>0.14</ele>
        <time>2015-03-08T08:32:43Z</time>
      </trkpt>
      <trkpt lat="50.79237" lon="3.11298">
        <ele>0.62</ele>
        <time>2015-03-08T08:32:48Z</time>
      </trkpt>
      <trkpt lat="50.79246" lon="3.11289">
        <ele>2.54</ele>
        <time>2015-03-08T08:32:52Z</time>
      </trkpt>
      <trkpt lat="50.79261" lon="3.11272">
        <ele>8.31</ele>
        <time>2015-03-08T08:32:58Z</time>
      </trkpt>
      <trkpt lat="50.79263" lon="3.11268">
        <ele>8.79</ele>
        <time>2015-03-08T08:32:59Z</time>
      </trkpt>
      <trkpt lat="50.79272" lon="3.11265">
        <ele>12.15</ele>
        <time>2015-03-08T08:33:02Z</time>
      </trkpt>
      <trkpt lat="50.79282" lon="3.11275">
        <ele>16.48</ele>
        <time>2015-03-08T08:33:09Z</time>
      </trkpt>
      <trkpt lat="50.79293" lon="3.11277">
        <ele>16.48</ele>
        <time>2015-03-08T08:33:14Z</time>
      </trkpt>
      <trkpt lat="50.79299" lon="3.11275">
        <ele>15.52</ele>
        <time>2015-03-08T08:33:17Z</time>
      </trkpt>
      <trkpt lat="50.79308" lon="3.11266">
        <ele>12.63</ele>
        <time>2015-03-08T08:33:24Z</time>
      </trkpt>
      <trkpt lat="50.79316" lon="3.11273">
        <ele>12.63</ele>
        <time>2015-03-08T08:33:30Z</time>
      </trkpt>
      <trkpt lat="50.79324" lon="3.11277">
        <ele>11.19</ele>
        <time>2015-03-08T08:33:35Z</time>
      </trkpt>
      <trkpt lat="50.79328" lon="3.11274">
        <ele>11.67</ele>
        <time>2015-03-08T08:33:37Z</time>
      </trkpt>
      <trkpt lat="50.79338" lon="3.11276">
        <ele>13.12</ele>
        <time>2015-03-08T08:33:41Z</time>
      </trkpt>
      <trkpt lat="50.79361" lon="3.11291">
        <ele>13.6</ele>
        <time>2015-03-08T08:33:48Z</time>
      </trkpt>
      <trkpt lat="50.79373" lon="3.11296">
        <ele>12.63</ele>
        <time>2015-03-08T08:33:52Z</time>
      </trkpt>
      <trkpt lat="50.79387" lon="3.11306">
        <ele>10.23</ele>
        <time>2015-03-08T08:33:57Z</time>
      </trkpt>
      <trkpt lat="50.79397" lon="3.11339">
        <ele>8.79</ele>
        <time>2015-03-08T08:34:04Z</time>
      </trkpt>
      <trkpt lat="50.79403" lon="3.11364">
        <ele>9.75</ele>
        <time>2015-03-08T08:34:11Z</time>
      </trkpt>
      <trkpt lat="50.79409" lon="3.11404">
        <ele>9.75</ele>
        <time>2015-03-08T08:34:19Z</time>
      </trkpt>
      <trkpt lat="50.7941" lon="3.11424">
        <ele>8.79</ele>
        <time>2015-03-08T08:34:23Z</time>
      </trkpt>
      <trkpt lat="50.7941" lon="3.11445">
        <ele>7.35</ele>
        <time>2015-03-08T08:34:27Z</time>
      </trkpt>
      <trkpt lat="50.79409" lon="3.11476">
        <ele>4.46</ele>
        <time>2015-03-08T08:34:33Z</time>
      </trkpt>
      <trkpt lat="50.79408" lon="3.11481">
        <ele>4.46</ele>
        <time>2015-03-08T08:34:34Z</time>
      </trkpt>
      <trkpt lat="50.79407" lon="3.11504">
        <ele>3.98</ele>
        <time>2015-03-08T08:34:40Z</time>
      </trkpt>
      <trkpt lat="50.79394" lon="3.11534">
        <ele>3.02</ele>
        <time>2015-03-08T08:34:47Z</time>
      </trkpt>
      <trkpt lat="50.79387" lon="3.11544">
        <ele>1.58</ele>
        <time>2015-03-08T08:34:50Z</time>
      </trkpt>
      <trkpt lat="50.79383" lon="3.11559">
        <ele>-0.82</ele>
        <time>2015-03-08T08:34:54Z</time>
      </trkpt>
      <trkpt lat="50.79371" lon="3.11558">
        <ele>-0.82</ele>
        <time>2015-03-08T08:34:58Z</time>
      </trkpt>
      <trkpt lat="50.79358" lon="3.11553">
        <ele>0.62</ele>
        <time>2015-03-08T08:35:03Z</time>
      </trkpt>
      <trkpt lat="50.79354" lon="3.11562">
        <ele>1.1</ele>
        <time>2015-03-08T08:35:05Z</time>
      </trkpt>
      <trkpt lat="50.79334" lon="3.11594">
        <ele>2.06</ele>
        <time>2015-03-08T08:35:13Z</time>
      </trkpt>
      <trkpt lat="50.79312" lon="3.11609">
        <ele>4.94</ele>
        <time>2015-03-08T08:35:20Z</time>
      </trkpt>
      <trkpt lat="50.79297" lon="3.11602">
        <ele>6.39</ele>
        <time>2015-03-08T08:35:25Z</time>
      </trkpt>
      <trkpt lat="50.79279" lon="3.11597">
        <ele>8.79</ele>
        <time>2015-03-08T08:35:31Z</time>
      </trkpt>
      <trkpt lat="50.79276" lon="3.11598">
        <ele>9.27</ele>
        <time>2015-03-08T08:35:32Z</time>
      </trkpt>
      <trkpt lat="50.7927" lon="3.11616">
        <ele>9.27</ele>
        <time>2015-03-08T08:35:37Z</time>
      </trkpt>
      <trkpt lat="50.79274" lon="3.11649">
        <ele>9.27</ele>
        <time>2015-03-08T08:35:43Z</time>
      </trkpt>
      <trkpt lat="50.79284" lon="3.11674">
        <ele>8.79</ele>
        <time>2015-03-08T08:35:48Z</time>
      </trkpt>
      <trkpt lat="50.79287" lon="3.11686">
        <ele>8.79</ele>
        <time>2015-03-08T08:35:50Z</time>
      </trkpt>
      <trkpt lat="50.79287" lon="3.11692">
        <ele>8.79</ele>
        <time>2015-03-08T08:35:51Z</time>
      </trkpt>
      <trkpt lat="50.79286" lon="3.11698">
        <ele>8.79</ele>
        <time>2015-03-08T08:35:52Z</time>
      </trkpt>
      <trkpt lat="50.79283" lon="3.11703">
        <ele>8.79</ele>
        <time>2015-03-08T08:35:53Z</time>
      </trkpt>
      <trkpt lat="50.79271" lon="3.1173">
        <ele>8.79</ele>
        <time>2015-03-08T08:35:59Z</time>
      </trkpt>
      <trkpt lat="50.79256" lon="3.1175">
        <ele>10.23</ele>
        <time>2015-03-08T08:36:05Z</time>
      </trkpt>
      <trkpt lat="50.79242" lon="3.11768">
        <ele>9.27</ele>
        <time>2015-03-08T08:36:12Z</time>
      </trkpt>
      <trkpt lat="50.79236" lon="3.11792">
        <ele>8.79</ele>
        <time>2015-03-08T08:36:18Z</time>
      </trkpt>
      <trkpt lat="50.7923" lon="3.11812">
        <ele>8.79</ele>
        <time>2015-03-08T08:36:23Z</time>
      </trkpt>
      <trkpt lat="50.79216" lon="3.11846">
        <ele>8.31</ele>
        <time>2015-03-08T08:36:31Z</time>
      </trkpt>
      <trkpt lat="50.79205" lon="3.11871">
        <ele>7.83</ele>
        <time>2015-03-08T08:36:37Z</time>
      </trkpt>
      <trkpt lat="50.79189" lon="3.11891">
        <ele>7.35</ele>
        <time>2015-03-08T08:36:43Z</time>
      </trkpt>
      <trkpt lat="50.79176" lon="3.11904">
        <ele>7.35</ele>
        <time>2015-03-08T08:36:47Z</time>
      </trkpt>
      <trkpt lat="50.79172" lon="3.11907">
        <ele>7.35</ele>
        <time>2015-03-08T08:36:48Z</time>
      </trkpt>
      <trkpt lat="50.79168" lon="3.11908">
        <ele>7.35</ele>
        <time>2015-03-08T08:36:49Z</time>
      </trkpt>
      <trkpt lat="50.79164" lon="3.11908">
        <ele>7.35</ele>
        <time>2015-03-08T08:36:50Z</time>
      </trkpt>
      <trkpt lat="50.7916" lon="3.11906">
        <ele>7.83</ele>
        <time>2015-03-08T08:36:51Z</time>
      </trkpt>
      <trkpt lat="50.79156" lon="3.11903">
        <ele>7.83</ele>
        <time>2015-03-08T08:36:52Z</time>
      </trkpt>
      <trkpt lat="50.79152" lon="3.11901">
        <ele>7.83</ele>
        <time>2015-03-08T08:36:53Z</time>
      </trkpt>
      <trkpt lat="50.79148" lon="3.11899">
        <ele>8.31</ele>
        <time>2015-03-08T08:36:54Z</time>
      </trkpt>
      <trkpt lat="50.79144" lon="3.11897">
        <ele>8.31</ele>
        <time>2015-03-08T08:36:55Z</time>
      </trkpt>
      <trkpt lat="50.79127" lon="3.1189">
        <ele>7.83</ele>
        <time>2015-03-08T08:37:00Z</time>
      </trkpt>
      <trkpt lat="50.79125" lon="3.11885">
        <ele>7.83</ele>
        <time>2015-03-08T08:37:01Z</time>
      </trkpt>
      <trkpt lat="50.79123" lon="3.11853">
        <ele>7.35</ele>
        <time>2015-03-08T08:37:07Z</time>
      </trkpt>
      <trkpt lat="50.7912" lon="3.11833">
        <ele>7.35</ele>
        <time>2015-03-08T08:37:12Z</time>
      </trkpt>
      <trkpt lat="50.79112" lon="3.11823">
        <ele>7.35</ele>
        <time>2015-03-08T08:37:15Z</time>
      </trkpt>
      <trkpt lat="50.79104" lon="3.11805">
        <ele>7.35</ele>
        <time>2015-03-08T08:37:20Z</time>
      </trkpt>
      <trkpt lat="50.791" lon="3.118">
        <ele>8.31</ele>
        <time>2015-03-08T08:37:23Z</time>
      </trkpt>
      <trkpt lat="50.79098" lon="3.11797">
        <ele>8.31</ele>
        <time>2015-03-08T08:37:24Z</time>
      </trkpt>
      <trkpt lat="50.79096" lon="3.11793">
        <ele>8.31</ele>
        <time>2015-03-08T08:37:25Z</time>
      </trkpt>
      <trkpt lat="50.79096" lon="3.11789">
        <ele>8.31</ele>
        <time>2015-03-08T08:37:26Z</time>
      </trkpt>
      <trkpt lat="50.79096" lon="3.11785">
        <ele>8.31</ele>
        <time>2015-03-08T08:37:27Z</time>
      </trkpt>
      <trkpt lat="50.79098" lon="3.11781">
        <ele>9.27</ele>
        <time>2015-03-08T08:37:28Z</time>
      </trkpt>
      <trkpt lat="50.791" lon="3.11777">
        <ele>9.27</ele>
        <time>2015-03-08T08:37:29Z</time>
      </trkpt>
      <trkpt lat="50.79101" lon="3.11773">
        <ele>9.27</ele>
        <time>2015-03-08T08:37:30Z</time>
      </trkpt>
      <trkpt lat="50.79103" lon="3.11769">
        <ele>9.75</ele>
        <time>2015-03-08T08:37:31Z</time>
      </trkpt>
      <trkpt lat="50.79105" lon="3.11765">
        <ele>9.75</ele>
        <time>2015-03-08T08:37:32Z</time>
      </trkpt>
      <trkpt lat="50.79116" lon="3.1174">
        <ele>9.27</ele>
        <time>2015-03-08T08:37:37Z</time>
      </trkpt>
      <trkpt lat="50.79118" lon="3.11734">
        <ele>8.79</ele>
        <time>2015-03-08T08:37:38Z</time>
      </trkpt>
      <trkpt lat="50.79119" lon="3.11729">
        <ele>8.31</ele>
        <time>2015-03-08T08:37:39Z</time>
      </trkpt>
      <trkpt lat="50.79119" lon="3.11724">
        <ele>8.31</ele>
        <time>2015-03-08T08:37:40Z</time>
      </trkpt>
      <trkpt lat="50.7912" lon="3.11719">
        <ele>8.31</ele>
        <time>2015-03-08T08:37:41Z</time>
      </trkpt>
      <trkpt lat="50.79121" lon="3.11712">
        <ele>7.83</ele>
        <time>2015-03-08T08:37:42Z</time>
      </trkpt>
      <trkpt lat="50.79124" lon="3.11708">
        <ele>8.31</ele>
        <time>2015-03-08T08:37:43Z</time>
      </trkpt>
      <trkpt lat="50.79126" lon="3.11705">
        <ele>7.83</ele>
        <time>2015-03-08T08:37:44Z</time>
      </trkpt>
      <trkpt lat="50.79127" lon="3.11702">
        <ele>7.83</ele>
        <time>2015-03-08T08:37:45Z</time>
      </trkpt>
      <trkpt lat="50.79127" lon="3.117">
        <ele>7.83</ele>
        <time>2015-03-08T08:37:46Z</time>
      </trkpt>
      <trkpt lat="50.79127" lon="3.11697">
        <ele>8.79</ele>
        <time>2015-03-08T08:37:52Z</time>
      </trkpt>
      <trkpt lat="50.79126" lon="3.11694">
        <ele>8.79</ele>
        <time>2015-03-08T08:37:59Z</time>
      </trkpt>
      <trkpt lat="50.79127" lon="3.11692">
        <ele>9.27</ele>
        <time>2015-03-08T08:38:00Z</time>
      </trkpt>
      <trkpt lat="50.79128" lon="3.1169">
        <ele>9.27</ele>
        <time>2015-03-08T08:38:01Z</time>
      </trkpt>
      <trkpt lat="50.7913" lon="3.11689">
        <ele>9.27</ele>
        <time>2015-03-08T08:38:02Z</time>
      </trkpt>
      <trkpt lat="50.79132" lon="3.11686">
        <ele>9.75</ele>
        <time>2015-03-08T08:38:03Z</time>
      </trkpt>
      <trkpt lat="50.79135" lon="3.11684">
        <ele>10.23</ele>
        <time>2015-03-08T08:38:04Z</time>
      </trkpt>
      <trkpt lat="50.79137" lon="3.11683">
        <ele>10.71</ele>
        <time>2015-03-08T08:38:05Z</time>
      </trkpt>
      <trkpt lat="50.79139" lon="3.1168">
        <ele>11.19</ele>
        <time>2015-03-08T08:38:06Z</time>
      </trkpt>
      <trkpt lat="50.7914" lon="3.11678">
        <ele>11.67</ele>
        <time>2015-03-08T08:38:07Z</time>
      </trkpt>
      <trkpt lat="50.79141" lon="3.11675">
        <ele>11.67</ele>
        <time>2015-03-08T08:38:08Z</time>
      </trkpt>
      <trkpt lat="50.79142" lon="3.1167">
        <ele>12.63</ele>
        <time>2015-03-08T08:38:09Z</time>
      </trkpt>
      <trkpt lat="50.79142" lon="3.11666">
        <ele>12.63</ele>
        <time>2015-03-08T08:38:10Z</time>
      </trkpt>
      <trkpt lat="50.79138" lon="3.1163">
        <ele>13.12</ele>
        <time>2015-03-08T08:38:17Z</time>
      </trkpt>
      <trkpt lat="50.79127" lon="3.11608">
        <ele>13.6</ele>
        <time>2015-03-08T08:38:22Z</time>
      </trkpt>
      <trkpt lat="50.79116" lon="3.11601">
        <ele>13.6</ele>
        <time>2015-03-08T08:38:25Z</time>
      </trkpt>
      <trkpt lat="50.79112" lon="3.11601">
        <ele>13.12</ele>
        <time>2015-03-08T08:38:26Z</time>
      </trkpt>
      <trkpt lat="50.79108" lon="3.11602">
        <ele>13.12</ele>
        <time>2015-03-08T08:38:27Z</time>
      </trkpt>
      <trkpt lat="50.79104" lon="3.11602">
        <ele>13.12</ele>
        <time>2015-03-08T08:38:28Z</time>
      </trkpt>
      <trkpt lat="50.791" lon="3.11603">
        <ele>13.12</ele>
        <time>2015-03-08T08:38:29Z</time>
      </trkpt>
      <trkpt lat="50.79096" lon="3.11605">
        <ele>13.12</ele>
        <time>2015-03-08T08:38:30Z</time>
      </trkpt>
      <trkpt lat="50.79092" lon="3.11608">
        <ele>13.6</ele>
        <time>2015-03-08T08:38:31Z</time>
      </trkpt>
      <trkpt lat="50.79089" lon="3.11611">
        <ele>14.08</ele>
        <time>2015-03-08T08:38:32Z</time>
      </trkpt>
      <trkpt lat="50.7907" lon="3.11623">
        <ele>14.08</ele>
        <time>2015-03-08T08:38:37Z</time>
      </trkpt>
      <trkpt lat="50.79043" lon="3.11619">
        <ele>15.52</ele>
        <time>2015-03-08T08:38:44Z</time>
      </trkpt>
      <trkpt lat="50.7904" lon="3.11614">
        <ele>15.52</ele>
        <time>2015-03-08T08:38:45Z</time>
      </trkpt>
      <trkpt lat="50.79038" lon="3.11609">
        <ele>15.52</ele>
        <time>2015-03-08T08:38:46Z</time>
      </trkpt>
      <trkpt lat="50.79037" lon="3.11603">
        <ele>15.52</ele>
        <time>2015-03-08T08:38:47Z</time>
      </trkpt>
      <trkpt lat="50.79037" lon="3.11596">
        <ele>15.52</ele>
        <time>2015-03-08T08:38:48Z</time>
      </trkpt>
      <trkpt lat="50.79038" lon="3.1159">
        <ele>15.52</ele>
        <time>2015-03-08T08:38:49Z</time>
      </trkpt>
      <trkpt lat="50.79039" lon="3.11584">
        <ele>15.52</ele>
        <time>2015-03-08T08:38:50Z</time>
      </trkpt>
      <trkpt lat="50.7904" lon="3.11579">
        <ele>16</ele>
        <time>2015-03-08T08:38:51Z</time>
      </trkpt>
      <trkpt lat="50.79043" lon="3.11574">
        <ele>16</ele>
        <time>2015-03-08T08:38:52Z</time>
      </trkpt>
      <trkpt lat="50.79046" lon="3.11568">
        <ele>15.52</ele>
        <time>2015-03-08T08:38:53Z</time>
      </trkpt>
      <trkpt lat="50.79049" lon="3.11564">
        <ele>15.52</ele>
        <time>2015-03-08T08:38:54Z</time>
      </trkpt>
      <trkpt lat="50.79053" lon="3.1156">
        <ele>15.52</ele>
        <time>2015-03-08T08:38:55Z</time>
      </trkpt>
      <trkpt lat="50.79057" lon="3.11557">
        <ele>16</ele>
        <time>2015-03-08T08:38:56Z</time>
      </trkpt>
      <trkpt lat="50.79062" lon="3.11555">
        <ele>16</ele>
        <time>2015-03-08T08:38:57Z</time>
      </trkpt>
      <trkpt lat="50.79067" lon="3.11554">
        <ele>16</ele>
        <time>2015-03-08T08:38:58Z</time>
      </trkpt>
      <trkpt lat="50.79073" lon="3.11553">
        <ele>16</ele>
        <time>2015-03-08T08:38:59Z</time>
      </trkpt>
      <trkpt lat="50.79079" lon="3.11552">
        <ele>16</ele>
        <time>2015-03-08T08:39:00Z</time>
      </trkpt>
      <trkpt lat="50.79084" lon="3.1155">
        <ele>16</ele>
        <time>2015-03-08T08:39:01Z</time>
      </trkpt>
      <trkpt lat="50.7909" lon="3.11547">
        <ele>16</ele>
        <time>2015-03-08T08:39:02Z</time>
      </trkpt>
      <trkpt lat="50.79095" lon="3.11543">
        <ele>16</ele>
        <time>2015-03-08T08:39:03Z</time>
      </trkpt>
      <trkpt lat="50.79098" lon="3.11537">
        <ele>15.52</ele>
        <time>2015-03-08T08:39:04Z</time>
      </trkpt>
      <trkpt lat="50.79099" lon="3.11529">
        <ele>15.52</ele>
        <time>2015-03-08T08:39:05Z</time>
      </trkpt>
      <trkpt lat="50.79099" lon="3.1152">
        <ele>15.52</ele>
        <time>2015-03-08T08:39:06Z</time>
      </trkpt>
      <trkpt lat="50.79097" lon="3.11511">
        <ele>15.52</ele>
        <time>2015-03-08T08:39:07Z</time>
      </trkpt>
      <trkpt lat="50.79094" lon="3.11503">
        <ele>15.04</ele>
        <time>2015-03-08T08:39:08Z</time>
      </trkpt>
      <trkpt lat="50.79089" lon="3.11496">
        <ele>15.04</ele>
        <time>2015-03-08T08:39:09Z</time>
      </trkpt>
      <trkpt lat="50.79084" lon="3.1149">
        <ele>15.04</ele>
        <time>2015-03-08T08:39:10Z</time>
      </trkpt>
      <trkpt lat="50.79078" lon="3.11486">
        <ele>15.04</ele>
        <time>2015-03-08T08:39:11Z</time>
      </trkpt>
      <trkpt lat="50.79072" lon="3.11483">
        <ele>15.04</ele>
        <time>2015-03-08T08:39:12Z</time>
      </trkpt>
      <trkpt lat="50.79066" lon="3.11482">
        <ele>15.04</ele>
        <time>2015-03-08T08:39:13Z</time>
      </trkpt>
      <trkpt lat="50.7906" lon="3.11482">
        <ele>15.04</ele>
        <time>2015-03-08T08:39:14Z</time>
      </trkpt>
      <trkpt lat="50.79054" lon="3.11485">
        <ele>15.04</ele>
        <time>2015-03-08T08:39:15Z</time>
      </trkpt>
      <trkpt lat="50.79049" lon="3.11488">
        <ele>15.04</ele>
        <time>2015-03-08T08:39:16Z</time>
      </trkpt>
      <trkpt lat="50.79044" lon="3.11493">
        <ele>15.04</ele>
        <time>2015-03-08T08:39:17Z</time>
      </trkpt>
      <trkpt lat="50.79039" lon="3.11498">
        <ele>15.52</ele>
        <time>2015-03-08T08:39:18Z</time>
      </trkpt>
      <trkpt lat="50.79034" lon="3.11503">
        <ele>15.52</ele>
        <time>2015-03-08T08:39:19Z</time>
      </trkpt>
      <trkpt lat="50.7903" lon="3.11507">
        <ele>15.04</ele>
        <time>2015-03-08T08:39:20Z</time>
      </trkpt>
      <trkpt lat="50.79025" lon="3.1151">
        <ele>15.04</ele>
        <time>2015-03-08T08:39:21Z</time>
      </trkpt>
      <trkpt lat="50.79019" lon="3.11511">
        <ele>15.04</ele>
        <time>2015-03-08T08:39:22Z</time>
      </trkpt>
      <trkpt lat="50.79014" lon="3.11511">
        <ele>15.04</ele>
        <time>2015-03-08T08:39:23Z</time>
      </trkpt>
      <trkpt lat="50.79009" lon="3.11509">
        <ele>15.04</ele>
        <time>2015-03-08T08:39:24Z</time>
      </trkpt>
      <trkpt lat="50.79003" lon="3.11509">
        <ele>15.04</ele>
        <time>2015-03-08T08:39:25Z</time>
      </trkpt>
      <trkpt lat="50.78998" lon="3.11511">
        <ele>15.04</ele>
        <time>2015-03-08T08:39:26Z</time>
      </trkpt>
      <trkpt lat="50.78992" lon="3.11515">
        <ele>15.04</ele>
        <time>2015-03-08T08:39:27Z</time>
      </trkpt>
      <trkpt lat="50.78988" lon="3.11521">
        <ele>15.04</ele>
        <time>2015-03-08T08:39:28Z</time>
      </trkpt>
      <trkpt lat="50.78984" lon="3.11528">
        <ele>15.04</ele>
        <time>2015-03-08T08:39:29Z</time>
      </trkpt>
      <trkpt lat="50.78981" lon="3.11535">
        <ele>15.04</ele>
        <time>2015-03-08T08:39:30Z</time>
      </trkpt>
      <trkpt lat="50.7898" lon="3.11544">
        <ele>15.04</ele>
        <time>2015-03-08T08:39:31Z</time>
      </trkpt>
      <trkpt lat="50.7898" lon="3.11553">
        <ele>15.04</ele>
        <time>2015-03-08T08:39:32Z</time>
      </trkpt>
      <trkpt lat="50.78981" lon="3.11562">
        <ele>15.04</ele>
        <time>2015-03-08T08:39:33Z</time>
      </trkpt>
      <trkpt lat="50.78983" lon="3.11571">
        <ele>15.04</ele>
        <time>2015-03-08T08:39:34Z</time>
      </trkpt>
      <trkpt lat="50.78985" lon="3.11579">
        <ele>15.04</ele>
        <time>2015-03-08T08:39:35Z</time>
      </trkpt>
      <trkpt lat="50.7899" lon="3.11595">
        <ele>15.52</ele>
        <time>2015-03-08T08:39:37Z</time>
      </trkpt>
      <trkpt lat="50.78993" lon="3.11602">
        <ele>16</ele>
        <time>2015-03-08T08:39:38Z</time>
      </trkpt>
      <trkpt lat="50.78997" lon="3.11609">
        <ele>16</ele>
        <time>2015-03-08T08:39:39Z</time>
      </trkpt>
      <trkpt lat="50.78999" lon="3.11616">
        <ele>16</ele>
        <time>2015-03-08T08:39:40Z</time>
      </trkpt>
      <trkpt lat="50.79001" lon="3.11625">
        <ele>16</ele>
        <time>2015-03-08T08:39:41Z</time>
      </trkpt>
      <trkpt lat="50.79001" lon="3.11634">
        <ele>16</ele>
        <time>2015-03-08T08:39:42Z</time>
      </trkpt>
      <trkpt lat="50.79001" lon="3.11644">
        <ele>16</ele>
        <time>2015-03-08T08:39:43Z</time>
      </trkpt>
      <trkpt lat="50.79002" lon="3.11653">
        <ele>16</ele>
        <time>2015-03-08T08:39:44Z</time>
      </trkpt>
      <trkpt lat="50.79005" lon="3.11662">
        <ele>16</ele>
        <time>2015-03-08T08:39:45Z</time>
      </trkpt>
      <trkpt lat="50.79009" lon="3.11671">
        <ele>16</ele>
        <time>2015-03-08T08:39:46Z</time>
      </trkpt>
      <trkpt lat="50.79015" lon="3.11688">
        <ele>16</ele>
        <time>2015-03-08T08:39:48Z</time>
      </trkpt>
      <trkpt lat="50.7902" lon="3.11704">
        <ele>16</ele>
        <time>2015-03-08T08:39:50Z</time>
      </trkpt>
      <trkpt lat="50.79023" lon="3.11711">
        <ele>16</ele>
        <time>2015-03-08T08:39:51Z</time>
      </trkpt>
      <trkpt lat="50.79025" lon="3.11719">
        <ele>16</ele>
        <time>2015-03-08T08:39:52Z</time>
      </trkpt>
      <trkpt lat="50.79026" lon="3.11728">
        <ele>16</ele>
        <time>2015-03-08T08:39:53Z</time>
      </trkpt>
      <trkpt lat="50.79026" lon="3.11738">
        <ele>16</ele>
        <time>2015-03-08T08:39:54Z</time>
      </trkpt>
      <trkpt lat="50.79026" lon="3.11747">
        <ele>15.52</ele>
        <time>2015-03-08T08:39:55Z</time>
      </trkpt>
      <trkpt lat="50.79025" lon="3.11757">
        <ele>15.52</ele>
        <time>2015-03-08T08:39:56Z</time>
      </trkpt>
      <trkpt lat="50.79026" lon="3.11767">
        <ele>15.04</ele>
        <time>2015-03-08T08:39:57Z</time>
      </trkpt>
      <trkpt lat="50.79027" lon="3.11786">
        <ele>14.56</ele>
        <time>2015-03-08T08:39:59Z</time>
      </trkpt>
      <trkpt lat="50.79028" lon="3.11794">
        <ele>14.56</ele>
        <time>2015-03-08T08:40:00Z</time>
      </trkpt>
      <trkpt lat="50.7903" lon="3.11802">
        <ele>14.56</ele>
        <time>2015-03-08T08:40:01Z</time>
      </trkpt>
      <trkpt lat="50.79032" lon="3.11809">
        <ele>14.08</ele>
        <time>2015-03-08T08:40:02Z</time>
      </trkpt>
      <trkpt lat="50.79033" lon="3.11825">
        <ele>13.6</ele>
        <time>2015-03-08T08:40:04Z</time>
      </trkpt>
      <trkpt lat="50.79032" lon="3.11833">
        <ele>13.12</ele>
        <time>2015-03-08T08:40:05Z</time>
      </trkpt>
      <trkpt lat="50.79031" lon="3.11842">
        <ele>12.63</ele>
        <time>2015-03-08T08:40:06Z</time>
      </trkpt>
      <trkpt lat="50.79025" lon="3.1189">
        <ele>9.75</ele>
        <time>2015-03-08T08:40:11Z</time>
      </trkpt>
      <trkpt lat="50.79022" lon="3.11909">
        <ele>7.83</ele>
        <time>2015-03-08T08:40:14Z</time>
      </trkpt>
      <trkpt lat="50.79018" lon="3.11915">
        <ele>6.39</ele>
        <time>2015-03-08T08:40:17Z</time>
      </trkpt>
      <trkpt lat="50.79017" lon="3.11915">
        <ele>6.39</ele>
        <time>2015-03-08T08:40:18Z</time>
      </trkpt>
      <trkpt lat="50.79016" lon="3.11915">
        <ele>5.91</ele>
        <time>2015-03-08T08:40:19Z</time>
      </trkpt>
      <trkpt lat="50.79014" lon="3.11913">
        <ele>5.42</ele>
        <time>2015-03-08T08:40:20Z</time>
      </trkpt>
      <trkpt lat="50.79013" lon="3.11912">
        <ele>5.42</ele>
        <time>2015-03-08T08:40:21Z</time>
      </trkpt>
      <trkpt lat="50.79011" lon="3.11911">
        <ele>4.94</ele>
        <time>2015-03-08T08:40:22Z</time>
      </trkpt>
      <trkpt lat="50.7901" lon="3.11909">
        <ele>4.94</ele>
        <time>2015-03-08T08:40:23Z</time>
      </trkpt>
      <trkpt lat="50.79008" lon="3.11907">
        <ele>4.94</ele>
        <time>2015-03-08T08:40:24Z</time>
      </trkpt>
      <trkpt lat="50.79007" lon="3.11903">
        <ele>4.94</ele>
        <time>2015-03-08T08:40:25Z</time>
      </trkpt>
      <trkpt lat="50.79006" lon="3.11899">
        <ele>4.46</ele>
        <time>2015-03-08T08:40:26Z</time>
      </trkpt>
      <trkpt lat="50.79005" lon="3.11894">
        <ele>3.98</ele>
        <time>2015-03-08T08:40:27Z</time>
      </trkpt>
      <trkpt lat="50.79004" lon="3.11874">
        <ele>3.02</ele>
        <time>2015-03-08T08:40:30Z</time>
      </trkpt>
      <trkpt lat="50.79" lon="3.11861">
        <ele>2.06</ele>
        <time>2015-03-08T08:40:32Z</time>
      </trkpt>
      <trkpt lat="50.78997" lon="3.11855">
        <ele>2.06</ele>
        <time>2015-03-08T08:40:33Z</time>
      </trkpt>
      <trkpt lat="50.78993" lon="3.11844">
        <ele>1.58</ele>
        <time>2015-03-08T08:40:35Z</time>
      </trkpt>
      <trkpt lat="50.78992" lon="3.11836">
        <ele>1.58</ele>
        <time>2015-03-08T08:40:36Z</time>
      </trkpt>
      <trkpt lat="50.78991" lon="3.11829">
        <ele>2.06</ele>
        <time>2015-03-08T08:40:37Z</time>
      </trkpt>
      <trkpt lat="50.7899" lon="3.11822">
        <ele>2.06</ele>
        <time>2015-03-08T08:40:38Z</time>
      </trkpt>
      <trkpt lat="50.78989" lon="3.11814">
        <ele>2.06</ele>
        <time>2015-03-08T08:40:39Z</time>
      </trkpt>
      <trkpt lat="50.78988" lon="3.118">
        <ele>2.54</ele>
        <time>2015-03-08T08:40:41Z</time>
      </trkpt>
      <trkpt lat="50.78988" lon="3.11793">
        <ele>3.02</ele>
        <time>2015-03-08T08:40:42Z</time>
      </trkpt>
      <trkpt lat="50.78986" lon="3.11772">
        <ele>3.98</ele>
        <time>2015-03-08T08:40:45Z</time>
      </trkpt>
      <trkpt lat="50.78985" lon="3.11765">
        <ele>4.46</ele>
        <time>2015-03-08T08:40:46Z</time>
      </trkpt>
      <trkpt lat="50.78977" lon="3.11709">
        <ele>8.31</ele>
        <time>2015-03-08T08:40:54Z</time>
      </trkpt>
      <trkpt lat="50.78968" lon="3.11661">
        <ele>10.23</ele>
        <time>2015-03-08T08:41:01Z</time>
      </trkpt>
      <trkpt lat="50.78966" lon="3.11655">
        <ele>10.71</ele>
        <time>2015-03-08T08:41:02Z</time>
      </trkpt>
      <trkpt lat="50.78964" lon="3.11649">
        <ele>10.71</ele>
        <time>2015-03-08T08:41:03Z</time>
      </trkpt>
      <trkpt lat="50.78962" lon="3.11642">
        <ele>10.71</ele>
        <time>2015-03-08T08:41:04Z</time>
      </trkpt>
      <trkpt lat="50.78961" lon="3.11636">
        <ele>11.19</ele>
        <time>2015-03-08T08:41:05Z</time>
      </trkpt>
      <trkpt lat="50.7896" lon="3.1163">
        <ele>11.19</ele>
        <time>2015-03-08T08:41:06Z</time>
      </trkpt>
      <trkpt lat="50.78959" lon="3.11624">
        <ele>11.19</ele>
        <time>2015-03-08T08:41:07Z</time>
      </trkpt>
      <trkpt lat="50.78957" lon="3.11619">
        <ele>11.19</ele>
        <time>2015-03-08T08:41:08Z</time>
      </trkpt>
      <trkpt lat="50.78956" lon="3.11613">
        <ele>11.19</ele>
        <time>2015-03-08T08:41:09Z</time>
      </trkpt>
      <trkpt lat="50.78956" lon="3.11607">
        <ele>11.19</ele>
        <time>2015-03-08T08:41:10Z</time>
      </trkpt>
      <trkpt lat="50.78955" lon="3.11601">
        <ele>11.19</ele>
        <time>2015-03-08T08:41:11Z</time>
      </trkpt>
      <trkpt lat="50.78953" lon="3.11595">
        <ele>11.67</ele>
        <time>2015-03-08T08:41:12Z</time>
      </trkpt>
      <trkpt lat="50.78952" lon="3.11589">
        <ele>11.67</ele>
        <time>2015-03-08T08:41:13Z</time>
      </trkpt>
      <trkpt lat="50.78948" lon="3.11571">
        <ele>12.63</ele>
        <time>2015-03-08T08:41:16Z</time>
      </trkpt>
      <trkpt lat="50.78936" lon="3.11533">
        <ele>12.63</ele>
        <time>2015-03-08T08:41:23Z</time>
      </trkpt>
      <trkpt lat="50.78925" lon="3.11518">
        <ele>12.15</ele>
        <time>2015-03-08T08:41:28Z</time>
      </trkpt>
      <trkpt lat="50.78917" lon="3.11495">
        <ele>12.15</ele>
        <time>2015-03-08T08:41:34Z</time>
      </trkpt>
      <trkpt lat="50.7892" lon="3.11476">
        <ele>12.15</ele>
        <time>2015-03-08T08:41:39Z</time>
      </trkpt>
      <trkpt lat="50.78936" lon="3.1146">
        <ele>13.6</ele>
        <time>2015-03-08T08:41:46Z</time>
      </trkpt>
      <trkpt lat="50.7895" lon="3.1145">
        <ele>14.56</ele>
        <time>2015-03-08T08:41:52Z</time>
      </trkpt>
      <trkpt lat="50.78963" lon="3.1144">
        <ele>15.52</ele>
        <time>2015-03-08T08:41:58Z</time>
      </trkpt>
      <trkpt lat="50.78978" lon="3.11431">
        <ele>15.52</ele>
        <time>2015-03-08T08:42:04Z</time>
      </trkpt>
      <trkpt lat="50.78994" lon="3.11418">
        <ele>14.56</ele>
        <time>2015-03-08T08:42:11Z</time>
      </trkpt>
      <trkpt lat="50.79012" lon="3.11398">
        <ele>14.08</ele>
        <time>2015-03-08T08:42:18Z</time>
      </trkpt>
      <trkpt lat="50.79028" lon="3.11381">
        <ele>14.08</ele>
        <time>2015-03-08T08:42:24Z</time>
      </trkpt>
      <trkpt lat="50.79043" lon="3.11366">
        <ele>14.56</ele>
        <time>2015-03-08T08:42:29Z</time>
      </trkpt>
      <trkpt lat="50.79065" lon="3.11345">
        <ele>15.52</ele>
        <time>2015-03-08T08:42:36Z</time>
      </trkpt>
      <trkpt lat="50.79082" lon="3.11323">
        <ele>15.04</ele>
        <time>2015-03-08T08:42:43Z</time>
      </trkpt>
      <trkpt lat="50.79085" lon="3.11323">
        <ele>15.04</ele>
        <time>2015-03-08T08:42:44Z</time>
      </trkpt>
      <trkpt lat="50.79088" lon="3.11335">
        <ele>15.04</ele>
        <time>2015-03-08T08:42:48Z</time>
      </trkpt>
      <trkpt lat="50.79084" lon="3.11342">
        <ele>15.04</ele>
        <time>2015-03-08T08:42:50Z</time>
      </trkpt>
      <trkpt lat="50.79062" lon="3.11364">
        <ele>15.04</ele>
        <time>2015-03-08T08:42:57Z</time>
      </trkpt>
      <trkpt lat="50.79043" lon="3.11385">
        <ele>16.48</ele>
        <time>2015-03-08T08:43:03Z</time>
      </trkpt>
      <trkpt lat="50.79024" lon="3.11406">
        <ele>16</ele>
        <time>2015-03-08T08:43:09Z</time>
      </trkpt>
      <trkpt lat="50.78995" lon="3.11437">
        <ele>15.04</ele>
        <time>2015-03-08T08:43:18Z</time>
      </trkpt>
      <trkpt lat="50.7897" lon="3.11466">
        <ele>12.63</ele>
        <time>2015-03-08T08:43:27Z</time>
      </trkpt>
      <trkpt lat="50.78952" lon="3.11481">
        <ele>12.63</ele>
        <time>2015-03-08T08:43:33Z</time>
      </trkpt>
      <trkpt lat="50.78932" lon="3.11495">
        <ele>13.12</ele>
        <time>2015-03-08T08:43:40Z</time>
      </trkpt>
      <trkpt lat="50.78906" lon="3.11511">
        <ele>14.56</ele>
        <time>2015-03-08T08:43:48Z</time>
      </trkpt>
      <trkpt lat="50.78882" lon="3.11526">
        <ele>14.56</ele>
        <time>2015-03-08T08:43:55Z</time>
      </trkpt>
      <trkpt lat="50.78846" lon="3.11551">
        <ele>14.08</ele>
        <time>2015-03-08T08:44:03Z</time>
      </trkpt>
      <trkpt lat="50.78793" lon="3.1158">
        <ele>12.63</ele>
        <time>2015-03-08T08:44:12Z</time>
      </trkpt>
      <trkpt lat="50.78733" lon="3.1161">
        <ele>10.71</ele>
        <time>2015-03-08T08:44:21Z</time>
      </trkpt>
      <trkpt lat="50.78681" lon="3.11636">
        <ele>10.71</ele>
        <time>2015-03-08T08:44:30Z</time>
      </trkpt>
      <trkpt lat="50.78641" lon="3.11654">
        <ele>11.19</ele>
        <time>2015-03-08T08:44:38Z</time>
      </trkpt>
      <trkpt lat="50.78627" lon="3.11662">
        <ele>11.67</ele>
        <time>2015-03-08T08:44:41Z</time>
      </trkpt>
      <trkpt lat="50.78623" lon="3.11664">
        <ele>11.67</ele>
        <time>2015-03-08T08:44:42Z</time>
      </trkpt>
      <trkpt lat="50.78614" lon="3.11669">
        <ele>11.67</ele>
        <time>2015-03-08T08:44:44Z</time>
      </trkpt>
      <trkpt lat="50.78609" lon="3.11671">
        <ele>11.67</ele>
        <time>2015-03-08T08:44:45Z</time>
      </trkpt>
      <trkpt lat="50.78556" lon="3.11699">
        <ele>12.15</ele>
        <time>2015-03-08T08:44:57Z</time>
      </trkpt>
      <trkpt lat="50.78537" lon="3.11712">
        <ele>12.63</ele>
        <time>2015-03-08T08:45:03Z</time>
      </trkpt>
      <trkpt lat="50.78535" lon="3.11715">
        <ele>12.63</ele>
        <time>2015-03-08T08:45:04Z</time>
      </trkpt>
      <trkpt lat="50.78534" lon="3.1172">
        <ele>12.15</ele>
        <time>2015-03-08T08:45:05Z</time>
      </trkpt>
      <trkpt lat="50.78536" lon="3.11751">
        <ele>12.15</ele>
        <time>2015-03-08T08:45:11Z</time>
      </trkpt>
      <trkpt lat="50.78536" lon="3.11756">
        <ele>11.67</ele>
        <time>2015-03-08T08:45:12Z</time>
      </trkpt>
      <trkpt lat="50.78534" lon="3.1176">
        <ele>11.67</ele>
        <time>2015-03-08T08:45:13Z</time>
      </trkpt>
      <trkpt lat="50.78531" lon="3.11762">
        <ele>11.67</ele>
        <time>2015-03-08T08:45:14Z</time>
      </trkpt>
      <trkpt lat="50.78528" lon="3.11764">
        <ele>11.19</ele>
        <time>2015-03-08T08:45:15Z</time>
      </trkpt>
      <trkpt lat="50.78525" lon="3.11766">
        <ele>11.19</ele>
        <time>2015-03-08T08:45:16Z</time>
      </trkpt>
      <trkpt lat="50.78501" lon="3.11782">
        <ele>11.19</ele>
        <time>2015-03-08T08:45:23Z</time>
      </trkpt>
      <trkpt lat="50.78486" lon="3.11792">
        <ele>11.19</ele>
        <time>2015-03-08T08:45:28Z</time>
      </trkpt>
      <trkpt lat="50.78472" lon="3.11806">
        <ele>9.27</ele>
        <time>2015-03-08T08:45:33Z</time>
      </trkpt>
      <trkpt lat="50.78438" lon="3.11818">
        <ele>7.35</ele>
        <time>2015-03-08T08:45:40Z</time>
      </trkpt>
      <trkpt lat="50.78423" lon="3.11821">
        <ele>7.35</ele>
        <time>2015-03-08T08:45:43Z</time>
      </trkpt>
      <trkpt lat="50.78378" lon="3.11821">
        <ele>7.35</ele>
        <time>2015-03-08T08:45:52Z</time>
      </trkpt>
      <trkpt lat="50.7835" lon="3.11824">
        <ele>9.27</ele>
        <time>2015-03-08T08:45:58Z</time>
      </trkpt>
      <trkpt lat="50.78346" lon="3.11825">
        <ele>9.27</ele>
        <time>2015-03-08T08:45:59Z</time>
      </trkpt>
      <trkpt lat="50.78341" lon="3.11828">
        <ele>9.27</ele>
        <time>2015-03-08T08:46:00Z</time>
      </trkpt>
      <trkpt lat="50.78323" lon="3.11838">
        <ele>10.23</ele>
        <time>2015-03-08T08:46:04Z</time>
      </trkpt>
      <trkpt lat="50.7832" lon="3.1184">
        <ele>10.23</ele>
        <time>2015-03-08T08:46:05Z</time>
      </trkpt>
      <trkpt lat="50.78317" lon="3.1184">
        <ele>10.23</ele>
        <time>2015-03-08T08:46:06Z</time>
      </trkpt>
      <trkpt lat="50.78314" lon="3.1184">
        <ele>10.23</ele>
        <time>2015-03-08T08:46:07Z</time>
      </trkpt>
      <trkpt lat="50.78313" lon="3.11841">
        <ele>10.23</ele>
        <time>2015-03-08T08:46:08Z</time>
      </trkpt>
      <trkpt lat="50.78311" lon="3.11841">
        <ele>9.75</ele>
        <time>2015-03-08T08:46:09Z</time>
      </trkpt>
      <trkpt lat="50.78309" lon="3.11841">
        <ele>10.23</ele>
        <time>2015-03-08T08:46:10Z</time>
      </trkpt>
      <trkpt lat="50.78309" lon="3.1184">
        <ele>10.71</ele>
        <time>2015-03-08T08:46:11Z</time>
      </trkpt>
      <trkpt lat="50.78309" lon="3.11839">
        <ele>11.19</ele>
        <time>2015-03-08T08:46:12Z</time>
      </trkpt>
      <trkpt lat="50.78308" lon="3.11837">
        <ele>12.15</ele>
        <time>2015-03-08T08:46:13Z</time>
      </trkpt>
      <trkpt lat="50.78306" lon="3.11836">
        <ele>12.63</ele>
        <time>2015-03-08T08:46:14Z</time>
      </trkpt>
      <trkpt lat="50.78304" lon="3.11832">
        <ele>13.6</ele>
        <time>2015-03-08T08:46:16Z</time>
      </trkpt>
      <trkpt lat="50.78303" lon="3.1183">
        <ele>13.6</ele>
        <time>2015-03-08T08:46:17Z</time>
      </trkpt>
      <trkpt lat="50.78303" lon="3.11828">
        <ele>13.6</ele>
        <time>2015-03-08T08:46:18Z</time>
      </trkpt>
      <trkpt lat="50.78303" lon="3.11826">
        <ele>13.12</ele>
        <time>2015-03-08T08:46:19Z</time>
      </trkpt>
      <trkpt lat="50.78301" lon="3.11824">
        <ele>13.12</ele>
        <time>2015-03-08T08:46:20Z</time>
      </trkpt>
      <trkpt lat="50.78299" lon="3.11822">
        <ele>13.6</ele>
        <time>2015-03-08T08:46:21Z</time>
      </trkpt>
      <trkpt lat="50.78297" lon="3.11821">
        <ele>13.6</ele>
        <time>2015-03-08T08:46:22Z</time>
      </trkpt>
      <trkpt lat="50.78295" lon="3.11821">
        <ele>14.08</ele>
        <time>2015-03-08T08:46:23Z</time>
      </trkpt>
      <trkpt lat="50.78292" lon="3.1182">
        <ele>14.08</ele>
        <time>2015-03-08T08:46:24Z</time>
      </trkpt>
      <trkpt lat="50.7829" lon="3.1182">
        <ele>14.08</ele>
        <time>2015-03-08T08:46:25Z</time>
      </trkpt>
      <trkpt lat="50.78272" lon="3.11824">
        <ele>14.08</ele>
        <time>2015-03-08T08:46:31Z</time>
      </trkpt>
      <trkpt lat="50.7825" lon="3.11838">
        <ele>14.08</ele>
        <time>2015-03-08T08:46:38Z</time>
      </trkpt>
      <trkpt lat="50.78231" lon="3.11855">
        <ele>14.08</ele>
        <time>2015-03-08T08:46:44Z</time>
      </trkpt>
      <trkpt lat="50.78194" lon="3.11889">
        <ele>13.6</ele>
        <time>2015-03-08T08:46:55Z</time>
      </trkpt>
      <trkpt lat="50.78187" lon="3.11896">
        <ele>13.6</ele>
        <time>2015-03-08T08:46:57Z</time>
      </trkpt>
      <trkpt lat="50.78153" lon="3.11927">
        <ele>12.63</ele>
        <time>2015-03-08T08:47:06Z</time>
      </trkpt>
      <trkpt lat="50.78128" lon="3.11951">
        <ele>12.63</ele>
        <time>2015-03-08T08:47:13Z</time>
      </trkpt>
      <trkpt lat="50.78125" lon="3.1196">
        <ele>12.63</ele>
        <time>2015-03-08T08:47:15Z</time>
      </trkpt>
      <trkpt lat="50.78124" lon="3.11964">
        <ele>12.63</ele>
        <time>2015-03-08T08:47:16Z</time>
      </trkpt>
      <trkpt lat="50.78123" lon="3.11966">
        <ele>13.12</ele>
        <time>2015-03-08T08:47:17Z</time>
      </trkpt>
      <trkpt lat="50.78121" lon="3.11967">
        <ele>13.12</ele>
        <time>2015-03-08T08:47:18Z</time>
      </trkpt>
      <trkpt lat="50.7812" lon="3.11968">
        <ele>13.12</ele>
        <time>2015-03-08T08:47:19Z</time>
      </trkpt>
      <trkpt lat="50.78115" lon="3.11972">
        <ele>14.08</ele>
        <time>2015-03-08T08:47:22Z</time>
      </trkpt>
      <trkpt lat="50.78113" lon="3.11972">
        <ele>14.08</ele>
        <time>2015-03-08T08:47:23Z</time>
      </trkpt>
      <trkpt lat="50.7811" lon="3.11971">
        <ele>14.08</ele>
        <time>2015-03-08T08:47:24Z</time>
      </trkpt>
      <trkpt lat="50.78109" lon="3.11969">
        <ele>14.08</ele>
        <time>2015-03-08T08:47:25Z</time>
      </trkpt>
      <trkpt lat="50.78109" lon="3.11965">
        <ele>14.08</ele>
        <time>2015-03-08T08:47:26Z</time>
      </trkpt>
      <trkpt lat="50.78108" lon="3.11954">
        <ele>14.56</ele>
        <time>2015-03-08T08:47:31Z</time>
      </trkpt>
      <trkpt lat="50.78108" lon="3.11957">
        <ele>16</ele>
        <time>2015-03-08T08:47:41Z</time>
      </trkpt>
      <trkpt lat="50.78107" lon="3.11955">
        <ele>16.48</ele>
        <time>2015-03-08T08:47:48Z</time>
      </trkpt>
      <trkpt lat="50.78105" lon="3.11955">
        <ele>16.48</ele>
        <time>2015-03-08T08:47:49Z</time>
      </trkpt>
      <trkpt lat="50.78104" lon="3.11955">
        <ele>16</ele>
        <time>2015-03-08T08:47:50Z</time>
      </trkpt>
      <trkpt lat="50.78093" lon="3.11951">
        <ele>16.48</ele>
        <time>2015-03-08T08:47:54Z</time>
      </trkpt>
      <trkpt lat="50.7809" lon="3.11953">
        <ele>16.48</ele>
        <time>2015-03-08T08:47:55Z</time>
      </trkpt>
      <trkpt lat="50.78087" lon="3.11955">
        <ele>16.48</ele>
        <time>2015-03-08T08:47:56Z</time>
      </trkpt>
      <trkpt lat="50.78083" lon="3.11959">
        <ele>16.48</ele>
        <time>2015-03-08T08:47:57Z</time>
      </trkpt>
      <trkpt lat="50.7808" lon="3.11962">
        <ele>16</ele>
        <time>2015-03-08T08:47:58Z</time>
      </trkpt>
      <trkpt lat="50.78076" lon="3.11966">
        <ele>16</ele>
        <time>2015-03-08T08:47:59Z</time>
      </trkpt>
      <trkpt lat="50.78048" lon="3.11989">
        <ele>16.96</ele>
        <time>2015-03-08T08:48:07Z</time>
      </trkpt>
      <trkpt lat="50.78038" lon="3.11997">
        <ele>16.96</ele>
        <time>2015-03-08T08:48:11Z</time>
      </trkpt>
      <trkpt lat="50.78037" lon="3.11998">
        <ele>16.96</ele>
        <time>2015-03-08T08:48:12Z</time>
      </trkpt>
      <trkpt lat="50.78035" lon="3.11999">
        <ele>17.44</ele>
        <time>2015-03-08T08:48:13Z</time>
      </trkpt>
      <trkpt lat="50.78034" lon="3.11999">
        <ele>17.44</ele>
        <time>2015-03-08T08:48:14Z</time>
      </trkpt>
      <trkpt lat="50.78032" lon="3.12">
        <ele>17.44</ele>
        <time>2015-03-08T08:48:15Z</time>
      </trkpt>
      <trkpt lat="50.78031" lon="3.12002">
        <ele>17.44</ele>
        <time>2015-03-08T08:48:16Z</time>
      </trkpt>
      <trkpt lat="50.78031" lon="3.12003">
        <ele>17.44</ele>
        <time>2015-03-08T08:48:17Z</time>
      </trkpt>
      <trkpt lat="50.78031" lon="3.12005">
        <ele>17.44</ele>
        <time>2015-03-08T08:48:18Z</time>
      </trkpt>
      <trkpt lat="50.78032" lon="3.12006">
        <ele>17.44</ele>
        <time>2015-03-08T08:48:19Z</time>
      </trkpt>
      <trkpt lat="50.78033" lon="3.12009">
        <ele>16.96</ele>
        <time>2015-03-08T08:48:20Z</time>
      </trkpt>
      <trkpt lat="50.78036" lon="3.12017">
        <ele>16.96</ele>
        <time>2015-03-08T08:48:22Z</time>
      </trkpt>
      <trkpt lat="50.78039" lon="3.12023">
        <ele>16.96</ele>
        <time>2015-03-08T08:48:23Z</time>
      </trkpt>
      <trkpt lat="50.7804" lon="3.12043">
        <ele>16.96</ele>
        <time>2015-03-08T08:48:26Z</time>
      </trkpt>
      <trkpt lat="50.78038" lon="3.12049">
        <ele>16.96</ele>
        <time>2015-03-08T08:48:27Z</time>
      </trkpt>
      <trkpt lat="50.78036" lon="3.12052">
        <ele>16.96</ele>
        <time>2015-03-08T08:48:28Z</time>
      </trkpt>
      <trkpt lat="50.78032" lon="3.12056">
        <ele>16.96</ele>
        <time>2015-03-08T08:48:29Z</time>
      </trkpt>
      <trkpt lat="50.78029" lon="3.1206">
        <ele>16.96</ele>
        <time>2015-03-08T08:48:30Z</time>
      </trkpt>
      <trkpt lat="50.78025" lon="3.12064">
        <ele>16.96</ele>
        <time>2015-03-08T08:48:31Z</time>
      </trkpt>
      <trkpt lat="50.78021" lon="3.12068">
        <ele>16.96</ele>
        <time>2015-03-08T08:48:32Z</time>
      </trkpt>
      <trkpt lat="50.78018" lon="3.12072">
        <ele>17.44</ele>
        <time>2015-03-08T08:48:33Z</time>
      </trkpt>
      <trkpt lat="50.78014" lon="3.12076">
        <ele>17.44</ele>
        <time>2015-03-08T08:48:34Z</time>
      </trkpt>
      <trkpt lat="50.7801" lon="3.12079">
        <ele>17.92</ele>
        <time>2015-03-08T08:48:35Z</time>
      </trkpt>
      <trkpt lat="50.78006" lon="3.12082">
        <ele>17.92</ele>
        <time>2015-03-08T08:48:36Z</time>
      </trkpt>
      <trkpt lat="50.77981" lon="3.12105">
        <ele>19.36</ele>
        <time>2015-03-08T08:48:43Z</time>
      </trkpt>
      <trkpt lat="50.77952" lon="3.12128">
        <ele>22.73</ele>
        <time>2015-03-08T08:48:52Z</time>
      </trkpt>
      <trkpt lat="50.77939" lon="3.12141">
        <ele>24.17</ele>
        <time>2015-03-08T08:48:58Z</time>
      </trkpt>
      <trkpt lat="50.77936" lon="3.1214">
        <ele>24.65</ele>
        <time>2015-03-08T08:48:59Z</time>
      </trkpt>
      <trkpt lat="50.77934" lon="3.12137">
        <ele>25.13</ele>
        <time>2015-03-08T08:49:00Z</time>
      </trkpt>
      <trkpt lat="50.77932" lon="3.12133">
        <ele>25.61</ele>
        <time>2015-03-08T08:49:01Z</time>
      </trkpt>
      <trkpt lat="50.7793" lon="3.1213">
        <ele>26.09</ele>
        <time>2015-03-08T08:49:02Z</time>
      </trkpt>
      <trkpt lat="50.77915" lon="3.12103">
        <ele>25.13</ele>
        <time>2015-03-08T08:49:09Z</time>
      </trkpt>
      <trkpt lat="50.77889" lon="3.12053">
        <ele>25.13</ele>
        <time>2015-03-08T08:49:18Z</time>
      </trkpt>
      <trkpt lat="50.77859" lon="3.11994">
        <ele>26.09</ele>
        <time>2015-03-08T08:49:27Z</time>
      </trkpt>
      <trkpt lat="50.77843" lon="3.11963">
        <ele>25.13</ele>
        <time>2015-03-08T08:49:32Z</time>
      </trkpt>
      <trkpt lat="50.77839" lon="3.11959">
        <ele>25.13</ele>
        <time>2015-03-08T08:49:33Z</time>
      </trkpt>
      <trkpt lat="50.77835" lon="3.11955">
        <ele>25.13</ele>
        <time>2015-03-08T08:49:34Z</time>
      </trkpt>
      <trkpt lat="50.77826" lon="3.1195">
        <ele>24.65</ele>
        <time>2015-03-08T08:49:36Z</time>
      </trkpt>
      <trkpt lat="50.77821" lon="3.11948">
        <ele>24.65</ele>
        <time>2015-03-08T08:49:37Z</time>
      </trkpt>
      <trkpt lat="50.77784" lon="3.11946">
        <ele>24.65</ele>
        <time>2015-03-08T08:49:45Z</time>
      </trkpt>
      <trkpt lat="50.77763" lon="3.11942">
        <ele>25.13</ele>
        <time>2015-03-08T08:49:51Z</time>
      </trkpt>
      <trkpt lat="50.77759" lon="3.11945">
        <ele>26.09</ele>
        <time>2015-03-08T08:49:52Z</time>
      </trkpt>
      <trkpt lat="50.77748" lon="3.1196">
        <ele>27.53</ele>
        <time>2015-03-08T08:49:55Z</time>
      </trkpt>
      <trkpt lat="50.77745" lon="3.11966">
        <ele>28.02</ele>
        <time>2015-03-08T08:49:56Z</time>
      </trkpt>
      <trkpt lat="50.77743" lon="3.11972">
        <ele>28.02</ele>
        <time>2015-03-08T08:49:57Z</time>
      </trkpt>
      <trkpt lat="50.77741" lon="3.11978">
        <ele>28.5</ele>
        <time>2015-03-08T08:49:58Z</time>
      </trkpt>
      <trkpt lat="50.77739" lon="3.11984">
        <ele>28.5</ele>
        <time>2015-03-08T08:49:59Z</time>
      </trkpt>
      <trkpt lat="50.77721" lon="3.12042">
        <ele>28.5</ele>
        <time>2015-03-08T08:50:08Z</time>
      </trkpt>
      <trkpt lat="50.77711" lon="3.12075">
        <ele>28.5</ele>
        <time>2015-03-08T08:50:13Z</time>
      </trkpt>
      <trkpt lat="50.77709" lon="3.12081">
        <ele>28.5</ele>
        <time>2015-03-08T08:50:14Z</time>
      </trkpt>
      <trkpt lat="50.77698" lon="3.12113">
        <ele>28.5</ele>
        <time>2015-03-08T08:50:19Z</time>
      </trkpt>
      <trkpt lat="50.77692" lon="3.12126">
        <ele>28.5</ele>
        <time>2015-03-08T08:50:21Z</time>
      </trkpt>
      <trkpt lat="50.77688" lon="3.12132">
        <ele>28.02</ele>
        <time>2015-03-08T08:50:22Z</time>
      </trkpt>
      <trkpt lat="50.77661" lon="3.12178">
        <ele>27.53</ele>
        <time>2015-03-08T08:50:29Z</time>
      </trkpt>
      <trkpt lat="50.77648" lon="3.12199">
        <ele>27.53</ele>
        <time>2015-03-08T08:50:33Z</time>
      </trkpt>
      <trkpt lat="50.77645" lon="3.122">
        <ele>27.53</ele>
        <time>2015-03-08T08:50:34Z</time>
      </trkpt>
      <trkpt lat="50.77641" lon="3.12197">
        <ele>27.53</ele>
        <time>2015-03-08T08:50:35Z</time>
      </trkpt>
      <trkpt lat="50.77638" lon="3.12192">
        <ele>27.05</ele>
        <time>2015-03-08T08:50:36Z</time>
      </trkpt>
      <trkpt lat="50.77634" lon="3.12185">
        <ele>27.05</ele>
        <time>2015-03-08T08:50:37Z</time>
      </trkpt>
      <trkpt lat="50.7763" lon="3.12179">
        <ele>27.05</ele>
        <time>2015-03-08T08:50:38Z</time>
      </trkpt>
      <trkpt lat="50.77626" lon="3.12173">
        <ele>26.57</ele>
        <time>2015-03-08T08:50:39Z</time>
      </trkpt>
      <trkpt lat="50.77594" lon="3.12122">
        <ele>27.05</ele>
        <time>2015-03-08T08:50:48Z</time>
      </trkpt>
      <trkpt lat="50.77583" lon="3.12105">
        <ele>27.05</ele>
        <time>2015-03-08T08:50:51Z</time>
      </trkpt>
      <trkpt lat="50.77581" lon="3.12099">
        <ele>27.53</ele>
        <time>2015-03-08T08:50:52Z</time>
      </trkpt>
      <trkpt lat="50.7758" lon="3.12092">
        <ele>27.53</ele>
        <time>2015-03-08T08:50:53Z</time>
      </trkpt>
      <trkpt lat="50.7758" lon="3.12084">
        <ele>27.53</ele>
        <time>2015-03-08T08:50:54Z</time>
      </trkpt>
      <trkpt lat="50.77581" lon="3.12077">
        <ele>27.05</ele>
        <time>2015-03-08T08:50:55Z</time>
      </trkpt>
      <trkpt lat="50.77582" lon="3.1207">
        <ele>27.05</ele>
        <time>2015-03-08T08:50:56Z</time>
      </trkpt>
      <trkpt lat="50.77582" lon="3.12063">
        <ele>27.53</ele>
        <time>2015-03-08T08:50:57Z</time>
      </trkpt>
      <trkpt lat="50.77583" lon="3.12056">
        <ele>27.53</ele>
        <time>2015-03-08T08:50:58Z</time>
      </trkpt>
      <trkpt lat="50.77588" lon="3.1203">
        <ele>28.98</ele>
        <time>2015-03-08T08:51:02Z</time>
      </trkpt>
      <trkpt lat="50.77589" lon="3.12024">
        <ele>28.98</ele>
        <time>2015-03-08T08:51:03Z</time>
      </trkpt>
      <trkpt lat="50.77591" lon="3.12018">
        <ele>29.46</ele>
        <time>2015-03-08T08:51:04Z</time>
      </trkpt>
      <trkpt lat="50.77592" lon="3.12012">
        <ele>29.46</ele>
        <time>2015-03-08T08:51:05Z</time>
      </trkpt>
      <trkpt lat="50.77592" lon="3.11987">
        <ele>29.46</ele>
        <time>2015-03-08T08:51:10Z</time>
      </trkpt>
      <trkpt lat="50.77594" lon="3.11982">
        <ele>29.46</ele>
        <time>2015-03-08T08:51:15Z</time>
      </trkpt>
      <trkpt lat="50.77593" lon="3.11979">
        <ele>31.38</ele>
        <time>2015-03-08T08:51:28Z</time>
      </trkpt>
      <trkpt lat="50.77594" lon="3.11974">
        <ele>30.42</ele>
        <time>2015-03-08T08:51:34Z</time>
      </trkpt>
      <trkpt lat="50.77595" lon="3.11972">
        <ele>30.42</ele>
        <time>2015-03-08T08:51:43Z</time>
      </trkpt>
      <trkpt lat="50.77595" lon="3.11972">
        <ele>29.94</ele>
        <time>2015-03-08T08:51:54Z</time>
      </trkpt>
      <trkpt lat="50.77595" lon="3.1197">
        <ele>29.94</ele>
        <time>2015-03-08T08:51:57Z</time>
      </trkpt>
      <trkpt lat="50.77601" lon="3.11956">
        <ele>28.98</ele>
        <time>2015-03-08T08:52:03Z</time>
      </trkpt>
      <trkpt lat="50.77602" lon="3.11937">
        <ele>28.5</ele>
        <time>2015-03-08T08:52:07Z</time>
      </trkpt>
      <trkpt lat="50.77601" lon="3.11931">
        <ele>28.5</ele>
        <time>2015-03-08T08:52:08Z</time>
      </trkpt>
      <trkpt lat="50.77595" lon="3.11886">
        <ele>28.02</ele>
        <time>2015-03-08T08:52:15Z</time>
      </trkpt>
      <trkpt lat="50.7759" lon="3.1186">
        <ele>28.5</ele>
        <time>2015-03-08T08:52:19Z</time>
      </trkpt>
      <trkpt lat="50.77573" lon="3.11818">
        <ele>27.53</ele>
        <time>2015-03-08T08:52:26Z</time>
      </trkpt>
      <trkpt lat="50.77566" lon="3.11787">
        <ele>27.05</ele>
        <time>2015-03-08T08:52:30Z</time>
      </trkpt>
      <trkpt lat="50.77563" lon="3.11722">
        <ele>26.57</ele>
        <time>2015-03-08T08:52:38Z</time>
      </trkpt>
      <trkpt lat="50.77561" lon="3.11682">
        <ele>25.13</ele>
        <time>2015-03-08T08:52:44Z</time>
      </trkpt>
      <trkpt lat="50.77551" lon="3.11642">
        <ele>24.65</ele>
        <time>2015-03-08T08:52:50Z</time>
      </trkpt>
      <trkpt lat="50.77549" lon="3.11628">
        <ele>24.65</ele>
        <time>2015-03-08T08:52:52Z</time>
      </trkpt>
      <trkpt lat="50.77553" lon="3.11605">
        <ele>25.61</ele>
        <time>2015-03-08T08:52:55Z</time>
      </trkpt>
      <trkpt lat="50.7756" lon="3.11576">
        <ele>26.09</ele>
        <time>2015-03-08T08:52:59Z</time>
      </trkpt>
      <trkpt lat="50.77558" lon="3.11545">
        <ele>26.57</ele>
        <time>2015-03-08T08:53:03Z</time>
      </trkpt>
      <trkpt lat="50.77555" lon="3.1152">
        <ele>26.57</ele>
        <time>2015-03-08T08:53:06Z</time>
      </trkpt>
      <trkpt lat="50.77556" lon="3.11512">
        <ele>26.09</ele>
        <time>2015-03-08T08:53:07Z</time>
      </trkpt>
      <trkpt lat="50.77557" lon="3.11504">
        <ele>26.09</ele>
        <time>2015-03-08T08:53:08Z</time>
      </trkpt>
      <trkpt lat="50.7756" lon="3.11488">
        <ele>26.09</ele>
        <time>2015-03-08T08:53:10Z</time>
      </trkpt>
      <trkpt lat="50.77576" lon="3.11435">
        <ele>25.61</ele>
        <time>2015-03-08T08:53:17Z</time>
      </trkpt>
      <trkpt lat="50.77582" lon="3.11412">
        <ele>25.61</ele>
        <time>2015-03-08T08:53:20Z</time>
      </trkpt>
      <trkpt lat="50.7759" lon="3.11375">
        <ele>25.61</ele>
        <time>2015-03-08T08:53:26Z</time>
      </trkpt>
      <trkpt lat="50.77596" lon="3.11345">
        <ele>25.61</ele>
        <time>2015-03-08T08:53:32Z</time>
      </trkpt>
      <trkpt lat="50.77599" lon="3.11312">
        <ele>25.13</ele>
        <time>2015-03-08T08:53:36Z</time>
      </trkpt>
      <trkpt lat="50.77599" lon="3.11304">
        <ele>25.61</ele>
        <time>2015-03-08T08:53:37Z</time>
      </trkpt>
      <trkpt lat="50.776" lon="3.11296">
        <ele>25.61</ele>
        <time>2015-03-08T08:53:38Z</time>
      </trkpt>
      <trkpt lat="50.77603" lon="3.11227">
        <ele>26.57</ele>
        <time>2015-03-08T08:53:47Z</time>
      </trkpt>
      <trkpt lat="50.776" lon="3.11163">
        <ele>25.13</ele>
        <time>2015-03-08T08:53:55Z</time>
      </trkpt>
      <trkpt lat="50.77598" lon="3.11114">
        <ele>24.65</ele>
        <time>2015-03-08T08:54:02Z</time>
      </trkpt>
      <trkpt lat="50.77598" lon="3.11065">
        <ele>25.13</ele>
        <time>2015-03-08T08:54:09Z</time>
      </trkpt>
      <trkpt lat="50.77598" lon="3.11026">
        <ele>25.13</ele>
        <time>2015-03-08T08:54:15Z</time>
      </trkpt>
      <trkpt lat="50.77598" lon="3.1099">
        <ele>25.13</ele>
        <time>2015-03-08T08:54:20Z</time>
      </trkpt>
      <trkpt lat="50.77598" lon="3.10983">
        <ele>25.13</ele>
        <time>2015-03-08T08:54:21Z</time>
      </trkpt>
      <trkpt lat="50.77597" lon="3.10932">
        <ele>25.13</ele>
        <time>2015-03-08T08:54:28Z</time>
      </trkpt>
      <trkpt lat="50.77597" lon="3.10917">
        <ele>25.61</ele>
        <time>2015-03-08T08:54:30Z</time>
      </trkpt>
      <trkpt lat="50.77596" lon="3.10889">
        <ele>26.09</ele>
        <time>2015-03-08T08:54:34Z</time>
      </trkpt>
      <trkpt lat="50.77596" lon="3.10882">
        <ele>26.09</ele>
        <time>2015-03-08T08:54:35Z</time>
      </trkpt>
      <trkpt lat="50.77596" lon="3.10853">
        <ele>26.09</ele>
        <time>2015-03-08T08:54:39Z</time>
      </trkpt>
      <trkpt lat="50.77595" lon="3.1084">
        <ele>26.57</ele>
        <time>2015-03-08T08:54:41Z</time>
      </trkpt>
      <trkpt lat="50.77594" lon="3.10833">
        <ele>26.57</ele>
        <time>2015-03-08T08:54:42Z</time>
      </trkpt>
      <trkpt lat="50.77593" lon="3.10827">
        <ele>26.57</ele>
        <time>2015-03-08T08:54:43Z</time>
      </trkpt>
      <trkpt lat="50.7759" lon="3.10814">
        <ele>26.57</ele>
        <time>2015-03-08T08:54:45Z</time>
      </trkpt>
      <trkpt lat="50.77588" lon="3.10807">
        <ele>26.57</ele>
        <time>2015-03-08T08:54:46Z</time>
      </trkpt>
      <trkpt lat="50.77578" lon="3.10782">
        <ele>26.09</ele>
        <time>2015-03-08T08:54:50Z</time>
      </trkpt>
      <trkpt lat="50.77567" lon="3.1075">
        <ele>23.69</ele>
        <time>2015-03-08T08:54:55Z</time>
      </trkpt>
      <trkpt lat="50.77547" lon="3.10697">
        <ele>24.65</ele>
        <time>2015-03-08T08:55:03Z</time>
      </trkpt>
      <trkpt lat="50.77526" lon="3.10653">
        <ele>25.61</ele>
        <time>2015-03-08T08:55:10Z</time>
      </trkpt>
      <trkpt lat="50.77515" lon="3.1063">
        <ele>26.09</ele>
        <time>2015-03-08T08:55:14Z</time>
      </trkpt>
      <trkpt lat="50.77502" lon="3.10593">
        <ele>26.57</ele>
        <time>2015-03-08T08:55:20Z</time>
      </trkpt>
      <trkpt lat="50.77482" lon="3.10554">
        <ele>28.5</ele>
        <time>2015-03-08T08:55:27Z</time>
      </trkpt>
      <trkpt lat="50.77457" lon="3.10503">
        <ele>28.98</ele>
        <time>2015-03-08T08:55:36Z</time>
      </trkpt>
      <trkpt lat="50.77432" lon="3.10452">
        <ele>28.98</ele>
        <time>2015-03-08T08:55:45Z</time>
      </trkpt>
      <trkpt lat="50.77407" lon="3.10403">
        <ele>28.5</ele>
        <time>2015-03-08T08:55:53Z</time>
      </trkpt>
      <trkpt lat="50.77388" lon="3.10375">
        <ele>28.02</ele>
        <time>2015-03-08T08:56:00Z</time>
      </trkpt>
      <trkpt lat="50.77385" lon="3.10369">
        <ele>27.53</ele>
        <time>2015-03-08T08:56:01Z</time>
      </trkpt>
      <trkpt lat="50.77382" lon="3.10363">
        <ele>27.53</ele>
        <time>2015-03-08T08:56:02Z</time>
      </trkpt>
      <trkpt lat="50.77379" lon="3.10357">
        <ele>27.53</ele>
        <time>2015-03-08T08:56:03Z</time>
      </trkpt>
      <trkpt lat="50.77372" lon="3.10344">
        <ele>27.53</ele>
        <time>2015-03-08T08:56:05Z</time>
      </trkpt>
      <trkpt lat="50.77344" lon="3.10297">
        <ele>26.57</ele>
        <time>2015-03-08T08:56:13Z</time>
      </trkpt>
      <trkpt lat="50.77308" lon="3.10236">
        <ele>25.61</ele>
        <time>2015-03-08T08:56:23Z</time>
      </trkpt>
      <trkpt lat="50.77295" lon="3.10212">
        <ele>25.13</ele>
        <time>2015-03-08T08:56:27Z</time>
      </trkpt>
      <trkpt lat="50.77294" lon="3.10206">
        <ele>24.65</ele>
        <time>2015-03-08T08:56:28Z</time>
      </trkpt>
      <trkpt lat="50.77293" lon="3.10201">
        <ele>24.65</ele>
        <time>2015-03-08T08:56:29Z</time>
      </trkpt>
      <trkpt lat="50.77293" lon="3.10196">
        <ele>24.65</ele>
        <time>2015-03-08T08:56:30Z</time>
      </trkpt>
      <trkpt lat="50.77292" lon="3.10191">
        <ele>24.17</ele>
        <time>2015-03-08T08:56:31Z</time>
      </trkpt>
      <trkpt lat="50.77292" lon="3.10187">
        <ele>24.17</ele>
        <time>2015-03-08T08:56:32Z</time>
      </trkpt>
      <trkpt lat="50.77293" lon="3.10177">
        <ele>23.69</ele>
        <time>2015-03-08T08:56:35Z</time>
      </trkpt>
      <trkpt lat="50.77294" lon="3.10174">
        <ele>23.69</ele>
        <time>2015-03-08T08:56:36Z</time>
      </trkpt>
      <trkpt lat="50.77297" lon="3.10143">
        <ele>22.25</ele>
        <time>2015-03-08T08:56:42Z</time>
      </trkpt>
      <trkpt lat="50.77296" lon="3.10136">
        <ele>22.25</ele>
        <time>2015-03-08T08:56:43Z</time>
      </trkpt>
      <trkpt lat="50.77293" lon="3.10131">
        <ele>21.77</ele>
        <time>2015-03-08T08:56:44Z</time>
      </trkpt>
      <trkpt lat="50.77289" lon="3.10128">
        <ele>21.77</ele>
        <time>2015-03-08T08:56:45Z</time>
      </trkpt>
      <trkpt lat="50.77284" lon="3.10125">
        <ele>21.77</ele>
        <time>2015-03-08T08:56:46Z</time>
      </trkpt>
      <trkpt lat="50.77279" lon="3.10122">
        <ele>21.77</ele>
        <time>2015-03-08T08:56:47Z</time>
      </trkpt>
      <trkpt lat="50.77274" lon="3.10121">
        <ele>21.77</ele>
        <time>2015-03-08T08:56:48Z</time>
      </trkpt>
      <trkpt lat="50.77234" lon="3.10104">
        <ele>20.81</ele>
        <time>2015-03-08T08:56:57Z</time>
      </trkpt>
      <trkpt lat="50.77209" lon="3.10101">
        <ele>21.29</ele>
        <time>2015-03-08T08:57:04Z</time>
      </trkpt>
      <trkpt lat="50.77204" lon="3.10098">
        <ele>21.77</ele>
        <time>2015-03-08T08:57:06Z</time>
      </trkpt>
      <trkpt lat="50.77203" lon="3.10095">
        <ele>22.25</ele>
        <time>2015-03-08T08:57:07Z</time>
      </trkpt>
      <trkpt lat="50.77204" lon="3.10091">
        <ele>22.25</ele>
        <time>2015-03-08T08:57:08Z</time>
      </trkpt>
      <trkpt lat="50.77206" lon="3.10086">
        <ele>22.73</ele>
        <time>2015-03-08T08:57:09Z</time>
      </trkpt>
      <trkpt lat="50.77207" lon="3.10081">
        <ele>22.73</ele>
        <time>2015-03-08T08:57:10Z</time>
      </trkpt>
      <trkpt lat="50.77209" lon="3.10076">
        <ele>22.73</ele>
        <time>2015-03-08T08:57:11Z</time>
      </trkpt>
      <trkpt lat="50.77211" lon="3.1007">
        <ele>22.73</ele>
        <time>2015-03-08T08:57:12Z</time>
      </trkpt>
      <trkpt lat="50.77224" lon="3.10035">
        <ele>22.73</ele>
        <time>2015-03-08T08:57:17Z</time>
      </trkpt>
      <trkpt lat="50.77245" lon="3.09975">
        <ele>21.77</ele>
        <time>2015-03-08T08:57:25Z</time>
      </trkpt>
      <trkpt lat="50.77248" lon="3.09958">
        <ele>21.29</ele>
        <time>2015-03-08T08:57:28Z</time>
      </trkpt>
      <trkpt lat="50.77246" lon="3.09954">
        <ele>21.29</ele>
        <time>2015-03-08T08:57:29Z</time>
      </trkpt>
      <trkpt lat="50.77239" lon="3.09935">
        <ele>21.29</ele>
        <time>2015-03-08T08:57:33Z</time>
      </trkpt>
      <trkpt lat="50.77237" lon="3.09905">
        <ele>20.81</ele>
        <time>2015-03-08T08:57:38Z</time>
      </trkpt>
      <trkpt lat="50.77225" lon="3.09854">
        <ele>20.32</ele>
        <time>2015-03-08T08:57:46Z</time>
      </trkpt>
      <trkpt lat="50.77224" lon="3.09848">
        <ele>20.32</ele>
        <time>2015-03-08T08:57:47Z</time>
      </trkpt>
      <trkpt lat="50.77222" lon="3.09842">
        <ele>20.32</ele>
        <time>2015-03-08T08:57:48Z</time>
      </trkpt>
      <trkpt lat="50.77213" lon="3.09806">
        <ele>19.36</ele>
        <time>2015-03-08T08:57:54Z</time>
      </trkpt>
      <trkpt lat="50.77204" lon="3.09785">
        <ele>19.84</ele>
        <time>2015-03-08T08:57:58Z</time>
      </trkpt>
      <trkpt lat="50.77201" lon="3.09781">
        <ele>19.84</ele>
        <time>2015-03-08T08:57:59Z</time>
      </trkpt>
      <trkpt lat="50.77198" lon="3.0978">
        <ele>19.36</ele>
        <time>2015-03-08T08:58:00Z</time>
      </trkpt>
      <trkpt lat="50.77194" lon="3.09781">
        <ele>19.36</ele>
        <time>2015-03-08T08:58:01Z</time>
      </trkpt>
      <trkpt lat="50.7719" lon="3.09783">
        <ele>19.36</ele>
        <time>2015-03-08T08:58:02Z</time>
      </trkpt>
      <trkpt lat="50.77186" lon="3.09785">
        <ele>19.36</ele>
        <time>2015-03-08T08:58:03Z</time>
      </trkpt>
      <trkpt lat="50.77183" lon="3.09788">
        <ele>19.36</ele>
        <time>2015-03-08T08:58:04Z</time>
      </trkpt>
      <trkpt lat="50.77179" lon="3.0979">
        <ele>19.36</ele>
        <time>2015-03-08T08:58:05Z</time>
      </trkpt>
      <trkpt lat="50.77175" lon="3.09793">
        <ele>19.36</ele>
        <time>2015-03-08T08:58:06Z</time>
      </trkpt>
      <trkpt lat="50.77171" lon="3.09795">
        <ele>19.36</ele>
        <time>2015-03-08T08:58:07Z</time>
      </trkpt>
      <trkpt lat="50.77167" lon="3.09798">
        <ele>18.88</ele>
        <time>2015-03-08T08:58:08Z</time>
      </trkpt>
      <trkpt lat="50.77133" lon="3.09821">
        <ele>20.32</ele>
        <time>2015-03-08T08:58:17Z</time>
      </trkpt>
      <trkpt lat="50.77106" lon="3.09838">
        <ele>20.81</ele>
        <time>2015-03-08T08:58:25Z</time>
      </trkpt>
      <trkpt lat="50.7708" lon="3.09855">
        <ele>22.25</ele>
        <time>2015-03-08T08:58:35Z</time>
      </trkpt>
      <trkpt lat="50.7706" lon="3.09867">
        <ele>24.17</ele>
        <time>2015-03-08T08:58:43Z</time>
      </trkpt>
      <trkpt lat="50.77049" lon="3.09874">
        <ele>25.13</ele>
        <time>2015-03-08T08:58:49Z</time>
      </trkpt>
      <trkpt lat="50.77048" lon="3.09871">
        <ele>24.17</ele>
        <time>2015-03-08T08:58:53Z</time>
      </trkpt>
      <trkpt lat="50.77048" lon="3.09873">
        <ele>24.65</ele>
        <time>2015-03-08T08:59:02Z</time>
      </trkpt>
      <trkpt lat="50.77044" lon="3.09878">
        <ele>24.65</ele>
        <time>2015-03-08T08:59:08Z</time>
      </trkpt>
      <trkpt lat="50.77044" lon="3.09878">
        <ele>24.65</ele>
        <time>2015-03-08T08:59:09Z</time>
      </trkpt>
      <trkpt lat="50.77041" lon="3.0988">
        <ele>24.17</ele>
        <time>2015-03-08T08:59:16Z</time>
      </trkpt>
      <trkpt lat="50.77029" lon="3.09889">
        <ele>25.13</ele>
        <time>2015-03-08T08:59:24Z</time>
      </trkpt>
      <trkpt lat="50.77022" lon="3.09894">
        <ele>26.09</ele>
        <time>2015-03-08T08:59:28Z</time>
      </trkpt>
      <trkpt lat="50.77022" lon="3.09895">
        <ele>26.09</ele>
        <time>2015-03-08T08:59:29Z</time>
      </trkpt>
      <trkpt lat="50.77021" lon="3.09896">
        <ele>26.09</ele>
        <time>2015-03-08T08:59:34Z</time>
      </trkpt>
      <trkpt lat="50.77021" lon="3.09897">
        <ele>26.09</ele>
        <time>2015-03-08T08:59:44Z</time>
      </trkpt>
      <trkpt lat="50.7702" lon="3.09897">
        <ele>27.05</ele>
        <time>2015-03-08T08:59:54Z</time>
      </trkpt>
      <trkpt lat="50.77018" lon="3.09896">
        <ele>27.05</ele>
        <time>2015-03-08T09:00:09Z</time>
      </trkpt>
      <trkpt lat="50.77017" lon="3.09897">
        <ele>27.05</ele>
        <time>2015-03-08T09:00:10Z</time>
      </trkpt>
      <trkpt lat="50.77016" lon="3.09898">
        <ele>27.53</ele>
        <time>2015-03-08T09:00:11Z</time>
      </trkpt>
      <trkpt lat="50.77004" lon="3.09905">
        <ele>27.53</ele>
        <time>2015-03-08T09:00:18Z</time>
      </trkpt>
      <trkpt lat="50.77002" lon="3.09904">
        <ele>27.53</ele>
        <time>2015-03-08T09:00:19Z</time>
      </trkpt>
      <trkpt lat="50.77" lon="3.09902">
        <ele>28.02</ele>
        <time>2015-03-08T09:00:20Z</time>
      </trkpt>
      <trkpt lat="50.76999" lon="3.099">
        <ele>28.02</ele>
        <time>2015-03-08T09:00:21Z</time>
      </trkpt>
      <trkpt lat="50.76997" lon="3.09897">
        <ele>28.02</ele>
        <time>2015-03-08T09:00:22Z</time>
      </trkpt>
      <trkpt lat="50.76996" lon="3.09894">
        <ele>28.5</ele>
        <time>2015-03-08T09:00:23Z</time>
      </trkpt>
      <trkpt lat="50.76996" lon="3.09891">
        <ele>28.5</ele>
        <time>2015-03-08T09:00:24Z</time>
      </trkpt>
      <trkpt lat="50.76989" lon="3.09867">
        <ele>28.98</ele>
        <time>2015-03-08T09:00:31Z</time>
      </trkpt>
      <trkpt lat="50.76979" lon="3.09829">
        <ele>28.5</ele>
        <time>2015-03-08T09:00:40Z</time>
      </trkpt>
      <trkpt lat="50.76967" lon="3.09783">
        <ele>29.46</ele>
        <time>2015-03-08T09:00:49Z</time>
      </trkpt>
      <trkpt lat="50.76958" lon="3.09734">
        <ele>28.5</ele>
        <time>2015-03-08T09:00:58Z</time>
      </trkpt>
      <trkpt lat="50.76945" lon="3.09675">
        <ele>26.57</ele>
        <time>2015-03-08T09:01:07Z</time>
      </trkpt>
      <trkpt lat="50.76944" lon="3.09667">
        <ele>26.57</ele>
        <time>2015-03-08T09:01:08Z</time>
      </trkpt>
      <trkpt lat="50.76943" lon="3.09659">
        <ele>26.09</ele>
        <time>2015-03-08T09:01:09Z</time>
      </trkpt>
      <trkpt lat="50.76934" lon="3.09572">
        <ele>24.17</ele>
        <time>2015-03-08T09:01:18Z</time>
      </trkpt>
      <trkpt lat="50.76926" lon="3.09505">
        <ele>23.69</ele>
        <time>2015-03-08T09:01:26Z</time>
      </trkpt>
      <trkpt lat="50.7692" lon="3.09467">
        <ele>23.69</ele>
        <time>2015-03-08T09:01:31Z</time>
      </trkpt>
      <trkpt lat="50.76919" lon="3.09461">
        <ele>23.21</ele>
        <time>2015-03-08T09:01:32Z</time>
      </trkpt>
      <trkpt lat="50.76916" lon="3.09458">
        <ele>23.21</ele>
        <time>2015-03-08T09:01:33Z</time>
      </trkpt>
      <trkpt lat="50.76913" lon="3.09457">
        <ele>23.21</ele>
        <time>2015-03-08T09:01:34Z</time>
      </trkpt>
      <trkpt lat="50.76909" lon="3.09458">
        <ele>23.69</ele>
        <time>2015-03-08T09:01:35Z</time>
      </trkpt>
      <trkpt lat="50.76906" lon="3.09459">
        <ele>23.69</ele>
        <time>2015-03-08T09:01:36Z</time>
      </trkpt>
      <trkpt lat="50.76902" lon="3.09461">
        <ele>23.69</ele>
        <time>2015-03-08T09:01:37Z</time>
      </trkpt>
      <trkpt lat="50.76899" lon="3.09463">
        <ele>23.69</ele>
        <time>2015-03-08T09:01:38Z</time>
      </trkpt>
      <trkpt lat="50.76861" lon="3.09489">
        <ele>25.61</ele>
        <time>2015-03-08T09:01:49Z</time>
      </trkpt>
      <trkpt lat="50.76837" lon="3.09507">
        <ele>27.05</ele>
        <time>2015-03-08T09:01:56Z</time>
      </trkpt>
      <trkpt lat="50.7681" lon="3.09528">
        <ele>29.46</ele>
        <time>2015-03-08T09:02:04Z</time>
      </trkpt>
      <trkpt lat="50.76787" lon="3.09546">
        <ele>29.94</ele>
        <time>2015-03-08T09:02:12Z</time>
      </trkpt>
      <trkpt lat="50.76761" lon="3.09564">
        <ele>30.42</ele>
        <time>2015-03-08T09:02:21Z</time>
      </trkpt>
      <trkpt lat="50.76753" lon="3.09575">
        <ele>30.42</ele>
        <time>2015-03-08T09:02:25Z</time>
      </trkpt>
      <trkpt lat="50.76752" lon="3.09579">
        <ele>30.9</ele>
        <time>2015-03-08T09:02:26Z</time>
      </trkpt>
      <trkpt lat="50.76751" lon="3.09584">
        <ele>30.9</ele>
        <time>2015-03-08T09:02:27Z</time>
      </trkpt>
      <trkpt lat="50.76751" lon="3.09589">
        <ele>30.9</ele>
        <time>2015-03-08T09:02:28Z</time>
      </trkpt>
      <trkpt lat="50.76751" lon="3.09593">
        <ele>30.9</ele>
        <time>2015-03-08T09:02:29Z</time>
      </trkpt>
      <trkpt lat="50.76751" lon="3.09615">
        <ele>32.34</ele>
        <time>2015-03-08T09:02:34Z</time>
      </trkpt>
      <trkpt lat="50.76749" lon="3.09618">
        <ele>32.34</ele>
        <time>2015-03-08T09:02:35Z</time>
      </trkpt>
      <trkpt lat="50.76747" lon="3.09622">
        <ele>32.82</ele>
        <time>2015-03-08T09:02:36Z</time>
      </trkpt>
      <trkpt lat="50.76745" lon="3.09624">
        <ele>32.82</ele>
        <time>2015-03-08T09:02:37Z</time>
      </trkpt>
      <trkpt lat="50.76743" lon="3.09626">
        <ele>32.82</ele>
        <time>2015-03-08T09:02:38Z</time>
      </trkpt>
      <trkpt lat="50.7674" lon="3.09627">
        <ele>32.82</ele>
        <time>2015-03-08T09:02:39Z</time>
      </trkpt>
      <trkpt lat="50.76738" lon="3.09629">
        <ele>32.82</ele>
        <time>2015-03-08T09:02:40Z</time>
      </trkpt>
      <trkpt lat="50.76735" lon="3.0963">
        <ele>33.3</ele>
        <time>2015-03-08T09:02:41Z</time>
      </trkpt>
      <trkpt lat="50.76733" lon="3.09632">
        <ele>33.3</ele>
        <time>2015-03-08T09:02:42Z</time>
      </trkpt>
      <trkpt lat="50.76707" lon="3.09646">
        <ele>34.26</ele>
        <time>2015-03-08T09:02:52Z</time>
      </trkpt>
      <trkpt lat="50.76689" lon="3.09657">
        <ele>34.74</ele>
        <time>2015-03-08T09:02:59Z</time>
      </trkpt>
      <trkpt lat="50.76666" lon="3.09671">
        <ele>35.23</ele>
        <time>2015-03-08T09:03:07Z</time>
      </trkpt>
      <trkpt lat="50.76644" lon="3.09685">
        <ele>36.19</ele>
        <time>2015-03-08T09:03:15Z</time>
      </trkpt>
      <trkpt lat="50.76623" lon="3.09699">
        <ele>37.15</ele>
        <time>2015-03-08T09:03:24Z</time>
      </trkpt>
      <trkpt lat="50.76621" lon="3.09698">
        <ele>37.15</ele>
        <time>2015-03-08T09:03:25Z</time>
      </trkpt>
      <trkpt lat="50.76619" lon="3.09695">
        <ele>37.63</ele>
        <time>2015-03-08T09:03:26Z</time>
      </trkpt>
      <trkpt lat="50.76618" lon="3.09691">
        <ele>37.63</ele>
        <time>2015-03-08T09:03:27Z</time>
      </trkpt>
      <trkpt lat="50.76617" lon="3.09685">
        <ele>37.15</ele>
        <time>2015-03-08T09:03:28Z</time>
      </trkpt>
      <trkpt lat="50.76616" lon="3.0968">
        <ele>37.15</ele>
        <time>2015-03-08T09:03:29Z</time>
      </trkpt>
      <trkpt lat="50.76616" lon="3.09673">
        <ele>37.15</ele>
        <time>2015-03-08T09:03:30Z</time>
      </trkpt>
      <trkpt lat="50.76615" lon="3.09666">
        <ele>37.15</ele>
        <time>2015-03-08T09:03:31Z</time>
      </trkpt>
      <trkpt lat="50.76614" lon="3.09659">
        <ele>36.67</ele>
        <time>2015-03-08T09:03:32Z</time>
      </trkpt>
      <trkpt lat="50.76608" lon="3.09597">
        <ele>34.74</ele>
        <time>2015-03-08T09:03:39Z</time>
      </trkpt>
      <trkpt lat="50.76601" lon="3.09534">
        <ele>33.3</ele>
        <time>2015-03-08T09:03:45Z</time>
      </trkpt>
      <trkpt lat="50.766" lon="3.09523">
        <ele>32.82</ele>
        <time>2015-03-08T09:03:46Z</time>
      </trkpt>
      <trkpt lat="50.76592" lon="3.09429">
        <ele>30.42</ele>
        <time>2015-03-08T09:03:54Z</time>
      </trkpt>
      <trkpt lat="50.76581" lon="3.09339">
        <ele>28.5</ele>
        <time>2015-03-08T09:04:02Z</time>
      </trkpt>
      <trkpt lat="50.76578" lon="3.09299">
        <ele>27.53</ele>
        <time>2015-03-08T09:04:06Z</time>
      </trkpt>
      <trkpt lat="50.76577" lon="3.09279">
        <ele>26.57</ele>
        <time>2015-03-08T09:04:10Z</time>
      </trkpt>
      <trkpt lat="50.76574" lon="3.09273">
        <ele>27.05</ele>
        <time>2015-03-08T09:04:13Z</time>
      </trkpt>
      <trkpt lat="50.76573" lon="3.09275">
        <ele>27.53</ele>
        <time>2015-03-08T09:04:18Z</time>
      </trkpt>
      <trkpt lat="50.76571" lon="3.09275">
        <ele>27.53</ele>
        <time>2015-03-08T09:04:23Z</time>
      </trkpt>
      <trkpt lat="50.7657" lon="3.09277">
        <ele>27.05</ele>
        <time>2015-03-08T09:04:25Z</time>
      </trkpt>
      <trkpt lat="50.76569" lon="3.09278">
        <ele>26.57</ele>
        <time>2015-03-08T09:04:30Z</time>
      </trkpt>
      <trkpt lat="50.76569" lon="3.09278">
        <ele>26.09</ele>
        <time>2015-03-08T09:04:37Z</time>
      </trkpt>
      <trkpt lat="50.76568" lon="3.09278">
        <ele>26.09</ele>
        <time>2015-03-08T09:04:39Z</time>
      </trkpt>
      <trkpt lat="50.76567" lon="3.09278">
        <ele>26.09</ele>
        <time>2015-03-08T09:04:40Z</time>
      </trkpt>
      <trkpt lat="50.76565" lon="3.09278">
        <ele>25.61</ele>
        <time>2015-03-08T09:04:41Z</time>
      </trkpt>
      <trkpt lat="50.76558" lon="3.0928">
        <ele>25.13</ele>
        <time>2015-03-08T09:04:50Z</time>
      </trkpt>
      <trkpt lat="50.76542" lon="3.09287">
        <ele>25.13</ele>
        <time>2015-03-08T09:04:56Z</time>
      </trkpt>
      <trkpt lat="50.76515" lon="3.093">
        <ele>26.57</ele>
        <time>2015-03-08T09:05:05Z</time>
      </trkpt>
      <trkpt lat="50.76488" lon="3.09313">
        <ele>28.5</ele>
        <time>2015-03-08T09:05:14Z</time>
      </trkpt>
      <trkpt lat="50.76465" lon="3.09323">
        <ele>29.94</ele>
        <time>2015-03-08T09:05:22Z</time>
      </trkpt>
      <trkpt lat="50.76464" lon="3.09327">
        <ele>30.42</ele>
        <time>2015-03-08T09:05:23Z</time>
      </trkpt>
      <trkpt lat="50.76463" lon="3.09331">
        <ele>30.42</ele>
        <time>2015-03-08T09:05:24Z</time>
      </trkpt>
      <trkpt lat="50.76462" lon="3.09335">
        <ele>30.9</ele>
        <time>2015-03-08T09:05:25Z</time>
      </trkpt>
      <trkpt lat="50.76462" lon="3.09339">
        <ele>30.9</ele>
        <time>2015-03-08T09:05:26Z</time>
      </trkpt>
      <trkpt lat="50.76461" lon="3.09343">
        <ele>31.38</ele>
        <time>2015-03-08T09:05:27Z</time>
      </trkpt>
      <trkpt lat="50.76458" lon="3.09345">
        <ele>31.38</ele>
        <time>2015-03-08T09:05:28Z</time>
      </trkpt>
      <trkpt lat="50.76456" lon="3.09347">
        <ele>31.86</ele>
        <time>2015-03-08T09:05:29Z</time>
      </trkpt>
      <trkpt lat="50.76453" lon="3.09348">
        <ele>31.86</ele>
        <time>2015-03-08T09:05:30Z</time>
      </trkpt>
      <trkpt lat="50.7645" lon="3.09348">
        <ele>31.86</ele>
        <time>2015-03-08T09:05:31Z</time>
      </trkpt>
      <trkpt lat="50.76427" lon="3.09353">
        <ele>31.86</ele>
        <time>2015-03-08T09:05:38Z</time>
      </trkpt>
      <trkpt lat="50.76394" lon="3.09358">
        <ele>30.9</ele>
        <time>2015-03-08T09:05:48Z</time>
      </trkpt>
      <trkpt lat="50.76367" lon="3.09362">
        <ele>31.86</ele>
        <time>2015-03-08T09:05:56Z</time>
      </trkpt>
      <trkpt lat="50.76338" lon="3.09368">
        <ele>30.9</ele>
        <time>2015-03-08T09:06:04Z</time>
      </trkpt>
      <trkpt lat="50.76307" lon="3.09376">
        <ele>30.9</ele>
        <time>2015-03-08T09:06:12Z</time>
      </trkpt>
      <trkpt lat="50.76272" lon="3.09391">
        <ele>30.9</ele>
        <time>2015-03-08T09:06:21Z</time>
      </trkpt>
      <trkpt lat="50.76251" lon="3.09398">
        <ele>31.38</ele>
        <time>2015-03-08T09:06:27Z</time>
      </trkpt>
      <trkpt lat="50.7624" lon="3.09395">
        <ele>31.38</ele>
        <time>2015-03-08T09:06:31Z</time>
      </trkpt>
      <trkpt lat="50.76238" lon="3.09393">
        <ele>31.38</ele>
        <time>2015-03-08T09:06:32Z</time>
      </trkpt>
      <trkpt lat="50.76238" lon="3.09389">
        <ele>31.38</ele>
        <time>2015-03-08T09:06:33Z</time>
      </trkpt>
      <trkpt lat="50.76239" lon="3.09385">
        <ele>31.86</ele>
        <time>2015-03-08T09:06:34Z</time>
      </trkpt>
      <trkpt lat="50.7624" lon="3.0938">
        <ele>31.86</ele>
        <time>2015-03-08T09:06:35Z</time>
      </trkpt>
      <trkpt lat="50.7624" lon="3.09376">
        <ele>32.34</ele>
        <time>2015-03-08T09:06:36Z</time>
      </trkpt>
      <trkpt lat="50.76245" lon="3.09334">
        <ele>34.26</ele>
        <time>2015-03-08T09:06:44Z</time>
      </trkpt>
      <trkpt lat="50.76245" lon="3.09311">
        <ele>34.26</ele>
        <time>2015-03-08T09:06:48Z</time>
      </trkpt>
      <trkpt lat="50.76244" lon="3.09306">
        <ele>34.74</ele>
        <time>2015-03-08T09:06:49Z</time>
      </trkpt>
      <trkpt lat="50.76234" lon="3.09278">
        <ele>35.71</ele>
        <time>2015-03-08T09:06:55Z</time>
      </trkpt>
      <trkpt lat="50.76221" lon="3.09234">
        <ele>36.19</ele>
        <time>2015-03-08T09:07:04Z</time>
      </trkpt>
      <trkpt lat="50.76206" lon="3.09196">
        <ele>37.15</ele>
        <time>2015-03-08T09:07:12Z</time>
      </trkpt>
      <trkpt lat="50.76192" lon="3.09162">
        <ele>37.63</ele>
        <time>2015-03-08T09:07:19Z</time>
      </trkpt>
      <trkpt lat="50.76172" lon="3.09115">
        <ele>37.63</ele>
        <time>2015-03-08T09:07:28Z</time>
      </trkpt>
      <trkpt lat="50.76152" lon="3.09075">
        <ele>38.11</ele>
        <time>2015-03-08T09:07:36Z</time>
      </trkpt>
      <trkpt lat="50.76135" lon="3.09043">
        <ele>38.11</ele>
        <time>2015-03-08T09:07:43Z</time>
      </trkpt>
      <trkpt lat="50.76115" lon="3.09001">
        <ele>39.55</ele>
        <time>2015-03-08T09:07:51Z</time>
      </trkpt>
      <trkpt lat="50.76113" lon="3.08996">
        <ele>39.55</ele>
        <time>2015-03-08T09:07:52Z</time>
      </trkpt>
      <trkpt lat="50.76111" lon="3.08989">
        <ele>39.55</ele>
        <time>2015-03-08T09:07:53Z</time>
      </trkpt>
      <trkpt lat="50.76111" lon="3.08983">
        <ele>40.03</ele>
        <time>2015-03-08T09:07:54Z</time>
      </trkpt>
      <trkpt lat="50.76111" lon="3.08977">
        <ele>40.51</ele>
        <time>2015-03-08T09:07:55Z</time>
      </trkpt>
      <trkpt lat="50.76111" lon="3.08972">
        <ele>40.51</ele>
        <time>2015-03-08T09:07:56Z</time>
      </trkpt>
      <trkpt lat="50.76109" lon="3.08968">
        <ele>40.51</ele>
        <time>2015-03-08T09:07:57Z</time>
      </trkpt>
      <trkpt lat="50.76107" lon="3.08963">
        <ele>40.99</ele>
        <time>2015-03-08T09:07:58Z</time>
      </trkpt>
      <trkpt lat="50.76088" lon="3.08926">
        <ele>40.99</ele>
        <time>2015-03-08T09:08:06Z</time>
      </trkpt>
      <trkpt lat="50.76068" lon="3.08886">
        <ele>39.07</ele>
        <time>2015-03-08T09:08:14Z</time>
      </trkpt>
      <trkpt lat="50.76045" lon="3.08846">
        <ele>38.11</ele>
        <time>2015-03-08T09:08:21Z</time>
      </trkpt>
      <trkpt lat="50.76019" lon="3.08807">
        <ele>37.15</ele>
        <time>2015-03-08T09:08:29Z</time>
      </trkpt>
      <trkpt lat="50.76001" lon="3.08779">
        <ele>36.67</ele>
        <time>2015-03-08T09:08:36Z</time>
      </trkpt>
      <trkpt lat="50.75986" lon="3.08756">
        <ele>36.19</ele>
        <time>2015-03-08T09:08:41Z</time>
      </trkpt>
      <trkpt lat="50.75983" lon="3.0875">
        <ele>36.19</ele>
        <time>2015-03-08T09:08:42Z</time>
      </trkpt>
      <trkpt lat="50.7598" lon="3.08745">
        <ele>35.71</ele>
        <time>2015-03-08T09:08:43Z</time>
      </trkpt>
      <trkpt lat="50.75954" lon="3.087">
        <ele>35.23</ele>
        <time>2015-03-08T09:08:51Z</time>
      </trkpt>
      <trkpt lat="50.75943" lon="3.08684">
        <ele>35.23</ele>
        <time>2015-03-08T09:08:54Z</time>
      </trkpt>
      <trkpt lat="50.75939" lon="3.08681">
        <ele>35.23</ele>
        <time>2015-03-08T09:08:55Z</time>
      </trkpt>
      <trkpt lat="50.75929" lon="3.08672">
        <ele>34.74</ele>
        <time>2015-03-08T09:08:58Z</time>
      </trkpt>
      <trkpt lat="50.75928" lon="3.08667">
        <ele>34.26</ele>
        <time>2015-03-08T09:08:59Z</time>
      </trkpt>
      <trkpt lat="50.75928" lon="3.08662">
        <ele>34.26</ele>
        <time>2015-03-08T09:09:00Z</time>
      </trkpt>
      <trkpt lat="50.75931" lon="3.08658">
        <ele>33.78</ele>
        <time>2015-03-08T09:09:01Z</time>
      </trkpt>
      <trkpt lat="50.75934" lon="3.08654">
        <ele>33.78</ele>
        <time>2015-03-08T09:09:02Z</time>
      </trkpt>
      <trkpt lat="50.75938" lon="3.0865">
        <ele>33.3</ele>
        <time>2015-03-08T09:09:03Z</time>
      </trkpt>
      <trkpt lat="50.75969" lon="3.08612">
        <ele>32.34</ele>
        <time>2015-03-08T09:09:10Z</time>
      </trkpt>
      <trkpt lat="50.76002" lon="3.08578">
        <ele>30.9</ele>
        <time>2015-03-08T09:09:16Z</time>
      </trkpt>
      <trkpt lat="50.76045" lon="3.08539">
        <ele>29.94</ele>
        <time>2015-03-08T09:09:23Z</time>
      </trkpt>
      <trkpt lat="50.761" lon="3.08477">
        <ele>28.02</ele>
        <time>2015-03-08T09:09:32Z</time>
      </trkpt>
      <trkpt lat="50.76135" lon="3.08439">
        <ele>26.57</ele>
        <time>2015-03-08T09:09:38Z</time>
      </trkpt>
      <trkpt lat="50.76173" lon="3.08385">
        <ele>25.61</ele>
        <time>2015-03-08T09:09:46Z</time>
      </trkpt>
      <trkpt lat="50.76184" lon="3.08376">
        <ele>25.13</ele>
        <time>2015-03-08T09:09:48Z</time>
      </trkpt>
      <trkpt lat="50.7619" lon="3.08371">
        <ele>24.65</ele>
        <time>2015-03-08T09:09:49Z</time>
      </trkpt>
      <trkpt lat="50.76196" lon="3.08367">
        <ele>24.65</ele>
        <time>2015-03-08T09:09:50Z</time>
      </trkpt>
      <trkpt lat="50.76203" lon="3.08363">
        <ele>24.65</ele>
        <time>2015-03-08T09:09:51Z</time>
      </trkpt>
      <trkpt lat="50.76209" lon="3.0836">
        <ele>24.17</ele>
        <time>2015-03-08T09:09:52Z</time>
      </trkpt>
      <trkpt lat="50.76255" lon="3.0834">
        <ele>23.21</ele>
        <time>2015-03-08T09:09:59Z</time>
      </trkpt>
      <trkpt lat="50.76287" lon="3.08333">
        <ele>22.73</ele>
        <time>2015-03-08T09:10:04Z</time>
      </trkpt>
      <trkpt lat="50.76291" lon="3.0833">
        <ele>22.25</ele>
        <time>2015-03-08T09:10:05Z</time>
      </trkpt>
      <trkpt lat="50.76294" lon="3.08325">
        <ele>22.25</ele>
        <time>2015-03-08T09:10:06Z</time>
      </trkpt>
      <trkpt lat="50.76295" lon="3.08318">
        <ele>22.25</ele>
        <time>2015-03-08T09:10:07Z</time>
      </trkpt>
      <trkpt lat="50.76295" lon="3.08311">
        <ele>21.77</ele>
        <time>2015-03-08T09:10:08Z</time>
      </trkpt>
      <trkpt lat="50.76294" lon="3.08303">
        <ele>21.77</ele>
        <time>2015-03-08T09:10:09Z</time>
      </trkpt>
      <trkpt lat="50.76293" lon="3.08296">
        <ele>21.77</ele>
        <time>2015-03-08T09:10:10Z</time>
      </trkpt>
      <trkpt lat="50.76292" lon="3.08289">
        <ele>21.77</ele>
        <time>2015-03-08T09:10:11Z</time>
      </trkpt>
      <trkpt lat="50.76291" lon="3.08281">
        <ele>21.77</ele>
        <time>2015-03-08T09:10:12Z</time>
      </trkpt>
      <trkpt lat="50.76289" lon="3.08274">
        <ele>21.77</ele>
        <time>2015-03-08T09:10:13Z</time>
      </trkpt>
      <trkpt lat="50.76286" lon="3.08258">
        <ele>22.25</ele>
        <time>2015-03-08T09:10:15Z</time>
      </trkpt>
      <trkpt lat="50.7628" lon="3.08215">
        <ele>22.73</ele>
        <time>2015-03-08T09:10:21Z</time>
      </trkpt>
      <trkpt lat="50.7627" lon="3.08154">
        <ele>24.17</ele>
        <time>2015-03-08T09:10:30Z</time>
      </trkpt>
      <trkpt lat="50.76267" lon="3.08134">
        <ele>24.65</ele>
        <time>2015-03-08T09:10:33Z</time>
      </trkpt>
      <trkpt lat="50.76266" lon="3.08127">
        <ele>24.65</ele>
        <time>2015-03-08T09:10:34Z</time>
      </trkpt>
      <trkpt lat="50.76265" lon="3.08121">
        <ele>24.65</ele>
        <time>2015-03-08T09:10:35Z</time>
      </trkpt>
      <trkpt lat="50.76257" lon="3.08077">
        <ele>25.61</ele>
        <time>2015-03-08T09:10:42Z</time>
      </trkpt>
      <trkpt lat="50.76257" lon="3.0807">
        <ele>25.61</ele>
        <time>2015-03-08T09:10:43Z</time>
      </trkpt>
      <trkpt lat="50.76256" lon="3.08064">
        <ele>25.61</ele>
        <time>2015-03-08T09:10:44Z</time>
      </trkpt>
      <trkpt lat="50.76246" lon="3.08008">
        <ele>26.57</ele>
        <time>2015-03-08T09:10:53Z</time>
      </trkpt>
      <trkpt lat="50.76236" lon="3.07954">
        <ele>27.53</ele>
        <time>2015-03-08T09:11:03Z</time>
      </trkpt>
      <trkpt lat="50.7623" lon="3.07918">
        <ele>28.5</ele>
        <time>2015-03-08T09:11:10Z</time>
      </trkpt>
      <trkpt lat="50.76224" lon="3.07879">
        <ele>29.46</ele>
        <time>2015-03-08T09:11:17Z</time>
      </trkpt>
      <trkpt lat="50.76224" lon="3.07849">
        <ele>29.46</ele>
        <time>2015-03-08T09:11:22Z</time>
      </trkpt>
      <trkpt lat="50.76225" lon="3.07821">
        <ele>29.94</ele>
        <time>2015-03-08T09:11:28Z</time>
      </trkpt>
      <trkpt lat="50.76227" lon="3.07819">
        <ele>29.94</ele>
        <time>2015-03-08T09:11:29Z</time>
      </trkpt>
      <trkpt lat="50.76229" lon="3.07817">
        <ele>29.94</ele>
        <time>2015-03-08T09:11:30Z</time>
      </trkpt>
      <trkpt lat="50.76231" lon="3.07818">
        <ele>29.46</ele>
        <time>2015-03-08T09:11:31Z</time>
      </trkpt>
      <trkpt lat="50.76234" lon="3.07818">
        <ele>29.94</ele>
        <time>2015-03-08T09:11:32Z</time>
      </trkpt>
      <trkpt lat="50.76238" lon="3.07817">
        <ele>29.94</ele>
        <time>2015-03-08T09:11:33Z</time>
      </trkpt>
      <trkpt lat="50.76242" lon="3.07817">
        <ele>29.94</ele>
        <time>2015-03-08T09:11:34Z</time>
      </trkpt>
      <trkpt lat="50.76246" lon="3.07815">
        <ele>29.94</ele>
        <time>2015-03-08T09:11:35Z</time>
      </trkpt>
      <trkpt lat="50.76263" lon="3.07808">
        <ele>29.46</ele>
        <time>2015-03-08T09:11:39Z</time>
      </trkpt>
      <trkpt lat="50.76294" lon="3.07787">
        <ele>28.98</ele>
        <time>2015-03-08T09:11:46Z</time>
      </trkpt>
      <trkpt lat="50.76325" lon="3.07774">
        <ele>28.02</ele>
        <time>2015-03-08T09:11:53Z</time>
      </trkpt>
      <trkpt lat="50.76331" lon="3.07772">
        <ele>28.02</ele>
        <time>2015-03-08T09:11:57Z</time>
      </trkpt>
      <trkpt lat="50.76333" lon="3.07773">
        <ele>27.53</ele>
        <time>2015-03-08T09:12:04Z</time>
      </trkpt>
      <trkpt lat="50.76335" lon="3.07774">
        <ele>27.53</ele>
        <time>2015-03-08T09:12:05Z</time>
      </trkpt>
      <trkpt lat="50.76349" lon="3.07784">
        <ele>26.57</ele>
        <time>2015-03-08T09:12:09Z</time>
      </trkpt>
      <trkpt lat="50.76353" lon="3.07785">
        <ele>26.57</ele>
        <time>2015-03-08T09:12:10Z</time>
      </trkpt>
      <trkpt lat="50.76358" lon="3.07785">
        <ele>26.57</ele>
        <time>2015-03-08T09:12:11Z</time>
      </trkpt>
      <trkpt lat="50.76362" lon="3.07784">
        <ele>26.09</ele>
        <time>2015-03-08T09:12:12Z</time>
      </trkpt>
      <trkpt lat="50.76367" lon="3.07781">
        <ele>26.09</ele>
        <time>2015-03-08T09:12:13Z</time>
      </trkpt>
      <trkpt lat="50.76371" lon="3.07776">
        <ele>26.09</ele>
        <time>2015-03-08T09:12:14Z</time>
      </trkpt>
      <trkpt lat="50.76375" lon="3.07771">
        <ele>26.09</ele>
        <time>2015-03-08T09:12:15Z</time>
      </trkpt>
      <trkpt lat="50.76378" lon="3.07765">
        <ele>26.09</ele>
        <time>2015-03-08T09:12:16Z</time>
      </trkpt>
      <trkpt lat="50.7638" lon="3.07759">
        <ele>26.09</ele>
        <time>2015-03-08T09:12:17Z</time>
      </trkpt>
      <trkpt lat="50.76382" lon="3.07753">
        <ele>26.09</ele>
        <time>2015-03-08T09:12:18Z</time>
      </trkpt>
      <trkpt lat="50.76383" lon="3.07747">
        <ele>26.09</ele>
        <time>2015-03-08T09:12:19Z</time>
      </trkpt>
      <trkpt lat="50.76384" lon="3.0774">
        <ele>26.09</ele>
        <time>2015-03-08T09:12:20Z</time>
      </trkpt>
      <trkpt lat="50.76384" lon="3.07735">
        <ele>26.57</ele>
        <time>2015-03-08T09:12:21Z</time>
      </trkpt>
      <trkpt lat="50.76385" lon="3.0773">
        <ele>27.05</ele>
        <time>2015-03-08T09:12:22Z</time>
      </trkpt>
      <trkpt lat="50.76387" lon="3.07727">
        <ele>27.05</ele>
        <time>2015-03-08T09:12:23Z</time>
      </trkpt>
      <trkpt lat="50.7639" lon="3.07727">
        <ele>26.57</ele>
        <time>2015-03-08T09:12:24Z</time>
      </trkpt>
      <trkpt lat="50.76392" lon="3.07731">
        <ele>26.57</ele>
        <time>2015-03-08T09:12:25Z</time>
      </trkpt>
      <trkpt lat="50.76394" lon="3.07735">
        <ele>26.57</ele>
        <time>2015-03-08T09:12:26Z</time>
      </trkpt>
      <trkpt lat="50.76396" lon="3.07738">
        <ele>27.05</ele>
        <time>2015-03-08T09:12:27Z</time>
      </trkpt>
      <trkpt lat="50.76399" lon="3.0774">
        <ele>26.57</ele>
        <time>2015-03-08T09:12:28Z</time>
      </trkpt>
      <trkpt lat="50.76403" lon="3.07742">
        <ele>26.57</ele>
        <time>2015-03-08T09:12:29Z</time>
      </trkpt>
      <trkpt lat="50.76407" lon="3.07742">
        <ele>26.57</ele>
        <time>2015-03-08T09:12:30Z</time>
      </trkpt>
      <trkpt lat="50.76411" lon="3.07742">
        <ele>26.57</ele>
        <time>2015-03-08T09:12:31Z</time>
      </trkpt>
      <trkpt lat="50.76423" lon="3.07741">
        <ele>26.57</ele>
        <time>2015-03-08T09:12:34Z</time>
      </trkpt>
      <trkpt lat="50.76431" lon="3.07739">
        <ele>26.57</ele>
        <time>2015-03-08T09:12:36Z</time>
      </trkpt>
      <trkpt lat="50.7645" lon="3.07742">
        <ele>25.61</ele>
        <time>2015-03-08T09:12:42Z</time>
      </trkpt>
      <trkpt lat="50.76452" lon="3.07741">
        <ele>25.13</ele>
        <time>2015-03-08T09:12:46Z</time>
      </trkpt>
      <trkpt lat="50.76458" lon="3.07739">
        <ele>24.65</ele>
        <time>2015-03-08T09:12:51Z</time>
      </trkpt>
      <trkpt lat="50.76486" lon="3.07731">
        <ele>25.13</ele>
        <time>2015-03-08T09:12:59Z</time>
      </trkpt>
      <trkpt lat="50.76525" lon="3.07731">
        <ele>24.65</ele>
        <time>2015-03-08T09:13:07Z</time>
      </trkpt>
      <trkpt lat="50.76546" lon="3.07732">
        <ele>24.65</ele>
        <time>2015-03-08T09:13:11Z</time>
      </trkpt>
      <trkpt lat="50.7655" lon="3.07732">
        <ele>24.65</ele>
        <time>2015-03-08T09:13:12Z</time>
      </trkpt>
      <trkpt lat="50.76555" lon="3.07733">
        <ele>24.65</ele>
        <time>2015-03-08T09:13:13Z</time>
      </trkpt>
      <trkpt lat="50.7656" lon="3.07735">
        <ele>24.65</ele>
        <time>2015-03-08T09:13:14Z</time>
      </trkpt>
      <trkpt lat="50.76564" lon="3.07737">
        <ele>24.65</ele>
        <time>2015-03-08T09:13:15Z</time>
      </trkpt>
      <trkpt lat="50.76569" lon="3.07737">
        <ele>24.65</ele>
        <time>2015-03-08T09:13:16Z</time>
      </trkpt>
      <trkpt lat="50.76575" lon="3.07736">
        <ele>24.65</ele>
        <time>2015-03-08T09:13:17Z</time>
      </trkpt>
      <trkpt lat="50.76579" lon="3.07732">
        <ele>24.65</ele>
        <time>2015-03-08T09:13:18Z</time>
      </trkpt>
      <trkpt lat="50.76583" lon="3.07726">
        <ele>24.65</ele>
        <time>2015-03-08T09:13:19Z</time>
      </trkpt>
      <trkpt lat="50.76584" lon="3.07721">
        <ele>24.17</ele>
        <time>2015-03-08T09:13:20Z</time>
      </trkpt>
      <trkpt lat="50.76585" lon="3.07717">
        <ele>24.17</ele>
        <time>2015-03-08T09:13:21Z</time>
      </trkpt>
      <trkpt lat="50.76585" lon="3.07713">
        <ele>24.17</ele>
        <time>2015-03-08T09:13:22Z</time>
      </trkpt>
      <trkpt lat="50.76583" lon="3.0771">
        <ele>24.17</ele>
        <time>2015-03-08T09:13:23Z</time>
      </trkpt>
      <trkpt lat="50.76581" lon="3.07707">
        <ele>24.17</ele>
        <time>2015-03-08T09:13:24Z</time>
      </trkpt>
      <trkpt lat="50.76578" lon="3.07703">
        <ele>24.17</ele>
        <time>2015-03-08T09:13:25Z</time>
      </trkpt>
      <trkpt lat="50.76576" lon="3.077">
        <ele>24.17</ele>
        <time>2015-03-08T09:13:26Z</time>
      </trkpt>
      <trkpt lat="50.7657" lon="3.07692">
        <ele>24.65</ele>
        <time>2015-03-08T09:13:28Z</time>
      </trkpt>
      <trkpt lat="50.76567" lon="3.07686">
        <ele>24.65</ele>
        <time>2015-03-08T09:13:29Z</time>
      </trkpt>
      <trkpt lat="50.76556" lon="3.07669">
        <ele>24.65</ele>
        <time>2015-03-08T09:13:33Z</time>
      </trkpt>
      <trkpt lat="50.76552" lon="3.07667">
        <ele>24.65</ele>
        <time>2015-03-08T09:13:34Z</time>
      </trkpt>
      <trkpt lat="50.76536" lon="3.0766">
        <ele>25.13</ele>
        <time>2015-03-08T09:13:38Z</time>
      </trkpt>
      <trkpt lat="50.76533" lon="3.07656">
        <ele>25.13</ele>
        <time>2015-03-08T09:13:39Z</time>
      </trkpt>
      <trkpt lat="50.76529" lon="3.07652">
        <ele>25.61</ele>
        <time>2015-03-08T09:13:40Z</time>
      </trkpt>
      <trkpt lat="50.76527" lon="3.07648">
        <ele>25.61</ele>
        <time>2015-03-08T09:13:41Z</time>
      </trkpt>
      <trkpt lat="50.76524" lon="3.07642">
        <ele>25.61</ele>
        <time>2015-03-08T09:13:42Z</time>
      </trkpt>
      <trkpt lat="50.76522" lon="3.07637">
        <ele>25.61</ele>
        <time>2015-03-08T09:13:43Z</time>
      </trkpt>
      <trkpt lat="50.76519" lon="3.07632">
        <ele>25.61</ele>
        <time>2015-03-08T09:13:44Z</time>
      </trkpt>
      <trkpt lat="50.76509" lon="3.0761">
        <ele>26.09</ele>
        <time>2015-03-08T09:13:48Z</time>
      </trkpt>
      <trkpt lat="50.76507" lon="3.07604">
        <ele>26.09</ele>
        <time>2015-03-08T09:13:49Z</time>
      </trkpt>
      <trkpt lat="50.76489" lon="3.07565">
        <ele>27.53</ele>
        <time>2015-03-08T09:13:56Z</time>
      </trkpt>
      <trkpt lat="50.76474" lon="3.07535">
        <ele>28.02</ele>
        <time>2015-03-08T09:14:03Z</time>
      </trkpt>
      <trkpt lat="50.76451" lon="3.07507">
        <ele>28.98</ele>
        <time>2015-03-08T09:14:11Z</time>
      </trkpt>
      <trkpt lat="50.76434" lon="3.07481">
        <ele>29.46</ele>
        <time>2015-03-08T09:14:18Z</time>
      </trkpt>
      <trkpt lat="50.76408" lon="3.0744">
        <ele>30.9</ele>
        <time>2015-03-08T09:14:28Z</time>
      </trkpt>
      <trkpt lat="50.76387" lon="3.07422">
        <ele>30.9</ele>
        <time>2015-03-08T09:14:35Z</time>
      </trkpt>
      <trkpt lat="50.76369" lon="3.07403">
        <ele>29.46</ele>
        <time>2015-03-08T09:14:42Z</time>
      </trkpt>
      <trkpt lat="50.76369" lon="3.07398">
        <ele>29.94</ele>
        <time>2015-03-08T09:14:43Z</time>
      </trkpt>
      <trkpt lat="50.76369" lon="3.07394">
        <ele>30.42</ele>
        <time>2015-03-08T09:14:44Z</time>
      </trkpt>
      <trkpt lat="50.76371" lon="3.07389">
        <ele>30.42</ele>
        <time>2015-03-08T09:14:45Z</time>
      </trkpt>
      <trkpt lat="50.76373" lon="3.07386">
        <ele>30.9</ele>
        <time>2015-03-08T09:14:46Z</time>
      </trkpt>
      <trkpt lat="50.76375" lon="3.07383">
        <ele>30.9</ele>
        <time>2015-03-08T09:14:47Z</time>
      </trkpt>
      <trkpt lat="50.76377" lon="3.0738">
        <ele>31.38</ele>
        <time>2015-03-08T09:14:48Z</time>
      </trkpt>
      <trkpt lat="50.7638" lon="3.07376">
        <ele>31.86</ele>
        <time>2015-03-08T09:14:49Z</time>
      </trkpt>
      <trkpt lat="50.76382" lon="3.07373">
        <ele>32.34</ele>
        <time>2015-03-08T09:14:50Z</time>
      </trkpt>
      <trkpt lat="50.76404" lon="3.07349">
        <ele>33.3</ele>
        <time>2015-03-08T09:14:57Z</time>
      </trkpt>
      <trkpt lat="50.76417" lon="3.07336">
        <ele>33.3</ele>
        <time>2015-03-08T09:15:01Z</time>
      </trkpt>
      <trkpt lat="50.76448" lon="3.07305">
        <ele>31.86</ele>
        <time>2015-03-08T09:15:09Z</time>
      </trkpt>
      <trkpt lat="50.76493" lon="3.07273">
        <ele>29.46</ele>
        <time>2015-03-08T09:15:19Z</time>
      </trkpt>
      <trkpt lat="50.76497" lon="3.07271">
        <ele>28.98</ele>
        <time>2015-03-08T09:15:20Z</time>
      </trkpt>
      <trkpt lat="50.765" lon="3.07268">
        <ele>28.98</ele>
        <time>2015-03-08T09:15:21Z</time>
      </trkpt>
      <trkpt lat="50.76502" lon="3.07264">
        <ele>28.98</ele>
        <time>2015-03-08T09:15:22Z</time>
      </trkpt>
      <trkpt lat="50.76503" lon="3.07257">
        <ele>28.98</ele>
        <time>2015-03-08T09:15:23Z</time>
      </trkpt>
      <trkpt lat="50.76502" lon="3.0725">
        <ele>28.98</ele>
        <time>2015-03-08T09:15:24Z</time>
      </trkpt>
      <trkpt lat="50.76501" lon="3.07242">
        <ele>28.98</ele>
        <time>2015-03-08T09:15:25Z</time>
      </trkpt>
      <trkpt lat="50.76499" lon="3.07217">
        <ele>29.46</ele>
        <time>2015-03-08T09:15:28Z</time>
      </trkpt>
      <trkpt lat="50.76494" lon="3.07194">
        <ele>29.94</ele>
        <time>2015-03-08T09:15:31Z</time>
      </trkpt>
      <trkpt lat="50.76493" lon="3.07186">
        <ele>29.94</ele>
        <time>2015-03-08T09:15:32Z</time>
      </trkpt>
      <trkpt lat="50.76492" lon="3.07178">
        <ele>29.94</ele>
        <time>2015-03-08T09:15:33Z</time>
      </trkpt>
      <trkpt lat="50.7649" lon="3.0717">
        <ele>29.94</ele>
        <time>2015-03-08T09:15:34Z</time>
      </trkpt>
      <trkpt lat="50.76489" lon="3.07162">
        <ele>29.94</ele>
        <time>2015-03-08T09:15:35Z</time>
      </trkpt>
      <trkpt lat="50.76474" lon="3.07104">
        <ele>30.9</ele>
        <time>2015-03-08T09:15:43Z</time>
      </trkpt>
      <trkpt lat="50.76472" lon="3.07097">
        <ele>30.9</ele>
        <time>2015-03-08T09:15:44Z</time>
      </trkpt>
      <trkpt lat="50.76468" lon="3.07085">
        <ele>31.38</ele>
        <time>2015-03-08T09:15:46Z</time>
      </trkpt>
      <trkpt lat="50.76466" lon="3.07078">
        <ele>31.86</ele>
        <time>2015-03-08T09:15:47Z</time>
      </trkpt>
      <trkpt lat="50.7645" lon="3.07024">
        <ele>33.3</ele>
        <time>2015-03-08T09:15:56Z</time>
      </trkpt>
      <trkpt lat="50.76445" lon="3.07">
        <ele>33.78</ele>
        <time>2015-03-08T09:16:00Z</time>
      </trkpt>
      <trkpt lat="50.76443" lon="3.06994">
        <ele>33.78</ele>
        <time>2015-03-08T09:16:01Z</time>
      </trkpt>
      <trkpt lat="50.76441" lon="3.06982">
        <ele>33.3</ele>
        <time>2015-03-08T09:16:03Z</time>
      </trkpt>
      <trkpt lat="50.76441" lon="3.06975">
        <ele>33.3</ele>
        <time>2015-03-08T09:16:04Z</time>
      </trkpt>
      <trkpt lat="50.76444" lon="3.06968">
        <ele>32.82</ele>
        <time>2015-03-08T09:16:05Z</time>
      </trkpt>
      <trkpt lat="50.76448" lon="3.06962">
        <ele>32.34</ele>
        <time>2015-03-08T09:16:06Z</time>
      </trkpt>
      <trkpt lat="50.76453" lon="3.06958">
        <ele>32.34</ele>
        <time>2015-03-08T09:16:07Z</time>
      </trkpt>
      <trkpt lat="50.76459" lon="3.06953">
        <ele>31.86</ele>
        <time>2015-03-08T09:16:08Z</time>
      </trkpt>
      <trkpt lat="50.76511" lon="3.06924">
        <ele>28.5</ele>
        <time>2015-03-08T09:16:15Z</time>
      </trkpt>
      <trkpt lat="50.76585" lon="3.06899">
        <ele>24.65</ele>
        <time>2015-03-08T09:16:23Z</time>
      </trkpt>
      <trkpt lat="50.76637" lon="3.06892">
        <ele>22.25</ele>
        <time>2015-03-08T09:16:29Z</time>
      </trkpt>
      <trkpt lat="50.76644" lon="3.06894">
        <ele>21.77</ele>
        <time>2015-03-08T09:16:30Z</time>
      </trkpt>
      <trkpt lat="50.76651" lon="3.06898">
        <ele>20.81</ele>
        <time>2015-03-08T09:16:31Z</time>
      </trkpt>
      <trkpt lat="50.76657" lon="3.06905">
        <ele>20.32</ele>
        <time>2015-03-08T09:16:32Z</time>
      </trkpt>
      <trkpt lat="50.76697" lon="3.06952">
        <ele>18.88</ele>
        <time>2015-03-08T09:16:38Z</time>
      </trkpt>
      <trkpt lat="50.76705" lon="3.06957">
        <ele>18.88</ele>
        <time>2015-03-08T09:16:39Z</time>
      </trkpt>
      <trkpt lat="50.76745" lon="3.06973">
        <ele>18.88</ele>
        <time>2015-03-08T09:16:44Z</time>
      </trkpt>
      <trkpt lat="50.76753" lon="3.06973">
        <ele>18.88</ele>
        <time>2015-03-08T09:16:45Z</time>
      </trkpt>
      <trkpt lat="50.7676" lon="3.06971">
        <ele>18.88</ele>
        <time>2015-03-08T09:16:46Z</time>
      </trkpt>
      <trkpt lat="50.76788" lon="3.06962">
        <ele>18.4</ele>
        <time>2015-03-08T09:16:50Z</time>
      </trkpt>
      <trkpt lat="50.76799" lon="3.0696">
        <ele>18.4</ele>
        <time>2015-03-08T09:16:52Z</time>
      </trkpt>
      <trkpt lat="50.76802" lon="3.06956">
        <ele>18.4</ele>
        <time>2015-03-08T09:16:53Z</time>
      </trkpt>
      <trkpt lat="50.76803" lon="3.06951">
        <ele>18.4</ele>
        <time>2015-03-08T09:16:54Z</time>
      </trkpt>
      <trkpt lat="50.76804" lon="3.06947">
        <ele>18.4</ele>
        <time>2015-03-08T09:16:55Z</time>
      </trkpt>
      <trkpt lat="50.76803" lon="3.06942">
        <ele>18.88</ele>
        <time>2015-03-08T09:16:56Z</time>
      </trkpt>
      <trkpt lat="50.76802" lon="3.06937">
        <ele>18.88</ele>
        <time>2015-03-08T09:16:57Z</time>
      </trkpt>
      <trkpt lat="50.76794" lon="3.06905">
        <ele>18.88</ele>
        <time>2015-03-08T09:17:02Z</time>
      </trkpt>
      <trkpt lat="50.76791" lon="3.06891">
        <ele>19.36</ele>
        <time>2015-03-08T09:17:04Z</time>
      </trkpt>
      <trkpt lat="50.76789" lon="3.06884">
        <ele>19.84</ele>
        <time>2015-03-08T09:17:05Z</time>
      </trkpt>
      <trkpt lat="50.76777" lon="3.06828">
        <ele>18.88</ele>
        <time>2015-03-08T09:17:12Z</time>
      </trkpt>
      <trkpt lat="50.76765" lon="3.06791">
        <ele>18.88</ele>
        <time>2015-03-08T09:17:17Z</time>
      </trkpt>
      <trkpt lat="50.76761" lon="3.06777">
        <ele>18.88</ele>
        <time>2015-03-08T09:17:19Z</time>
      </trkpt>
      <trkpt lat="50.7676" lon="3.06769">
        <ele>18.88</ele>
        <time>2015-03-08T09:17:20Z</time>
      </trkpt>
      <trkpt lat="50.76759" lon="3.06761">
        <ele>18.4</ele>
        <time>2015-03-08T09:17:21Z</time>
      </trkpt>
      <trkpt lat="50.76753" lon="3.06719">
        <ele>18.4</ele>
        <time>2015-03-08T09:17:26Z</time>
      </trkpt>
      <trkpt lat="50.76751" lon="3.06711">
        <ele>18.4</ele>
        <time>2015-03-08T09:17:27Z</time>
      </trkpt>
      <trkpt lat="50.76748" lon="3.06704">
        <ele>18.4</ele>
        <time>2015-03-08T09:17:28Z</time>
      </trkpt>
      <trkpt lat="50.76744" lon="3.06699">
        <ele>18.88</ele>
        <time>2015-03-08T09:17:29Z</time>
      </trkpt>
      <trkpt lat="50.7674" lon="3.06694">
        <ele>19.36</ele>
        <time>2015-03-08T09:17:30Z</time>
      </trkpt>
      <trkpt lat="50.76736" lon="3.06689">
        <ele>19.36</ele>
        <time>2015-03-08T09:17:31Z</time>
      </trkpt>
      <trkpt lat="50.76732" lon="3.06684">
        <ele>19.84</ele>
        <time>2015-03-08T09:17:32Z</time>
      </trkpt>
      <trkpt lat="50.76728" lon="3.06679">
        <ele>19.84</ele>
        <time>2015-03-08T09:17:33Z</time>
      </trkpt>
      <trkpt lat="50.76716" lon="3.06666">
        <ele>20.32</ele>
        <time>2015-03-08T09:17:36Z</time>
      </trkpt>
      <trkpt lat="50.76712" lon="3.06662">
        <ele>20.32</ele>
        <time>2015-03-08T09:17:37Z</time>
      </trkpt>
      <trkpt lat="50.76708" lon="3.06658">
        <ele>20.81</ele>
        <time>2015-03-08T09:17:38Z</time>
      </trkpt>
      <trkpt lat="50.76705" lon="3.06652">
        <ele>20.81</ele>
        <time>2015-03-08T09:17:39Z</time>
      </trkpt>
      <trkpt lat="50.76701" lon="3.06647">
        <ele>20.81</ele>
        <time>2015-03-08T09:17:40Z</time>
      </trkpt>
      <trkpt lat="50.76677" lon="3.066">
        <ele>22.25</ele>
        <time>2015-03-08T09:17:49Z</time>
      </trkpt>
      <trkpt lat="50.76674" lon="3.06595">
        <ele>22.25</ele>
        <time>2015-03-08T09:17:50Z</time>
      </trkpt>
      <trkpt lat="50.76671" lon="3.0659">
        <ele>22.73</ele>
        <time>2015-03-08T09:17:51Z</time>
      </trkpt>
      <trkpt lat="50.76669" lon="3.06585">
        <ele>23.21</ele>
        <time>2015-03-08T09:17:52Z</time>
      </trkpt>
      <trkpt lat="50.76667" lon="3.06581">
        <ele>23.21</ele>
        <time>2015-03-08T09:17:53Z</time>
      </trkpt>
      <trkpt lat="50.76664" lon="3.06576">
        <ele>23.21</ele>
        <time>2015-03-08T09:17:54Z</time>
      </trkpt>
      <trkpt lat="50.76651" lon="3.06549">
        <ele>24.65</ele>
        <time>2015-03-08T09:18:00Z</time>
      </trkpt>
      <trkpt lat="50.76632" lon="3.06515">
        <ele>25.13</ele>
        <time>2015-03-08T09:18:08Z</time>
      </trkpt>
      <trkpt lat="50.76613" lon="3.0648">
        <ele>26.57</ele>
        <time>2015-03-08T09:18:16Z</time>
      </trkpt>
      <trkpt lat="50.76592" lon="3.06443">
        <ele>28.02</ele>
        <time>2015-03-08T09:18:26Z</time>
      </trkpt>
      <trkpt lat="50.76575" lon="3.0641">
        <ele>29.46</ele>
        <time>2015-03-08T09:18:35Z</time>
      </trkpt>
      <trkpt lat="50.76562" lon="3.06382">
        <ele>29.46</ele>
        <time>2015-03-08T09:18:42Z</time>
      </trkpt>
      <trkpt lat="50.76547" lon="3.06348">
        <ele>30.9</ele>
        <time>2015-03-08T09:18:50Z</time>
      </trkpt>
      <trkpt lat="50.76538" lon="3.06314">
        <ele>29.94</ele>
        <time>2015-03-08T09:18:57Z</time>
      </trkpt>
      <trkpt lat="50.76527" lon="3.06279">
        <ele>29.94</ele>
        <time>2015-03-08T09:19:04Z</time>
      </trkpt>
      <trkpt lat="50.76518" lon="3.06251">
        <ele>29.46</ele>
        <time>2015-03-08T09:19:10Z</time>
      </trkpt>
      <trkpt lat="50.76519" lon="3.06242">
        <ele>28.98</ele>
        <time>2015-03-08T09:19:12Z</time>
      </trkpt>
      <trkpt lat="50.76522" lon="3.06238">
        <ele>28.98</ele>
        <time>2015-03-08T09:19:13Z</time>
      </trkpt>
      <trkpt lat="50.76526" lon="3.06235">
        <ele>28.5</ele>
        <time>2015-03-08T09:19:14Z</time>
      </trkpt>
      <trkpt lat="50.7653" lon="3.06232">
        <ele>28.02</ele>
        <time>2015-03-08T09:19:15Z</time>
      </trkpt>
      <trkpt lat="50.76535" lon="3.06228">
        <ele>27.53</ele>
        <time>2015-03-08T09:19:16Z</time>
      </trkpt>
      <trkpt lat="50.7657" lon="3.06194">
        <ele>24.17</ele>
        <time>2015-03-08T09:19:22Z</time>
      </trkpt>
      <trkpt lat="50.76584" lon="3.06183">
        <ele>23.21</ele>
        <time>2015-03-08T09:19:24Z</time>
      </trkpt>
      <trkpt lat="50.76632" lon="3.06163">
        <ele>20.81</ele>
        <time>2015-03-08T09:19:31Z</time>
      </trkpt>
      <trkpt lat="50.76689" lon="3.06146">
        <ele>19.36</ele>
        <time>2015-03-08T09:19:39Z</time>
      </trkpt>
      <trkpt lat="50.76723" lon="3.06133">
        <ele>18.88</ele>
        <time>2015-03-08T09:19:44Z</time>
      </trkpt>
      <trkpt lat="50.76729" lon="3.06134">
        <ele>18.4</ele>
        <time>2015-03-08T09:19:45Z</time>
      </trkpt>
      <trkpt lat="50.76735" lon="3.06139">
        <ele>18.4</ele>
        <time>2015-03-08T09:19:46Z</time>
      </trkpt>
      <trkpt lat="50.76739" lon="3.06145">
        <ele>18.4</ele>
        <time>2015-03-08T09:19:47Z</time>
      </trkpt>
      <trkpt lat="50.76744" lon="3.06152">
        <ele>18.4</ele>
        <time>2015-03-08T09:19:48Z</time>
      </trkpt>
      <trkpt lat="50.76771" lon="3.06192">
        <ele>19.36</ele>
        <time>2015-03-08T09:19:54Z</time>
      </trkpt>
      <trkpt lat="50.76777" lon="3.06195">
        <ele>19.36</ele>
        <time>2015-03-08T09:19:55Z</time>
      </trkpt>
      <trkpt lat="50.76783" lon="3.06196">
        <ele>18.88</ele>
        <time>2015-03-08T09:19:56Z</time>
      </trkpt>
      <trkpt lat="50.76788" lon="3.06195">
        <ele>18.88</ele>
        <time>2015-03-08T09:19:57Z</time>
      </trkpt>
      <trkpt lat="50.76794" lon="3.06194">
        <ele>18.88</ele>
        <time>2015-03-08T09:19:58Z</time>
      </trkpt>
      <trkpt lat="50.76834" lon="3.06183">
        <ele>18.4</ele>
        <time>2015-03-08T09:20:06Z</time>
      </trkpt>
      <trkpt lat="50.76837" lon="3.06182">
        <ele>18.4</ele>
        <time>2015-03-08T09:20:07Z</time>
      </trkpt>
      <trkpt lat="50.7684" lon="3.06184">
        <ele>17.92</ele>
        <time>2015-03-08T09:20:08Z</time>
      </trkpt>
      <trkpt lat="50.76842" lon="3.06187">
        <ele>17.92</ele>
        <time>2015-03-08T09:20:09Z</time>
      </trkpt>
      <trkpt lat="50.76842" lon="3.06191">
        <ele>17.92</ele>
        <time>2015-03-08T09:20:10Z</time>
      </trkpt>
      <trkpt lat="50.76843" lon="3.06194">
        <ele>17.92</ele>
        <time>2015-03-08T09:20:11Z</time>
      </trkpt>
      <trkpt lat="50.76843" lon="3.06196">
        <ele>18.4</ele>
        <time>2015-03-08T09:20:15Z</time>
      </trkpt>
      <trkpt lat="50.76845" lon="3.06198">
        <ele>18.4</ele>
        <time>2015-03-08T09:20:20Z</time>
      </trkpt>
      <trkpt lat="50.76845" lon="3.06199">
        <ele>18.88</ele>
        <time>2015-03-08T09:20:27Z</time>
      </trkpt>
      <trkpt lat="50.76847" lon="3.06199">
        <ele>19.36</ele>
        <time>2015-03-08T09:20:44Z</time>
      </trkpt>
      <trkpt lat="50.76846" lon="3.06198">
        <ele>19.84</ele>
        <time>2015-03-08T09:21:05Z</time>
      </trkpt>
      <trkpt lat="50.76847" lon="3.06199">
        <ele>20.81</ele>
        <time>2015-03-08T09:21:29Z</time>
      </trkpt>
      <trkpt lat="50.76847" lon="3.06199">
        <ele>20.81</ele>
        <time>2015-03-08T09:21:50Z</time>
      </trkpt>
      <trkpt lat="50.76847" lon="3.062">
        <ele>20.81</ele>
        <time>2015-03-08T09:22:12Z</time>
      </trkpt>
      <trkpt lat="50.76847" lon="3.062">
        <ele>20.32</ele>
        <time>2015-03-08T09:22:34Z</time>
      </trkpt>
      <trkpt lat="50.76847" lon="3.06199">
        <ele>21.77</ele>
        <time>2015-03-08T09:22:59Z</time>
      </trkpt>
      <trkpt lat="50.76847" lon="3.06199">
        <ele>21.77</ele>
        <time>2015-03-08T09:23:22Z</time>
      </trkpt>
      <trkpt lat="50.76848" lon="3.06201">
        <ele>23.21</ele>
        <time>2015-03-08T09:23:47Z</time>
      </trkpt>
      <trkpt lat="50.76846" lon="3.062">
        <ele>22.25</ele>
        <time>2015-03-08T09:24:17Z</time>
      </trkpt>
      <trkpt lat="50.76847" lon="3.062">
        <ele>21.29</ele>
        <time>2015-03-08T09:24:39Z</time>
      </trkpt>
      <trkpt lat="50.76847" lon="3.062">
        <ele>21.77</ele>
        <time>2015-03-08T09:25:04Z</time>
      </trkpt>
      <trkpt lat="50.76846" lon="3.062">
        <ele>23.69</ele>
        <time>2015-03-08T09:25:35Z</time>
      </trkpt>
      <trkpt lat="50.76847" lon="3.062">
        <ele>22.73</ele>
        <time>2015-03-08T09:26:03Z</time>
      </trkpt>
      <trkpt lat="50.76847" lon="3.06201">
        <ele>23.21</ele>
        <time>2015-03-08T09:26:26Z</time>
      </trkpt>
      <trkpt lat="50.76847" lon="3.06201">
        <ele>23.69</ele>
        <time>2015-03-08T09:26:46Z</time>
      </trkpt>
      <trkpt lat="50.76847" lon="3.06201">
        <ele>24.65</ele>
        <time>2015-03-08T09:27:08Z</time>
      </trkpt>
      <trkpt lat="50.76846" lon="3.062">
        <ele>24.65</ele>
        <time>2015-03-08T09:27:29Z</time>
      </trkpt>
      <trkpt lat="50.76846" lon="3.062">
        <ele>23.69</ele>
        <time>2015-03-08T09:27:44Z</time>
      </trkpt>
      <trkpt lat="50.76846" lon="3.062">
        <ele>22.25</ele>
        <time>2015-03-08T09:28:00Z</time>
      </trkpt>
      <trkpt lat="50.76846" lon="3.06198">
        <ele>22.73</ele>
        <time>2015-03-08T09:28:09Z</time>
      </trkpt>
      <trkpt lat="50.76845" lon="3.06197">
        <ele>23.69</ele>
        <time>2015-03-08T09:28:22Z</time>
      </trkpt>
      <trkpt lat="50.76845" lon="3.06197">
        <ele>23.21</ele>
        <time>2015-03-08T09:28:31Z</time>
      </trkpt>
      <trkpt lat="50.76845" lon="3.06197">
        <ele>23.69</ele>
        <time>2015-03-08T09:28:44Z</time>
      </trkpt>
      <trkpt lat="50.76845" lon="3.06197">
        <ele>23.21</ele>
        <time>2015-03-08T09:28:56Z</time>
      </trkpt>
      <trkpt lat="50.76845" lon="3.06197">
        <ele>23.21</ele>
        <time>2015-03-08T09:29:13Z</time>
      </trkpt>
      <trkpt lat="50.76845" lon="3.06199">
        <ele>23.69</ele>
        <time>2015-03-08T09:29:26Z</time>
      </trkpt>
      <trkpt lat="50.76844" lon="3.06197">
        <ele>23.69</ele>
        <time>2015-03-08T09:29:33Z</time>
      </trkpt>
      <trkpt lat="50.76842" lon="3.06191">
        <ele>22.73</ele>
        <time>2015-03-08T09:29:39Z</time>
      </trkpt>
      <trkpt lat="50.76843" lon="3.06189">
        <ele>22.73</ele>
        <time>2015-03-08T09:29:40Z</time>
      </trkpt>
      <trkpt lat="50.76846" lon="3.06184">
        <ele>22.25</ele>
        <time>2015-03-08T09:29:42Z</time>
      </trkpt>
      <trkpt lat="50.76848" lon="3.06182">
        <ele>21.77</ele>
        <time>2015-03-08T09:29:43Z</time>
      </trkpt>
      <trkpt lat="50.7685" lon="3.06181">
        <ele>21.77</ele>
        <time>2015-03-08T09:29:44Z</time>
      </trkpt>
      <trkpt lat="50.76852" lon="3.06181">
        <ele>21.77</ele>
        <time>2015-03-08T09:29:45Z</time>
      </trkpt>
      <trkpt lat="50.76854" lon="3.0618">
        <ele>21.77</ele>
        <time>2015-03-08T09:29:46Z</time>
      </trkpt>
      <trkpt lat="50.76856" lon="3.06179">
        <ele>21.77</ele>
        <time>2015-03-08T09:29:47Z</time>
      </trkpt>
      <trkpt lat="50.76858" lon="3.06178">
        <ele>21.77</ele>
        <time>2015-03-08T09:29:48Z</time>
      </trkpt>
      <trkpt lat="50.7686" lon="3.06176">
        <ele>21.77</ele>
        <time>2015-03-08T09:29:49Z</time>
      </trkpt>
      <trkpt lat="50.76861" lon="3.06172">
        <ele>21.77</ele>
        <time>2015-03-08T09:29:50Z</time>
      </trkpt>
      <trkpt lat="50.76861" lon="3.06169">
        <ele>21.29</ele>
        <time>2015-03-08T09:29:51Z</time>
      </trkpt>
      <trkpt lat="50.76861" lon="3.06165">
        <ele>21.29</ele>
        <time>2015-03-08T09:29:52Z</time>
      </trkpt>
      <trkpt lat="50.76861" lon="3.06161">
        <ele>21.29</ele>
        <time>2015-03-08T09:29:53Z</time>
      </trkpt>
      <trkpt lat="50.7686" lon="3.06156">
        <ele>21.29</ele>
        <time>2015-03-08T09:29:54Z</time>
      </trkpt>
      <trkpt lat="50.76855" lon="3.06119">
        <ele>21.29</ele>
        <time>2015-03-08T09:30:01Z</time>
      </trkpt>
      <trkpt lat="50.76849" lon="3.06068">
        <ele>22.25</ele>
        <time>2015-03-08T09:30:09Z</time>
      </trkpt>
      <trkpt lat="50.76849" lon="3.06046">
        <ele>22.25</ele>
        <time>2015-03-08T09:30:12Z</time>
      </trkpt>
      <trkpt lat="50.76858" lon="3.05982">
        <ele>21.77</ele>
        <time>2015-03-08T09:30:21Z</time>
      </trkpt>
      <trkpt lat="50.76876" lon="3.05917">
        <ele>21.77</ele>
        <time>2015-03-08T09:30:30Z</time>
      </trkpt>
      <trkpt lat="50.76886" lon="3.05881">
        <ele>22.25</ele>
        <time>2015-03-08T09:30:35Z</time>
      </trkpt>
      <trkpt lat="50.76888" lon="3.05873">
        <ele>22.25</ele>
        <time>2015-03-08T09:30:36Z</time>
      </trkpt>
      <trkpt lat="50.76888" lon="3.05864">
        <ele>22.25</ele>
        <time>2015-03-08T09:30:37Z</time>
      </trkpt>
      <trkpt lat="50.76889" lon="3.05846">
        <ele>21.77</ele>
        <time>2015-03-08T09:30:39Z</time>
      </trkpt>
      <trkpt lat="50.76889" lon="3.05771">
        <ele>21.77</ele>
        <time>2015-03-08T09:30:48Z</time>
      </trkpt>
      <trkpt lat="50.76887" lon="3.05702">
        <ele>21.29</ele>
        <time>2015-03-08T09:30:56Z</time>
      </trkpt>
      <trkpt lat="50.76886" lon="3.05638">
        <ele>20.32</ele>
        <time>2015-03-08T09:31:04Z</time>
      </trkpt>
      <trkpt lat="50.76884" lon="3.05584">
        <ele>20.32</ele>
        <time>2015-03-08T09:31:12Z</time>
      </trkpt>
      <trkpt lat="50.76881" lon="3.0558">
        <ele>20.32</ele>
        <time>2015-03-08T09:31:13Z</time>
      </trkpt>
      <trkpt lat="50.76877" lon="3.05578">
        <ele>20.32</ele>
        <time>2015-03-08T09:31:14Z</time>
      </trkpt>
      <trkpt lat="50.76873" lon="3.05577">
        <ele>20.32</ele>
        <time>2015-03-08T09:31:15Z</time>
      </trkpt>
      <trkpt lat="50.7687" lon="3.05577">
        <ele>20.81</ele>
        <time>2015-03-08T09:31:16Z</time>
      </trkpt>
      <trkpt lat="50.76846" lon="3.05575">
        <ele>20.81</ele>
        <time>2015-03-08T09:31:22Z</time>
      </trkpt>
      <trkpt lat="50.76807" lon="3.05571">
        <ele>20.81</ele>
        <time>2015-03-08T09:31:31Z</time>
      </trkpt>
      <trkpt lat="50.76765" lon="3.05567">
        <ele>22.25</ele>
        <time>2015-03-08T09:31:41Z</time>
      </trkpt>
      <trkpt lat="50.76759" lon="3.05563">
        <ele>22.73</ele>
        <time>2015-03-08T09:31:43Z</time>
      </trkpt>
      <trkpt lat="50.76758" lon="3.05559">
        <ele>22.73</ele>
        <time>2015-03-08T09:31:44Z</time>
      </trkpt>
      <trkpt lat="50.76756" lon="3.05554">
        <ele>22.73</ele>
        <time>2015-03-08T09:31:45Z</time>
      </trkpt>
      <trkpt lat="50.76743" lon="3.0551">
        <ele>23.69</ele>
        <time>2015-03-08T09:31:53Z</time>
      </trkpt>
      <trkpt lat="50.76726" lon="3.05474">
        <ele>23.69</ele>
        <time>2015-03-08T09:32:00Z</time>
      </trkpt>
      <trkpt lat="50.76718" lon="3.0546">
        <ele>23.69</ele>
        <time>2015-03-08T09:32:03Z</time>
      </trkpt>
      <trkpt lat="50.76696" lon="3.05416">
        <ele>24.65</ele>
        <time>2015-03-08T09:32:12Z</time>
      </trkpt>
      <trkpt lat="50.76682" lon="3.0538">
        <ele>25.13</ele>
        <time>2015-03-08T09:32:19Z</time>
      </trkpt>
      <trkpt lat="50.7667" lon="3.05346">
        <ele>27.05</ele>
        <time>2015-03-08T09:32:26Z</time>
      </trkpt>
      <trkpt lat="50.76661" lon="3.05319">
        <ele>28.02</ele>
        <time>2015-03-08T09:32:33Z</time>
      </trkpt>
      <trkpt lat="50.76659" lon="3.05316">
        <ele>27.53</ele>
        <time>2015-03-08T09:32:34Z</time>
      </trkpt>
      <trkpt lat="50.76656" lon="3.05315">
        <ele>27.53</ele>
        <time>2015-03-08T09:32:35Z</time>
      </trkpt>
      <trkpt lat="50.76653" lon="3.05314">
        <ele>27.53</ele>
        <time>2015-03-08T09:32:36Z</time>
      </trkpt>
      <trkpt lat="50.76634" lon="3.05322">
        <ele>28.02</ele>
        <time>2015-03-08T09:32:43Z</time>
      </trkpt>
      <trkpt lat="50.76613" lon="3.05336">
        <ele>29.46</ele>
        <time>2015-03-08T09:32:51Z</time>
      </trkpt>
      <trkpt lat="50.7659" lon="3.05353">
        <ele>30.42</ele>
        <time>2015-03-08T09:33:00Z</time>
      </trkpt>
      <trkpt lat="50.76571" lon="3.05361">
        <ele>31.86</ele>
        <time>2015-03-08T09:33:07Z</time>
      </trkpt>
      <trkpt lat="50.76551" lon="3.05366">
        <ele>33.78</ele>
        <time>2015-03-08T09:33:14Z</time>
      </trkpt>
      <trkpt lat="50.76529" lon="3.05372">
        <ele>35.23</ele>
        <time>2015-03-08T09:33:22Z</time>
      </trkpt>
      <trkpt lat="50.76511" lon="3.05373">
        <ele>36.67</ele>
        <time>2015-03-08T09:33:29Z</time>
      </trkpt>
      <trkpt lat="50.76491" lon="3.05371">
        <ele>38.11</ele>
        <time>2015-03-08T09:33:36Z</time>
      </trkpt>
      <trkpt lat="50.76471" lon="3.05366">
        <ele>39.07</ele>
        <time>2015-03-08T09:33:44Z</time>
      </trkpt>
      <trkpt lat="50.76444" lon="3.05359">
        <ele>39.55</ele>
        <time>2015-03-08T09:33:54Z</time>
      </trkpt>
      <trkpt lat="50.76421" lon="3.05351">
        <ele>40.51</ele>
        <time>2015-03-08T09:34:03Z</time>
      </trkpt>
      <trkpt lat="50.76418" lon="3.05345">
        <ele>40.51</ele>
        <time>2015-03-08T09:34:05Z</time>
      </trkpt>
      <trkpt lat="50.76416" lon="3.05324">
        <ele>40.51</ele>
        <time>2015-03-08T09:34:10Z</time>
      </trkpt>
      <trkpt lat="50.76417" lon="3.05299">
        <ele>41.95</ele>
        <time>2015-03-08T09:34:16Z</time>
      </trkpt>
      <trkpt lat="50.76415" lon="3.05264">
        <ele>42.44</ele>
        <time>2015-03-08T09:34:24Z</time>
      </trkpt>
      <trkpt lat="50.76413" lon="3.05238">
        <ele>43.4</ele>
        <time>2015-03-08T09:34:30Z</time>
      </trkpt>
      <trkpt lat="50.76411" lon="3.05206">
        <ele>45.8</ele>
        <time>2015-03-08T09:34:37Z</time>
      </trkpt>
      <trkpt lat="50.76408" lon="3.05171">
        <ele>47.24</ele>
        <time>2015-03-08T09:34:44Z</time>
      </trkpt>
      <trkpt lat="50.76407" lon="3.05134">
        <ele>47.72</ele>
        <time>2015-03-08T09:34:51Z</time>
      </trkpt>
      <trkpt lat="50.76395" lon="3.05118">
        <ele>48.68</ele>
        <time>2015-03-08T09:34:57Z</time>
      </trkpt>
      <trkpt lat="50.76378" lon="3.05125">
        <ele>48.68</ele>
        <time>2015-03-08T09:35:03Z</time>
      </trkpt>
      <trkpt lat="50.76363" lon="3.05129">
        <ele>49.16</ele>
        <time>2015-03-08T09:35:09Z</time>
      </trkpt>
      <trkpt lat="50.76348" lon="3.05131">
        <ele>50.61</ele>
        <time>2015-03-08T09:35:15Z</time>
      </trkpt>
      <trkpt lat="50.76332" lon="3.05132">
        <ele>51.09</ele>
        <time>2015-03-08T09:35:21Z</time>
      </trkpt>
      <trkpt lat="50.76323" lon="3.05132">
        <ele>49.16</ele>
        <time>2015-03-08T09:35:25Z</time>
      </trkpt>
      <trkpt lat="50.7632" lon="3.05132">
        <ele>48.68</ele>
        <time>2015-03-08T09:35:26Z</time>
      </trkpt>
      <trkpt lat="50.76318" lon="3.05132">
        <ele>48.2</ele>
        <time>2015-03-08T09:35:27Z</time>
      </trkpt>
      <trkpt lat="50.7629" lon="3.05123">
        <ele>48.68</ele>
        <time>2015-03-08T09:35:36Z</time>
      </trkpt>
      <trkpt lat="50.76263" lon="3.05118">
        <ele>49.16</ele>
        <time>2015-03-08T09:35:44Z</time>
      </trkpt>
      <trkpt lat="50.76237" lon="3.05113">
        <ele>50.13</ele>
        <time>2015-03-08T09:35:51Z</time>
      </trkpt>
      <trkpt lat="50.7621" lon="3.05108">
        <ele>49.65</ele>
        <time>2015-03-08T09:35:57Z</time>
      </trkpt>
      <trkpt lat="50.76187" lon="3.05107">
        <ele>49.16</ele>
        <time>2015-03-08T09:36:02Z</time>
      </trkpt>
      <trkpt lat="50.76183" lon="3.05106">
        <ele>49.16</ele>
        <time>2015-03-08T09:36:03Z</time>
      </trkpt>
      <trkpt lat="50.76179" lon="3.05107">
        <ele>49.16</ele>
        <time>2015-03-08T09:36:04Z</time>
      </trkpt>
      <trkpt lat="50.76141" lon="3.05118">
        <ele>47.72</ele>
        <time>2015-03-08T09:36:12Z</time>
      </trkpt>
      <trkpt lat="50.76126" lon="3.05128">
        <ele>47.24</ele>
        <time>2015-03-08T09:36:15Z</time>
      </trkpt>
      <trkpt lat="50.76089" lon="3.05164">
        <ele>44.84</ele>
        <time>2015-03-08T09:36:22Z</time>
      </trkpt>
      <trkpt lat="50.76067" lon="3.05186">
        <ele>43.88</ele>
        <time>2015-03-08T09:36:26Z</time>
      </trkpt>
      <trkpt lat="50.76012" lon="3.05223">
        <ele>41.47</ele>
        <time>2015-03-08T09:36:35Z</time>
      </trkpt>
      <trkpt lat="50.75968" lon="3.05247">
        <ele>40.51</ele>
        <time>2015-03-08T09:36:43Z</time>
      </trkpt>
      <trkpt lat="50.75964" lon="3.05249">
        <ele>40.51</ele>
        <time>2015-03-08T09:36:44Z</time>
      </trkpt>
      <trkpt lat="50.75961" lon="3.05252">
        <ele>40.51</ele>
        <time>2015-03-08T09:36:45Z</time>
      </trkpt>
      <trkpt lat="50.75957" lon="3.05254">
        <ele>40.51</ele>
        <time>2015-03-08T09:36:46Z</time>
      </trkpt>
      <trkpt lat="50.75944" lon="3.0526">
        <ele>39.55</ele>
        <time>2015-03-08T09:36:50Z</time>
      </trkpt>
      <trkpt lat="50.75942" lon="3.05263">
        <ele>39.55</ele>
        <time>2015-03-08T09:36:51Z</time>
      </trkpt>
      <trkpt lat="50.75941" lon="3.05268">
        <ele>39.07</ele>
        <time>2015-03-08T09:36:52Z</time>
      </trkpt>
      <trkpt lat="50.75942" lon="3.05274">
        <ele>39.07</ele>
        <time>2015-03-08T09:36:53Z</time>
      </trkpt>
      <trkpt lat="50.75944" lon="3.05281">
        <ele>38.59</ele>
        <time>2015-03-08T09:36:54Z</time>
      </trkpt>
      <trkpt lat="50.75946" lon="3.05289">
        <ele>39.07</ele>
        <time>2015-03-08T09:36:55Z</time>
      </trkpt>
      <trkpt lat="50.75962" lon="3.05343">
        <ele>38.59</ele>
        <time>2015-03-08T09:37:02Z</time>
      </trkpt>
      <trkpt lat="50.75965" lon="3.05351">
        <ele>38.59</ele>
        <time>2015-03-08T09:37:03Z</time>
      </trkpt>
      <trkpt lat="50.75987" lon="3.05429">
        <ele>38.11</ele>
        <time>2015-03-08T09:37:12Z</time>
      </trkpt>
      <trkpt lat="50.76006" lon="3.05492">
        <ele>38.59</ele>
        <time>2015-03-08T09:37:19Z</time>
      </trkpt>
      <trkpt lat="50.7601" lon="3.05498">
        <ele>38.59</ele>
        <time>2015-03-08T09:37:20Z</time>
      </trkpt>
      <trkpt lat="50.76015" lon="3.05503">
        <ele>38.11</ele>
        <time>2015-03-08T09:37:21Z</time>
      </trkpt>
      <trkpt lat="50.76021" lon="3.05505">
        <ele>38.59</ele>
        <time>2015-03-08T09:37:22Z</time>
      </trkpt>
      <trkpt lat="50.76027" lon="3.05505">
        <ele>38.59</ele>
        <time>2015-03-08T09:37:23Z</time>
      </trkpt>
      <trkpt lat="50.76033" lon="3.05504">
        <ele>38.59</ele>
        <time>2015-03-08T09:37:24Z</time>
      </trkpt>
      <trkpt lat="50.76084" lon="3.05492">
        <ele>39.55</ele>
        <time>2015-03-08T09:37:33Z</time>
      </trkpt>
      <trkpt lat="50.7613" lon="3.0548">
        <ele>40.51</ele>
        <time>2015-03-08T09:37:42Z</time>
      </trkpt>
      <trkpt lat="50.76151" lon="3.05478">
        <ele>40.03</ele>
        <time>2015-03-08T09:37:46Z</time>
      </trkpt>
      <trkpt lat="50.76184" lon="3.05483">
        <ele>41.47</ele>
        <time>2015-03-08T09:37:53Z</time>
      </trkpt>
      <trkpt lat="50.76189" lon="3.05484">
        <ele>41.47</ele>
        <time>2015-03-08T09:37:54Z</time>
      </trkpt>
      <trkpt lat="50.76194" lon="3.05485">
        <ele>41.47</ele>
        <time>2015-03-08T09:37:55Z</time>
      </trkpt>
      <trkpt lat="50.76209" lon="3.05494">
        <ele>41.95</ele>
        <time>2015-03-08T09:37:59Z</time>
      </trkpt>
      <trkpt lat="50.76209" lon="3.05499">
        <ele>41.95</ele>
        <time>2015-03-08T09:38:00Z</time>
      </trkpt>
      <trkpt lat="50.76208" lon="3.05506">
        <ele>41.95</ele>
        <time>2015-03-08T09:38:01Z</time>
      </trkpt>
      <trkpt lat="50.76203" lon="3.05524">
        <ele>41.47</ele>
        <time>2015-03-08T09:38:04Z</time>
      </trkpt>
      <trkpt lat="50.76193" lon="3.05585">
        <ele>42.44</ele>
        <time>2015-03-08T09:38:13Z</time>
      </trkpt>
      <trkpt lat="50.76183" lon="3.05648">
        <ele>42.44</ele>
        <time>2015-03-08T09:38:22Z</time>
      </trkpt>
      <trkpt lat="50.76172" lon="3.05712">
        <ele>43.88</ele>
        <time>2015-03-08T09:38:31Z</time>
      </trkpt>
      <trkpt lat="50.76169" lon="3.05734">
        <ele>44.36</ele>
        <time>2015-03-08T09:38:34Z</time>
      </trkpt>
      <trkpt lat="50.76168" lon="3.05741">
        <ele>44.36</ele>
        <time>2015-03-08T09:38:35Z</time>
      </trkpt>
      <trkpt lat="50.76168" lon="3.05748">
        <ele>44.36</ele>
        <time>2015-03-08T09:38:36Z</time>
      </trkpt>
      <trkpt lat="50.76153" lon="3.05818">
        <ele>44.84</ele>
        <time>2015-03-08T09:38:46Z</time>
      </trkpt>
      <trkpt lat="50.76137" lon="3.0588">
        <ele>45.32</ele>
        <time>2015-03-08T09:38:55Z</time>
      </trkpt>
      <trkpt lat="50.7613" lon="3.05907">
        <ele>44.84</ele>
        <time>2015-03-08T09:38:59Z</time>
      </trkpt>
      <trkpt lat="50.76131" lon="3.05914">
        <ele>44.84</ele>
        <time>2015-03-08T09:39:00Z</time>
      </trkpt>
      <trkpt lat="50.76133" lon="3.0592">
        <ele>44.84</ele>
        <time>2015-03-08T09:39:01Z</time>
      </trkpt>
      <trkpt lat="50.76137" lon="3.05925">
        <ele>45.32</ele>
        <time>2015-03-08T09:39:02Z</time>
      </trkpt>
      <trkpt lat="50.76141" lon="3.05929">
        <ele>45.32</ele>
        <time>2015-03-08T09:39:03Z</time>
      </trkpt>
      <trkpt lat="50.76178" lon="3.05967">
        <ele>46.28</ele>
        <time>2015-03-08T09:39:12Z</time>
      </trkpt>
      <trkpt lat="50.76203" lon="3.05999">
        <ele>45.8</ele>
        <time>2015-03-08T09:39:18Z</time>
      </trkpt>
      <trkpt lat="50.76246" lon="3.06038">
        <ele>44.36</ele>
        <time>2015-03-08T09:39:26Z</time>
      </trkpt>
      <trkpt lat="50.76292" lon="3.06082">
        <ele>42.44</ele>
        <time>2015-03-08T09:39:33Z</time>
      </trkpt>
      <trkpt lat="50.76335" lon="3.06148">
        <ele>40.03</ele>
        <time>2015-03-08T09:39:40Z</time>
      </trkpt>
      <trkpt lat="50.76378" lon="3.06244">
        <ele>37.63</ele>
        <time>2015-03-08T09:39:49Z</time>
      </trkpt>
      <trkpt lat="50.76405" lon="3.06303">
        <ele>35.23</ele>
        <time>2015-03-08T09:39:56Z</time>
      </trkpt>
      <trkpt lat="50.76406" lon="3.06308">
        <ele>35.23</ele>
        <time>2015-03-08T09:39:57Z</time>
      </trkpt>
      <trkpt lat="50.76404" lon="3.06311">
        <ele>34.74</ele>
        <time>2015-03-08T09:39:58Z</time>
      </trkpt>
      <trkpt lat="50.76402" lon="3.06314">
        <ele>34.26</ele>
        <time>2015-03-08T09:39:59Z</time>
      </trkpt>
      <trkpt lat="50.764" lon="3.06318">
        <ele>34.26</ele>
        <time>2015-03-08T09:40:00Z</time>
      </trkpt>
      <trkpt lat="50.76386" lon="3.06338">
        <ele>33.78</ele>
        <time>2015-03-08T09:40:05Z</time>
      </trkpt>
      <trkpt lat="50.76377" lon="3.06352">
        <ele>33.78</ele>
        <time>2015-03-08T09:40:08Z</time>
      </trkpt>
      <trkpt lat="50.76373" lon="3.06357">
        <ele>33.78</ele>
        <time>2015-03-08T09:40:09Z</time>
      </trkpt>
      <trkpt lat="50.7637" lon="3.06362">
        <ele>34.26</ele>
        <time>2015-03-08T09:40:10Z</time>
      </trkpt>
      <trkpt lat="50.76361" lon="3.06376">
        <ele>34.26</ele>
        <time>2015-03-08T09:40:13Z</time>
      </trkpt>
      <trkpt lat="50.76357" lon="3.06378">
        <ele>34.74</ele>
        <time>2015-03-08T09:40:14Z</time>
      </trkpt>
      <trkpt lat="50.76353" lon="3.06376">
        <ele>34.74</ele>
        <time>2015-03-08T09:40:15Z</time>
      </trkpt>
      <trkpt lat="50.76349" lon="3.06372">
        <ele>34.74</ele>
        <time>2015-03-08T09:40:16Z</time>
      </trkpt>
      <trkpt lat="50.76346" lon="3.06368">
        <ele>35.23</ele>
        <time>2015-03-08T09:40:17Z</time>
      </trkpt>
      <trkpt lat="50.76336" lon="3.06355">
        <ele>36.67</ele>
        <time>2015-03-08T09:40:20Z</time>
      </trkpt>
      <trkpt lat="50.76332" lon="3.06352">
        <ele>36.67</ele>
        <time>2015-03-08T09:40:21Z</time>
      </trkpt>
      <trkpt lat="50.76328" lon="3.0635">
        <ele>37.15</ele>
        <time>2015-03-08T09:40:22Z</time>
      </trkpt>
      <trkpt lat="50.76325" lon="3.06351">
        <ele>37.63</ele>
        <time>2015-03-08T09:40:23Z</time>
      </trkpt>
      <trkpt lat="50.76321" lon="3.06354">
        <ele>37.63</ele>
        <time>2015-03-08T09:40:24Z</time>
      </trkpt>
      <trkpt lat="50.76319" lon="3.06358">
        <ele>38.11</ele>
        <time>2015-03-08T09:40:25Z</time>
      </trkpt>
      <trkpt lat="50.76316" lon="3.06363">
        <ele>38.59</ele>
        <time>2015-03-08T09:40:26Z</time>
      </trkpt>
      <trkpt lat="50.76301" lon="3.0639">
        <ele>39.07</ele>
        <time>2015-03-08T09:40:33Z</time>
      </trkpt>
      <trkpt lat="50.76277" lon="3.06424">
        <ele>39.07</ele>
        <time>2015-03-08T09:40:42Z</time>
      </trkpt>
      <trkpt lat="50.76255" lon="3.06443">
        <ele>40.03</ele>
        <time>2015-03-08T09:40:49Z</time>
      </trkpt>
      <trkpt lat="50.76233" lon="3.06461">
        <ele>40.51</ele>
        <time>2015-03-08T09:40:56Z</time>
      </trkpt>
      <trkpt lat="50.76217" lon="3.06496">
        <ele>40.03</ele>
        <time>2015-03-08T09:41:03Z</time>
      </trkpt>
      <trkpt lat="50.76209" lon="3.06505">
        <ele>40.03</ele>
        <time>2015-03-08T09:41:06Z</time>
      </trkpt>
      <trkpt lat="50.76207" lon="3.06503">
        <ele>40.03</ele>
        <time>2015-03-08T09:41:07Z</time>
      </trkpt>
      <trkpt lat="50.76205" lon="3.06499">
        <ele>40.03</ele>
        <time>2015-03-08T09:41:08Z</time>
      </trkpt>
      <trkpt lat="50.76204" lon="3.06494">
        <ele>40.03</ele>
        <time>2015-03-08T09:41:09Z</time>
      </trkpt>
      <trkpt lat="50.76203" lon="3.06489">
        <ele>40.03</ele>
        <time>2015-03-08T09:41:10Z</time>
      </trkpt>
      <trkpt lat="50.76201" lon="3.06484">
        <ele>40.03</ele>
        <time>2015-03-08T09:41:11Z</time>
      </trkpt>
      <trkpt lat="50.76198" lon="3.06479">
        <ele>40.03</ele>
        <time>2015-03-08T09:41:12Z</time>
      </trkpt>
      <trkpt lat="50.76179" lon="3.06437">
        <ele>40.99</ele>
        <time>2015-03-08T09:41:20Z</time>
      </trkpt>
      <trkpt lat="50.76163" lon="3.06404">
        <ele>42.44</ele>
        <time>2015-03-08T09:41:27Z</time>
      </trkpt>
      <trkpt lat="50.76146" lon="3.06368">
        <ele>43.88</ele>
        <time>2015-03-08T09:41:35Z</time>
      </trkpt>
      <trkpt lat="50.76132" lon="3.06338">
        <ele>43.88</ele>
        <time>2015-03-08T09:41:43Z</time>
      </trkpt>
      <trkpt lat="50.76116" lon="3.06297">
        <ele>45.32</ele>
        <time>2015-03-08T09:41:53Z</time>
      </trkpt>
      <trkpt lat="50.76114" lon="3.06291">
        <ele>45.32</ele>
        <time>2015-03-08T09:41:54Z</time>
      </trkpt>
      <trkpt lat="50.76107" lon="3.06248">
        <ele>46.76</ele>
        <time>2015-03-08T09:42:01Z</time>
      </trkpt>
      <trkpt lat="50.76098" lon="3.0621">
        <ele>47.24</ele>
        <time>2015-03-08T09:42:09Z</time>
      </trkpt>
      <trkpt lat="50.76086" lon="3.06169">
        <ele>46.76</ele>
        <time>2015-03-08T09:42:18Z</time>
      </trkpt>
      <trkpt lat="50.76066" lon="3.06133">
        <ele>45.8</ele>
        <time>2015-03-08T09:42:26Z</time>
      </trkpt>
      <trkpt lat="50.76042" lon="3.061">
        <ele>42.44</ele>
        <time>2015-03-08T09:42:34Z</time>
      </trkpt>
      <trkpt lat="50.76042" lon="3.06095">
        <ele>42.44</ele>
        <time>2015-03-08T09:42:35Z</time>
      </trkpt>
      <trkpt lat="50.76043" lon="3.0609">
        <ele>42.44</ele>
        <time>2015-03-08T09:42:36Z</time>
      </trkpt>
      <trkpt lat="50.76046" lon="3.06085">
        <ele>42.44</ele>
        <time>2015-03-08T09:42:37Z</time>
      </trkpt>
      <trkpt lat="50.76048" lon="3.06081">
        <ele>42.44</ele>
        <time>2015-03-08T09:42:38Z</time>
      </trkpt>
      <trkpt lat="50.76049" lon="3.06076">
        <ele>42.92</ele>
        <time>2015-03-08T09:42:39Z</time>
      </trkpt>
      <trkpt lat="50.76049" lon="3.06071">
        <ele>42.92</ele>
        <time>2015-03-08T09:42:40Z</time>
      </trkpt>
      <trkpt lat="50.76048" lon="3.06066">
        <ele>42.92</ele>
        <time>2015-03-08T09:42:41Z</time>
      </trkpt>
      <trkpt lat="50.76047" lon="3.06062">
        <ele>43.4</ele>
        <time>2015-03-08T09:42:42Z</time>
      </trkpt>
      <trkpt lat="50.76044" lon="3.06059">
        <ele>43.88</ele>
        <time>2015-03-08T09:42:43Z</time>
      </trkpt>
      <trkpt lat="50.76028" lon="3.06039">
        <ele>43.4</ele>
        <time>2015-03-08T09:42:48Z</time>
      </trkpt>
      <trkpt lat="50.75993" lon="3.05996">
        <ele>40.99</ele>
        <time>2015-03-08T09:42:56Z</time>
      </trkpt>
      <trkpt lat="50.75963" lon="3.05952">
        <ele>39.07</ele>
        <time>2015-03-08T09:43:04Z</time>
      </trkpt>
      <trkpt lat="50.75949" lon="3.05929">
        <ele>38.59</ele>
        <time>2015-03-08T09:43:11Z</time>
      </trkpt>
      <trkpt lat="50.75941" lon="3.05922">
        <ele>38.11</ele>
        <time>2015-03-08T09:43:14Z</time>
      </trkpt>
      <trkpt lat="50.75937" lon="3.05922">
        <ele>38.11</ele>
        <time>2015-03-08T09:43:15Z</time>
      </trkpt>
      <trkpt lat="50.75932" lon="3.05924">
        <ele>38.11</ele>
        <time>2015-03-08T09:43:16Z</time>
      </trkpt>
      <trkpt lat="50.75927" lon="3.05928">
        <ele>38.11</ele>
        <time>2015-03-08T09:43:17Z</time>
      </trkpt>
      <trkpt lat="50.75923" lon="3.05932">
        <ele>37.63</ele>
        <time>2015-03-08T09:43:18Z</time>
      </trkpt>
      <trkpt lat="50.75879" lon="3.05983">
        <ele>35.23</ele>
        <time>2015-03-08T09:43:27Z</time>
      </trkpt>
      <trkpt lat="50.75842" lon="3.06028">
        <ele>33.3</ele>
        <time>2015-03-08T09:43:35Z</time>
      </trkpt>
      <trkpt lat="50.75803" lon="3.06069">
        <ele>31.38</ele>
        <time>2015-03-08T09:43:43Z</time>
      </trkpt>
      <trkpt lat="50.7576" lon="3.06122">
        <ele>29.94</ele>
        <time>2015-03-08T09:43:51Z</time>
      </trkpt>
      <trkpt lat="50.75707" lon="3.06185">
        <ele>28.98</ele>
        <time>2015-03-08T09:44:01Z</time>
      </trkpt>
      <trkpt lat="50.75697" lon="3.06199">
        <ele>28.98</ele>
        <time>2015-03-08T09:44:03Z</time>
      </trkpt>
      <trkpt lat="50.75693" lon="3.06207">
        <ele>28.98</ele>
        <time>2015-03-08T09:44:04Z</time>
      </trkpt>
      <trkpt lat="50.75687" lon="3.06224">
        <ele>28.5</ele>
        <time>2015-03-08T09:44:06Z</time>
      </trkpt>
      <trkpt lat="50.75674" lon="3.06247">
        <ele>28.02</ele>
        <time>2015-03-08T09:44:09Z</time>
      </trkpt>
      <trkpt lat="50.75634" lon="3.06293">
        <ele>26.57</ele>
        <time>2015-03-08T09:44:17Z</time>
      </trkpt>
      <trkpt lat="50.75605" lon="3.06325">
        <ele>26.57</ele>
        <time>2015-03-08T09:44:24Z</time>
      </trkpt>
      <trkpt lat="50.75587" lon="3.06346">
        <ele>26.57</ele>
        <time>2015-03-08T09:44:29Z</time>
      </trkpt>
      <trkpt lat="50.75551" lon="3.06381">
        <ele>25.13</ele>
        <time>2015-03-08T09:44:36Z</time>
      </trkpt>
      <trkpt lat="50.75518" lon="3.06411">
        <ele>25.13</ele>
        <time>2015-03-08T09:44:43Z</time>
      </trkpt>
      <trkpt lat="50.75514" lon="3.0641">
        <ele>25.13</ele>
        <time>2015-03-08T09:44:44Z</time>
      </trkpt>
      <trkpt lat="50.75511" lon="3.06407">
        <ele>25.13</ele>
        <time>2015-03-08T09:44:45Z</time>
      </trkpt>
      <trkpt lat="50.75508" lon="3.06403">
        <ele>24.65</ele>
        <time>2015-03-08T09:44:46Z</time>
      </trkpt>
      <trkpt lat="50.75505" lon="3.06398">
        <ele>24.65</ele>
        <time>2015-03-08T09:44:47Z</time>
      </trkpt>
      <trkpt lat="50.75503" lon="3.06394">
        <ele>24.65</ele>
        <time>2015-03-08T09:44:48Z</time>
      </trkpt>
      <trkpt lat="50.7549" lon="3.06372">
        <ele>24.65</ele>
        <time>2015-03-08T09:44:54Z</time>
      </trkpt>
      <trkpt lat="50.75478" lon="3.06349">
        <ele>24.17</ele>
        <time>2015-03-08T09:45:00Z</time>
      </trkpt>
      <trkpt lat="50.7547" lon="3.06335">
        <ele>24.17</ele>
        <time>2015-03-08T09:45:03Z</time>
      </trkpt>
      <trkpt lat="50.75446" lon="3.06291">
        <ele>24.17</ele>
        <time>2015-03-08T09:45:11Z</time>
      </trkpt>
      <trkpt lat="50.75411" lon="3.06222">
        <ele>23.21</ele>
        <time>2015-03-08T09:45:22Z</time>
      </trkpt>
      <trkpt lat="50.75384" lon="3.06162">
        <ele>23.21</ele>
        <time>2015-03-08T09:45:31Z</time>
      </trkpt>
      <trkpt lat="50.75356" lon="3.06101">
        <ele>22.73</ele>
        <time>2015-03-08T09:45:41Z</time>
      </trkpt>
      <trkpt lat="50.75323" lon="3.06031">
        <ele>23.69</ele>
        <time>2015-03-08T09:45:52Z</time>
      </trkpt>
      <trkpt lat="50.75299" lon="3.0598">
        <ele>23.21</ele>
        <time>2015-03-08T09:46:00Z</time>
      </trkpt>
      <trkpt lat="50.7527" lon="3.05921">
        <ele>23.21</ele>
        <time>2015-03-08T09:46:10Z</time>
      </trkpt>
      <trkpt lat="50.75246" lon="3.05866">
        <ele>22.73</ele>
        <time>2015-03-08T09:46:19Z</time>
      </trkpt>
      <trkpt lat="50.75225" lon="3.05816">
        <ele>22.25</ele>
        <time>2015-03-08T09:46:27Z</time>
      </trkpt>
      <trkpt lat="50.75214" lon="3.05791">
        <ele>22.73</ele>
        <time>2015-03-08T09:46:31Z</time>
      </trkpt>
      <trkpt lat="50.75207" lon="3.05773">
        <ele>22.25</ele>
        <time>2015-03-08T09:46:34Z</time>
      </trkpt>
      <trkpt lat="50.75186" lon="3.05723">
        <ele>23.21</ele>
        <time>2015-03-08T09:46:42Z</time>
      </trkpt>
      <trkpt lat="50.75178" lon="3.05696">
        <ele>22.73</ele>
        <time>2015-03-08T09:46:46Z</time>
      </trkpt>
      <trkpt lat="50.75164" lon="3.05623">
        <ele>22.25</ele>
        <time>2015-03-08T09:46:56Z</time>
      </trkpt>
      <trkpt lat="50.75151" lon="3.05555">
        <ele>22.25</ele>
        <time>2015-03-08T09:47:05Z</time>
      </trkpt>
      <trkpt lat="50.75139" lon="3.05497">
        <ele>22.25</ele>
        <time>2015-03-08T09:47:13Z</time>
      </trkpt>
      <trkpt lat="50.75133" lon="3.0547">
        <ele>22.25</ele>
        <time>2015-03-08T09:47:17Z</time>
      </trkpt>
      <trkpt lat="50.75121" lon="3.05455">
        <ele>23.21</ele>
        <time>2015-03-08T09:47:22Z</time>
      </trkpt>
      <trkpt lat="50.75109" lon="3.05473">
        <ele>23.21</ele>
        <time>2015-03-08T09:47:26Z</time>
      </trkpt>
      <trkpt lat="50.7508" lon="3.05515">
        <ele>24.17</ele>
        <time>2015-03-08T09:47:36Z</time>
      </trkpt>
      <trkpt lat="50.75055" lon="3.05545">
        <ele>24.65</ele>
        <time>2015-03-08T09:47:44Z</time>
      </trkpt>
      <trkpt lat="50.75028" lon="3.05571">
        <ele>24.65</ele>
        <time>2015-03-08T09:47:52Z</time>
      </trkpt>
      <trkpt lat="50.75018" lon="3.0558">
        <ele>25.13</ele>
        <time>2015-03-08T09:47:55Z</time>
      </trkpt>
      <trkpt lat="50.74983" lon="3.05605">
        <ele>25.61</ele>
        <time>2015-03-08T09:48:04Z</time>
      </trkpt>
      <trkpt lat="50.74968" lon="3.05615">
        <ele>26.09</ele>
        <time>2015-03-08T09:48:08Z</time>
      </trkpt>
      <trkpt lat="50.74939" lon="3.05633">
        <ele>25.61</ele>
        <time>2015-03-08T09:48:15Z</time>
      </trkpt>
      <trkpt lat="50.74913" lon="3.05649">
        <ele>26.09</ele>
        <time>2015-03-08T09:48:21Z</time>
      </trkpt>
      <trkpt lat="50.74875" lon="3.05668">
        <ele>26.09</ele>
        <time>2015-03-08T09:48:30Z</time>
      </trkpt>
      <trkpt lat="50.74833" lon="3.05691">
        <ele>25.13</ele>
        <time>2015-03-08T09:48:39Z</time>
      </trkpt>
      <trkpt lat="50.74785" lon="3.05726">
        <ele>25.13</ele>
        <time>2015-03-08T09:48:49Z</time>
      </trkpt>
      <trkpt lat="50.74744" lon="3.05764">
        <ele>24.65</ele>
        <time>2015-03-08T09:48:58Z</time>
      </trkpt>
      <trkpt lat="50.74706" lon="3.05804">
        <ele>24.17</ele>
        <time>2015-03-08T09:49:07Z</time>
      </trkpt>
      <trkpt lat="50.74668" lon="3.05849">
        <ele>23.69</ele>
        <time>2015-03-08T09:49:16Z</time>
      </trkpt>
      <trkpt lat="50.74626" lon="3.05903">
        <ele>23.21</ele>
        <time>2015-03-08T09:49:25Z</time>
      </trkpt>
      <trkpt lat="50.74588" lon="3.05935">
        <ele>23.69</ele>
        <time>2015-03-08T09:49:32Z</time>
      </trkpt>
      <trkpt lat="50.74535" lon="3.05976">
        <ele>23.21</ele>
        <time>2015-03-08T09:49:41Z</time>
      </trkpt>
      <trkpt lat="50.74495" lon="3.06005">
        <ele>21.77</ele>
        <time>2015-03-08T09:49:48Z</time>
      </trkpt>
      <trkpt lat="50.7449" lon="3.0601">
        <ele>21.77</ele>
        <time>2015-03-08T09:49:49Z</time>
      </trkpt>
      <trkpt lat="50.7448" lon="3.0602">
        <ele>21.77</ele>
        <time>2015-03-08T09:49:51Z</time>
      </trkpt>
      <trkpt lat="50.74438" lon="3.06052">
        <ele>21.77</ele>
        <time>2015-03-08T09:49:59Z</time>
      </trkpt>
      <trkpt lat="50.74427" lon="3.06061">
        <ele>22.25</ele>
        <time>2015-03-08T09:50:01Z</time>
      </trkpt>
      <trkpt lat="50.74374" lon="3.06092">
        <ele>22.25</ele>
        <time>2015-03-08T09:50:11Z</time>
      </trkpt>
      <trkpt lat="50.74369" lon="3.06095">
        <ele>22.25</ele>
        <time>2015-03-08T09:50:12Z</time>
      </trkpt>
      <trkpt lat="50.74361" lon="3.06088">
        <ele>22.73</ele>
        <time>2015-03-08T09:50:17Z</time>
      </trkpt>
      <trkpt lat="50.74356" lon="3.06069">
        <ele>22.25</ele>
        <time>2015-03-08T09:50:25Z</time>
      </trkpt>
      <trkpt lat="50.7435" lon="3.06048">
        <ele>21.29</ele>
        <time>2015-03-08T09:50:32Z</time>
      </trkpt>
      <trkpt lat="50.74343" lon="3.06024">
        <ele>22.25</ele>
        <time>2015-03-08T09:50:38Z</time>
      </trkpt>
      <trkpt lat="50.74328" lon="3.05983">
        <ele>21.77</ele>
        <time>2015-03-08T09:50:46Z</time>
      </trkpt>
      <trkpt lat="50.7431" lon="3.05932">
        <ele>21.29</ele>
        <time>2015-03-08T09:50:55Z</time>
      </trkpt>
      <trkpt lat="50.74295" lon="3.0588">
        <ele>20.32</ele>
        <time>2015-03-08T09:51:03Z</time>
      </trkpt>
      <trkpt lat="50.74285" lon="3.05847">
        <ele>20.81</ele>
        <time>2015-03-08T09:51:08Z</time>
      </trkpt>
      <trkpt lat="50.74276" lon="3.05823">
        <ele>20.81</ele>
        <time>2015-03-08T09:51:12Z</time>
      </trkpt>
      <trkpt lat="50.7426" lon="3.05777">
        <ele>21.29</ele>
        <time>2015-03-08T09:51:20Z</time>
      </trkpt>
      <trkpt lat="50.74246" lon="3.05733">
        <ele>20.32</ele>
        <time>2015-03-08T09:51:28Z</time>
      </trkpt>
      <trkpt lat="50.74227" lon="3.05707">
        <ele>20.32</ele>
        <time>2015-03-08T09:51:35Z</time>
      </trkpt>
      <trkpt lat="50.74213" lon="3.05697">
        <ele>20.81</ele>
        <time>2015-03-08T09:51:39Z</time>
      </trkpt>
      <trkpt lat="50.74179" lon="3.0567">
        <ele>20.32</ele>
        <time>2015-03-08T09:51:48Z</time>
      </trkpt>
      <trkpt lat="50.74159" lon="3.05653">
        <ele>20.81</ele>
        <time>2015-03-08T09:51:53Z</time>
      </trkpt>
      <trkpt lat="50.74148" lon="3.05641">
        <ele>20.32</ele>
        <time>2015-03-08T09:51:56Z</time>
      </trkpt>
      <trkpt lat="50.74125" lon="3.05636">
        <ele>19.84</ele>
        <time>2015-03-08T09:52:01Z</time>
      </trkpt>
      <trkpt lat="50.74087" lon="3.05649">
        <ele>19.36</ele>
        <time>2015-03-08T09:52:09Z</time>
      </trkpt>
      <trkpt lat="50.74083" lon="3.05649">
        <ele>19.36</ele>
        <time>2015-03-08T09:52:10Z</time>
      </trkpt>
      <trkpt lat="50.74058" lon="3.05632">
        <ele>18.88</ele>
        <time>2015-03-08T09:52:16Z</time>
      </trkpt>
      <trkpt lat="50.74055" lon="3.05617">
        <ele>18.88</ele>
        <time>2015-03-08T09:52:18Z</time>
      </trkpt>
      <trkpt lat="50.74042" lon="3.05548">
        <ele>19.36</ele>
        <time>2015-03-08T09:52:27Z</time>
      </trkpt>
      <trkpt lat="50.7404" lon="3.05541">
        <ele>19.84</ele>
        <time>2015-03-08T09:52:28Z</time>
      </trkpt>
      <trkpt lat="50.74029" lon="3.05504">
        <ele>19.36</ele>
        <time>2015-03-08T09:52:33Z</time>
      </trkpt>
      <trkpt lat="50.74034" lon="3.05477">
        <ele>19.36</ele>
        <time>2015-03-08T09:52:37Z</time>
      </trkpt>
      <trkpt lat="50.7404" lon="3.0545">
        <ele>19.84</ele>
        <time>2015-03-08T09:52:41Z</time>
      </trkpt>
      <trkpt lat="50.74026" lon="3.05379">
        <ele>20.32</ele>
        <time>2015-03-08T09:52:51Z</time>
      </trkpt>
      <trkpt lat="50.74024" lon="3.05371">
        <ele>20.32</ele>
        <time>2015-03-08T09:52:52Z</time>
      </trkpt>
      <trkpt lat="50.74009" lon="3.05328">
        <ele>19.36</ele>
        <time>2015-03-08T09:52:58Z</time>
      </trkpt>
      <trkpt lat="50.73988" lon="3.05265">
        <ele>20.32</ele>
        <time>2015-03-08T09:53:07Z</time>
      </trkpt>
      <trkpt lat="50.73969" lon="3.05219">
        <ele>20.32</ele>
        <time>2015-03-08T09:53:14Z</time>
      </trkpt>
      <trkpt lat="50.73966" lon="3.05176">
        <ele>20.81</ele>
        <time>2015-03-08T09:53:20Z</time>
      </trkpt>
      <trkpt lat="50.7397" lon="3.05163">
        <ele>20.32</ele>
        <time>2015-03-08T09:53:22Z</time>
      </trkpt>
      <trkpt lat="50.73969" lon="3.05088">
        <ele>19.84</ele>
        <time>2015-03-08T09:53:32Z</time>
      </trkpt>
      <trkpt lat="50.73968" lon="3.0502">
        <ele>19.36</ele>
        <time>2015-03-08T09:53:41Z</time>
      </trkpt>
      <trkpt lat="50.73966" lon="3.04936">
        <ele>18.88</ele>
        <time>2015-03-08T09:53:52Z</time>
      </trkpt>
      <trkpt lat="50.73964" lon="3.0487">
        <ele>19.36</ele>
        <time>2015-03-08T09:54:01Z</time>
      </trkpt>
      <trkpt lat="50.73963" lon="3.04808">
        <ele>19.36</ele>
        <time>2015-03-08T09:54:10Z</time>
      </trkpt>
      <trkpt lat="50.73961" lon="3.0476">
        <ele>19.36</ele>
        <time>2015-03-08T09:54:17Z</time>
      </trkpt>
      <trkpt lat="50.73951" lon="3.04742">
        <ele>19.84</ele>
        <time>2015-03-08T09:54:21Z</time>
      </trkpt>
      <trkpt lat="50.73943" lon="3.04743">
        <ele>19.84</ele>
        <time>2015-03-08T09:54:23Z</time>
      </trkpt>
      <trkpt lat="50.73898" lon="3.04753">
        <ele>18.88</ele>
        <time>2015-03-08T09:54:35Z</time>
      </trkpt>
      <trkpt lat="50.73887" lon="3.04757">
        <ele>17.92</ele>
        <time>2015-03-08T09:54:38Z</time>
      </trkpt>
      <trkpt lat="50.73875" lon="3.04744">
        <ele>17.44</ele>
        <time>2015-03-08T09:54:43Z</time>
      </trkpt>
      <trkpt lat="50.73875" lon="3.04733">
        <ele>17.44</ele>
        <time>2015-03-08T09:54:45Z</time>
      </trkpt>
      <trkpt lat="50.73876" lon="3.04684">
        <ele>17.92</ele>
        <time>2015-03-08T09:54:54Z</time>
      </trkpt>
      <trkpt lat="50.73876" lon="3.04678">
        <ele>18.4</ele>
        <time>2015-03-08T09:54:55Z</time>
      </trkpt>
      <trkpt lat="50.73863" lon="3.04666">
        <ele>18.4</ele>
        <time>2015-03-08T09:55:00Z</time>
      </trkpt>
      <trkpt lat="50.7386" lon="3.04667">
        <ele>18.4</ele>
        <time>2015-03-08T09:55:01Z</time>
      </trkpt>
      <trkpt lat="50.73837" lon="3.04675">
        <ele>18.4</ele>
        <time>2015-03-08T09:55:09Z</time>
      </trkpt>
      <trkpt lat="50.73816" lon="3.04682">
        <ele>19.36</ele>
        <time>2015-03-08T09:55:17Z</time>
      </trkpt>
      <trkpt lat="50.73794" lon="3.04689">
        <ele>18.88</ele>
        <time>2015-03-08T09:55:25Z</time>
      </trkpt>
      <trkpt lat="50.73768" lon="3.04698">
        <ele>17.92</ele>
        <time>2015-03-08T09:55:34Z</time>
      </trkpt>
      <trkpt lat="50.73745" lon="3.04707">
        <ele>18.88</ele>
        <time>2015-03-08T09:55:42Z</time>
      </trkpt>
      <trkpt lat="50.73726" lon="3.04711">
        <ele>18.88</ele>
        <time>2015-03-08T09:55:49Z</time>
      </trkpt>
      <trkpt lat="50.73703" lon="3.04713">
        <ele>17.92</ele>
        <time>2015-03-08T09:55:57Z</time>
      </trkpt>
      <trkpt lat="50.73701" lon="3.04713">
        <ele>17.92</ele>
        <time>2015-03-08T09:55:58Z</time>
      </trkpt>
      <trkpt lat="50.73696" lon="3.04696">
        <ele>17.92</ele>
        <time>2015-03-08T09:56:03Z</time>
      </trkpt>
      <trkpt lat="50.73694" lon="3.04651">
        <ele>17.44</ele>
        <time>2015-03-08T09:56:12Z</time>
      </trkpt>
      <trkpt lat="50.73691" lon="3.04597">
        <ele>16.96</ele>
        <time>2015-03-08T09:56:22Z</time>
      </trkpt>
      <trkpt lat="50.73688" lon="3.04542">
        <ele>16.96</ele>
        <time>2015-03-08T09:56:31Z</time>
      </trkpt>
      <trkpt lat="50.73685" lon="3.04492">
        <ele>17.44</ele>
        <time>2015-03-08T09:56:40Z</time>
      </trkpt>
      <trkpt lat="50.73687" lon="3.04484">
        <ele>17.92</ele>
        <time>2015-03-08T09:56:43Z</time>
      </trkpt>
      <trkpt lat="50.73686" lon="3.04475">
        <ele>18.88</ele>
        <time>2015-03-08T09:56:47Z</time>
      </trkpt>
      <trkpt lat="50.73685" lon="3.04468">
        <ele>18.4</ele>
        <time>2015-03-08T09:56:49Z</time>
      </trkpt>
      <trkpt lat="50.73671" lon="3.04469">
        <ele>17.92</ele>
        <time>2015-03-08T09:56:54Z</time>
      </trkpt>
      <trkpt lat="50.73668" lon="3.04472">
        <ele>17.92</ele>
        <time>2015-03-08T09:56:55Z</time>
      </trkpt>
      <trkpt lat="50.73641" lon="3.04496">
        <ele>17.92</ele>
        <time>2015-03-08T09:57:03Z</time>
      </trkpt>
      <trkpt lat="50.73612" lon="3.04521">
        <ele>17.44</ele>
        <time>2015-03-08T09:57:11Z</time>
      </trkpt>
      <trkpt lat="50.73597" lon="3.04532">
        <ele>17.92</ele>
        <time>2015-03-08T09:57:15Z</time>
      </trkpt>
      <trkpt lat="50.73598" lon="3.04555">
        <ele>17.92</ele>
        <time>2015-03-08T09:57:19Z</time>
      </trkpt>
      <trkpt lat="50.73602" lon="3.04588">
        <ele>17.92</ele>
        <time>2015-03-08T09:57:24Z</time>
      </trkpt>
      <trkpt lat="50.73606" lon="3.04622">
        <ele>18.4</ele>
        <time>2015-03-08T09:57:29Z</time>
      </trkpt>
      <trkpt lat="50.73608" lon="3.04641">
        <ele>17.92</ele>
        <time>2015-03-08T09:57:32Z</time>
      </trkpt>
      <trkpt lat="50.73615" lon="3.04695">
        <ele>17.92</ele>
        <time>2015-03-08T09:57:40Z</time>
      </trkpt>
      <trkpt lat="50.73617" lon="3.04726">
        <ele>19.36</ele>
        <time>2015-03-08T09:57:45Z</time>
      </trkpt>
      <trkpt lat="50.73622" lon="3.04786">
        <ele>21.77</ele>
        <time>2015-03-08T09:57:54Z</time>
      </trkpt>
      <trkpt lat="50.73627" lon="3.04828">
        <ele>21.77</ele>
        <time>2015-03-08T09:58:01Z</time>
      </trkpt>
      <trkpt lat="50.73612" lon="3.04844">
        <ele>21.29</ele>
        <time>2015-03-08T09:58:06Z</time>
      </trkpt>
      <trkpt lat="50.73592" lon="3.04852">
        <ele>20.32</ele>
        <time>2015-03-08T09:58:11Z</time>
      </trkpt>
      <trkpt lat="50.73582" lon="3.04873">
        <ele>19.84</ele>
        <time>2015-03-08T09:58:15Z</time>
      </trkpt>
      <trkpt lat="50.73582" lon="3.04919">
        <ele>17.44</ele>
        <time>2015-03-08T09:58:22Z</time>
      </trkpt>
      <trkpt lat="50.73588" lon="3.04982">
        <ele>17.92</ele>
        <time>2015-03-08T09:58:30Z</time>
      </trkpt>
      <trkpt lat="50.73586" lon="3.05012">
        <ele>18.4</ele>
        <time>2015-03-08T09:58:34Z</time>
      </trkpt>
      <trkpt lat="50.73582" lon="3.05024">
        <ele>18.4</ele>
        <time>2015-03-08T09:58:36Z</time>
      </trkpt>
      <trkpt lat="50.73568" lon="3.05069">
        <ele>17.92</ele>
        <time>2015-03-08T09:58:43Z</time>
      </trkpt>
      <trkpt lat="50.73556" lon="3.05117">
        <ele>18.88</ele>
        <time>2015-03-08T09:58:51Z</time>
      </trkpt>
      <trkpt lat="50.73547" lon="3.05164">
        <ele>19.36</ele>
        <time>2015-03-08T09:58:59Z</time>
      </trkpt>
      <trkpt lat="50.73544" lon="3.05187">
        <ele>19.36</ele>
        <time>2015-03-08T09:59:03Z</time>
      </trkpt>
      <trkpt lat="50.73535" lon="3.05247">
        <ele>19.36</ele>
        <time>2015-03-08T09:59:13Z</time>
      </trkpt>
      <trkpt lat="50.73528" lon="3.05291">
        <ele>19.84</ele>
        <time>2015-03-08T09:59:21Z</time>
      </trkpt>
      <trkpt lat="50.73521" lon="3.0534">
        <ele>20.32</ele>
        <time>2015-03-08T09:59:29Z</time>
      </trkpt>
      <trkpt lat="50.73516" lon="3.05358">
        <ele>20.32</ele>
        <time>2015-03-08T09:59:32Z</time>
      </trkpt>
      <trkpt lat="50.73493" lon="3.054">
        <ele>19.36</ele>
        <time>2015-03-08T09:59:40Z</time>
      </trkpt>
      <trkpt lat="50.73477" lon="3.0543">
        <ele>19.84</ele>
        <time>2015-03-08T09:59:46Z</time>
      </trkpt>
      <trkpt lat="50.73488" lon="3.0545">
        <ele>19.36</ele>
        <time>2015-03-08T09:59:51Z</time>
      </trkpt>
      <trkpt lat="50.73507" lon="3.05469">
        <ele>19.36</ele>
        <time>2015-03-08T09:59:56Z</time>
      </trkpt>
      <trkpt lat="50.73518" lon="3.05484">
        <ele>19.36</ele>
        <time>2015-03-08T09:59:59Z</time>
      </trkpt>
      <trkpt lat="50.73529" lon="3.05503">
        <ele>19.36</ele>
        <time>2015-03-08T10:00:02Z</time>
      </trkpt>
      <trkpt lat="50.73546" lon="3.05546">
        <ele>19.84</ele>
        <time>2015-03-08T10:00:08Z</time>
      </trkpt>
      <trkpt lat="50.73564" lon="3.0562">
        <ele>20.81</ele>
        <time>2015-03-08T10:00:18Z</time>
      </trkpt>
      <trkpt lat="50.73581" lon="3.05686">
        <ele>21.77</ele>
        <time>2015-03-08T10:00:27Z</time>
      </trkpt>
      <trkpt lat="50.73593" lon="3.05727">
        <ele>21.77</ele>
        <time>2015-03-08T10:00:33Z</time>
      </trkpt>
      <trkpt lat="50.73602" lon="3.05769">
        <ele>22.73</ele>
        <time>2015-03-08T10:00:39Z</time>
      </trkpt>
      <trkpt lat="50.73603" lon="3.05793">
        <ele>22.73</ele>
        <time>2015-03-08T10:00:43Z</time>
      </trkpt>
      <trkpt lat="50.73592" lon="3.05797">
        <ele>23.21</ele>
        <time>2015-03-08T10:00:47Z</time>
      </trkpt>
      <trkpt lat="50.73559" lon="3.05779">
        <ele>22.73</ele>
        <time>2015-03-08T10:00:56Z</time>
      </trkpt>
      <trkpt lat="50.73529" lon="3.05767">
        <ele>22.73</ele>
        <time>2015-03-08T10:01:04Z</time>
      </trkpt>
      <trkpt lat="50.73483" lon="3.05755">
        <ele>22.73</ele>
        <time>2015-03-08T10:01:15Z</time>
      </trkpt>
      <trkpt lat="50.73449" lon="3.0575">
        <ele>22.73</ele>
        <time>2015-03-08T10:01:23Z</time>
      </trkpt>
      <trkpt lat="50.73433" lon="3.05747">
        <ele>22.25</ele>
        <time>2015-03-08T10:01:27Z</time>
      </trkpt>
      <trkpt lat="50.73405" lon="3.05743">
        <ele>22.73</ele>
        <time>2015-03-08T10:01:34Z</time>
      </trkpt>
      <trkpt lat="50.73379" lon="3.05738">
        <ele>23.69</ele>
        <time>2015-03-08T10:01:40Z</time>
      </trkpt>
      <trkpt lat="50.73346" lon="3.05734">
        <ele>25.61</ele>
        <time>2015-03-08T10:01:48Z</time>
      </trkpt>
      <trkpt lat="50.73314" lon="3.05733">
        <ele>26.57</ele>
        <time>2015-03-08T10:01:56Z</time>
      </trkpt>
      <trkpt lat="50.73284" lon="3.05733">
        <ele>27.05</ele>
        <time>2015-03-08T10:02:04Z</time>
      </trkpt>
      <trkpt lat="50.73267" lon="3.05735">
        <ele>27.05</ele>
        <time>2015-03-08T10:02:08Z</time>
      </trkpt>
      <trkpt lat="50.73255" lon="3.05739">
        <ele>27.05</ele>
        <time>2015-03-08T10:02:11Z</time>
      </trkpt>
      <trkpt lat="50.73242" lon="3.05746">
        <ele>27.05</ele>
        <time>2015-03-08T10:02:14Z</time>
      </trkpt>
      <trkpt lat="50.73197" lon="3.05783">
        <ele>26.09</ele>
        <time>2015-03-08T10:02:24Z</time>
      </trkpt>
      <trkpt lat="50.73152" lon="3.05823">
        <ele>25.13</ele>
        <time>2015-03-08T10:02:33Z</time>
      </trkpt>
      <trkpt lat="50.73101" lon="3.05856">
        <ele>24.17</ele>
        <time>2015-03-08T10:02:42Z</time>
      </trkpt>
      <trkpt lat="50.73049" lon="3.05883">
        <ele>24.17</ele>
        <time>2015-03-08T10:02:51Z</time>
      </trkpt>
      <trkpt lat="50.7302" lon="3.05893">
        <ele>23.69</ele>
        <time>2015-03-08T10:02:57Z</time>
      </trkpt>
      <trkpt lat="50.72977" lon="3.05895">
        <ele>22.73</ele>
        <time>2015-03-08T10:03:04Z</time>
      </trkpt>
      <trkpt lat="50.72926" lon="3.05898">
        <ele>21.77</ele>
        <time>2015-03-08T10:03:12Z</time>
      </trkpt>
      <trkpt lat="50.72874" lon="3.05911">
        <ele>20.81</ele>
        <time>2015-03-08T10:03:20Z</time>
      </trkpt>
      <trkpt lat="50.72825" lon="3.05939">
        <ele>20.32</ele>
        <time>2015-03-08T10:03:28Z</time>
      </trkpt>
      <trkpt lat="50.72783" lon="3.05959">
        <ele>19.84</ele>
        <time>2015-03-08T10:03:35Z</time>
      </trkpt>
      <trkpt lat="50.72742" lon="3.0596">
        <ele>20.32</ele>
        <time>2015-03-08T10:03:42Z</time>
      </trkpt>
      <trkpt lat="50.72678" lon="3.05943">
        <ele>20.81</ele>
        <time>2015-03-08T10:03:54Z</time>
      </trkpt>
      <trkpt lat="50.72636" lon="3.05952">
        <ele>20.32</ele>
        <time>2015-03-08T10:04:02Z</time>
      </trkpt>
      <trkpt lat="50.72587" lon="3.05966">
        <ele>18.4</ele>
        <time>2015-03-08T10:04:11Z</time>
      </trkpt>
      <trkpt lat="50.72555" lon="3.05976">
        <ele>17.92</ele>
        <time>2015-03-08T10:04:17Z</time>
      </trkpt>
      <trkpt lat="50.72545" lon="3.05996">
        <ele>18.4</ele>
        <time>2015-03-08T10:04:21Z</time>
      </trkpt>
      <trkpt lat="50.72551" lon="3.06018">
        <ele>17.92</ele>
        <time>2015-03-08T10:04:24Z</time>
      </trkpt>
      <trkpt lat="50.72576" lon="3.061">
        <ele>19.36</ele>
        <time>2015-03-08T10:04:34Z</time>
      </trkpt>
      <trkpt lat="50.72578" lon="3.06108">
        <ele>19.36</ele>
        <time>2015-03-08T10:04:35Z</time>
      </trkpt>
      <trkpt lat="50.72588" lon="3.06142">
        <ele>18.88</ele>
        <time>2015-03-08T10:04:39Z</time>
      </trkpt>
      <trkpt lat="50.72594" lon="3.06158">
        <ele>18.88</ele>
        <time>2015-03-08T10:04:41Z</time>
      </trkpt>
      <trkpt lat="50.7262" lon="3.06229">
        <ele>19.84</ele>
        <time>2015-03-08T10:04:50Z</time>
      </trkpt>
      <trkpt lat="50.72643" lon="3.06298">
        <ele>20.32</ele>
        <time>2015-03-08T10:04:59Z</time>
      </trkpt>
      <trkpt lat="50.72648" lon="3.06312">
        <ele>20.32</ele>
        <time>2015-03-08T10:05:01Z</time>
      </trkpt>
      <trkpt lat="50.72675" lon="3.06383">
        <ele>20.32</ele>
        <time>2015-03-08T10:05:11Z</time>
      </trkpt>
      <trkpt lat="50.72685" lon="3.0641">
        <ele>21.29</ele>
        <time>2015-03-08T10:05:15Z</time>
      </trkpt>
      <trkpt lat="50.7269" lon="3.06422">
        <ele>21.29</ele>
        <time>2015-03-08T10:05:17Z</time>
      </trkpt>
      <trkpt lat="50.72698" lon="3.06441">
        <ele>21.29</ele>
        <time>2015-03-08T10:05:20Z</time>
      </trkpt>
      <trkpt lat="50.72707" lon="3.06466">
        <ele>21.77</ele>
        <time>2015-03-08T10:05:24Z</time>
      </trkpt>
      <trkpt lat="50.72712" lon="3.06484">
        <ele>21.77</ele>
        <time>2015-03-08T10:05:27Z</time>
      </trkpt>
      <trkpt lat="50.72707" lon="3.06505">
        <ele>21.77</ele>
        <time>2015-03-08T10:05:31Z</time>
      </trkpt>
      <trkpt lat="50.72669" lon="3.06526">
        <ele>22.25</ele>
        <time>2015-03-08T10:05:41Z</time>
      </trkpt>
      <trkpt lat="50.72635" lon="3.06544">
        <ele>21.77</ele>
        <time>2015-03-08T10:05:50Z</time>
      </trkpt>
      <trkpt lat="50.72597" lon="3.06563">
        <ele>21.77</ele>
        <time>2015-03-08T10:06:01Z</time>
      </trkpt>
      <trkpt lat="50.72575" lon="3.06576">
        <ele>21.29</ele>
        <time>2015-03-08T10:06:07Z</time>
      </trkpt>
      <trkpt lat="50.72561" lon="3.06594">
        <ele>21.77</ele>
        <time>2015-03-08T10:06:12Z</time>
      </trkpt>
      <trkpt lat="50.72561" lon="3.06619">
        <ele>21.77</ele>
        <time>2015-03-08T10:06:17Z</time>
      </trkpt>
      <trkpt lat="50.72561" lon="3.06649">
        <ele>22.25</ele>
        <time>2015-03-08T10:06:23Z</time>
      </trkpt>
      <trkpt lat="50.72556" lon="3.06697">
        <ele>22.25</ele>
        <time>2015-03-08T10:06:32Z</time>
      </trkpt>
      <trkpt lat="50.72554" lon="3.06715">
        <ele>22.25</ele>
        <time>2015-03-08T10:06:35Z</time>
      </trkpt>
      <trkpt lat="50.72549" lon="3.06774">
        <ele>22.25</ele>
        <time>2015-03-08T10:06:45Z</time>
      </trkpt>
      <trkpt lat="50.72543" lon="3.06832">
        <ele>23.69</ele>
        <time>2015-03-08T10:06:55Z</time>
      </trkpt>
      <trkpt lat="50.72539" lon="3.06879">
        <ele>24.17</ele>
        <time>2015-03-08T10:07:04Z</time>
      </trkpt>
      <trkpt lat="50.72538" lon="3.0691">
        <ele>24.17</ele>
        <time>2015-03-08T10:07:10Z</time>
      </trkpt>
      <trkpt lat="50.72549" lon="3.06951">
        <ele>24.65</ele>
        <time>2015-03-08T10:07:19Z</time>
      </trkpt>
      <trkpt lat="50.72556" lon="3.0698">
        <ele>25.13</ele>
        <time>2015-03-08T10:07:27Z</time>
      </trkpt>
      <trkpt lat="50.72562" lon="3.07005">
        <ele>25.61</ele>
        <time>2015-03-08T10:07:34Z</time>
      </trkpt>
      <trkpt lat="50.72567" lon="3.07028">
        <ele>25.13</ele>
        <time>2015-03-08T10:07:40Z</time>
      </trkpt>
      <trkpt lat="50.72576" lon="3.0707">
        <ele>26.09</ele>
        <time>2015-03-08T10:07:49Z</time>
      </trkpt>
      <trkpt lat="50.72585" lon="3.07104">
        <ele>26.57</ele>
        <time>2015-03-08T10:07:57Z</time>
      </trkpt>
      <trkpt lat="50.72591" lon="3.07134">
        <ele>22.73</ele>
        <time>2015-03-08T10:08:04Z</time>
      </trkpt>
      <trkpt lat="50.72603" lon="3.07173">
        <ele>19.36</ele>
        <time>2015-03-08T10:08:13Z</time>
      </trkpt>
      <trkpt lat="50.72617" lon="3.07214">
        <ele>17.44</ele>
        <time>2015-03-08T10:08:22Z</time>
      </trkpt>
      <trkpt lat="50.72633" lon="3.07264">
        <ele>19.36</ele>
        <time>2015-03-08T10:08:32Z</time>
      </trkpt>
      <trkpt lat="50.72647" lon="3.07285">
        <ele>20.81</ele>
        <time>2015-03-08T10:08:37Z</time>
      </trkpt>
      <trkpt lat="50.72682" lon="3.07319">
        <ele>23.21</ele>
        <time>2015-03-08T10:08:47Z</time>
      </trkpt>
      <trkpt lat="50.72711" lon="3.07347">
        <ele>25.13</ele>
        <time>2015-03-08T10:08:56Z</time>
      </trkpt>
      <trkpt lat="50.72745" lon="3.07372">
        <ele>27.53</ele>
        <time>2015-03-08T10:09:06Z</time>
      </trkpt>
      <trkpt lat="50.72775" lon="3.07398">
        <ele>29.46</ele>
        <time>2015-03-08T10:09:16Z</time>
      </trkpt>
      <trkpt lat="50.72798" lon="3.07419">
        <ele>31.86</ele>
        <time>2015-03-08T10:09:24Z</time>
      </trkpt>
      <trkpt lat="50.72827" lon="3.07435">
        <ele>32.34</ele>
        <time>2015-03-08T10:09:33Z</time>
      </trkpt>
      <trkpt lat="50.7285" lon="3.07442">
        <ele>33.78</ele>
        <time>2015-03-08T10:09:40Z</time>
      </trkpt>
      <trkpt lat="50.72873" lon="3.07444">
        <ele>35.71</ele>
        <time>2015-03-08T10:09:47Z</time>
      </trkpt>
      <trkpt lat="50.72894" lon="3.07441">
        <ele>36.67</ele>
        <time>2015-03-08T10:09:54Z</time>
      </trkpt>
      <trkpt lat="50.72915" lon="3.07435">
        <ele>37.63</ele>
        <time>2015-03-08T10:10:01Z</time>
      </trkpt>
      <trkpt lat="50.72943" lon="3.07425">
        <ele>38.59</ele>
        <time>2015-03-08T10:10:10Z</time>
      </trkpt>
      <trkpt lat="50.72965" lon="3.0743">
        <ele>39.07</ele>
        <time>2015-03-08T10:10:17Z</time>
      </trkpt>
      <trkpt lat="50.7299" lon="3.07448">
        <ele>40.51</ele>
        <time>2015-03-08T10:10:25Z</time>
      </trkpt>
      <trkpt lat="50.7301" lon="3.07464">
        <ele>40.99</ele>
        <time>2015-03-08T10:10:32Z</time>
      </trkpt>
      <trkpt lat="50.73031" lon="3.07484">
        <ele>40.51</ele>
        <time>2015-03-08T10:10:39Z</time>
      </trkpt>
      <trkpt lat="50.7306" lon="3.07511">
        <ele>40.51</ele>
        <time>2015-03-08T10:10:48Z</time>
      </trkpt>
      <trkpt lat="50.73093" lon="3.07542">
        <ele>41.47</ele>
        <time>2015-03-08T10:10:58Z</time>
      </trkpt>
      <trkpt lat="50.73097" lon="3.07546">
        <ele>41.47</ele>
        <time>2015-03-08T10:10:59Z</time>
      </trkpt>
      <trkpt lat="50.73132" lon="3.07581">
        <ele>42.44</ele>
        <time>2015-03-08T10:11:09Z</time>
      </trkpt>
      <trkpt lat="50.73163" lon="3.07611">
        <ele>44.36</ele>
        <time>2015-03-08T10:11:18Z</time>
      </trkpt>
      <trkpt lat="50.73188" lon="3.07637">
        <ele>44.84</ele>
        <time>2015-03-08T10:11:26Z</time>
      </trkpt>
      <trkpt lat="50.73209" lon="3.07654">
        <ele>44.84</ele>
        <time>2015-03-08T10:11:33Z</time>
      </trkpt>
      <trkpt lat="50.73232" lon="3.07671">
        <ele>45.32</ele>
        <time>2015-03-08T10:11:40Z</time>
      </trkpt>
      <trkpt lat="50.73261" lon="3.07695">
        <ele>45.32</ele>
        <time>2015-03-08T10:11:49Z</time>
      </trkpt>
      <trkpt lat="50.73286" lon="3.07728">
        <ele>44.84</ele>
        <time>2015-03-08T10:11:58Z</time>
      </trkpt>
      <trkpt lat="50.73298" lon="3.07748">
        <ele>44.84</ele>
        <time>2015-03-08T10:12:03Z</time>
      </trkpt>
      <trkpt lat="50.73296" lon="3.07762">
        <ele>43.88</ele>
        <time>2015-03-08T10:12:07Z</time>
      </trkpt>
      <trkpt lat="50.7327" lon="3.0779">
        <ele>42.44</ele>
        <time>2015-03-08T10:12:14Z</time>
      </trkpt>
      <trkpt lat="50.73225" lon="3.07839">
        <ele>40.03</ele>
        <time>2015-03-08T10:12:23Z</time>
      </trkpt>
      <trkpt lat="50.73175" lon="3.07899">
        <ele>36.67</ele>
        <time>2015-03-08T10:12:32Z</time>
      </trkpt>
      <trkpt lat="50.73124" lon="3.07952">
        <ele>33.78</ele>
        <time>2015-03-08T10:12:40Z</time>
      </trkpt>
      <trkpt lat="50.73068" lon="3.07995">
        <ele>30.9</ele>
        <time>2015-03-08T10:12:48Z</time>
      </trkpt>
      <trkpt lat="50.73018" lon="3.08032">
        <ele>28.98</ele>
        <time>2015-03-08T10:12:55Z</time>
      </trkpt>
      <trkpt lat="50.72972" lon="3.08055">
        <ele>27.05</ele>
        <time>2015-03-08T10:13:02Z</time>
      </trkpt>
      <trkpt lat="50.72964" lon="3.08059">
        <ele>27.05</ele>
        <time>2015-03-08T10:13:06Z</time>
      </trkpt>
      <trkpt lat="50.72961" lon="3.08063">
        <ele>26.57</ele>
        <time>2015-03-08T10:13:10Z</time>
      </trkpt>
      <trkpt lat="50.72961" lon="3.08074">
        <ele>26.57</ele>
        <time>2015-03-08T10:13:13Z</time>
      </trkpt>
      <trkpt lat="50.72956" lon="3.08088">
        <ele>26.57</ele>
        <time>2015-03-08T10:13:16Z</time>
      </trkpt>
      <trkpt lat="50.72926" lon="3.0815">
        <ele>25.13</ele>
        <time>2015-03-08T10:13:27Z</time>
      </trkpt>
      <trkpt lat="50.72899" lon="3.08205">
        <ele>23.69</ele>
        <time>2015-03-08T10:13:35Z</time>
      </trkpt>
      <trkpt lat="50.72867" lon="3.08274">
        <ele>22.73</ele>
        <time>2015-03-08T10:13:44Z</time>
      </trkpt>
      <trkpt lat="50.72862" lon="3.08288">
        <ele>22.73</ele>
        <time>2015-03-08T10:13:46Z</time>
      </trkpt>
      <trkpt lat="50.7285" lon="3.08313">
        <ele>22.73</ele>
        <time>2015-03-08T10:13:50Z</time>
      </trkpt>
      <trkpt lat="50.72816" lon="3.08358">
        <ele>21.77</ele>
        <time>2015-03-08T10:13:58Z</time>
      </trkpt>
      <trkpt lat="50.72792" lon="3.08383">
        <ele>22.25</ele>
        <time>2015-03-08T10:14:04Z</time>
      </trkpt>
      <trkpt lat="50.72784" lon="3.08389">
        <ele>22.25</ele>
        <time>2015-03-08T10:14:06Z</time>
      </trkpt>
      <trkpt lat="50.72774" lon="3.084">
        <ele>22.25</ele>
        <time>2015-03-08T10:14:09Z</time>
      </trkpt>
      <trkpt lat="50.72753" lon="3.08423">
        <ele>22.25</ele>
        <time>2015-03-08T10:14:15Z</time>
      </trkpt>
      <trkpt lat="50.72737" lon="3.08434">
        <ele>23.69</ele>
        <time>2015-03-08T10:14:19Z</time>
      </trkpt>
      <trkpt lat="50.72708" lon="3.08449">
        <ele>25.61</ele>
        <time>2015-03-08T10:14:27Z</time>
      </trkpt>
      <trkpt lat="50.7269" lon="3.08474">
        <ele>26.57</ele>
        <time>2015-03-08T10:14:34Z</time>
      </trkpt>
      <trkpt lat="50.72675" lon="3.08501">
        <ele>26.09</ele>
        <time>2015-03-08T10:14:42Z</time>
      </trkpt>
      <trkpt lat="50.72678" lon="3.08519">
        <ele>25.61</ele>
        <time>2015-03-08T10:14:46Z</time>
      </trkpt>
      <trkpt lat="50.72686" lon="3.08541">
        <ele>25.13</ele>
        <time>2015-03-08T10:14:50Z</time>
      </trkpt>
      <trkpt lat="50.72698" lon="3.08567">
        <ele>24.65</ele>
        <time>2015-03-08T10:14:54Z</time>
      </trkpt>
      <trkpt lat="50.72737" lon="3.08647">
        <ele>24.17</ele>
        <time>2015-03-08T10:15:05Z</time>
      </trkpt>
      <trkpt lat="50.72762" lon="3.08701">
        <ele>23.69</ele>
        <time>2015-03-08T10:15:13Z</time>
      </trkpt>
      <trkpt lat="50.72786" lon="3.0874">
        <ele>24.65</ele>
        <time>2015-03-08T10:15:20Z</time>
      </trkpt>
      <trkpt lat="50.72819" lon="3.08789">
        <ele>26.09</ele>
        <time>2015-03-08T10:15:29Z</time>
      </trkpt>
      <trkpt lat="50.72826" lon="3.08816">
        <ele>26.57</ele>
        <time>2015-03-08T10:15:33Z</time>
      </trkpt>
      <trkpt lat="50.72835" lon="3.08851">
        <ele>26.09</ele>
        <time>2015-03-08T10:15:38Z</time>
      </trkpt>
      <trkpt lat="50.7286" lon="3.08923">
        <ele>28.5</ele>
        <time>2015-03-08T10:15:49Z</time>
      </trkpt>
      <trkpt lat="50.72873" lon="3.0895">
        <ele>29.46</ele>
        <time>2015-03-08T10:15:54Z</time>
      </trkpt>
      <trkpt lat="50.72891" lon="3.08991">
        <ele>29.46</ele>
        <time>2015-03-08T10:16:02Z</time>
      </trkpt>
      <trkpt lat="50.72912" lon="3.09039">
        <ele>30.42</ele>
        <time>2015-03-08T10:16:11Z</time>
      </trkpt>
      <trkpt lat="50.72931" lon="3.09087">
        <ele>31.86</ele>
        <time>2015-03-08T10:16:20Z</time>
      </trkpt>
      <trkpt lat="50.72942" lon="3.09134">
        <ele>33.3</ele>
        <time>2015-03-08T10:16:28Z</time>
      </trkpt>
      <trkpt lat="50.72946" lon="3.09167">
        <ele>34.26</ele>
        <time>2015-03-08T10:16:33Z</time>
      </trkpt>
      <trkpt lat="50.72961" lon="3.09238">
        <ele>35.23</ele>
        <time>2015-03-08T10:16:43Z</time>
      </trkpt>
      <trkpt lat="50.72978" lon="3.09285">
        <ele>35.71</ele>
        <time>2015-03-08T10:16:51Z</time>
      </trkpt>
      <trkpt lat="50.72968" lon="3.09306">
        <ele>35.23</ele>
        <time>2015-03-08T10:16:56Z</time>
      </trkpt>
      <trkpt lat="50.72965" lon="3.0931">
        <ele>35.23</ele>
        <time>2015-03-08T10:16:57Z</time>
      </trkpt>
      <trkpt lat="50.72936" lon="3.09348">
        <ele>35.23</ele>
        <time>2015-03-08T10:17:06Z</time>
      </trkpt>
      <trkpt lat="50.7291" lon="3.09387">
        <ele>35.71</ele>
        <time>2015-03-08T10:17:15Z</time>
      </trkpt>
      <trkpt lat="50.72901" lon="3.09401">
        <ele>36.19</ele>
        <time>2015-03-08T10:17:18Z</time>
      </trkpt>
      <trkpt lat="50.72877" lon="3.09448">
        <ele>36.19</ele>
        <time>2015-03-08T10:17:27Z</time>
      </trkpt>
      <trkpt lat="50.72856" lon="3.09495">
        <ele>35.23</ele>
        <time>2015-03-08T10:17:35Z</time>
      </trkpt>
      <trkpt lat="50.7285" lon="3.09516">
        <ele>35.23</ele>
        <time>2015-03-08T10:17:38Z</time>
      </trkpt>
      <trkpt lat="50.7284" lon="3.09554">
        <ele>35.23</ele>
        <time>2015-03-08T10:17:43Z</time>
      </trkpt>
      <trkpt lat="50.72838" lon="3.09576">
        <ele>35.23</ele>
        <time>2015-03-08T10:17:46Z</time>
      </trkpt>
      <trkpt lat="50.7284" lon="3.09583">
        <ele>35.71</ele>
        <time>2015-03-08T10:17:47Z</time>
      </trkpt>
      <trkpt lat="50.72851" lon="3.0961">
        <ele>35.71</ele>
        <time>2015-03-08T10:17:51Z</time>
      </trkpt>
      <trkpt lat="50.72875" lon="3.09688">
        <ele>35.23</ele>
        <time>2015-03-08T10:18:02Z</time>
      </trkpt>
      <trkpt lat="50.72894" lon="3.09758">
        <ele>36.19</ele>
        <time>2015-03-08T10:18:12Z</time>
      </trkpt>
      <trkpt lat="50.72907" lon="3.09813">
        <ele>37.15</ele>
        <time>2015-03-08T10:18:20Z</time>
      </trkpt>
      <trkpt lat="50.72913" lon="3.09842">
        <ele>38.11</ele>
        <time>2015-03-08T10:18:24Z</time>
      </trkpt>
      <trkpt lat="50.72929" lon="3.09873">
        <ele>38.11</ele>
        <time>2015-03-08T10:18:29Z</time>
      </trkpt>
      <trkpt lat="50.72942" lon="3.09887">
        <ele>38.11</ele>
        <time>2015-03-08T10:18:32Z</time>
      </trkpt>
      <trkpt lat="50.72951" lon="3.09897">
        <ele>38.11</ele>
        <time>2015-03-08T10:18:34Z</time>
      </trkpt>
      <trkpt lat="50.72988" lon="3.09967">
        <ele>37.15</ele>
        <time>2015-03-08T10:18:44Z</time>
      </trkpt>
      <trkpt lat="50.73012" lon="3.10032">
        <ele>37.15</ele>
        <time>2015-03-08T10:18:52Z</time>
      </trkpt>
      <trkpt lat="50.73018" lon="3.10047">
        <ele>37.63</ele>
        <time>2015-03-08T10:18:54Z</time>
      </trkpt>
      <trkpt lat="50.73041" lon="3.10077">
        <ele>37.63</ele>
        <time>2015-03-08T10:18:59Z</time>
      </trkpt>
      <trkpt lat="50.73091" lon="3.1014">
        <ele>36.19</ele>
        <time>2015-03-08T10:19:09Z</time>
      </trkpt>
      <trkpt lat="50.7314" lon="3.10205">
        <ele>36.19</ele>
        <time>2015-03-08T10:19:19Z</time>
      </trkpt>
      <trkpt lat="50.73164" lon="3.10223">
        <ele>35.71</ele>
        <time>2015-03-08T10:19:23Z</time>
      </trkpt>
      <trkpt lat="50.73215" lon="3.10239">
        <ele>35.23</ele>
        <time>2015-03-08T10:19:31Z</time>
      </trkpt>
      <trkpt lat="50.7324" lon="3.10234">
        <ele>33.78</ele>
        <time>2015-03-08T10:19:35Z</time>
      </trkpt>
      <trkpt lat="50.73243" lon="3.10232">
        <ele>32.82</ele>
        <time>2015-03-08T10:19:41Z</time>
      </trkpt>
      <trkpt lat="50.73242" lon="3.10232">
        <ele>31.86</ele>
        <time>2015-03-08T10:19:55Z</time>
      </trkpt>
      <trkpt lat="50.7324" lon="3.10234">
        <ele>31.86</ele>
        <time>2015-03-08T10:20:03Z</time>
      </trkpt>
      <trkpt lat="50.73251" lon="3.10228">
        <ele>30.9</ele>
        <time>2015-03-08T10:20:08Z</time>
      </trkpt>
      <trkpt lat="50.73278" lon="3.10217">
        <ele>30.42</ele>
        <time>2015-03-08T10:20:15Z</time>
      </trkpt>
      <trkpt lat="50.73304" lon="3.102">
        <ele>29.94</ele>
        <time>2015-03-08T10:20:21Z</time>
      </trkpt>
      <trkpt lat="50.73324" lon="3.10178">
        <ele>29.94</ele>
        <time>2015-03-08T10:20:26Z</time>
      </trkpt>
      <trkpt lat="50.73358" lon="3.10127">
        <ele>30.42</ele>
        <time>2015-03-08T10:20:35Z</time>
      </trkpt>
      <trkpt lat="50.73389" lon="3.10056">
        <ele>30.9</ele>
        <time>2015-03-08T10:20:45Z</time>
      </trkpt>
      <trkpt lat="50.73418" lon="3.09984">
        <ele>31.38</ele>
        <time>2015-03-08T10:20:55Z</time>
      </trkpt>
      <trkpt lat="50.73426" lon="3.09962">
        <ele>30.9</ele>
        <time>2015-03-08T10:20:58Z</time>
      </trkpt>
      <trkpt lat="50.73461" lon="3.09906">
        <ele>31.38</ele>
        <time>2015-03-08T10:21:07Z</time>
      </trkpt>
      <trkpt lat="50.73494" lon="3.09862">
        <ele>31.86</ele>
        <time>2015-03-08T10:21:15Z</time>
      </trkpt>
      <trkpt lat="50.73504" lon="3.09846">
        <ele>31.86</ele>
        <time>2015-03-08T10:21:18Z</time>
      </trkpt>
      <trkpt lat="50.73526" lon="3.09838">
        <ele>32.34</ele>
        <time>2015-03-08T10:21:23Z</time>
      </trkpt>
      <trkpt lat="50.7353" lon="3.09841">
        <ele>32.34</ele>
        <time>2015-03-08T10:21:24Z</time>
      </trkpt>
      <trkpt lat="50.73547" lon="3.09856">
        <ele>32.34</ele>
        <time>2015-03-08T10:21:28Z</time>
      </trkpt>
      <trkpt lat="50.7357" lon="3.09873">
        <ele>31.86</ele>
        <time>2015-03-08T10:21:33Z</time>
      </trkpt>
      <trkpt lat="50.73592" lon="3.099">
        <ele>31.86</ele>
        <time>2015-03-08T10:21:38Z</time>
      </trkpt>
      <trkpt lat="50.73601" lon="3.09913">
        <ele>31.86</ele>
        <time>2015-03-08T10:21:40Z</time>
      </trkpt>
      <trkpt lat="50.73627" lon="3.09947">
        <ele>31.38</ele>
        <time>2015-03-08T10:21:46Z</time>
      </trkpt>
      <trkpt lat="50.7365" lon="3.09955">
        <ele>31.38</ele>
        <time>2015-03-08T10:21:51Z</time>
      </trkpt>
      <trkpt lat="50.73662" lon="3.09931">
        <ele>31.38</ele>
        <time>2015-03-08T10:21:55Z</time>
      </trkpt>
      <trkpt lat="50.7368" lon="3.09907">
        <ele>30.9</ele>
        <time>2015-03-08T10:22:00Z</time>
      </trkpt>
      <trkpt lat="50.73682" lon="3.09889">
        <ele>31.38</ele>
        <time>2015-03-08T10:22:03Z</time>
      </trkpt>
      <trkpt lat="50.73678" lon="3.09841">
        <ele>32.82</ele>
        <time>2015-03-08T10:22:11Z</time>
      </trkpt>
      <trkpt lat="50.7368" lon="3.09788">
        <ele>32.82</ele>
        <time>2015-03-08T10:22:19Z</time>
      </trkpt>
      <trkpt lat="50.7368" lon="3.09781">
        <ele>32.82</ele>
        <time>2015-03-08T10:22:20Z</time>
      </trkpt>
      <trkpt lat="50.73671" lon="3.09752">
        <ele>32.34</ele>
        <time>2015-03-08T10:22:25Z</time>
      </trkpt>
      <trkpt lat="50.73666" lon="3.09723">
        <ele>32.82</ele>
        <time>2015-03-08T10:22:30Z</time>
      </trkpt>
      <trkpt lat="50.73669" lon="3.0967">
        <ele>34.26</ele>
        <time>2015-03-08T10:22:40Z</time>
      </trkpt>
      <trkpt lat="50.73669" lon="3.09622">
        <ele>33.78</ele>
        <time>2015-03-08T10:22:49Z</time>
      </trkpt>
      <trkpt lat="50.73658" lon="3.09603">
        <ele>33.78</ele>
        <time>2015-03-08T10:22:54Z</time>
      </trkpt>
      <trkpt lat="50.73635" lon="3.09572">
        <ele>34.26</ele>
        <time>2015-03-08T10:23:02Z</time>
      </trkpt>
      <trkpt lat="50.73616" lon="3.09533">
        <ele>34.74</ele>
        <time>2015-03-08T10:23:11Z</time>
      </trkpt>
      <trkpt lat="50.73611" lon="3.09491">
        <ele>35.71</ele>
        <time>2015-03-08T10:23:19Z</time>
      </trkpt>
      <trkpt lat="50.73609" lon="3.09441">
        <ele>35.71</ele>
        <time>2015-03-08T10:23:29Z</time>
      </trkpt>
      <trkpt lat="50.73611" lon="3.09408">
        <ele>35.71</ele>
        <time>2015-03-08T10:23:36Z</time>
      </trkpt>
      <trkpt lat="50.73625" lon="3.09388">
        <ele>35.71</ele>
        <time>2015-03-08T10:23:43Z</time>
      </trkpt>
      <trkpt lat="50.73638" lon="3.09363">
        <ele>35.23</ele>
        <time>2015-03-08T10:23:49Z</time>
      </trkpt>
      <trkpt lat="50.73649" lon="3.09345">
        <ele>35.23</ele>
        <time>2015-03-08T10:23:53Z</time>
      </trkpt>
      <trkpt lat="50.73677" lon="3.09297">
        <ele>34.74</ele>
        <time>2015-03-08T10:24:03Z</time>
      </trkpt>
      <trkpt lat="50.73701" lon="3.09255">
        <ele>34.26</ele>
        <time>2015-03-08T10:24:11Z</time>
      </trkpt>
      <trkpt lat="50.73724" lon="3.09217">
        <ele>33.78</ele>
        <time>2015-03-08T10:24:19Z</time>
      </trkpt>
      <trkpt lat="50.73745" lon="3.09183">
        <ele>33.78</ele>
        <time>2015-03-08T10:24:27Z</time>
      </trkpt>
      <trkpt lat="50.73774" lon="3.09133">
        <ele>34.26</ele>
        <time>2015-03-08T10:24:38Z</time>
      </trkpt>
      <trkpt lat="50.73794" lon="3.09101">
        <ele>34.74</ele>
        <time>2015-03-08T10:24:46Z</time>
      </trkpt>
      <trkpt lat="50.73811" lon="3.09118">
        <ele>34.74</ele>
        <time>2015-03-08T10:24:52Z</time>
      </trkpt>
      <trkpt lat="50.73829" lon="3.09147">
        <ele>31.86</ele>
        <time>2015-03-08T10:24:59Z</time>
      </trkpt>
      <trkpt lat="50.73841" lon="3.09165">
        <ele>30.42</ele>
        <time>2015-03-08T10:25:04Z</time>
      </trkpt>
      <trkpt lat="50.73849" lon="3.09158">
        <ele>28.98</ele>
        <time>2015-03-08T10:25:08Z</time>
      </trkpt>
      <trkpt lat="50.7386" lon="3.09125">
        <ele>28.5</ele>
        <time>2015-03-08T10:25:15Z</time>
      </trkpt>
      <trkpt lat="50.73868" lon="3.09108">
        <ele>28.5</ele>
        <time>2015-03-08T10:25:20Z</time>
      </trkpt>
      <trkpt lat="50.73877" lon="3.09087">
        <ele>28.98</ele>
        <time>2015-03-08T10:25:26Z</time>
      </trkpt>
      <trkpt lat="50.7389" lon="3.09058">
        <ele>31.38</ele>
        <time>2015-03-08T10:25:33Z</time>
      </trkpt>
      <trkpt lat="50.73895" lon="3.09039">
        <ele>32.34</ele>
        <time>2015-03-08T10:25:39Z</time>
      </trkpt>
      <trkpt lat="50.73899" lon="3.09032">
        <ele>32.34</ele>
        <time>2015-03-08T10:25:42Z</time>
      </trkpt>
      <trkpt lat="50.73904" lon="3.09032">
        <ele>32.34</ele>
        <time>2015-03-08T10:25:46Z</time>
      </trkpt>
      <trkpt lat="50.73917" lon="3.09049">
        <ele>32.34</ele>
        <time>2015-03-08T10:25:54Z</time>
      </trkpt>
      <trkpt lat="50.73923" lon="3.09057">
        <ele>30.9</ele>
        <time>2015-03-08T10:25:58Z</time>
      </trkpt>
      <trkpt lat="50.73931" lon="3.09065">
        <ele>30.42</ele>
        <time>2015-03-08T10:26:02Z</time>
      </trkpt>
      <trkpt lat="50.73944" lon="3.0906">
        <ele>30.42</ele>
        <time>2015-03-08T10:26:08Z</time>
      </trkpt>
      <trkpt lat="50.73953" lon="3.09046">
        <ele>29.94</ele>
        <time>2015-03-08T10:26:16Z</time>
      </trkpt>
      <trkpt lat="50.73954" lon="3.09044">
        <ele>29.46</ele>
        <time>2015-03-08T10:26:17Z</time>
      </trkpt>
      <trkpt lat="50.73963" lon="3.09027">
        <ele>28.02</ele>
        <time>2015-03-08T10:26:25Z</time>
      </trkpt>
      <trkpt lat="50.73966" lon="3.0902">
        <ele>28.02</ele>
        <time>2015-03-08T10:26:29Z</time>
      </trkpt>
      <trkpt lat="50.73974" lon="3.09005">
        <ele>28.02</ele>
        <time>2015-03-08T10:26:36Z</time>
      </trkpt>
      <trkpt lat="50.73986" lon="3.08987">
        <ele>28.5</ele>
        <time>2015-03-08T10:26:45Z</time>
      </trkpt>
      <trkpt lat="50.73998" lon="3.08968">
        <ele>29.94</ele>
        <time>2015-03-08T10:26:52Z</time>
      </trkpt>
      <trkpt lat="50.7401" lon="3.08951">
        <ele>30.9</ele>
        <time>2015-03-08T10:26:59Z</time>
      </trkpt>
      <trkpt lat="50.74023" lon="3.08931">
        <ele>31.86</ele>
        <time>2015-03-08T10:27:07Z</time>
      </trkpt>
      <trkpt lat="50.74027" lon="3.08926">
        <ele>32.34</ele>
        <time>2015-03-08T10:27:09Z</time>
      </trkpt>
      <trkpt lat="50.74035" lon="3.08931">
        <ele>33.3</ele>
        <time>2015-03-08T10:27:13Z</time>
      </trkpt>
      <trkpt lat="50.74061" lon="3.08964">
        <ele>34.26</ele>
        <time>2015-03-08T10:27:24Z</time>
      </trkpt>
      <trkpt lat="50.74078" lon="3.08987">
        <ele>34.26</ele>
        <time>2015-03-08T10:27:31Z</time>
      </trkpt>
      <trkpt lat="50.74094" lon="3.09006">
        <ele>34.26</ele>
        <time>2015-03-08T10:27:36Z</time>
      </trkpt>
      <trkpt lat="50.74132" lon="3.09065">
        <ele>33.78</ele>
        <time>2015-03-08T10:27:48Z</time>
      </trkpt>
      <trkpt lat="50.74137" lon="3.09075">
        <ele>33.78</ele>
        <time>2015-03-08T10:27:50Z</time>
      </trkpt>
      <trkpt lat="50.74134" lon="3.09091">
        <ele>34.26</ele>
        <time>2015-03-08T10:27:53Z</time>
      </trkpt>
      <trkpt lat="50.74127" lon="3.09107">
        <ele>34.26</ele>
        <time>2015-03-08T10:27:56Z</time>
      </trkpt>
      <trkpt lat="50.7412" lon="3.09141">
        <ele>34.26</ele>
        <time>2015-03-08T10:28:01Z</time>
      </trkpt>
      <trkpt lat="50.74118" lon="3.09165">
        <ele>33.3</ele>
        <time>2015-03-08T10:28:04Z</time>
      </trkpt>
      <trkpt lat="50.74112" lon="3.09224">
        <ele>32.34</ele>
        <time>2015-03-08T10:28:11Z</time>
      </trkpt>
      <trkpt lat="50.74112" lon="3.09268">
        <ele>31.38</ele>
        <time>2015-03-08T10:28:16Z</time>
      </trkpt>
      <trkpt lat="50.74105" lon="3.09301">
        <ele>30.42</ele>
        <time>2015-03-08T10:28:20Z</time>
      </trkpt>
      <trkpt lat="50.74071" lon="3.0937">
        <ele>30.9</ele>
        <time>2015-03-08T10:28:30Z</time>
      </trkpt>
      <trkpt lat="50.74068" lon="3.09377">
        <ele>30.9</ele>
        <time>2015-03-08T10:28:31Z</time>
      </trkpt>
      <trkpt lat="50.74052" lon="3.09412">
        <ele>30.42</ele>
        <time>2015-03-08T10:28:36Z</time>
      </trkpt>
      <trkpt lat="50.74035" lon="3.09453">
        <ele>30.42</ele>
        <time>2015-03-08T10:28:42Z</time>
      </trkpt>
      <trkpt lat="50.74021" lon="3.09476">
        <ele>30.42</ele>
        <time>2015-03-08T10:28:46Z</time>
      </trkpt>
      <trkpt lat="50.74004" lon="3.09498">
        <ele>30.9</ele>
        <time>2015-03-08T10:28:51Z</time>
      </trkpt>
      <trkpt lat="50.73992" lon="3.09531">
        <ele>30.42</ele>
        <time>2015-03-08T10:28:57Z</time>
      </trkpt>
      <trkpt lat="50.73999" lon="3.09551">
        <ele>29.94</ele>
        <time>2015-03-08T10:29:00Z</time>
      </trkpt>
      <trkpt lat="50.74038" lon="3.09629">
        <ele>29.46</ele>
        <time>2015-03-08T10:29:11Z</time>
      </trkpt>
      <trkpt lat="50.7405" lon="3.09661">
        <ele>29.46</ele>
        <time>2015-03-08T10:29:15Z</time>
      </trkpt>
      <trkpt lat="50.74064" lon="3.09739">
        <ele>30.42</ele>
        <time>2015-03-08T10:29:24Z</time>
      </trkpt>
      <trkpt lat="50.74072" lon="3.0976">
        <ele>30.42</ele>
        <time>2015-03-08T10:29:27Z</time>
      </trkpt>
      <trkpt lat="50.74073" lon="3.09789">
        <ele>29.94</ele>
        <time>2015-03-08T10:29:31Z</time>
      </trkpt>
      <trkpt lat="50.7407" lon="3.09795">
        <ele>29.94</ele>
        <time>2015-03-08T10:29:32Z</time>
      </trkpt>
      <trkpt lat="50.74043" lon="3.09853">
        <ele>28.98</ele>
        <time>2015-03-08T10:29:41Z</time>
      </trkpt>
      <trkpt lat="50.74005" lon="3.09937">
        <ele>27.53</ele>
        <time>2015-03-08T10:29:54Z</time>
      </trkpt>
      <trkpt lat="50.7397" lon="3.09999">
        <ele>27.53</ele>
        <time>2015-03-08T10:30:05Z</time>
      </trkpt>
      <trkpt lat="50.73936" lon="3.10057">
        <ele>28.02</ele>
        <time>2015-03-08T10:30:15Z</time>
      </trkpt>
      <trkpt lat="50.73912" lon="3.10101">
        <ele>28.5</ele>
        <time>2015-03-08T10:30:23Z</time>
      </trkpt>
      <trkpt lat="50.73906" lon="3.10111">
        <ele>28.5</ele>
        <time>2015-03-08T10:30:25Z</time>
      </trkpt>
      <trkpt lat="50.73891" lon="3.10145">
        <ele>28.5</ele>
        <time>2015-03-08T10:30:31Z</time>
      </trkpt>
      <trkpt lat="50.73879" lon="3.10163">
        <ele>29.46</ele>
        <time>2015-03-08T10:30:35Z</time>
      </trkpt>
      <trkpt lat="50.73852" lon="3.10203">
        <ele>29.94</ele>
        <time>2015-03-08T10:30:44Z</time>
      </trkpt>
      <trkpt lat="50.73821" lon="3.10251">
        <ele>30.42</ele>
        <time>2015-03-08T10:30:54Z</time>
      </trkpt>
      <trkpt lat="50.73794" lon="3.10298">
        <ele>29.46</ele>
        <time>2015-03-08T10:31:03Z</time>
      </trkpt>
      <trkpt lat="50.73763" lon="3.10341">
        <ele>29.46</ele>
        <time>2015-03-08T10:31:12Z</time>
      </trkpt>
      <trkpt lat="50.73756" lon="3.1035">
        <ele>29.46</ele>
        <time>2015-03-08T10:31:14Z</time>
      </trkpt>
      <trkpt lat="50.73727" lon="3.10383">
        <ele>30.42</ele>
        <time>2015-03-08T10:31:22Z</time>
      </trkpt>
      <trkpt lat="50.7369" lon="3.1043">
        <ele>29.46</ele>
        <time>2015-03-08T10:31:32Z</time>
      </trkpt>
      <trkpt lat="50.73659" lon="3.1047">
        <ele>29.46</ele>
        <time>2015-03-08T10:31:41Z</time>
      </trkpt>
      <trkpt lat="50.73621" lon="3.10517">
        <ele>29.46</ele>
        <time>2015-03-08T10:31:51Z</time>
      </trkpt>
      <trkpt lat="50.73601" lon="3.10541">
        <ele>29.46</ele>
        <time>2015-03-08T10:31:56Z</time>
      </trkpt>
      <trkpt lat="50.73577" lon="3.10558">
        <ele>29.46</ele>
        <time>2015-03-08T10:32:02Z</time>
      </trkpt>
      <trkpt lat="50.7354" lon="3.10609">
        <ele>29.46</ele>
        <time>2015-03-08T10:32:12Z</time>
      </trkpt>
      <trkpt lat="50.73534" lon="3.10621">
        <ele>29.46</ele>
        <time>2015-03-08T10:32:14Z</time>
      </trkpt>
      <trkpt lat="50.7351" lon="3.10686">
        <ele>29.94</ele>
        <time>2015-03-08T10:32:24Z</time>
      </trkpt>
      <trkpt lat="50.73493" lon="3.10744">
        <ele>30.42</ele>
        <time>2015-03-08T10:32:33Z</time>
      </trkpt>
      <trkpt lat="50.7348" lon="3.10799">
        <ele>30.9</ele>
        <time>2015-03-08T10:32:42Z</time>
      </trkpt>
      <trkpt lat="50.73476" lon="3.10831">
        <ele>31.38</ele>
        <time>2015-03-08T10:32:47Z</time>
      </trkpt>
      <trkpt lat="50.73475" lon="3.10849">
        <ele>31.86</ele>
        <time>2015-03-08T10:32:50Z</time>
      </trkpt>
      <trkpt lat="50.73489" lon="3.10908">
        <ele>32.82</ele>
        <time>2015-03-08T10:33:00Z</time>
      </trkpt>
      <trkpt lat="50.73512" lon="3.10948">
        <ele>33.3</ele>
        <time>2015-03-08T10:33:09Z</time>
      </trkpt>
      <trkpt lat="50.73536" lon="3.10983">
        <ele>34.74</ele>
        <time>2015-03-08T10:33:18Z</time>
      </trkpt>
      <trkpt lat="50.73557" lon="3.11015">
        <ele>35.23</ele>
        <time>2015-03-08T10:33:26Z</time>
      </trkpt>
      <trkpt lat="50.73576" lon="3.11047">
        <ele>36.19</ele>
        <time>2015-03-08T10:33:34Z</time>
      </trkpt>
      <trkpt lat="50.73597" lon="3.11085">
        <ele>36.67</ele>
        <time>2015-03-08T10:33:43Z</time>
      </trkpt>
      <trkpt lat="50.73614" lon="3.11133">
        <ele>37.63</ele>
        <time>2015-03-08T10:33:53Z</time>
      </trkpt>
      <trkpt lat="50.73621" lon="3.11183">
        <ele>38.11</ele>
        <time>2015-03-08T10:34:02Z</time>
      </trkpt>
      <trkpt lat="50.73625" lon="3.11233">
        <ele>38.59</ele>
        <time>2015-03-08T10:34:10Z</time>
      </trkpt>
      <trkpt lat="50.73631" lon="3.11293">
        <ele>39.07</ele>
        <time>2015-03-08T10:34:19Z</time>
      </trkpt>
      <trkpt lat="50.73632" lon="3.113">
        <ele>39.07</ele>
        <time>2015-03-08T10:34:20Z</time>
      </trkpt>
      <trkpt lat="50.73639" lon="3.11325">
        <ele>38.59</ele>
        <time>2015-03-08T10:34:24Z</time>
      </trkpt>
      <trkpt lat="50.73671" lon="3.11374">
        <ele>38.11</ele>
        <time>2015-03-08T10:34:33Z</time>
      </trkpt>
      <trkpt lat="50.7368" lon="3.11383">
        <ele>38.11</ele>
        <time>2015-03-08T10:34:35Z</time>
      </trkpt>
      <trkpt lat="50.73722" lon="3.1143">
        <ele>38.11</ele>
        <time>2015-03-08T10:34:45Z</time>
      </trkpt>
      <trkpt lat="50.73734" lon="3.11444">
        <ele>38.59</ele>
        <time>2015-03-08T10:34:48Z</time>
      </trkpt>
      <trkpt lat="50.73742" lon="3.11452">
        <ele>38.59</ele>
        <time>2015-03-08T10:34:50Z</time>
      </trkpt>
      <trkpt lat="50.73746" lon="3.11456">
        <ele>38.59</ele>
        <time>2015-03-08T10:34:51Z</time>
      </trkpt>
      <trkpt lat="50.73752" lon="3.11465">
        <ele>39.07</ele>
        <time>2015-03-08T10:34:53Z</time>
      </trkpt>
      <trkpt lat="50.73755" lon="3.11469">
        <ele>39.07</ele>
        <time>2015-03-08T10:34:54Z</time>
      </trkpt>
      <trkpt lat="50.7377" lon="3.11492">
        <ele>39.55</ele>
        <time>2015-03-08T10:35:00Z</time>
      </trkpt>
      <trkpt lat="50.73773" lon="3.11491">
        <ele>39.55</ele>
        <time>2015-03-08T10:35:01Z</time>
      </trkpt>
      <trkpt lat="50.73768" lon="3.11482">
        <ele>39.07</ele>
        <time>2015-03-08T10:35:05Z</time>
      </trkpt>
      <trkpt lat="50.73765" lon="3.11479">
        <ele>39.07</ele>
        <time>2015-03-08T10:35:06Z</time>
      </trkpt>
      <trkpt lat="50.73741" lon="3.11446">
        <ele>40.03</ele>
        <time>2015-03-08T10:35:15Z</time>
      </trkpt>
      <trkpt lat="50.73717" lon="3.1142">
        <ele>39.07</ele>
        <time>2015-03-08T10:35:22Z</time>
      </trkpt>
      <trkpt lat="50.73686" lon="3.11384">
        <ele>39.55</ele>
        <time>2015-03-08T10:35:31Z</time>
      </trkpt>
      <trkpt lat="50.73654" lon="3.11345">
        <ele>40.03</ele>
        <time>2015-03-08T10:35:40Z</time>
      </trkpt>
      <trkpt lat="50.73639" lon="3.11311">
        <ele>39.55</ele>
        <time>2015-03-08T10:35:46Z</time>
      </trkpt>
      <trkpt lat="50.73637" lon="3.11305">
        <ele>40.03</ele>
        <time>2015-03-08T10:35:47Z</time>
      </trkpt>
      <trkpt lat="50.73636" lon="3.11298">
        <ele>39.55</ele>
        <time>2015-03-08T10:35:48Z</time>
      </trkpt>
      <trkpt lat="50.73628" lon="3.11239">
        <ele>40.03</ele>
        <time>2015-03-08T10:35:57Z</time>
      </trkpt>
      <trkpt lat="50.73623" lon="3.11182">
        <ele>40.03</ele>
        <time>2015-03-08T10:36:05Z</time>
      </trkpt>
      <trkpt lat="50.73621" lon="3.11158">
        <ele>40.03</ele>
        <time>2015-03-08T10:36:08Z</time>
      </trkpt>
      <trkpt lat="50.73613" lon="3.11111">
        <ele>39.07</ele>
        <time>2015-03-08T10:36:15Z</time>
      </trkpt>
      <trkpt lat="50.73604" lon="3.11088">
        <ele>39.07</ele>
        <time>2015-03-08T10:36:19Z</time>
      </trkpt>
      <trkpt lat="50.73569" lon="3.11023">
        <ele>37.63</ele>
        <time>2015-03-08T10:36:29Z</time>
      </trkpt>
      <trkpt lat="50.73531" lon="3.10966">
        <ele>35.71</ele>
        <time>2015-03-08T10:36:38Z</time>
      </trkpt>
      <trkpt lat="50.73497" lon="3.10914">
        <ele>34.74</ele>
        <time>2015-03-08T10:36:46Z</time>
      </trkpt>
      <trkpt lat="50.73485" lon="3.10884">
        <ele>34.74</ele>
        <time>2015-03-08T10:36:50Z</time>
      </trkpt>
      <trkpt lat="50.7348" lon="3.10844">
        <ele>34.74</ele>
        <time>2015-03-08T10:36:56Z</time>
      </trkpt>
      <trkpt lat="50.7348" lon="3.10829">
        <ele>34.74</ele>
        <time>2015-03-08T10:36:58Z</time>
      </trkpt>
      <trkpt lat="50.73482" lon="3.1081">
        <ele>34.26</ele>
        <time>2015-03-08T10:37:01Z</time>
      </trkpt>
      <trkpt lat="50.73487" lon="3.10789">
        <ele>33.78</ele>
        <time>2015-03-08T10:37:05Z</time>
      </trkpt>
      <trkpt lat="50.73497" lon="3.1075">
        <ele>33.3</ele>
        <time>2015-03-08T10:37:15Z</time>
      </trkpt>
      <trkpt lat="50.73498" lon="3.10746">
        <ele>33.3</ele>
        <time>2015-03-08T10:37:16Z</time>
      </trkpt>
      <trkpt lat="50.735" lon="3.10743">
        <ele>32.82</ele>
        <time>2015-03-08T10:37:22Z</time>
      </trkpt>
      <trkpt lat="50.73501" lon="3.10743">
        <ele>32.82</ele>
        <time>2015-03-08T10:37:30Z</time>
      </trkpt>
      <trkpt lat="50.73501" lon="3.10743">
        <ele>33.3</ele>
        <time>2015-03-08T10:37:38Z</time>
      </trkpt>
      <trkpt lat="50.735" lon="3.10742">
        <ele>33.3</ele>
        <time>2015-03-08T10:37:49Z</time>
      </trkpt>
      <trkpt lat="50.735" lon="3.10742">
        <ele>33.3</ele>
        <time>2015-03-08T10:37:51Z</time>
      </trkpt>
      <trkpt lat="50.73504" lon="3.10722">
        <ele>33.78</ele>
        <time>2015-03-08T10:37:58Z</time>
      </trkpt>
      <trkpt lat="50.73515" lon="3.10685">
        <ele>33.3</ele>
        <time>2015-03-08T10:38:07Z</time>
      </trkpt>
      <trkpt lat="50.7353" lon="3.10642">
        <ele>32.82</ele>
        <time>2015-03-08T10:38:17Z</time>
      </trkpt>
      <trkpt lat="50.73544" lon="3.10611">
        <ele>32.34</ele>
        <time>2015-03-08T10:38:26Z</time>
      </trkpt>
      <trkpt lat="50.73562" lon="3.10586">
        <ele>31.38</ele>
        <time>2015-03-08T10:38:33Z</time>
      </trkpt>
      <trkpt lat="50.73587" lon="3.10553">
        <ele>30.42</ele>
        <time>2015-03-08T10:38:42Z</time>
      </trkpt>
      <trkpt lat="50.73597" lon="3.10543">
        <ele>29.46</ele>
        <time>2015-03-08T10:38:48Z</time>
      </trkpt>
      <trkpt lat="50.73606" lon="3.1053">
        <ele>28.5</ele>
        <time>2015-03-08T10:38:55Z</time>
      </trkpt>
      <trkpt lat="50.73626" lon="3.10506">
        <ele>28.5</ele>
        <time>2015-03-08T10:39:03Z</time>
      </trkpt>
      <trkpt lat="50.7366" lon="3.10464">
        <ele>29.46</ele>
        <time>2015-03-08T10:39:14Z</time>
      </trkpt>
      <trkpt lat="50.73679" lon="3.10443">
        <ele>29.94</ele>
        <time>2015-03-08T10:39:20Z</time>
      </trkpt>
      <trkpt lat="50.73698" lon="3.10417">
        <ele>29.46</ele>
        <time>2015-03-08T10:39:27Z</time>
      </trkpt>
      <trkpt lat="50.73701" lon="3.10415">
        <ele>29.46</ele>
        <time>2015-03-08T10:39:28Z</time>
      </trkpt>
      <trkpt lat="50.73706" lon="3.10414">
        <ele>29.46</ele>
        <time>2015-03-08T10:39:33Z</time>
      </trkpt>
      <trkpt lat="50.73706" lon="3.10414">
        <ele>29.46</ele>
        <time>2015-03-08T10:39:42Z</time>
      </trkpt>
      <trkpt lat="50.73717" lon="3.10432">
        <ele>28.5</ele>
        <time>2015-03-08T10:39:50Z</time>
      </trkpt>
      <trkpt lat="50.73728" lon="3.10452">
        <ele>27.53</ele>
        <time>2015-03-08T10:39:58Z</time>
      </trkpt>
      <trkpt lat="50.73742" lon="3.10471">
        <ele>26.57</ele>
        <time>2015-03-08T10:40:05Z</time>
      </trkpt>
      <trkpt lat="50.73759" lon="3.10494">
        <ele>26.57</ele>
        <time>2015-03-08T10:40:12Z</time>
      </trkpt>
      <trkpt lat="50.73772" lon="3.10514">
        <ele>28.02</ele>
        <time>2015-03-08T10:40:18Z</time>
      </trkpt>
      <trkpt lat="50.73793" lon="3.1053">
        <ele>28.02</ele>
        <time>2015-03-08T10:40:25Z</time>
      </trkpt>
      <trkpt lat="50.73822" lon="3.10544">
        <ele>27.05</ele>
        <time>2015-03-08T10:40:33Z</time>
      </trkpt>
      <trkpt lat="50.73847" lon="3.10561">
        <ele>27.53</ele>
        <time>2015-03-08T10:40:41Z</time>
      </trkpt>
      <trkpt lat="50.73848" lon="3.1058">
        <ele>27.05</ele>
        <time>2015-03-08T10:40:46Z</time>
      </trkpt>
      <trkpt lat="50.73847" lon="3.10584">
        <ele>27.05</ele>
        <time>2015-03-08T10:40:47Z</time>
      </trkpt>
      <trkpt lat="50.73838" lon="3.10605">
        <ele>27.05</ele>
        <time>2015-03-08T10:40:51Z</time>
      </trkpt>
      <trkpt lat="50.73815" lon="3.10665">
        <ele>27.05</ele>
        <time>2015-03-08T10:41:02Z</time>
      </trkpt>
      <trkpt lat="50.73813" lon="3.10671">
        <ele>27.05</ele>
        <time>2015-03-08T10:41:03Z</time>
      </trkpt>
      <trkpt lat="50.73798" lon="3.1071">
        <ele>27.53</ele>
        <time>2015-03-08T10:41:11Z</time>
      </trkpt>
      <trkpt lat="50.73785" lon="3.1074">
        <ele>28.02</ele>
        <time>2015-03-08T10:41:18Z</time>
      </trkpt>
      <trkpt lat="50.73775" lon="3.10763">
        <ele>28.5</ele>
        <time>2015-03-08T10:41:24Z</time>
      </trkpt>
      <trkpt lat="50.73764" lon="3.10785">
        <ele>28.5</ele>
        <time>2015-03-08T10:41:31Z</time>
      </trkpt>
      <trkpt lat="50.7376" lon="3.10794">
        <ele>28.98</ele>
        <time>2015-03-08T10:41:35Z</time>
      </trkpt>
      <trkpt lat="50.73752" lon="3.10811">
        <ele>28.5</ele>
        <time>2015-03-08T10:41:42Z</time>
      </trkpt>
      <trkpt lat="50.73742" lon="3.10829">
        <ele>28.98</ele>
        <time>2015-03-08T10:41:49Z</time>
      </trkpt>
      <trkpt lat="50.73738" lon="3.10843">
        <ele>29.94</ele>
        <time>2015-03-08T10:41:54Z</time>
      </trkpt>
      <trkpt lat="50.7375" lon="3.10863">
        <ele>29.94</ele>
        <time>2015-03-08T10:42:01Z</time>
      </trkpt>
      <trkpt lat="50.73764" lon="3.10886">
        <ele>30.9</ele>
        <time>2015-03-08T10:42:08Z</time>
      </trkpt>
      <trkpt lat="50.73779" lon="3.10917">
        <ele>30.42</ele>
        <time>2015-03-08T10:42:16Z</time>
      </trkpt>
      <trkpt lat="50.73795" lon="3.10949">
        <ele>29.94</ele>
        <time>2015-03-08T10:42:25Z</time>
      </trkpt>
      <trkpt lat="50.73812" lon="3.1096">
        <ele>29.94</ele>
        <time>2015-03-08T10:42:31Z</time>
      </trkpt>
      <trkpt lat="50.73837" lon="3.10977">
        <ele>29.46</ele>
        <time>2015-03-08T10:42:38Z</time>
      </trkpt>
      <trkpt lat="50.7387" lon="3.11014">
        <ele>28.98</ele>
        <time>2015-03-08T10:42:46Z</time>
      </trkpt>
      <trkpt lat="50.73893" lon="3.11035">
        <ele>29.46</ele>
        <time>2015-03-08T10:42:51Z</time>
      </trkpt>
      <trkpt lat="50.73926" lon="3.11078">
        <ele>28.98</ele>
        <time>2015-03-08T10:43:01Z</time>
      </trkpt>
      <trkpt lat="50.73946" lon="3.11111">
        <ele>28.5</ele>
        <time>2015-03-08T10:43:09Z</time>
      </trkpt>
      <trkpt lat="50.73949" lon="3.11121">
        <ele>28.5</ele>
        <time>2015-03-08T10:43:11Z</time>
      </trkpt>
      <trkpt lat="50.73945" lon="3.11139">
        <ele>28.5</ele>
        <time>2015-03-08T10:43:15Z</time>
      </trkpt>
      <trkpt lat="50.73923" lon="3.11167">
        <ele>28.98</ele>
        <time>2015-03-08T10:43:24Z</time>
      </trkpt>
      <trkpt lat="50.73905" lon="3.11189">
        <ele>29.46</ele>
        <time>2015-03-08T10:43:31Z</time>
      </trkpt>
      <trkpt lat="50.73894" lon="3.11211">
        <ele>30.42</ele>
        <time>2015-03-08T10:43:37Z</time>
      </trkpt>
      <trkpt lat="50.73894" lon="3.11216">
        <ele>30.42</ele>
        <time>2015-03-08T10:43:38Z</time>
      </trkpt>
      <trkpt lat="50.73895" lon="3.11238">
        <ele>29.94</ele>
        <time>2015-03-08T10:43:43Z</time>
      </trkpt>
      <trkpt lat="50.73899" lon="3.11267">
        <ele>29.94</ele>
        <time>2015-03-08T10:43:50Z</time>
      </trkpt>
      <trkpt lat="50.73907" lon="3.11277">
        <ele>29.94</ele>
        <time>2015-03-08T10:43:53Z</time>
      </trkpt>
      <trkpt lat="50.7393" lon="3.11299">
        <ele>29.94</ele>
        <time>2015-03-08T10:44:00Z</time>
      </trkpt>
      <trkpt lat="50.73952" lon="3.11323">
        <ele>29.46</ele>
        <time>2015-03-08T10:44:07Z</time>
      </trkpt>
      <trkpt lat="50.73962" lon="3.11329">
        <ele>29.46</ele>
        <time>2015-03-08T10:44:10Z</time>
      </trkpt>
      <trkpt lat="50.73984" lon="3.11327">
        <ele>29.46</ele>
        <time>2015-03-08T10:44:15Z</time>
      </trkpt>
      <trkpt lat="50.74012" lon="3.11344">
        <ele>29.46</ele>
        <time>2015-03-08T10:44:21Z</time>
      </trkpt>
      <trkpt lat="50.7402" lon="3.11357">
        <ele>29.94</ele>
        <time>2015-03-08T10:44:23Z</time>
      </trkpt>
      <trkpt lat="50.7403" lon="3.11379">
        <ele>29.94</ele>
        <time>2015-03-08T10:44:26Z</time>
      </trkpt>
      <trkpt lat="50.74065" lon="3.11425">
        <ele>29.46</ele>
        <time>2015-03-08T10:44:34Z</time>
      </trkpt>
      <trkpt lat="50.74084" lon="3.11451">
        <ele>28.02</ele>
        <time>2015-03-08T10:44:40Z</time>
      </trkpt>
      <trkpt lat="50.74091" lon="3.11451">
        <ele>27.53</ele>
        <time>2015-03-08T10:44:43Z</time>
      </trkpt>
      <trkpt lat="50.74103" lon="3.1143">
        <ele>28.02</ele>
        <time>2015-03-08T10:44:48Z</time>
      </trkpt>
      <trkpt lat="50.74124" lon="3.11388">
        <ele>26.57</ele>
        <time>2015-03-08T10:44:55Z</time>
      </trkpt>
      <trkpt lat="50.74127" lon="3.11381">
        <ele>26.57</ele>
        <time>2015-03-08T10:44:56Z</time>
      </trkpt>
      <trkpt lat="50.74156" lon="3.1133">
        <ele>24.65</ele>
        <time>2015-03-08T10:45:04Z</time>
      </trkpt>
      <trkpt lat="50.74192" lon="3.11285">
        <ele>24.65</ele>
        <time>2015-03-08T10:45:13Z</time>
      </trkpt>
      <trkpt lat="50.74238" lon="3.11235">
        <ele>24.17</ele>
        <time>2015-03-08T10:45:23Z</time>
      </trkpt>
      <trkpt lat="50.74273" lon="3.11192">
        <ele>23.69</ele>
        <time>2015-03-08T10:45:31Z</time>
      </trkpt>
      <trkpt lat="50.74306" lon="3.11138">
        <ele>24.17</ele>
        <time>2015-03-08T10:45:40Z</time>
      </trkpt>
      <trkpt lat="50.74345" lon="3.11069">
        <ele>24.65</ele>
        <time>2015-03-08T10:45:51Z</time>
      </trkpt>
      <trkpt lat="50.74381" lon="3.10999">
        <ele>25.13</ele>
        <time>2015-03-08T10:46:02Z</time>
      </trkpt>
      <trkpt lat="50.74391" lon="3.10981">
        <ele>25.13</ele>
        <time>2015-03-08T10:46:07Z</time>
      </trkpt>
      <trkpt lat="50.74406" lon="3.10978">
        <ele>24.17</ele>
        <time>2015-03-08T10:46:13Z</time>
      </trkpt>
      <trkpt lat="50.74425" lon="3.1096">
        <ele>24.17</ele>
        <time>2015-03-08T10:46:19Z</time>
      </trkpt>
      <trkpt lat="50.74458" lon="3.10923">
        <ele>25.13</ele>
        <time>2015-03-08T10:46:28Z</time>
      </trkpt>
      <trkpt lat="50.74465" lon="3.10906">
        <ele>24.65</ele>
        <time>2015-03-08T10:46:31Z</time>
      </trkpt>
      <trkpt lat="50.7448" lon="3.10859">
        <ele>25.13</ele>
        <time>2015-03-08T10:46:40Z</time>
      </trkpt>
      <trkpt lat="50.74483" lon="3.10852">
        <ele>25.61</ele>
        <time>2015-03-08T10:46:45Z</time>
      </trkpt>
      <trkpt lat="50.74484" lon="3.10852">
        <ele>25.61</ele>
        <time>2015-03-08T10:46:52Z</time>
      </trkpt>
      <trkpt lat="50.74484" lon="3.10852">
        <ele>26.57</ele>
        <time>2015-03-08T10:47:13Z</time>
      </trkpt>
      <trkpt lat="50.74483" lon="3.10853">
        <ele>27.53</ele>
        <time>2015-03-08T10:47:31Z</time>
      </trkpt>
      <trkpt lat="50.74483" lon="3.10852">
        <ele>28.02</ele>
        <time>2015-03-08T10:47:50Z</time>
      </trkpt>
      <trkpt lat="50.74483" lon="3.10853">
        <ele>28.02</ele>
        <time>2015-03-08T10:48:14Z</time>
      </trkpt>
      <trkpt lat="50.74483" lon="3.10853">
        <ele>27.53</ele>
        <time>2015-03-08T10:48:33Z</time>
      </trkpt>
      <trkpt lat="50.74483" lon="3.10853">
        <ele>27.05</ele>
        <time>2015-03-08T10:48:55Z</time>
      </trkpt>
      <trkpt lat="50.74484" lon="3.10854">
        <ele>26.57</ele>
        <time>2015-03-08T10:49:19Z</time>
      </trkpt>
      <trkpt lat="50.74484" lon="3.10853">
        <ele>25.61</ele>
        <time>2015-03-08T10:49:39Z</time>
      </trkpt>
      <trkpt lat="50.74485" lon="3.10851">
        <ele>25.13</ele>
        <time>2015-03-08T10:50:00Z</time>
      </trkpt>
      <trkpt lat="50.74486" lon="3.10851">
        <ele>25.61</ele>
        <time>2015-03-08T10:50:21Z</time>
      </trkpt>
      <trkpt lat="50.74486" lon="3.10852">
        <ele>25.61</ele>
        <time>2015-03-08T10:50:40Z</time>
      </trkpt>
      <trkpt lat="50.74485" lon="3.10852">
        <ele>26.09</ele>
        <time>2015-03-08T10:51:02Z</time>
      </trkpt>
      <trkpt lat="50.74485" lon="3.10852">
        <ele>27.05</ele>
        <time>2015-03-08T10:51:26Z</time>
      </trkpt>
      <trkpt lat="50.74485" lon="3.10852">
        <ele>27.05</ele>
        <time>2015-03-08T10:51:50Z</time>
      </trkpt>
      <trkpt lat="50.74485" lon="3.10852">
        <ele>27.05</ele>
        <time>2015-03-08T10:52:09Z</time>
      </trkpt>
      <trkpt lat="50.74485" lon="3.10851">
        <ele>26.57</ele>
        <time>2015-03-08T10:52:21Z</time>
      </trkpt>
      <trkpt lat="50.74484" lon="3.10852">
        <ele>26.57</ele>
        <time>2015-03-08T10:52:28Z</time>
      </trkpt>
      <trkpt lat="50.74484" lon="3.10852">
        <ele>26.57</ele>
        <time>2015-03-08T10:52:39Z</time>
      </trkpt>
      <trkpt lat="50.74484" lon="3.10852">
        <ele>26.57</ele>
        <time>2015-03-08T10:52:48Z</time>
      </trkpt>
      <trkpt lat="50.74483" lon="3.10857">
        <ele>15.52</ele>
        <time>2015-03-08T10:53:36Z</time>
      </trkpt>
      <trkpt lat="50.74485" lon="3.10853">
        <ele>21.77</ele>
        <time>2015-03-08T10:53:46Z</time>
      </trkpt>
      <trkpt lat="50.74481" lon="3.10855">
        <ele>26.09</ele>
        <time>2015-03-08T10:53:53Z</time>
      </trkpt>
      <trkpt lat="50.74482" lon="3.10853">
        <ele>25.13</ele>
        <time>2015-03-08T10:54:07Z</time>
      </trkpt>
      <trkpt lat="50.74485" lon="3.10847">
        <ele>25.13</ele>
        <time>2015-03-08T10:54:17Z</time>
      </trkpt>
      <trkpt lat="50.74486" lon="3.10843">
        <ele>25.61</ele>
        <time>2015-03-08T10:54:20Z</time>
      </trkpt>
      <trkpt lat="50.74488" lon="3.10837">
        <ele>26.09</ele>
        <time>2015-03-08T10:54:24Z</time>
      </trkpt>
      <trkpt lat="50.74496" lon="3.10809">
        <ele>26.57</ele>
        <time>2015-03-08T10:54:33Z</time>
      </trkpt>
      <trkpt lat="50.74506" lon="3.10787">
        <ele>26.57</ele>
        <time>2015-03-08T10:54:40Z</time>
      </trkpt>
      <trkpt lat="50.74519" lon="3.10766">
        <ele>26.57</ele>
        <time>2015-03-08T10:54:47Z</time>
      </trkpt>
      <trkpt lat="50.74521" lon="3.10764">
        <ele>26.57</ele>
        <time>2015-03-08T10:54:48Z</time>
      </trkpt>
      <trkpt lat="50.74535" lon="3.1077">
        <ele>26.57</ele>
        <time>2015-03-08T10:54:54Z</time>
      </trkpt>
      <trkpt lat="50.74564" lon="3.10809">
        <ele>25.13</ele>
        <time>2015-03-08T10:55:05Z</time>
      </trkpt>
      <trkpt lat="50.74586" lon="3.10841">
        <ele>24.65</ele>
        <time>2015-03-08T10:55:13Z</time>
      </trkpt>
      <trkpt lat="50.74595" lon="3.10853">
        <ele>24.65</ele>
        <time>2015-03-08T10:55:19Z</time>
      </trkpt>
      <trkpt lat="50.74597" lon="3.10856">
        <ele>25.13</ele>
        <time>2015-03-08T10:55:21Z</time>
      </trkpt>
      <trkpt lat="50.74609" lon="3.10866">
        <ele>25.61</ele>
        <time>2015-03-08T10:55:28Z</time>
      </trkpt>
      <trkpt lat="50.74612" lon="3.10869">
        <ele>25.61</ele>
        <time>2015-03-08T10:55:29Z</time>
      </trkpt>
      <trkpt lat="50.74636" lon="3.10907">
        <ele>24.65</ele>
        <time>2015-03-08T10:55:39Z</time>
      </trkpt>
      <trkpt lat="50.74661" lon="3.10932">
        <ele>25.13</ele>
        <time>2015-03-08T10:55:47Z</time>
      </trkpt>
      <trkpt lat="50.74676" lon="3.1094">
        <ele>25.61</ele>
        <time>2015-03-08T10:55:53Z</time>
      </trkpt>
      <trkpt lat="50.74694" lon="3.10952">
        <ele>25.61</ele>
        <time>2015-03-08T10:56:00Z</time>
      </trkpt>
      <trkpt lat="50.74719" lon="3.10966">
        <ele>25.13</ele>
        <time>2015-03-08T10:56:08Z</time>
      </trkpt>
      <trkpt lat="50.74751" lon="3.10983">
        <ele>25.61</ele>
        <time>2015-03-08T10:56:18Z</time>
      </trkpt>
      <trkpt lat="50.74753" lon="3.10984">
        <ele>25.61</ele>
        <time>2015-03-08T10:56:19Z</time>
      </trkpt>
      <trkpt lat="50.74755" lon="3.10989">
        <ele>25.13</ele>
        <time>2015-03-08T10:56:24Z</time>
      </trkpt>
      <trkpt lat="50.74755" lon="3.10989">
        <ele>25.61</ele>
        <time>2015-03-08T10:56:33Z</time>
      </trkpt>
      <trkpt lat="50.74754" lon="3.10989">
        <ele>25.13</ele>
        <time>2015-03-08T10:57:00Z</time>
      </trkpt>
      <trkpt lat="50.74755" lon="3.10989">
        <ele>25.13</ele>
        <time>2015-03-08T10:57:25Z</time>
      </trkpt>
      <trkpt lat="50.74755" lon="3.10989">
        <ele>25.13</ele>
        <time>2015-03-08T10:57:29Z</time>
      </trkpt>
      <trkpt lat="50.74766" lon="3.10992">
        <ele>24.17</ele>
        <time>2015-03-08T10:57:35Z</time>
      </trkpt>
      <trkpt lat="50.74787" lon="3.11008">
        <ele>23.69</ele>
        <time>2015-03-08T10:57:43Z</time>
      </trkpt>
      <trkpt lat="50.74812" lon="3.11027">
        <ele>23.21</ele>
        <time>2015-03-08T10:57:51Z</time>
      </trkpt>
      <trkpt lat="50.74848" lon="3.11058">
        <ele>23.21</ele>
        <time>2015-03-08T10:58:01Z</time>
      </trkpt>
      <trkpt lat="50.74886" lon="3.11084">
        <ele>22.73</ele>
        <time>2015-03-08T10:58:10Z</time>
      </trkpt>
      <trkpt lat="50.74917" lon="3.11108">
        <ele>22.73</ele>
        <time>2015-03-08T10:58:18Z</time>
      </trkpt>
      <trkpt lat="50.74943" lon="3.11129">
        <ele>21.77</ele>
        <time>2015-03-08T10:58:25Z</time>
      </trkpt>
      <trkpt lat="50.74952" lon="3.11139">
        <ele>21.77</ele>
        <time>2015-03-08T10:58:28Z</time>
      </trkpt>
      <trkpt lat="50.74978" lon="3.11161">
        <ele>20.81</ele>
        <time>2015-03-08T10:58:35Z</time>
      </trkpt>
      <trkpt lat="50.74984" lon="3.1117">
        <ele>20.81</ele>
        <time>2015-03-08T10:58:37Z</time>
      </trkpt>
      <trkpt lat="50.74993" lon="3.11192">
        <ele>20.81</ele>
        <time>2015-03-08T10:58:41Z</time>
      </trkpt>
      <trkpt lat="50.75012" lon="3.11224">
        <ele>19.84</ele>
        <time>2015-03-08T10:58:48Z</time>
      </trkpt>
      <trkpt lat="50.7504" lon="3.11278">
        <ele>18.88</ele>
        <time>2015-03-08T10:58:59Z</time>
      </trkpt>
      <trkpt lat="50.75049" lon="3.11302">
        <ele>19.36</ele>
        <time>2015-03-08T10:59:04Z</time>
      </trkpt>
      <trkpt lat="50.75048" lon="3.11307">
        <ele>19.36</ele>
        <time>2015-03-08T10:59:07Z</time>
      </trkpt>
      <trkpt lat="50.75052" lon="3.1131">
        <ele>18.88</ele>
        <time>2015-03-08T10:59:11Z</time>
      </trkpt>
      <trkpt lat="50.75073" lon="3.11297">
        <ele>18.88</ele>
        <time>2015-03-08T10:59:18Z</time>
      </trkpt>
      <trkpt lat="50.75109" lon="3.11284">
        <ele>19.36</ele>
        <time>2015-03-08T10:59:26Z</time>
      </trkpt>
      <trkpt lat="50.75124" lon="3.1128">
        <ele>19.36</ele>
        <time>2015-03-08T10:59:29Z</time>
      </trkpt>
      <trkpt lat="50.75152" lon="3.11258">
        <ele>19.84</ele>
        <time>2015-03-08T10:59:35Z</time>
      </trkpt>
      <trkpt lat="50.75155" lon="3.11252">
        <ele>19.84</ele>
        <time>2015-03-08T10:59:36Z</time>
      </trkpt>
      <trkpt lat="50.75188" lon="3.11192">
        <ele>19.84</ele>
        <time>2015-03-08T10:59:45Z</time>
      </trkpt>
      <trkpt lat="50.75206" lon="3.11173">
        <ele>19.36</ele>
        <time>2015-03-08T10:59:49Z</time>
      </trkpt>
      <trkpt lat="50.75243" lon="3.11164">
        <ele>19.84</ele>
        <time>2015-03-08T10:59:56Z</time>
      </trkpt>
      <trkpt lat="50.7526" lon="3.11171">
        <ele>19.84</ele>
        <time>2015-03-08T11:00:00Z</time>
      </trkpt>
      <trkpt lat="50.7527" lon="3.11198">
        <ele>20.81</ele>
        <time>2015-03-08T11:00:04Z</time>
      </trkpt>
      <trkpt lat="50.75296" lon="3.11254">
        <ele>20.81</ele>
        <time>2015-03-08T11:00:13Z</time>
      </trkpt>
      <trkpt lat="50.7533" lon="3.11296">
        <ele>20.81</ele>
        <time>2015-03-08T11:00:21Z</time>
      </trkpt>
      <trkpt lat="50.75343" lon="3.11308">
        <ele>21.77</ele>
        <time>2015-03-08T11:00:25Z</time>
      </trkpt>
      <trkpt lat="50.75344" lon="3.11305">
        <ele>22.25</ele>
        <time>2015-03-08T11:00:30Z</time>
      </trkpt>
      <trkpt lat="50.75343" lon="3.11305">
        <ele>22.73</ele>
        <time>2015-03-08T11:00:36Z</time>
      </trkpt>
      <trkpt lat="50.75342" lon="3.11303">
        <ele>22.73</ele>
        <time>2015-03-08T11:00:42Z</time>
      </trkpt>
      <trkpt lat="50.75342" lon="3.11312">
        <ele>23.21</ele>
        <time>2015-03-08T11:00:47Z</time>
      </trkpt>
      <trkpt lat="50.75344" lon="3.11316">
        <ele>23.21</ele>
        <time>2015-03-08T11:00:48Z</time>
      </trkpt>
      <trkpt lat="50.75361" lon="3.11341">
        <ele>22.73</ele>
        <time>2015-03-08T11:00:54Z</time>
      </trkpt>
      <trkpt lat="50.75378" lon="3.11377">
        <ele>22.73</ele>
        <time>2015-03-08T11:01:01Z</time>
      </trkpt>
      <trkpt lat="50.75402" lon="3.11424">
        <ele>22.73</ele>
        <time>2015-03-08T11:01:10Z</time>
      </trkpt>
      <trkpt lat="50.7541" lon="3.11435">
        <ele>23.21</ele>
        <time>2015-03-08T11:01:13Z</time>
      </trkpt>
      <trkpt lat="50.75426" lon="3.11423">
        <ele>22.73</ele>
        <time>2015-03-08T11:01:18Z</time>
      </trkpt>
      <trkpt lat="50.75454" lon="3.11386">
        <ele>22.73</ele>
        <time>2015-03-08T11:01:26Z</time>
      </trkpt>
      <trkpt lat="50.75492" lon="3.11353">
        <ele>22.73</ele>
        <time>2015-03-08T11:01:34Z</time>
      </trkpt>
      <trkpt lat="50.75498" lon="3.1135">
        <ele>22.73</ele>
        <time>2015-03-08T11:01:35Z</time>
      </trkpt>
      <trkpt lat="50.75548" lon="3.11343">
        <ele>22.73</ele>
        <time>2015-03-08T11:01:44Z</time>
      </trkpt>
      <trkpt lat="50.75588" lon="3.11349">
        <ele>23.21</ele>
        <time>2015-03-08T11:01:51Z</time>
      </trkpt>
      <trkpt lat="50.75615" lon="3.11359">
        <ele>23.21</ele>
        <time>2015-03-08T11:01:57Z</time>
      </trkpt>
      <trkpt lat="50.75617" lon="3.11362">
        <ele>23.21</ele>
        <time>2015-03-08T11:01:58Z</time>
      </trkpt>
      <trkpt lat="50.7562" lon="3.11362">
        <ele>23.21</ele>
        <time>2015-03-08T11:01:59Z</time>
      </trkpt>
      <trkpt lat="50.75623" lon="3.11358">
        <ele>23.21</ele>
        <time>2015-03-08T11:02:00Z</time>
      </trkpt>
      <trkpt lat="50.75625" lon="3.11353">
        <ele>23.21</ele>
        <time>2015-03-08T11:02:01Z</time>
      </trkpt>
      <trkpt lat="50.75628" lon="3.11347">
        <ele>22.73</ele>
        <time>2015-03-08T11:02:02Z</time>
      </trkpt>
      <trkpt lat="50.75633" lon="3.11335">
        <ele>22.25</ele>
        <time>2015-03-08T11:02:04Z</time>
      </trkpt>
      <trkpt lat="50.75637" lon="3.11329">
        <ele>21.77</ele>
        <time>2015-03-08T11:02:05Z</time>
      </trkpt>
      <trkpt lat="50.7564" lon="3.11323">
        <ele>21.77</ele>
        <time>2015-03-08T11:02:06Z</time>
      </trkpt>
      <trkpt lat="50.75671" lon="3.11272">
        <ele>22.73</ele>
        <time>2015-03-08T11:02:14Z</time>
      </trkpt>
      <trkpt lat="50.75709" lon="3.11216">
        <ele>22.73</ele>
        <time>2015-03-08T11:02:23Z</time>
      </trkpt>
      <trkpt lat="50.75718" lon="3.11205">
        <ele>22.25</ele>
        <time>2015-03-08T11:02:25Z</time>
      </trkpt>
      <trkpt lat="50.75743" lon="3.11179">
        <ele>22.25</ele>
        <time>2015-03-08T11:02:30Z</time>
      </trkpt>
      <trkpt lat="50.75749" lon="3.11176">
        <ele>21.77</ele>
        <time>2015-03-08T11:02:31Z</time>
      </trkpt>
      <trkpt lat="50.75767" lon="3.11167">
        <ele>21.29</ele>
        <time>2015-03-08T11:02:34Z</time>
      </trkpt>
      <trkpt lat="50.75806" lon="3.11159">
        <ele>21.29</ele>
        <time>2015-03-08T11:02:40Z</time>
      </trkpt>
      <trkpt lat="50.75855" lon="3.11171">
        <ele>21.77</ele>
        <time>2015-03-08T11:02:48Z</time>
      </trkpt>
      <trkpt lat="50.75901" lon="3.11188">
        <ele>21.29</ele>
        <time>2015-03-08T11:02:56Z</time>
      </trkpt>
      <trkpt lat="50.75912" lon="3.1119">
        <ele>20.81</ele>
        <time>2015-03-08T11:02:58Z</time>
      </trkpt>
      <trkpt lat="50.75926" lon="3.11195">
        <ele>21.29</ele>
        <time>2015-03-08T11:03:01Z</time>
      </trkpt>
      <trkpt lat="50.7593" lon="3.11198">
        <ele>21.29</ele>
        <time>2015-03-08T11:03:02Z</time>
      </trkpt>
      <trkpt lat="50.75939" lon="3.11202">
        <ele>21.29</ele>
        <time>2015-03-08T11:03:05Z</time>
      </trkpt>
      <trkpt lat="50.75942" lon="3.11199">
        <ele>21.29</ele>
        <time>2015-03-08T11:03:06Z</time>
      </trkpt>
      <trkpt lat="50.75944" lon="3.11195">
        <ele>20.81</ele>
        <time>2015-03-08T11:03:07Z</time>
      </trkpt>
      <trkpt lat="50.75946" lon="3.1119">
        <ele>20.32</ele>
        <time>2015-03-08T11:03:08Z</time>
      </trkpt>
      <trkpt lat="50.75948" lon="3.11185">
        <ele>20.32</ele>
        <time>2015-03-08T11:03:09Z</time>
      </trkpt>
      <trkpt lat="50.75953" lon="3.11174">
        <ele>20.32</ele>
        <time>2015-03-08T11:03:12Z</time>
      </trkpt>
      <trkpt lat="50.75956" lon="3.11174">
        <ele>20.32</ele>
        <time>2015-03-08T11:03:13Z</time>
      </trkpt>
      <trkpt lat="50.75958" lon="3.11176">
        <ele>20.32</ele>
        <time>2015-03-08T11:03:14Z</time>
      </trkpt>
      <trkpt lat="50.7596" lon="3.11179">
        <ele>20.32</ele>
        <time>2015-03-08T11:03:15Z</time>
      </trkpt>
      <trkpt lat="50.75963" lon="3.11182">
        <ele>19.84</ele>
        <time>2015-03-08T11:03:16Z</time>
      </trkpt>
      <trkpt lat="50.75973" lon="3.11192">
        <ele>19.36</ele>
        <time>2015-03-08T11:03:19Z</time>
      </trkpt>
      <trkpt lat="50.75991" lon="3.11211">
        <ele>18.88</ele>
        <time>2015-03-08T11:03:24Z</time>
      </trkpt>
      <trkpt lat="50.76006" lon="3.11226">
        <ele>19.36</ele>
        <time>2015-03-08T11:03:28Z</time>
      </trkpt>
      <trkpt lat="50.7601" lon="3.1123">
        <ele>19.36</ele>
        <time>2015-03-08T11:03:29Z</time>
      </trkpt>
      <trkpt lat="50.76014" lon="3.11235">
        <ele>19.36</ele>
        <time>2015-03-08T11:03:30Z</time>
      </trkpt>
      <trkpt lat="50.76028" lon="3.11256">
        <ele>19.36</ele>
        <time>2015-03-08T11:03:34Z</time>
      </trkpt>
      <trkpt lat="50.76031" lon="3.11263">
        <ele>19.84</ele>
        <time>2015-03-08T11:03:35Z</time>
      </trkpt>
      <trkpt lat="50.76053" lon="3.11325">
        <ele>20.32</ele>
        <time>2015-03-08T11:03:44Z</time>
      </trkpt>
      <trkpt lat="50.76071" lon="3.11377">
        <ele>19.84</ele>
        <time>2015-03-08T11:03:51Z</time>
      </trkpt>
      <trkpt lat="50.76083" lon="3.11413">
        <ele>19.84</ele>
        <time>2015-03-08T11:03:56Z</time>
      </trkpt>
      <trkpt lat="50.76104" lon="3.11479">
        <ele>19.36</ele>
        <time>2015-03-08T11:04:05Z</time>
      </trkpt>
      <trkpt lat="50.76133" lon="3.1154">
        <ele>19.84</ele>
        <time>2015-03-08T11:04:14Z</time>
      </trkpt>
      <trkpt lat="50.7616" lon="3.11609">
        <ele>20.32</ele>
        <time>2015-03-08T11:04:24Z</time>
      </trkpt>
      <trkpt lat="50.76186" lon="3.11674">
        <ele>21.29</ele>
        <time>2015-03-08T11:04:34Z</time>
      </trkpt>
      <trkpt lat="50.76212" lon="3.11738">
        <ele>23.21</ele>
        <time>2015-03-08T11:04:45Z</time>
      </trkpt>
      <trkpt lat="50.76231" lon="3.11788">
        <ele>24.65</ele>
        <time>2015-03-08T11:04:54Z</time>
      </trkpt>
      <trkpt lat="50.76248" lon="3.11831">
        <ele>25.61</ele>
        <time>2015-03-08T11:05:03Z</time>
      </trkpt>
      <trkpt lat="50.76263" lon="3.11869">
        <ele>26.09</ele>
        <time>2015-03-08T11:05:12Z</time>
      </trkpt>
      <trkpt lat="50.76278" lon="3.11898">
        <ele>27.05</ele>
        <time>2015-03-08T11:05:21Z</time>
      </trkpt>
      <trkpt lat="50.76289" lon="3.1192">
        <ele>27.05</ele>
        <time>2015-03-08T11:05:27Z</time>
      </trkpt>
      <trkpt lat="50.76306" lon="3.11955">
        <ele>27.53</ele>
        <time>2015-03-08T11:05:35Z</time>
      </trkpt>
      <trkpt lat="50.7632" lon="3.11975">
        <ele>27.05</ele>
        <time>2015-03-08T11:05:40Z</time>
      </trkpt>
      <trkpt lat="50.76323" lon="3.1198">
        <ele>26.57</ele>
        <time>2015-03-08T11:05:41Z</time>
      </trkpt>
      <trkpt lat="50.76326" lon="3.11985">
        <ele>26.57</ele>
        <time>2015-03-08T11:05:42Z</time>
      </trkpt>
      <trkpt lat="50.76337" lon="3.12005">
        <ele>26.57</ele>
        <time>2015-03-08T11:05:46Z</time>
      </trkpt>
      <trkpt lat="50.76341" lon="3.12017">
        <ele>26.09</ele>
        <time>2015-03-08T11:05:48Z</time>
      </trkpt>
      <trkpt lat="50.76342" lon="3.12024">
        <ele>26.09</ele>
        <time>2015-03-08T11:05:49Z</time>
      </trkpt>
      <trkpt lat="50.76343" lon="3.12031">
        <ele>26.09</ele>
        <time>2015-03-08T11:05:50Z</time>
      </trkpt>
      <trkpt lat="50.76346" lon="3.12093">
        <ele>25.13</ele>
        <time>2015-03-08T11:05:58Z</time>
      </trkpt>
      <trkpt lat="50.76347" lon="3.12098">
        <ele>25.13</ele>
        <time>2015-03-08T11:05:59Z</time>
      </trkpt>
      <trkpt lat="50.7635" lon="3.12101">
        <ele>24.65</ele>
        <time>2015-03-08T11:06:00Z</time>
      </trkpt>
      <trkpt lat="50.76354" lon="3.12101">
        <ele>24.65</ele>
        <time>2015-03-08T11:06:01Z</time>
      </trkpt>
      <trkpt lat="50.76358" lon="3.12101">
        <ele>24.65</ele>
        <time>2015-03-08T11:06:02Z</time>
      </trkpt>
      <trkpt lat="50.76362" lon="3.12101">
        <ele>24.65</ele>
        <time>2015-03-08T11:06:03Z</time>
      </trkpt>
      <trkpt lat="50.76365" lon="3.121">
        <ele>24.17</ele>
        <time>2015-03-08T11:06:04Z</time>
      </trkpt>
      <trkpt lat="50.7637" lon="3.12102">
        <ele>23.69</ele>
        <time>2015-03-08T11:06:08Z</time>
      </trkpt>
      <trkpt lat="50.76371" lon="3.12105">
        <ele>24.17</ele>
        <time>2015-03-08T11:06:13Z</time>
      </trkpt>
      <trkpt lat="50.76371" lon="3.12106">
        <ele>23.69</ele>
        <time>2015-03-08T11:06:14Z</time>
      </trkpt>
      <trkpt lat="50.76372" lon="3.12109">
        <ele>23.69</ele>
        <time>2015-03-08T11:06:15Z</time>
      </trkpt>
      <trkpt lat="50.76379" lon="3.12123">
        <ele>23.21</ele>
        <time>2015-03-08T11:06:19Z</time>
      </trkpt>
      <trkpt lat="50.76383" lon="3.12124">
        <ele>23.21</ele>
        <time>2015-03-08T11:06:20Z</time>
      </trkpt>
      <trkpt lat="50.76386" lon="3.12124">
        <ele>22.73</ele>
        <time>2015-03-08T11:06:21Z</time>
      </trkpt>
      <trkpt lat="50.76418" lon="3.12129">
        <ele>22.25</ele>
        <time>2015-03-08T11:06:28Z</time>
      </trkpt>
      <trkpt lat="50.7646" lon="3.12138">
        <ele>21.77</ele>
        <time>2015-03-08T11:06:36Z</time>
      </trkpt>
      <trkpt lat="50.76474" lon="3.12144">
        <ele>21.77</ele>
        <time>2015-03-08T11:06:39Z</time>
      </trkpt>
      <trkpt lat="50.76479" lon="3.12146">
        <ele>21.77</ele>
        <time>2015-03-08T11:06:40Z</time>
      </trkpt>
      <trkpt lat="50.76489" lon="3.12151">
        <ele>21.77</ele>
        <time>2015-03-08T11:06:42Z</time>
      </trkpt>
      <trkpt lat="50.76493" lon="3.12155">
        <ele>21.77</ele>
        <time>2015-03-08T11:06:43Z</time>
      </trkpt>
      <trkpt lat="50.76497" lon="3.1216">
        <ele>21.77</ele>
        <time>2015-03-08T11:06:44Z</time>
      </trkpt>
      <trkpt lat="50.76501" lon="3.12166">
        <ele>21.77</ele>
        <time>2015-03-08T11:06:45Z</time>
      </trkpt>
      <trkpt lat="50.76504" lon="3.12172">
        <ele>21.77</ele>
        <time>2015-03-08T11:06:46Z</time>
      </trkpt>
      <trkpt lat="50.76513" lon="3.12188">
        <ele>21.29</ele>
        <time>2015-03-08T11:06:49Z</time>
      </trkpt>
      <trkpt lat="50.76514" lon="3.12193">
        <ele>21.29</ele>
        <time>2015-03-08T11:06:50Z</time>
      </trkpt>
      <trkpt lat="50.76516" lon="3.12198">
        <ele>20.81</ele>
        <time>2015-03-08T11:06:51Z</time>
      </trkpt>
      <trkpt lat="50.76519" lon="3.12208">
        <ele>20.32</ele>
        <time>2015-03-08T11:06:54Z</time>
      </trkpt>
      <trkpt lat="50.76521" lon="3.1221">
        <ele>20.32</ele>
        <time>2015-03-08T11:06:55Z</time>
      </trkpt>
      <trkpt lat="50.76522" lon="3.12212">
        <ele>20.32</ele>
        <time>2015-03-08T11:06:56Z</time>
      </trkpt>
      <trkpt lat="50.76524" lon="3.12214">
        <ele>20.32</ele>
        <time>2015-03-08T11:06:57Z</time>
      </trkpt>
      <trkpt lat="50.76526" lon="3.12215">
        <ele>20.32</ele>
        <time>2015-03-08T11:06:58Z</time>
      </trkpt>
      <trkpt lat="50.76536" lon="3.1223">
        <ele>21.29</ele>
        <time>2015-03-08T11:07:03Z</time>
      </trkpt>
      <trkpt lat="50.76536" lon="3.12235">
        <ele>21.77</ele>
        <time>2015-03-08T11:07:04Z</time>
      </trkpt>
      <trkpt lat="50.76534" lon="3.1224">
        <ele>21.77</ele>
        <time>2015-03-08T11:07:05Z</time>
      </trkpt>
      <trkpt lat="50.7652" lon="3.12279">
        <ele>22.73</ele>
        <time>2015-03-08T11:07:11Z</time>
      </trkpt>
      <trkpt lat="50.76496" lon="3.12343">
        <ele>21.29</ele>
        <time>2015-03-08T11:07:19Z</time>
      </trkpt>
      <trkpt lat="50.76474" lon="3.124">
        <ele>21.29</ele>
        <time>2015-03-08T11:07:26Z</time>
      </trkpt>
      <trkpt lat="50.76449" lon="3.12465">
        <ele>21.29</ele>
        <time>2015-03-08T11:07:34Z</time>
      </trkpt>
      <trkpt lat="50.7644" lon="3.1249">
        <ele>21.77</ele>
        <time>2015-03-08T11:07:37Z</time>
      </trkpt>
      <trkpt lat="50.76415" lon="3.12554">
        <ele>21.77</ele>
        <time>2015-03-08T11:07:45Z</time>
      </trkpt>
      <trkpt lat="50.76402" lon="3.12592">
        <ele>21.77</ele>
        <time>2015-03-08T11:07:50Z</time>
      </trkpt>
      <trkpt lat="50.764" lon="3.126">
        <ele>21.77</ele>
        <time>2015-03-08T11:07:51Z</time>
      </trkpt>
      <trkpt lat="50.764" lon="3.12609">
        <ele>21.77</ele>
        <time>2015-03-08T11:07:52Z</time>
      </trkpt>
      <trkpt lat="50.76402" lon="3.12617">
        <ele>21.77</ele>
        <time>2015-03-08T11:07:53Z</time>
      </trkpt>
      <trkpt lat="50.76404" lon="3.12625">
        <ele>21.29</ele>
        <time>2015-03-08T11:07:54Z</time>
      </trkpt>
      <trkpt lat="50.76406" lon="3.12634">
        <ele>21.29</ele>
        <time>2015-03-08T11:07:55Z</time>
      </trkpt>
      <trkpt lat="50.76406" lon="3.12642">
        <ele>21.29</ele>
        <time>2015-03-08T11:07:56Z</time>
      </trkpt>
      <trkpt lat="50.76406" lon="3.12651">
        <ele>20.81</ele>
        <time>2015-03-08T11:07:57Z</time>
      </trkpt>
      <trkpt lat="50.76404" lon="3.12675">
        <ele>21.29</ele>
        <time>2015-03-08T11:08:00Z</time>
      </trkpt>
      <trkpt lat="50.76401" lon="3.12682">
        <ele>20.81</ele>
        <time>2015-03-08T11:08:01Z</time>
      </trkpt>
      <trkpt lat="50.76398" lon="3.12687">
        <ele>20.81</ele>
        <time>2015-03-08T11:08:02Z</time>
      </trkpt>
      <trkpt lat="50.76394" lon="3.12692">
        <ele>20.81</ele>
        <time>2015-03-08T11:08:03Z</time>
      </trkpt>
      <trkpt lat="50.7639" lon="3.12696">
        <ele>20.81</ele>
        <time>2015-03-08T11:08:04Z</time>
      </trkpt>
      <trkpt lat="50.76385" lon="3.12699">
        <ele>21.29</ele>
        <time>2015-03-08T11:08:05Z</time>
      </trkpt>
      <trkpt lat="50.76381" lon="3.127">
        <ele>21.29</ele>
        <time>2015-03-08T11:08:06Z</time>
      </trkpt>
      <trkpt lat="50.76363" lon="3.12706">
        <ele>21.29</ele>
        <time>2015-03-08T11:08:10Z</time>
      </trkpt>
      <trkpt lat="50.76359" lon="3.12708">
        <ele>20.81</ele>
        <time>2015-03-08T11:08:11Z</time>
      </trkpt>
      <trkpt lat="50.76355" lon="3.12711">
        <ele>20.81</ele>
        <time>2015-03-08T11:08:12Z</time>
      </trkpt>
      <trkpt lat="50.76352" lon="3.12715">
        <ele>20.32</ele>
        <time>2015-03-08T11:08:13Z</time>
      </trkpt>
      <trkpt lat="50.76349" lon="3.1272">
        <ele>19.84</ele>
        <time>2015-03-08T11:08:14Z</time>
      </trkpt>
      <trkpt lat="50.76347" lon="3.12725">
        <ele>19.84</ele>
        <time>2015-03-08T11:08:15Z</time>
      </trkpt>
      <trkpt lat="50.76341" lon="3.12737">
        <ele>19.36</ele>
        <time>2015-03-08T11:08:17Z</time>
      </trkpt>
      <trkpt lat="50.76328" lon="3.1277">
        <ele>19.36</ele>
        <time>2015-03-08T11:08:22Z</time>
      </trkpt>
      <trkpt lat="50.76326" lon="3.12777">
        <ele>18.88</ele>
        <time>2015-03-08T11:08:23Z</time>
      </trkpt>
      <trkpt lat="50.76323" lon="3.12784">
        <ele>18.88</ele>
        <time>2015-03-08T11:08:24Z</time>
      </trkpt>
      <trkpt lat="50.76317" lon="3.12797">
        <ele>18.88</ele>
        <time>2015-03-08T11:08:26Z</time>
      </trkpt>
      <trkpt lat="50.76314" lon="3.12805">
        <ele>19.36</ele>
        <time>2015-03-08T11:08:27Z</time>
      </trkpt>
      <trkpt lat="50.76305" lon="3.12827">
        <ele>19.36</ele>
        <time>2015-03-08T11:08:30Z</time>
      </trkpt>
      <trkpt lat="50.76302" lon="3.12834">
        <ele>19.36</ele>
        <time>2015-03-08T11:08:31Z</time>
      </trkpt>
      <trkpt lat="50.76282" lon="3.12877">
        <ele>18.4</ele>
        <time>2015-03-08T11:08:38Z</time>
      </trkpt>
      <trkpt lat="50.76268" lon="3.12907">
        <ele>18.88</ele>
        <time>2015-03-08T11:08:46Z</time>
      </trkpt>
      <trkpt lat="50.76255" lon="3.12936">
        <ele>19.84</ele>
        <time>2015-03-08T11:08:54Z</time>
      </trkpt>
      <trkpt lat="50.76242" lon="3.12965">
        <ele>20.32</ele>
        <time>2015-03-08T11:09:01Z</time>
      </trkpt>
      <trkpt lat="50.76227" lon="3.13">
        <ele>20.32</ele>
        <time>2015-03-08T11:09:10Z</time>
      </trkpt>
      <trkpt lat="50.7622" lon="3.13019">
        <ele>20.32</ele>
        <time>2015-03-08T11:09:16Z</time>
      </trkpt>
      <trkpt lat="50.7621" lon="3.13033">
        <ele>20.32</ele>
        <time>2015-03-08T11:09:22Z</time>
      </trkpt>
      <trkpt lat="50.76197" lon="3.13058">
        <ele>20.32</ele>
        <time>2015-03-08T11:09:30Z</time>
      </trkpt>
      <trkpt lat="50.76184" lon="3.13084">
        <ele>20.32</ele>
        <time>2015-03-08T11:09:37Z</time>
      </trkpt>
      <trkpt lat="50.76174" lon="3.13108">
        <ele>19.84</ele>
        <time>2015-03-08T11:09:43Z</time>
      </trkpt>
      <trkpt lat="50.76173" lon="3.1311">
        <ele>19.36</ele>
        <time>2015-03-08T11:09:44Z</time>
      </trkpt>
      <trkpt lat="50.76171" lon="3.13112">
        <ele>19.36</ele>
        <time>2015-03-08T11:09:45Z</time>
      </trkpt>
      <trkpt lat="50.7616" lon="3.13129">
        <ele>19.36</ele>
        <time>2015-03-08T11:09:51Z</time>
      </trkpt>
      <trkpt lat="50.76143" lon="3.13159">
        <ele>19.84</ele>
        <time>2015-03-08T11:09:59Z</time>
      </trkpt>
      <trkpt lat="50.76123" lon="3.13188">
        <ele>20.32</ele>
        <time>2015-03-08T11:10:07Z</time>
      </trkpt>
      <trkpt lat="50.76111" lon="3.13207">
        <ele>19.36</ele>
        <time>2015-03-08T11:10:12Z</time>
      </trkpt>
      <trkpt lat="50.76103" lon="3.13221">
        <ele>19.36</ele>
        <time>2015-03-08T11:10:15Z</time>
      </trkpt>
      <trkpt lat="50.76083" lon="3.13256">
        <ele>18.88</ele>
        <time>2015-03-08T11:10:22Z</time>
      </trkpt>
      <trkpt lat="50.7608" lon="3.13261">
        <ele>18.88</ele>
        <time>2015-03-08T11:10:23Z</time>
      </trkpt>
      <trkpt lat="50.76059" lon="3.13291">
        <ele>19.36</ele>
        <time>2015-03-08T11:10:30Z</time>
      </trkpt>
      <trkpt lat="50.76036" lon="3.13321">
        <ele>19.84</ele>
        <time>2015-03-08T11:10:37Z</time>
      </trkpt>
      <trkpt lat="50.76013" lon="3.13353">
        <ele>20.81</ele>
        <time>2015-03-08T11:10:45Z</time>
      </trkpt>
      <trkpt lat="50.75994" lon="3.13379">
        <ele>21.77</ele>
        <time>2015-03-08T11:10:52Z</time>
      </trkpt>
      <trkpt lat="50.75977" lon="3.13398">
        <ele>21.77</ele>
        <time>2015-03-08T11:10:59Z</time>
      </trkpt>
      <trkpt lat="50.75974" lon="3.13407">
        <ele>21.77</ele>
        <time>2015-03-08T11:11:01Z</time>
      </trkpt>
      <trkpt lat="50.75975" lon="3.13412">
        <ele>21.77</ele>
        <time>2015-03-08T11:11:02Z</time>
      </trkpt>
      <trkpt lat="50.75977" lon="3.13417">
        <ele>21.77</ele>
        <time>2015-03-08T11:11:03Z</time>
      </trkpt>
      <trkpt lat="50.75979" lon="3.13423">
        <ele>21.77</ele>
        <time>2015-03-08T11:11:04Z</time>
      </trkpt>
      <trkpt lat="50.75982" lon="3.13429">
        <ele>21.29</ele>
        <time>2015-03-08T11:11:05Z</time>
      </trkpt>
      <trkpt lat="50.75992" lon="3.13445">
        <ele>20.81</ele>
        <time>2015-03-08T11:11:08Z</time>
      </trkpt>
      <trkpt lat="50.76024" lon="3.13492">
        <ele>20.81</ele>
        <time>2015-03-08T11:11:16Z</time>
      </trkpt>
      <trkpt lat="50.76042" lon="3.13523">
        <ele>19.84</ele>
        <time>2015-03-08T11:11:21Z</time>
      </trkpt>
      <trkpt lat="50.76068" lon="3.13582">
        <ele>19.84</ele>
        <time>2015-03-08T11:11:30Z</time>
      </trkpt>
      <trkpt lat="50.761" lon="3.13631">
        <ele>21.29</ele>
        <time>2015-03-08T11:11:39Z</time>
      </trkpt>
      <trkpt lat="50.76105" lon="3.13641">
        <ele>21.77</ele>
        <time>2015-03-08T11:11:41Z</time>
      </trkpt>
      <trkpt lat="50.76105" lon="3.13645">
        <ele>21.77</ele>
        <time>2015-03-08T11:11:42Z</time>
      </trkpt>
      <trkpt lat="50.76102" lon="3.13649">
        <ele>22.25</ele>
        <time>2015-03-08T11:11:43Z</time>
      </trkpt>
      <trkpt lat="50.76099" lon="3.13651">
        <ele>22.25</ele>
        <time>2015-03-08T11:11:44Z</time>
      </trkpt>
      <trkpt lat="50.76095" lon="3.13652">
        <ele>22.25</ele>
        <time>2015-03-08T11:11:45Z</time>
      </trkpt>
      <trkpt lat="50.76092" lon="3.13653">
        <ele>22.25</ele>
        <time>2015-03-08T11:11:46Z</time>
      </trkpt>
      <trkpt lat="50.76071" lon="3.13666">
        <ele>21.29</ele>
        <time>2015-03-08T11:11:52Z</time>
      </trkpt>
      <trkpt lat="50.76068" lon="3.1367">
        <ele>21.29</ele>
        <time>2015-03-08T11:11:53Z</time>
      </trkpt>
      <trkpt lat="50.76059" lon="3.13683">
        <ele>21.29</ele>
        <time>2015-03-08T11:11:56Z</time>
      </trkpt>
      <trkpt lat="50.76042" lon="3.13734">
        <ele>21.29</ele>
        <time>2015-03-08T11:12:04Z</time>
      </trkpt>
      <trkpt lat="50.7604" lon="3.13741">
        <ele>21.29</ele>
        <time>2015-03-08T11:12:05Z</time>
      </trkpt>
      <trkpt lat="50.76031" lon="3.13772">
        <ele>21.77</ele>
        <time>2015-03-08T11:12:09Z</time>
      </trkpt>
      <trkpt lat="50.76014" lon="3.13812">
        <ele>20.81</ele>
        <time>2015-03-08T11:12:15Z</time>
      </trkpt>
      <trkpt lat="50.76001" lon="3.13834">
        <ele>20.81</ele>
        <time>2015-03-08T11:12:19Z</time>
      </trkpt>
      <trkpt lat="50.75981" lon="3.13861">
        <ele>20.81</ele>
        <time>2015-03-08T11:12:25Z</time>
      </trkpt>
      <trkpt lat="50.75954" lon="3.13893">
        <ele>20.32</ele>
        <time>2015-03-08T11:12:33Z</time>
      </trkpt>
      <trkpt lat="50.75939" lon="3.13909">
        <ele>20.32</ele>
        <time>2015-03-08T11:12:37Z</time>
      </trkpt>
      <trkpt lat="50.75915" lon="3.13933">
        <ele>20.32</ele>
        <time>2015-03-08T11:12:44Z</time>
      </trkpt>
      <trkpt lat="50.75896" lon="3.13954">
        <ele>19.84</ele>
        <time>2015-03-08T11:12:50Z</time>
      </trkpt>
      <trkpt lat="50.75879" lon="3.13973">
        <ele>19.84</ele>
        <time>2015-03-08T11:12:56Z</time>
      </trkpt>
      <trkpt lat="50.75863" lon="3.13991">
        <ele>19.36</ele>
        <time>2015-03-08T11:13:02Z</time>
      </trkpt>
      <trkpt lat="50.75846" lon="3.14008">
        <ele>19.84</ele>
        <time>2015-03-08T11:13:08Z</time>
      </trkpt>
      <trkpt lat="50.75826" lon="3.14024">
        <ele>19.84</ele>
        <time>2015-03-08T11:13:15Z</time>
      </trkpt>
      <trkpt lat="50.75812" lon="3.14037">
        <ele>19.84</ele>
        <time>2015-03-08T11:13:20Z</time>
      </trkpt>
      <trkpt lat="50.75801" lon="3.14051">
        <ele>20.81</ele>
        <time>2015-03-08T11:13:25Z</time>
      </trkpt>
      <trkpt lat="50.75788" lon="3.14063">
        <ele>20.32</ele>
        <time>2015-03-08T11:13:31Z</time>
      </trkpt>
      <trkpt lat="50.75773" lon="3.14071">
        <ele>21.29</ele>
        <time>2015-03-08T11:13:38Z</time>
      </trkpt>
      <trkpt lat="50.75757" lon="3.14077">
        <ele>20.81</ele>
        <time>2015-03-08T11:13:45Z</time>
      </trkpt>
      <trkpt lat="50.75743" lon="3.14082">
        <ele>20.32</ele>
        <time>2015-03-08T11:13:51Z</time>
      </trkpt>
      <trkpt lat="50.7574" lon="3.14085">
        <ele>20.32</ele>
        <time>2015-03-08T11:13:53Z</time>
      </trkpt>
      <trkpt lat="50.7573" lon="3.14097">
        <ele>21.77</ele>
        <time>2015-03-08T11:13:59Z</time>
      </trkpt>
      <trkpt lat="50.75721" lon="3.14106">
        <ele>21.77</ele>
        <time>2015-03-08T11:14:04Z</time>
      </trkpt>
      <trkpt lat="50.75703" lon="3.14127">
        <ele>21.77</ele>
        <time>2015-03-08T11:14:14Z</time>
      </trkpt>
      <trkpt lat="50.75685" lon="3.14149">
        <ele>21.77</ele>
        <time>2015-03-08T11:14:23Z</time>
      </trkpt>
      <trkpt lat="50.75674" lon="3.14161">
        <ele>21.77</ele>
        <time>2015-03-08T11:14:30Z</time>
      </trkpt>
      <trkpt lat="50.75664" lon="3.14172">
        <ele>21.29</ele>
        <time>2015-03-08T11:14:37Z</time>
      </trkpt>
      <trkpt lat="50.75656" lon="3.14183">
        <ele>21.29</ele>
        <time>2015-03-08T11:14:44Z</time>
      </trkpt>
      <trkpt lat="50.75643" lon="3.14197">
        <ele>22.25</ele>
        <time>2015-03-08T11:14:53Z</time>
      </trkpt>
      <trkpt lat="50.7564" lon="3.14202">
        <ele>22.73</ele>
        <time>2015-03-08T11:14:56Z</time>
      </trkpt>
      <trkpt lat="50.7563" lon="3.14212">
        <ele>21.77</ele>
        <time>2015-03-08T11:15:04Z</time>
      </trkpt>
      <trkpt lat="50.75623" lon="3.14221">
        <ele>21.29</ele>
        <time>2015-03-08T11:15:10Z</time>
      </trkpt>
      <trkpt lat="50.75613" lon="3.14232">
        <ele>21.77</ele>
        <time>2015-03-08T11:15:17Z</time>
      </trkpt>
      <trkpt lat="50.75605" lon="3.14241">
        <ele>22.25</ele>
        <time>2015-03-08T11:15:23Z</time>
      </trkpt>
      <trkpt lat="50.75598" lon="3.14252">
        <ele>21.77</ele>
        <time>2015-03-08T11:15:29Z</time>
      </trkpt>
      <trkpt lat="50.75596" lon="3.14253">
        <ele>21.77</ele>
        <time>2015-03-08T11:15:30Z</time>
      </trkpt>
      <trkpt lat="50.75587" lon="3.14245">
        <ele>22.73</ele>
        <time>2015-03-08T11:15:36Z</time>
      </trkpt>
      <trkpt lat="50.75579" lon="3.14237">
        <ele>21.77</ele>
        <time>2015-03-08T11:15:41Z</time>
      </trkpt>
      <trkpt lat="50.75572" lon="3.14252">
        <ele>21.77</ele>
        <time>2015-03-08T11:15:47Z</time>
      </trkpt>
      <trkpt lat="50.75564" lon="3.14274">
        <ele>22.73</ele>
        <time>2015-03-08T11:15:55Z</time>
      </trkpt>
      <trkpt lat="50.7556" lon="3.14286">
        <ele>21.77</ele>
        <time>2015-03-08T11:16:02Z</time>
      </trkpt>
      <trkpt lat="50.75561" lon="3.14291">
        <ele>21.77</ele>
        <time>2015-03-08T11:16:07Z</time>
      </trkpt>
      <trkpt lat="50.75562" lon="3.14291">
        <ele>21.77</ele>
        <time>2015-03-08T11:16:08Z</time>
      </trkpt>
      <trkpt lat="50.75564" lon="3.1429">
        <ele>22.73</ele>
        <time>2015-03-08T11:16:16Z</time>
      </trkpt>
      <trkpt lat="50.75569" lon="3.1429">
        <ele>23.69</ele>
        <time>2015-03-08T11:16:24Z</time>
      </trkpt>
      <trkpt lat="50.75576" lon="3.14292">
        <ele>23.21</ele>
        <time>2015-03-08T11:16:32Z</time>
      </trkpt>
      <trkpt lat="50.75575" lon="3.14295">
        <ele>23.69</ele>
        <time>2015-03-08T11:16:37Z</time>
      </trkpt>
      <trkpt lat="50.75573" lon="3.14299">
        <ele>23.21</ele>
        <time>2015-03-08T11:16:44Z</time>
      </trkpt>
      <trkpt lat="50.75574" lon="3.143">
        <ele>23.21</ele>
        <time>2015-03-08T11:16:52Z</time>
      </trkpt>
      <trkpt lat="50.75573" lon="3.14301">
        <ele>23.21</ele>
        <time>2015-03-08T11:16:57Z</time>
      </trkpt>
      <trkpt lat="50.75567" lon="3.14302">
        <ele>23.69</ele>
        <time>2015-03-08T11:17:04Z</time>
      </trkpt>
      <trkpt lat="50.75567" lon="3.14302">
        <ele>23.69</ele>
        <time>2015-03-08T11:17:06Z</time>
      </trkpt>
      <trkpt lat="50.75564" lon="3.14313">
        <ele>22.25</ele>
        <time>2015-03-08T11:17:14Z</time>
      </trkpt>
      <trkpt lat="50.75561" lon="3.14319">
        <ele>22.25</ele>
        <time>2015-03-08T11:17:20Z</time>
      </trkpt>
      <trkpt lat="50.7556" lon="3.1432">
        <ele>22.25</ele>
        <time>2015-03-08T11:17:22Z</time>
      </trkpt>
      <trkpt lat="50.75554" lon="3.14328">
        <ele>22.25</ele>
        <time>2015-03-08T11:17:29Z</time>
      </trkpt>
      <trkpt lat="50.75554" lon="3.14331">
        <ele>22.25</ele>
        <time>2015-03-08T11:17:31Z</time>
      </trkpt>
      <trkpt lat="50.7555" lon="3.14333">
        <ele>22.73</ele>
        <time>2015-03-08T11:17:38Z</time>
      </trkpt>
      <trkpt lat="50.7555" lon="3.14333">
        <ele>22.25</ele>
        <time>2015-03-08T11:17:45Z</time>
      </trkpt>
      <trkpt lat="50.75548" lon="3.14337">
        <ele>22.73</ele>
        <time>2015-03-08T11:17:51Z</time>
      </trkpt>
      <trkpt lat="50.75541" lon="3.14351">
        <ele>22.25</ele>
        <time>2015-03-08T11:17:58Z</time>
      </trkpt>
      <trkpt lat="50.75536" lon="3.14361">
        <ele>22.25</ele>
        <time>2015-03-08T11:18:04Z</time>
      </trkpt>
      <trkpt lat="50.75524" lon="3.14365">
        <ele>22.73</ele>
        <time>2015-03-08T11:18:12Z</time>
      </trkpt>
      <trkpt lat="50.75516" lon="3.14379">
        <ele>23.21</ele>
        <time>2015-03-08T11:18:18Z</time>
      </trkpt>
      <trkpt lat="50.75506" lon="3.14406">
        <ele>23.21</ele>
        <time>2015-03-08T11:18:25Z</time>
      </trkpt>
      <trkpt lat="50.75496" lon="3.14434">
        <ele>23.69</ele>
        <time>2015-03-08T11:18:32Z</time>
      </trkpt>
      <trkpt lat="50.75488" lon="3.1445">
        <ele>23.21</ele>
        <time>2015-03-08T11:18:38Z</time>
      </trkpt>
      <trkpt lat="50.75487" lon="3.14451">
        <ele>23.69</ele>
        <time>2015-03-08T11:18:39Z</time>
      </trkpt>
      <trkpt lat="50.75471" lon="3.14439">
        <ele>23.21</ele>
        <time>2015-03-08T11:18:45Z</time>
      </trkpt>
      <trkpt lat="50.75443" lon="3.14412">
        <ele>22.73</ele>
        <time>2015-03-08T11:18:54Z</time>
      </trkpt>
      <trkpt lat="50.75425" lon="3.14397">
        <ele>23.21</ele>
        <time>2015-03-08T11:19:01Z</time>
      </trkpt>
      <trkpt lat="50.75401" lon="3.14375">
        <ele>22.73</ele>
        <time>2015-03-08T11:19:09Z</time>
      </trkpt>
      <trkpt lat="50.75391" lon="3.14366">
        <ele>22.73</ele>
        <time>2015-03-08T11:19:12Z</time>
      </trkpt>
      <trkpt lat="50.75387" lon="3.14364">
        <ele>22.73</ele>
        <time>2015-03-08T11:19:13Z</time>
      </trkpt>
      <trkpt lat="50.75383" lon="3.14361">
        <ele>22.73</ele>
        <time>2015-03-08T11:19:14Z</time>
      </trkpt>
      <trkpt lat="50.75379" lon="3.14358">
        <ele>22.73</ele>
        <time>2015-03-08T11:19:15Z</time>
      </trkpt>
      <trkpt lat="50.75376" lon="3.14355">
        <ele>22.25</ele>
        <time>2015-03-08T11:19:16Z</time>
      </trkpt>
      <trkpt lat="50.75372" lon="3.14352">
        <ele>22.25</ele>
        <time>2015-03-08T11:19:17Z</time>
      </trkpt>
      <trkpt lat="50.75368" lon="3.14348">
        <ele>22.73</ele>
        <time>2015-03-08T11:19:18Z</time>
      </trkpt>
      <trkpt lat="50.75357" lon="3.14339">
        <ele>22.73</ele>
        <time>2015-03-08T11:19:21Z</time>
      </trkpt>
      <trkpt lat="50.75354" lon="3.14336">
        <ele>22.73</ele>
        <time>2015-03-08T11:19:22Z</time>
      </trkpt>
      <trkpt lat="50.7535" lon="3.14333">
        <ele>23.21</ele>
        <time>2015-03-08T11:19:23Z</time>
      </trkpt>
      <trkpt lat="50.75346" lon="3.1433">
        <ele>22.73</ele>
        <time>2015-03-08T11:19:24Z</time>
      </trkpt>
      <trkpt lat="50.75343" lon="3.14327">
        <ele>22.73</ele>
        <time>2015-03-08T11:19:25Z</time>
      </trkpt>
      <trkpt lat="50.75309" lon="3.14299">
        <ele>23.21</ele>
        <time>2015-03-08T11:19:34Z</time>
      </trkpt>
      <trkpt lat="50.75299" lon="3.14289">
        <ele>24.17</ele>
        <time>2015-03-08T11:19:37Z</time>
      </trkpt>
      <trkpt lat="50.75281" lon="3.14276">
        <ele>25.13</ele>
        <time>2015-03-08T11:19:43Z</time>
      </trkpt>
      <trkpt lat="50.75275" lon="3.14274">
        <ele>24.65</ele>
        <time>2015-03-08T11:19:48Z</time>
      </trkpt>
      <trkpt lat="50.75274" lon="3.14277">
        <ele>24.65</ele>
        <time>2015-03-08T11:19:49Z</time>
      </trkpt>
      <trkpt lat="50.75273" lon="3.1428">
        <ele>24.65</ele>
        <time>2015-03-08T11:19:50Z</time>
      </trkpt>
      <trkpt lat="50.75272" lon="3.14315">
        <ele>24.17</ele>
        <time>2015-03-08T11:19:57Z</time>
      </trkpt>
      <trkpt lat="50.75271" lon="3.1436">
        <ele>25.13</ele>
        <time>2015-03-08T11:20:05Z</time>
      </trkpt>
      <trkpt lat="50.75271" lon="3.14401">
        <ele>25.13</ele>
        <time>2015-03-08T11:20:12Z</time>
      </trkpt>
      <trkpt lat="50.75273" lon="3.14419">
        <ele>25.61</ele>
        <time>2015-03-08T11:20:15Z</time>
      </trkpt>
      <trkpt lat="50.75275" lon="3.14425">
        <ele>25.61</ele>
        <time>2015-03-08T11:20:16Z</time>
      </trkpt>
      <trkpt lat="50.75289" lon="3.14476">
        <ele>24.65</ele>
        <time>2015-03-08T11:20:24Z</time>
      </trkpt>
      <trkpt lat="50.75298" lon="3.14511">
        <ele>24.65</ele>
        <time>2015-03-08T11:20:29Z</time>
      </trkpt>
      <trkpt lat="50.75324" lon="3.14577">
        <ele>24.65</ele>
        <time>2015-03-08T11:20:38Z</time>
      </trkpt>
      <trkpt lat="50.75351" lon="3.14651">
        <ele>23.69</ele>
        <time>2015-03-08T11:20:48Z</time>
      </trkpt>
      <trkpt lat="50.75358" lon="3.1467">
        <ele>23.69</ele>
        <time>2015-03-08T11:20:51Z</time>
      </trkpt>
      <trkpt lat="50.75378" lon="3.14702">
        <ele>23.21</ele>
        <time>2015-03-08T11:20:58Z</time>
      </trkpt>
      <trkpt lat="50.75392" lon="3.14737">
        <ele>23.21</ele>
        <time>2015-03-08T11:21:05Z</time>
      </trkpt>
      <trkpt lat="50.75419" lon="3.14762">
        <ele>24.65</ele>
        <time>2015-03-08T11:21:13Z</time>
      </trkpt>
      <trkpt lat="50.75437" lon="3.14777">
        <ele>24.17</ele>
        <time>2015-03-08T11:21:18Z</time>
      </trkpt>
      <trkpt lat="50.75441" lon="3.1478">
        <ele>24.17</ele>
        <time>2015-03-08T11:21:19Z</time>
      </trkpt>
      <trkpt lat="50.75444" lon="3.14783">
        <ele>24.17</ele>
        <time>2015-03-08T11:21:20Z</time>
      </trkpt>
      <trkpt lat="50.75448" lon="3.14786">
        <ele>24.17</ele>
        <time>2015-03-08T11:21:21Z</time>
      </trkpt>
      <trkpt lat="50.75451" lon="3.1479">
        <ele>24.17</ele>
        <time>2015-03-08T11:21:22Z</time>
      </trkpt>
      <trkpt lat="50.75455" lon="3.14793">
        <ele>24.17</ele>
        <time>2015-03-08T11:21:23Z</time>
      </trkpt>
      <trkpt lat="50.75457" lon="3.14796">
        <ele>24.17</ele>
        <time>2015-03-08T11:21:24Z</time>
      </trkpt>
      <trkpt lat="50.7546" lon="3.14798">
        <ele>24.17</ele>
        <time>2015-03-08T11:21:25Z</time>
      </trkpt>
      <trkpt lat="50.75463" lon="3.14801">
        <ele>24.65</ele>
        <time>2015-03-08T11:21:26Z</time>
      </trkpt>
      <trkpt lat="50.75465" lon="3.14804">
        <ele>24.65</ele>
        <time>2015-03-08T11:21:27Z</time>
      </trkpt>
      <trkpt lat="50.75468" lon="3.14807">
        <ele>24.65</ele>
        <time>2015-03-08T11:21:28Z</time>
      </trkpt>
      <trkpt lat="50.7547" lon="3.1481">
        <ele>24.65</ele>
        <time>2015-03-08T11:21:29Z</time>
      </trkpt>
      <trkpt lat="50.75481" lon="3.14824">
        <ele>25.13</ele>
        <time>2015-03-08T11:21:34Z</time>
      </trkpt>
      <trkpt lat="50.75482" lon="3.14828">
        <ele>25.13</ele>
        <time>2015-03-08T11:21:35Z</time>
      </trkpt>
      <trkpt lat="50.75484" lon="3.14832">
        <ele>25.13</ele>
        <time>2015-03-08T11:21:36Z</time>
      </trkpt>
      <trkpt lat="50.75491" lon="3.14842">
        <ele>25.61</ele>
        <time>2015-03-08T11:21:39Z</time>
      </trkpt>
      <trkpt lat="50.75494" lon="3.14843">
        <ele>25.61</ele>
        <time>2015-03-08T11:21:40Z</time>
      </trkpt>
      <trkpt lat="50.75497" lon="3.14845">
        <ele>26.09</ele>
        <time>2015-03-08T11:21:41Z</time>
      </trkpt>
      <trkpt lat="50.75499" lon="3.14847">
        <ele>26.09</ele>
        <time>2015-03-08T11:21:42Z</time>
      </trkpt>
      <trkpt lat="50.755" lon="3.1485">
        <ele>26.09</ele>
        <time>2015-03-08T11:21:43Z</time>
      </trkpt>
      <trkpt lat="50.75499" lon="3.14852">
        <ele>26.57</ele>
        <time>2015-03-08T11:21:44Z</time>
      </trkpt>
      <trkpt lat="50.75498" lon="3.14853">
        <ele>26.57</ele>
        <time>2015-03-08T11:21:45Z</time>
      </trkpt>
      <trkpt lat="50.75497" lon="3.14854">
        <ele>26.57</ele>
        <time>2015-03-08T11:21:46Z</time>
      </trkpt>
      <trkpt lat="50.75478" lon="3.14865">
        <ele>26.57</ele>
        <time>2015-03-08T11:21:55Z</time>
      </trkpt>
      <trkpt lat="50.7545" lon="3.14882">
        <ele>27.05</ele>
        <time>2015-03-08T11:22:00Z</time>
      </trkpt>
      <trkpt lat="50.75443" lon="3.14893">
        <ele>27.53</ele>
        <time>2015-03-08T11:22:02Z</time>
      </trkpt>
      <trkpt lat="50.75443" lon="3.14899">
        <ele>27.53</ele>
        <time>2015-03-08T11:22:03Z</time>
      </trkpt>
      <trkpt lat="50.75444" lon="3.14904">
        <ele>27.53</ele>
        <time>2015-03-08T11:22:04Z</time>
      </trkpt>
      <trkpt lat="50.75446" lon="3.14907">
        <ele>27.05</ele>
        <time>2015-03-08T11:22:05Z</time>
      </trkpt>
      <trkpt lat="50.75449" lon="3.14908">
        <ele>27.05</ele>
        <time>2015-03-08T11:22:06Z</time>
      </trkpt>
      <trkpt lat="50.75451" lon="3.14909">
        <ele>27.05</ele>
        <time>2015-03-08T11:22:07Z</time>
      </trkpt>
      <trkpt lat="50.75454" lon="3.14909">
        <ele>27.53</ele>
        <time>2015-03-08T11:22:08Z</time>
      </trkpt>
      <trkpt lat="50.75455" lon="3.14908">
        <ele>27.53</ele>
        <time>2015-03-08T11:22:09Z</time>
      </trkpt>
      <trkpt lat="50.75457" lon="3.14908">
        <ele>27.53</ele>
        <time>2015-03-08T11:22:10Z</time>
      </trkpt>
      <trkpt lat="50.7546" lon="3.14908">
        <ele>27.53</ele>
        <time>2015-03-08T11:22:11Z</time>
      </trkpt>
      <trkpt lat="50.75463" lon="3.14909">
        <ele>27.05</ele>
        <time>2015-03-08T11:22:12Z</time>
      </trkpt>
      <trkpt lat="50.75466" lon="3.14911">
        <ele>27.05</ele>
        <time>2015-03-08T11:22:13Z</time>
      </trkpt>
      <trkpt lat="50.75487" lon="3.14934">
        <ele>26.09</ele>
        <time>2015-03-08T11:22:20Z</time>
      </trkpt>
      <trkpt lat="50.75495" lon="3.14947">
        <ele>25.13</ele>
        <time>2015-03-08T11:22:23Z</time>
      </trkpt>
      <trkpt lat="50.7551" lon="3.14974">
        <ele>23.21</ele>
        <time>2015-03-08T11:22:29Z</time>
      </trkpt>
      <trkpt lat="50.75524" lon="3.15">
        <ele>22.25</ele>
        <time>2015-03-08T11:22:34Z</time>
      </trkpt>
      <trkpt lat="50.75543" lon="3.15036">
        <ele>22.25</ele>
        <time>2015-03-08T11:22:40Z</time>
      </trkpt>
      <trkpt lat="50.7555" lon="3.15045">
        <ele>22.25</ele>
        <time>2015-03-08T11:22:42Z</time>
      </trkpt>
      <trkpt lat="50.75579" lon="3.15078">
        <ele>24.65</ele>
        <time>2015-03-08T11:22:51Z</time>
      </trkpt>
      <trkpt lat="50.75596" lon="3.15095">
        <ele>25.61</ele>
        <time>2015-03-08T11:22:56Z</time>
      </trkpt>
      <trkpt lat="50.75616" lon="3.15118">
        <ele>26.09</ele>
        <time>2015-03-08T11:23:02Z</time>
      </trkpt>
      <trkpt lat="50.75623" lon="3.15126">
        <ele>26.57</ele>
        <time>2015-03-08T11:23:04Z</time>
      </trkpt>
      <trkpt lat="50.75648" lon="3.15154">
        <ele>27.53</ele>
        <time>2015-03-08T11:23:11Z</time>
      </trkpt>
      <trkpt lat="50.75675" lon="3.15183">
        <ele>28.02</ele>
        <time>2015-03-08T11:23:18Z</time>
      </trkpt>
      <trkpt lat="50.75697" lon="3.15209">
        <ele>28.02</ele>
        <time>2015-03-08T11:23:25Z</time>
      </trkpt>
      <trkpt lat="50.75719" lon="3.15232">
        <ele>28.5</ele>
        <time>2015-03-08T11:23:31Z</time>
      </trkpt>
      <trkpt lat="50.75736" lon="3.15251">
        <ele>28.98</ele>
        <time>2015-03-08T11:23:36Z</time>
      </trkpt>
      <trkpt lat="50.75746" lon="3.15263">
        <ele>28.98</ele>
        <time>2015-03-08T11:23:39Z</time>
      </trkpt>
      <trkpt lat="50.75778" lon="3.15297">
        <ele>30.42</ele>
        <time>2015-03-08T11:23:48Z</time>
      </trkpt>
      <trkpt lat="50.75804" lon="3.15319">
        <ele>30.9</ele>
        <time>2015-03-08T11:23:56Z</time>
      </trkpt>
      <trkpt lat="50.75832" lon="3.15339">
        <ele>31.38</ele>
        <time>2015-03-08T11:24:04Z</time>
      </trkpt>
      <trkpt lat="50.75859" lon="3.15357">
        <ele>32.82</ele>
        <time>2015-03-08T11:24:12Z</time>
      </trkpt>
      <trkpt lat="50.75884" lon="3.15381">
        <ele>34.26</ele>
        <time>2015-03-08T11:24:21Z</time>
      </trkpt>
      <trkpt lat="50.75887" lon="3.15384">
        <ele>34.74</ele>
        <time>2015-03-08T11:24:22Z</time>
      </trkpt>
      <trkpt lat="50.75899" lon="3.15399">
        <ele>38.11</ele>
        <time>2015-03-08T11:24:28Z</time>
      </trkpt>
      <trkpt lat="50.75913" lon="3.15419">
        <ele>38.59</ele>
        <time>2015-03-08T11:24:35Z</time>
      </trkpt>
      <trkpt lat="50.75917" lon="3.15428">
        <ele>38.11</ele>
        <time>2015-03-08T11:24:38Z</time>
      </trkpt>
      <trkpt lat="50.75928" lon="3.15445">
        <ele>38.11</ele>
        <time>2015-03-08T11:24:44Z</time>
      </trkpt>
      <trkpt lat="50.75937" lon="3.1546">
        <ele>38.11</ele>
        <time>2015-03-08T11:24:49Z</time>
      </trkpt>
      <trkpt lat="50.75938" lon="3.15476">
        <ele>37.63</ele>
        <time>2015-03-08T11:24:53Z</time>
      </trkpt>
      <trkpt lat="50.75932" lon="3.15489">
        <ele>37.15</ele>
        <time>2015-03-08T11:24:56Z</time>
      </trkpt>
      <trkpt lat="50.75928" lon="3.15492">
        <ele>37.15</ele>
        <time>2015-03-08T11:24:57Z</time>
      </trkpt>
      <trkpt lat="50.75923" lon="3.15496">
        <ele>36.67</ele>
        <time>2015-03-08T11:24:58Z</time>
      </trkpt>
      <trkpt lat="50.75889" lon="3.15517">
        <ele>34.26</ele>
        <time>2015-03-08T11:25:04Z</time>
      </trkpt>
      <trkpt lat="50.75864" lon="3.15528">
        <ele>33.3</ele>
        <time>2015-03-08T11:25:08Z</time>
      </trkpt>
      <trkpt lat="50.75837" lon="3.1554">
        <ele>32.34</ele>
        <time>2015-03-08T11:25:12Z</time>
      </trkpt>
      <trkpt lat="50.75804" lon="3.15556">
        <ele>30.42</ele>
        <time>2015-03-08T11:25:17Z</time>
      </trkpt>
      <trkpt lat="50.75797" lon="3.15559">
        <ele>30.42</ele>
        <time>2015-03-08T11:25:18Z</time>
      </trkpt>
      <trkpt lat="50.7575" lon="3.15578">
        <ele>29.46</ele>
        <time>2015-03-08T11:25:25Z</time>
      </trkpt>
      <trkpt lat="50.75694" lon="3.15603">
        <ele>27.53</ele>
        <time>2015-03-08T11:25:33Z</time>
      </trkpt>
      <trkpt lat="50.75637" lon="3.15629">
        <ele>26.09</ele>
        <time>2015-03-08T11:25:41Z</time>
      </trkpt>
      <trkpt lat="50.75578" lon="3.15657">
        <ele>24.65</ele>
        <time>2015-03-08T11:25:50Z</time>
      </trkpt>
      <trkpt lat="50.75531" lon="3.15679">
        <ele>24.17</ele>
        <time>2015-03-08T11:25:58Z</time>
      </trkpt>
      <trkpt lat="50.7549" lon="3.15699">
        <ele>23.69</ele>
        <time>2015-03-08T11:26:06Z</time>
      </trkpt>
      <trkpt lat="50.75477" lon="3.15707">
        <ele>24.17</ele>
        <time>2015-03-08T11:26:11Z</time>
      </trkpt>
      <trkpt lat="50.75474" lon="3.15705">
        <ele>24.65</ele>
        <time>2015-03-08T11:26:12Z</time>
      </trkpt>
      <trkpt lat="50.75454" lon="3.15691">
        <ele>24.65</ele>
        <time>2015-03-08T11:26:19Z</time>
      </trkpt>
      <trkpt lat="50.75427" lon="3.15676">
        <ele>24.65</ele>
        <time>2015-03-08T11:26:27Z</time>
      </trkpt>
      <trkpt lat="50.75411" lon="3.15697">
        <ele>25.13</ele>
        <time>2015-03-08T11:26:33Z</time>
      </trkpt>
      <trkpt lat="50.75395" lon="3.15736">
        <ele>26.09</ele>
        <time>2015-03-08T11:26:41Z</time>
      </trkpt>
      <trkpt lat="50.75378" lon="3.1578">
        <ele>26.09</ele>
        <time>2015-03-08T11:26:49Z</time>
      </trkpt>
      <trkpt lat="50.75356" lon="3.15835">
        <ele>26.09</ele>
        <time>2015-03-08T11:26:59Z</time>
      </trkpt>
      <trkpt lat="50.75353" lon="3.15839">
        <ele>26.09</ele>
        <time>2015-03-08T11:27:00Z</time>
      </trkpt>
      <trkpt lat="50.75338" lon="3.15857">
        <ele>26.57</ele>
        <time>2015-03-08T11:27:04Z</time>
      </trkpt>
      <trkpt lat="50.75303" lon="3.1589">
        <ele>29.46</ele>
        <time>2015-03-08T11:27:13Z</time>
      </trkpt>
      <trkpt lat="50.75272" lon="3.1592">
        <ele>28.98</ele>
        <time>2015-03-08T11:27:21Z</time>
      </trkpt>
      <trkpt lat="50.75236" lon="3.15952">
        <ele>29.46</ele>
        <time>2015-03-08T11:27:30Z</time>
      </trkpt>
      <trkpt lat="50.75213" lon="3.1597">
        <ele>30.42</ele>
        <time>2015-03-08T11:27:36Z</time>
      </trkpt>
      <trkpt lat="50.75209" lon="3.15969">
        <ele>30.9</ele>
        <time>2015-03-08T11:27:37Z</time>
      </trkpt>
      <trkpt lat="50.75206" lon="3.15965">
        <ele>31.38</ele>
        <time>2015-03-08T11:27:38Z</time>
      </trkpt>
      <trkpt lat="50.75204" lon="3.15959">
        <ele>31.38</ele>
        <time>2015-03-08T11:27:39Z</time>
      </trkpt>
      <trkpt lat="50.75202" lon="3.15953">
        <ele>31.38</ele>
        <time>2015-03-08T11:27:40Z</time>
      </trkpt>
      <trkpt lat="50.752" lon="3.15948">
        <ele>31.38</ele>
        <time>2015-03-08T11:27:41Z</time>
      </trkpt>
      <trkpt lat="50.75197" lon="3.15943">
        <ele>30.9</ele>
        <time>2015-03-08T11:27:42Z</time>
      </trkpt>
      <trkpt lat="50.75191" lon="3.15937">
        <ele>30.9</ele>
        <time>2015-03-08T11:27:44Z</time>
      </trkpt>
      <trkpt lat="50.75187" lon="3.15936">
        <ele>31.38</ele>
        <time>2015-03-08T11:27:45Z</time>
      </trkpt>
      <trkpt lat="50.75183" lon="3.15937">
        <ele>31.38</ele>
        <time>2015-03-08T11:27:46Z</time>
      </trkpt>
      <trkpt lat="50.75179" lon="3.15939">
        <ele>31.38</ele>
        <time>2015-03-08T11:27:47Z</time>
      </trkpt>
      <trkpt lat="50.75176" lon="3.15942">
        <ele>31.38</ele>
        <time>2015-03-08T11:27:48Z</time>
      </trkpt>
      <trkpt lat="50.75172" lon="3.15945">
        <ele>31.38</ele>
        <time>2015-03-08T11:27:49Z</time>
      </trkpt>
      <trkpt lat="50.75168" lon="3.15948">
        <ele>31.38</ele>
        <time>2015-03-08T11:27:50Z</time>
      </trkpt>
      <trkpt lat="50.75161" lon="3.15955">
        <ele>31.38</ele>
        <time>2015-03-08T11:27:52Z</time>
      </trkpt>
      <trkpt lat="50.75132" lon="3.15981">
        <ele>32.34</ele>
        <time>2015-03-08T11:28:00Z</time>
      </trkpt>
      <trkpt lat="50.75121" lon="3.15992">
        <ele>32.82</ele>
        <time>2015-03-08T11:28:03Z</time>
      </trkpt>
      <trkpt lat="50.75116" lon="3.15994">
        <ele>32.82</ele>
        <time>2015-03-08T11:28:04Z</time>
      </trkpt>
      <trkpt lat="50.75112" lon="3.15994">
        <ele>32.82</ele>
        <time>2015-03-08T11:28:05Z</time>
      </trkpt>
      <trkpt lat="50.75108" lon="3.15994">
        <ele>32.82</ele>
        <time>2015-03-08T11:28:06Z</time>
      </trkpt>
      <trkpt lat="50.75104" lon="3.15993">
        <ele>32.82</ele>
        <time>2015-03-08T11:28:07Z</time>
      </trkpt>
      <trkpt lat="50.75076" lon="3.16003">
        <ele>32.82</ele>
        <time>2015-03-08T11:28:15Z</time>
      </trkpt>
      <trkpt lat="50.75049" lon="3.16028">
        <ele>33.3</ele>
        <time>2015-03-08T11:28:23Z</time>
      </trkpt>
      <trkpt lat="50.75034" lon="3.16037">
        <ele>32.82</ele>
        <time>2015-03-08T11:28:27Z</time>
      </trkpt>
      <trkpt lat="50.75031" lon="3.16034">
        <ele>32.82</ele>
        <time>2015-03-08T11:28:28Z</time>
      </trkpt>
      <trkpt lat="50.75028" lon="3.1603">
        <ele>32.82</ele>
        <time>2015-03-08T11:28:29Z</time>
      </trkpt>
      <trkpt lat="50.75026" lon="3.16025">
        <ele>32.82</ele>
        <time>2015-03-08T11:28:30Z</time>
      </trkpt>
      <trkpt lat="50.75024" lon="3.16019">
        <ele>32.82</ele>
        <time>2015-03-08T11:28:31Z</time>
      </trkpt>
      <trkpt lat="50.75022" lon="3.16014">
        <ele>32.82</ele>
        <time>2015-03-08T11:28:32Z</time>
      </trkpt>
      <trkpt lat="50.75007" lon="3.15974">
        <ele>33.3</ele>
        <time>2015-03-08T11:28:40Z</time>
      </trkpt>
      <trkpt lat="50.74989" lon="3.15931">
        <ele>34.26</ele>
        <time>2015-03-08T11:28:49Z</time>
      </trkpt>
      <trkpt lat="50.74974" lon="3.15932">
        <ele>35.23</ele>
        <time>2015-03-08T11:28:54Z</time>
      </trkpt>
      <trkpt lat="50.74961" lon="3.15958">
        <ele>34.74</ele>
        <time>2015-03-08T11:29:00Z</time>
      </trkpt>
      <trkpt lat="50.74944" lon="3.16009">
        <ele>35.23</ele>
        <time>2015-03-08T11:29:09Z</time>
      </trkpt>
      <trkpt lat="50.7493" lon="3.1604">
        <ele>35.71</ele>
        <time>2015-03-08T11:29:16Z</time>
      </trkpt>
      <trkpt lat="50.74922" lon="3.16067">
        <ele>36.19</ele>
        <time>2015-03-08T11:29:23Z</time>
      </trkpt>
      <trkpt lat="50.74916" lon="3.16086">
        <ele>35.71</ele>
        <time>2015-03-08T11:29:30Z</time>
      </trkpt>
      <trkpt lat="50.74916" lon="3.16106">
        <ele>35.23</ele>
        <time>2015-03-08T11:29:35Z</time>
      </trkpt>
      <trkpt lat="50.74916" lon="3.16111">
        <ele>35.23</ele>
        <time>2015-03-08T11:29:41Z</time>
      </trkpt>
      <trkpt lat="50.74917" lon="3.16106">
        <ele>33.78</ele>
        <time>2015-03-08T11:29:48Z</time>
      </trkpt>
      <trkpt lat="50.74921" lon="3.16099">
        <ele>34.26</ele>
        <time>2015-03-08T11:29:55Z</time>
      </trkpt>
      <trkpt lat="50.74923" lon="3.1609">
        <ele>33.3</ele>
        <time>2015-03-08T11:30:03Z</time>
      </trkpt>
      <trkpt lat="50.74928" lon="3.16078">
        <ele>31.86</ele>
        <time>2015-03-08T11:30:13Z</time>
      </trkpt>
      <trkpt lat="50.74931" lon="3.1607">
        <ele>31.86</ele>
        <time>2015-03-08T11:30:19Z</time>
      </trkpt>
      <trkpt lat="50.74935" lon="3.16061">
        <ele>31.38</ele>
        <time>2015-03-08T11:30:27Z</time>
      </trkpt>
      <trkpt lat="50.74939" lon="3.16052">
        <ele>31.86</ele>
        <time>2015-03-08T11:30:35Z</time>
      </trkpt>
      <trkpt lat="50.74938" lon="3.16054">
        <ele>33.78</ele>
        <time>2015-03-08T11:30:46Z</time>
      </trkpt>
      <trkpt lat="50.74938" lon="3.16054">
        <ele>34.74</ele>
        <time>2015-03-08T11:31:04Z</time>
      </trkpt>
      <trkpt lat="50.74939" lon="3.16052">
        <ele>34.74</ele>
        <time>2015-03-08T11:31:21Z</time>
      </trkpt>
      <trkpt lat="50.74939" lon="3.16051">
        <ele>33.3</ele>
        <time>2015-03-08T11:31:41Z</time>
      </trkpt>
      <trkpt lat="50.74939" lon="3.1605">
        <ele>32.82</ele>
        <time>2015-03-08T11:32:00Z</time>
      </trkpt>
      <trkpt lat="50.74938" lon="3.16051">
        <ele>33.3</ele>
        <time>2015-03-08T11:32:21Z</time>
      </trkpt>
      <trkpt lat="50.74937" lon="3.1605">
        <ele>32.34</ele>
        <time>2015-03-08T11:32:38Z</time>
      </trkpt>
      <trkpt lat="50.74936" lon="3.16049">
        <ele>31.38</ele>
        <time>2015-03-08T11:32:59Z</time>
      </trkpt>
      <trkpt lat="50.74936" lon="3.16049">
        <ele>29.46</ele>
        <time>2015-03-08T11:33:18Z</time>
      </trkpt>
      <trkpt lat="50.74936" lon="3.1605">
        <ele>31.38</ele>
        <time>2015-03-08T11:33:43Z</time>
      </trkpt>
      <trkpt lat="50.74937" lon="3.16051">
        <ele>32.34</ele>
        <time>2015-03-08T11:34:05Z</time>
      </trkpt>
      <trkpt lat="50.74937" lon="3.16052">
        <ele>29.94</ele>
        <time>2015-03-08T11:34:27Z</time>
      </trkpt>
      <trkpt lat="50.74938" lon="3.16051">
        <ele>30.42</ele>
        <time>2015-03-08T11:34:54Z</time>
      </trkpt>
      <trkpt lat="50.74939" lon="3.16052">
        <ele>30.42</ele>
        <time>2015-03-08T11:35:15Z</time>
      </trkpt>
      <trkpt lat="50.74939" lon="3.16053">
        <ele>31.86</ele>
        <time>2015-03-08T11:35:38Z</time>
      </trkpt>
      <trkpt lat="50.74941" lon="3.16054">
        <ele>32.34</ele>
        <time>2015-03-08T11:36:01Z</time>
      </trkpt>
      <trkpt lat="50.74942" lon="3.16055">
        <ele>35.23</ele>
        <time>2015-03-08T11:36:22Z</time>
      </trkpt>
      <trkpt lat="50.74942" lon="3.16055">
        <ele>36.67</ele>
        <time>2015-03-08T11:36:44Z</time>
      </trkpt>
      <trkpt lat="50.7494" lon="3.16055">
        <ele>37.63</ele>
        <time>2015-03-08T11:37:05Z</time>
      </trkpt>
      <trkpt lat="50.7494" lon="3.16054">
        <ele>37.63</ele>
        <time>2015-03-08T11:37:11Z</time>
      </trkpt>
      <trkpt lat="50.7494" lon="3.16054">
        <ele>36.19</ele>
        <time>2015-03-08T11:37:28Z</time>
      </trkpt>
      <trkpt lat="50.7494" lon="3.16054">
        <ele>36.19</ele>
        <time>2015-03-08T11:37:45Z</time>
      </trkpt>
      <trkpt lat="50.7494" lon="3.16053">
        <ele>35.71</ele>
        <time>2015-03-08T11:37:57Z</time>
      </trkpt>
      <trkpt lat="50.74939" lon="3.16053">
        <ele>34.74</ele>
        <time>2015-03-08T11:38:21Z</time>
      </trkpt>
      <trkpt lat="50.74939" lon="3.16053">
        <ele>35.71</ele>
        <time>2015-03-08T11:38:44Z</time>
      </trkpt>
      <trkpt lat="50.74939" lon="3.16051">
        <ele>35.71</ele>
        <time>2015-03-08T11:39:05Z</time>
      </trkpt>
      <trkpt lat="50.74939" lon="3.16049">
        <ele>35.71</ele>
        <time>2015-03-08T11:39:25Z</time>
      </trkpt>
      <trkpt lat="50.74939" lon="3.16047">
        <ele>35.71</ele>
        <time>2015-03-08T11:39:46Z</time>
      </trkpt>
      <trkpt lat="50.7494" lon="3.16048">
        <ele>37.63</ele>
        <time>2015-03-08T11:40:06Z</time>
      </trkpt>
      <trkpt lat="50.74939" lon="3.16047">
        <ele>35.71</ele>
        <time>2015-03-08T11:40:32Z</time>
      </trkpt>
      <trkpt lat="50.74939" lon="3.16048">
        <ele>36.19</ele>
        <time>2015-03-08T11:40:55Z</time>
      </trkpt>
      <trkpt lat="50.74939" lon="3.16048">
        <ele>37.15</ele>
        <time>2015-03-08T11:41:18Z</time>
      </trkpt>
      <trkpt lat="50.74939" lon="3.16047">
        <ele>37.15</ele>
        <time>2015-03-08T11:41:37Z</time>
      </trkpt>
      <trkpt lat="50.7494" lon="3.16049">
        <ele>37.63</ele>
        <time>2015-03-08T11:42:00Z</time>
      </trkpt>
      <trkpt lat="50.74941" lon="3.16049">
        <ele>39.07</ele>
        <time>2015-03-08T11:42:20Z</time>
      </trkpt>
      <trkpt lat="50.74941" lon="3.16049">
        <ele>38.59</ele>
        <time>2015-03-08T11:42:41Z</time>
      </trkpt>
      <trkpt lat="50.74941" lon="3.16049">
        <ele>38.11</ele>
        <time>2015-03-08T11:42:53Z</time>
      </trkpt>
      <trkpt lat="50.74941" lon="3.1605">
        <ele>37.15</ele>
        <time>2015-03-08T11:42:58Z</time>
      </trkpt>
      <trkpt lat="50.74941" lon="3.16054">
        <ele>36.67</ele>
        <time>2015-03-08T11:43:07Z</time>
      </trkpt>
      <trkpt lat="50.74941" lon="3.16056">
        <ele>36.67</ele>
        <time>2015-03-08T11:43:20Z</time>
      </trkpt>
      <trkpt lat="50.7494" lon="3.16056">
        <ele>36.67</ele>
        <time>2015-03-08T11:43:40Z</time>
      </trkpt>
      <trkpt lat="50.7494" lon="3.16056">
        <ele>36.67</ele>
        <time>2015-03-08T11:43:42Z</time>
      </trkpt>
      <trkpt lat="50.7494" lon="3.16058">
        <ele>37.15</ele>
        <time>2015-03-08T11:43:58Z</time>
      </trkpt>
      <trkpt lat="50.74942" lon="3.16062">
        <ele>37.63</ele>
        <time>2015-03-08T11:44:06Z</time>
      </trkpt>
      <trkpt lat="50.74942" lon="3.16062">
        <ele>37.63</ele>
        <time>2015-03-08T11:44:17Z</time>
      </trkpt>
      <trkpt lat="50.74942" lon="3.16061">
        <ele>37.63</ele>
        <time>2015-03-08T11:44:29Z</time>
      </trkpt>
    </trkseg>
  </trk>
</gpx>